<?xml version="1.0" encoding="UTF-8"?>
<gpx  version="1.1"  creator="Verlag Esterbauer" xmlns:xsi="http://www.w3.org/2001/XMLSchema-instance" xmlns="http://www.topografix.com/GPX/1/1"  xsi:schemaLocation="http://www.topografix.com/GPX/1/1 http://www.topografix.com/GPX/1/1/gpx.xsd">
<metadata>
  <time>2016-07-14T06:57:48Z</time>
</metadata>
<trk>
  <name>bodensee</name>
  <trkseg>
    <trkpt lat="47.503233" lon="9.739558">
    <ele>400</ele>
    <time>2016-07-30T23:00:02Z</time>
    </trkpt>
    <trkpt lat="47.503443" lon="9.739397">
    <ele>400</ele>
    <time>2016-07-30T23:00:08Z</time>
    </trkpt>
    <trkpt lat="47.504111" lon="9.739291">
    <ele>400</ele>
    <time>2016-07-30T23:00:24Z</time>
    </trkpt>
    <trkpt lat="47.504179" lon="9.738216">
    <ele>400</ele>
    <time>2016-07-30T23:00:41Z</time>
    </trkpt>
    <trkpt lat="47.504119" lon="9.737253">
    <ele>401</ele>
    <time>2016-07-30T23:00:56Z</time>
    </trkpt>
    <trkpt lat="47.50401" lon="9.737101">
    <ele>401</ele>
    <time>2016-07-30T23:01:00Z</time>
    </trkpt>
    <trkpt lat="47.504099" lon="9.736444">
    <ele>401</ele>
    <time>2016-07-30T23:01:11Z</time>
    </trkpt>
    <trkpt lat="47.504211" lon="9.735531">
    <ele>400</ele>
    <time>2016-07-30T23:01:25Z</time>
    </trkpt>
    <trkpt lat="47.504297" lon="9.735534">
    <ele>400</ele>
    <time>2016-07-30T23:01:27Z</time>
    </trkpt>
    <trkpt lat="47.503939" lon="9.73549">
    <ele>400</ele>
    <time>2016-07-30T23:01:36Z</time>
    </trkpt>
    <trkpt lat="47.504156" lon="9.734316">
    <ele>399</ele>
    <time>2016-07-30T23:01:55Z</time>
    </trkpt>
    <trkpt lat="47.50475" lon="9.734047">
    <ele>399</ele>
    <time>2016-07-30T23:02:10Z</time>
    </trkpt>
    <trkpt lat="47.505185" lon="9.732929">
    <ele>399</ele>
    <time>2016-07-30T23:02:30Z</time>
    </trkpt>
    <trkpt lat="47.505506" lon="9.732116">
    <ele>399</ele>
    <time>2016-07-30T23:02:45Z</time>
    </trkpt>
    <trkpt lat="47.505773" lon="9.730182">
    <ele>398</ele>
    <time>2016-07-30T23:03:17Z</time>
    </trkpt>
    <trkpt lat="47.50569" lon="9.72942">
    <ele>398</ele>
    <time>2016-07-30T23:03:29Z</time>
    </trkpt>
    <trkpt lat="47.50536" lon="9.729166">
    <ele>398</ele>
    <time>2016-07-30T23:03:38Z</time>
    </trkpt>
    <trkpt lat="47.505601" lon="9.728748">
    <ele>398</ele>
    <time>2016-07-30T23:03:47Z</time>
    </trkpt>
    <trkpt lat="47.505831" lon="9.728435">
    <ele>398</ele>
    <time>2016-07-30T23:03:54Z</time>
    </trkpt>
    <trkpt lat="47.505865" lon="9.728323">
    <ele>398</ele>
    <time>2016-07-30T23:03:56Z</time>
    </trkpt>
    <trkpt lat="47.506018" lon="9.726573">
    <ele>398</ele>
    <time>2016-07-30T23:04:24Z</time>
    </trkpt>
    <trkpt lat="47.506116" lon="9.724911">
    <ele>398</ele>
    <time>2016-07-30T23:04:51Z</time>
    </trkpt>
    <trkpt lat="47.506125" lon="9.724812">
    <ele>398</ele>
    <time>2016-07-30T23:04:52Z</time>
    </trkpt>
    <trkpt lat="47.506093" lon="9.722256">
    <ele>398</ele>
    <time>2016-07-30T23:05:33Z</time>
    </trkpt>
    <trkpt lat="47.506059" lon="9.721553">
    <ele>399</ele>
    <time>2016-07-30T23:05:44Z</time>
    </trkpt>
    <trkpt lat="47.506064" lon="9.721525">
    <ele>399</ele>
    <time>2016-07-30T23:05:45Z</time>
    </trkpt>
    <trkpt lat="47.505899" lon="9.721">
    <ele>399</ele>
    <time>2016-07-30T23:05:54Z</time>
    </trkpt>
    <trkpt lat="47.505766" lon="9.720506">
    <ele>399</ele>
    <time>2016-07-30T23:06:03Z</time>
    </trkpt>
    <trkpt lat="47.506011" lon="9.719287">
    <ele>399</ele>
    <time>2016-07-30T23:06:23Z</time>
    </trkpt>
    <trkpt lat="47.505824" lon="9.71803">
    <ele>400</ele>
    <time>2016-07-30T23:06:43Z</time>
    </trkpt>
    <trkpt lat="47.505728" lon="9.716572">
    <ele>400</ele>
    <time>2016-07-30T23:07:07Z</time>
    </trkpt>
    <trkpt lat="47.505724" lon="9.715413">
    <ele>400</ele>
    <time>2016-07-30T23:07:25Z</time>
    </trkpt>
    <trkpt lat="47.505873" lon="9.713045">
    <ele>400</ele>
    <time>2016-07-30T23:08:03Z</time>
    </trkpt>
    <trkpt lat="47.505802" lon="9.711463">
    <ele>400</ele>
    <time>2016-07-30T23:08:29Z</time>
    </trkpt>
    <trkpt lat="47.505572" lon="9.70854">
    <ele>399</ele>
    <time>2016-07-30T23:09:15Z</time>
    </trkpt>
    <trkpt lat="47.505354" lon="9.706045">
    <ele>399</ele>
    <time>2016-07-30T23:09:56Z</time>
    </trkpt>
    <trkpt lat="47.505307" lon="9.704743">
    <ele>399</ele>
    <time>2016-07-30T23:10:16Z</time>
    </trkpt>
    <trkpt lat="47.505292" lon="9.704161">
    <ele>399</ele>
    <time>2016-07-30T23:10:26Z</time>
    </trkpt>
    <trkpt lat="47.505095" lon="9.703019">
    <ele>399</ele>
    <time>2016-07-30T23:10:44Z</time>
    </trkpt>
    <trkpt lat="47.504824" lon="9.701578">
    <ele>399</ele>
    <time>2016-07-30T23:11:08Z</time>
    </trkpt>
    <trkpt lat="47.504766" lon="9.701307">
    <ele>399</ele>
    <time>2016-07-30T23:11:13Z</time>
    </trkpt>
    <trkpt lat="47.504487" lon="9.70117">
    <ele>399</ele>
    <time>2016-07-30T23:11:20Z</time>
    </trkpt>
    <trkpt lat="47.504388" lon="9.701162">
    <ele>399</ele>
    <time>2016-07-30T23:11:22Z</time>
    </trkpt>
    <trkpt lat="47.502703" lon="9.702733">
    <ele>400</ele>
    <time>2016-07-30T23:12:09Z</time>
    </trkpt>
    <trkpt lat="47.502523" lon="9.702878">
    <ele>400</ele>
    <time>2016-07-30T23:12:14Z</time>
    </trkpt>
    <trkpt lat="47.501168" lon="9.70403">
    <ele>401</ele>
    <time>2016-07-30T23:12:51Z</time>
    </trkpt>
    <trkpt lat="47.500548" lon="9.704635">
    <ele>401</ele>
    <time>2016-07-30T23:13:08Z</time>
    </trkpt>
    <trkpt lat="47.500547" lon="9.704583">
    <ele>401</ele>
    <time>2016-07-30T23:13:09Z</time>
    </trkpt>
    <trkpt lat="47.500326" lon="9.704175">
    <ele>402</ele>
    <time>2016-07-30T23:13:17Z</time>
    </trkpt>
    <trkpt lat="47.499873" lon="9.703591">
    <ele>402</ele>
    <time>2016-07-30T23:13:31Z</time>
    </trkpt>
    <trkpt lat="47.499166" lon="9.702376">
    <ele>403</ele>
    <time>2016-07-30T23:13:57Z</time>
    </trkpt>
    <trkpt lat="47.498251" lon="9.700981">
    <ele>404</ele>
    <time>2016-07-30T23:14:28Z</time>
    </trkpt>
    <trkpt lat="47.498046" lon="9.700795">
    <ele>404</ele>
    <time>2016-07-30T23:14:34Z</time>
    </trkpt>
    <trkpt lat="47.497264" lon="9.700726">
    <ele>405</ele>
    <time>2016-07-30T23:14:52Z</time>
    </trkpt>
    <trkpt lat="47.496925" lon="9.700634">
    <ele>405</ele>
    <time>2016-07-30T23:15:00Z</time>
    </trkpt>
    <trkpt lat="47.496633" lon="9.700211">
    <ele>406</ele>
    <time>2016-07-30T23:15:10Z</time>
    </trkpt>
    <trkpt lat="47.496026" lon="9.699218">
    <ele>406</ele>
    <time>2016-07-30T23:15:31Z</time>
    </trkpt>
    <trkpt lat="47.495984" lon="9.699201">
    <ele>406</ele>
    <time>2016-07-30T23:15:32Z</time>
    </trkpt>
    <trkpt lat="47.496662" lon="9.698908">
    <ele>405</ele>
    <time>2016-07-30T23:15:49Z</time>
    </trkpt>
    <trkpt lat="47.497459" lon="9.698564">
    <ele>405</ele>
    <time>2016-07-30T23:16:08Z</time>
    </trkpt>
    <trkpt lat="47.497866" lon="9.698396">
    <ele>404</ele>
    <time>2016-07-30T23:16:18Z</time>
    </trkpt>
    <trkpt lat="47.498943" lon="9.697982">
    <ele>404</ele>
    <time>2016-07-30T23:16:45Z</time>
    </trkpt>
    <trkpt lat="47.499386" lon="9.697836">
    <ele>403</ele>
    <time>2016-07-30T23:16:55Z</time>
    </trkpt>
    <trkpt lat="47.499686" lon="9.697383">
    <ele>403</ele>
    <time>2016-07-30T23:17:05Z</time>
    </trkpt>
    <trkpt lat="47.49986" lon="9.696283">
    <ele>402</ele>
    <time>2016-07-30T23:17:23Z</time>
    </trkpt>
    <trkpt lat="47.500258" lon="9.69455">
    <ele>401</ele>
    <time>2016-07-30T23:17:53Z</time>
    </trkpt>
    <trkpt lat="47.500838" lon="9.692226">
    <ele>401</ele>
    <time>2016-07-30T23:18:32Z</time>
    </trkpt>
    <trkpt lat="47.500922" lon="9.692283">
    <ele>401</ele>
    <time>2016-07-30T23:18:34Z</time>
    </trkpt>
    <trkpt lat="47.499889" lon="9.691533">
    <ele>400</ele>
    <time>2016-07-30T23:19:01Z</time>
    </trkpt>
    <trkpt lat="47.498249" lon="9.690549">
    <ele>400</ele>
    <time>2016-07-30T23:19:43Z</time>
    </trkpt>
    <trkpt lat="47.496319" lon="9.689456">
    <ele>399</ele>
    <time>2016-07-30T23:20:32Z</time>
    </trkpt>
    <trkpt lat="47.493808" lon="9.688887">
    <ele>398</ele>
    <time>2016-07-30T23:21:31Z</time>
    </trkpt>
    <trkpt lat="47.492204" lon="9.688639">
    <ele>398</ele>
    <time>2016-07-30T23:22:09Z</time>
    </trkpt>
    <trkpt lat="47.491886" lon="9.687878">
    <ele>398</ele>
    <time>2016-07-30T23:22:24Z</time>
    </trkpt>
    <trkpt lat="47.491359" lon="9.686354">
    <ele>398</ele>
    <time>2016-07-30T23:22:51Z</time>
    </trkpt>
    <trkpt lat="47.491281" lon="9.685704">
    <ele>398</ele>
    <time>2016-07-30T23:23:02Z</time>
    </trkpt>
    <trkpt lat="47.491236" lon="9.685075">
    <ele>397</ele>
    <time>2016-07-30T23:23:12Z</time>
    </trkpt>
    <trkpt lat="47.491307" lon="9.685154">
    <ele>397</ele>
    <time>2016-07-30T23:23:14Z</time>
    </trkpt>
    <trkpt lat="47.491961" lon="9.684593">
    <ele>397</ele>
    <time>2016-07-30T23:23:32Z</time>
    </trkpt>
    <trkpt lat="47.491928" lon="9.683382">
    <ele>397</ele>
    <time>2016-07-30T23:23:51Z</time>
    </trkpt>
    <trkpt lat="47.491858" lon="9.682216">
    <ele>396</ele>
    <time>2016-07-30T23:24:10Z</time>
    </trkpt>
    <trkpt lat="47.491789" lon="9.681733">
    <ele>396</ele>
    <time>2016-07-30T23:24:17Z</time>
    </trkpt>
    <trkpt lat="47.491826" lon="9.680988">
    <ele>396</ele>
    <time>2016-07-30T23:24:29Z</time>
    </trkpt>
    <trkpt lat="47.492048" lon="9.68045">
    <ele>396</ele>
    <time>2016-07-30T23:24:39Z</time>
    </trkpt>
    <trkpt lat="47.492225" lon="9.679634">
    <ele>395</ele>
    <time>2016-07-30T23:24:53Z</time>
    </trkpt>
    <trkpt lat="47.492262" lon="9.678937">
    <ele>395</ele>
    <time>2016-07-30T23:25:04Z</time>
    </trkpt>
    <trkpt lat="47.491965" lon="9.67818">
    <ele>395</ele>
    <time>2016-07-30T23:25:18Z</time>
    </trkpt>
    <trkpt lat="47.491389" lon="9.677824">
    <ele>395</ele>
    <time>2016-07-30T23:25:33Z</time>
    </trkpt>
    <trkpt lat="47.490628" lon="9.677604">
    <ele>395</ele>
    <time>2016-07-30T23:25:51Z</time>
    </trkpt>
    <trkpt lat="47.490295" lon="9.677008">
    <ele>396</ele>
    <time>2016-07-30T23:26:03Z</time>
    </trkpt>
    <trkpt lat="47.489762" lon="9.675993">
    <ele>396</ele>
    <time>2016-07-30T23:26:24Z</time>
    </trkpt>
    <trkpt lat="47.489416" lon="9.675568">
    <ele>396</ele>
    <time>2016-07-30T23:26:35Z</time>
    </trkpt>
    <trkpt lat="47.488809" lon="9.675407">
    <ele>396</ele>
    <time>2016-07-30T23:26:49Z</time>
    </trkpt>
    <trkpt lat="47.488813" lon="9.675379">
    <ele>396</ele>
    <time>2016-07-30T23:26:50Z</time>
    </trkpt>
    <trkpt lat="47.485134" lon="9.675301">
    <ele>396</ele>
    <time>2016-07-30T23:28:16Z</time>
    </trkpt>
    <trkpt lat="47.48498" lon="9.675334">
    <ele>396</ele>
    <time>2016-07-30T23:28:20Z</time>
    </trkpt>
    <trkpt lat="47.481833" lon="9.675161">
    <ele>397</ele>
    <time>2016-07-30T23:29:34Z</time>
    </trkpt>
    <trkpt lat="47.478098" lon="9.674968">
    <ele>398</ele>
    <time>2016-07-30T23:31:02Z</time>
    </trkpt>
    <trkpt lat="47.47774" lon="9.674839">
    <ele>398</ele>
    <time>2016-07-30T23:31:11Z</time>
    </trkpt>
    <trkpt lat="47.477798" lon="9.672943">
    <ele>398</ele>
    <time>2016-07-30T23:31:41Z</time>
    </trkpt>
    <trkpt lat="47.477859" lon="9.671608">
    <ele>398</ele>
    <time>2016-07-30T23:32:02Z</time>
    </trkpt>
    <trkpt lat="47.477851" lon="9.671478">
    <ele>398</ele>
    <time>2016-07-30T23:32:04Z</time>
    </trkpt>
    <trkpt lat="47.477843" lon="9.669682">
    <ele>398</ele>
    <time>2016-07-30T23:32:33Z</time>
    </trkpt>
    <trkpt lat="47.477878" lon="9.667955">
    <ele>398</ele>
    <time>2016-07-30T23:33:01Z</time>
    </trkpt>
    <trkpt lat="47.478241" lon="9.667666">
    <ele>398</ele>
    <time>2016-07-30T23:33:10Z</time>
    </trkpt>
    <trkpt lat="47.480268" lon="9.667623">
    <ele>398</ele>
    <time>2016-07-30T23:33:58Z</time>
    </trkpt>
    <trkpt lat="47.482755" lon="9.667709">
    <ele>398</ele>
    <time>2016-07-30T23:34:57Z</time>
    </trkpt>
    <trkpt lat="47.483058" lon="9.667684">
    <ele>398</ele>
    <time>2016-07-30T23:35:04Z</time>
    </trkpt>
    <trkpt lat="47.483765" lon="9.667713">
    <ele>398</ele>
    <time>2016-07-30T23:35:20Z</time>
    </trkpt>
    <trkpt lat="47.484616" lon="9.667741">
    <ele>398</ele>
    <time>2016-07-30T23:35:40Z</time>
    </trkpt>
    <trkpt lat="47.48856" lon="9.66791">
    <ele>397</ele>
    <time>2016-07-30T23:37:13Z</time>
    </trkpt>
    <trkpt lat="47.492422" lon="9.66822">
    <ele>397</ele>
    <time>2016-07-30T23:38:44Z</time>
    </trkpt>
    <trkpt lat="47.496151" lon="9.668506">
    <ele>396</ele>
    <time>2016-07-30T23:40:12Z</time>
    </trkpt>
    <trkpt lat="47.498764" lon="9.66881">
    <ele>396</ele>
    <time>2016-07-30T23:41:14Z</time>
    </trkpt>
    <trkpt lat="47.5009" lon="9.669106">
    <ele>396</ele>
    <time>2016-07-30T23:42:04Z</time>
    </trkpt>
    <trkpt lat="47.502523" lon="9.668619">
    <ele>396</ele>
    <time>2016-07-30T23:42:43Z</time>
    </trkpt>
    <trkpt lat="47.504153" lon="9.667733">
    <ele>395</ele>
    <time>2016-07-30T23:43:24Z</time>
    </trkpt>
    <trkpt lat="47.504952" lon="9.667234">
    <ele>395</ele>
    <time>2016-07-30T23:43:45Z</time>
    </trkpt>
    <trkpt lat="47.506134" lon="9.666109">
    <ele>395</ele>
    <time>2016-07-30T23:44:18Z</time>
    </trkpt>
    <trkpt lat="47.50741" lon="9.664537">
    <ele>395</ele>
    <time>2016-07-30T23:44:57Z</time>
    </trkpt>
    <trkpt lat="47.508071" lon="9.663503">
    <ele>394</ele>
    <time>2016-07-30T23:45:20Z</time>
    </trkpt>
    <trkpt lat="47.509193" lon="9.661378">
    <ele>394</ele>
    <time>2016-07-30T23:46:03Z</time>
    </trkpt>
    <trkpt lat="47.510815" lon="9.657836">
    <ele>394</ele>
    <time>2016-07-30T23:47:11Z</time>
    </trkpt>
    <trkpt lat="47.511654" lon="9.655721">
    <ele>394</ele>
    <time>2016-07-30T23:47:50Z</time>
    </trkpt>
    <trkpt lat="47.512289" lon="9.654442">
    <ele>394</ele>
    <time>2016-07-30T23:48:15Z</time>
    </trkpt>
    <trkpt lat="47.513079" lon="9.652882">
    <ele>395</ele>
    <time>2016-07-30T23:48:46Z</time>
    </trkpt>
    <trkpt lat="47.514295" lon="9.651126">
    <ele>394</ele>
    <time>2016-07-30T23:49:26Z</time>
    </trkpt>
    <trkpt lat="47.515614" lon="9.64936">
    <ele>394</ele>
    <time>2016-07-30T23:50:08Z</time>
    </trkpt>
    <trkpt lat="47.516835" lon="9.648268">
    <ele>394</ele>
    <time>2016-07-30T23:50:42Z</time>
    </trkpt>
    <trkpt lat="47.518295" lon="9.647128">
    <ele>394</ele>
    <time>2016-07-30T23:51:21Z</time>
    </trkpt>
    <trkpt lat="47.519596" lon="9.64635">
    <ele>394</ele>
    <time>2016-07-30T23:51:54Z</time>
    </trkpt>
    <trkpt lat="47.521206" lon="9.645598">
    <ele>394</ele>
    <time>2016-07-30T23:52:34Z</time>
    </trkpt>
    <trkpt lat="47.519834" lon="9.646231">
    <ele>394</ele>
    <time>2016-07-30T23:53:07Z</time>
    </trkpt>
    <trkpt lat="47.518795" lon="9.64683">
    <ele>394</ele>
    <time>2016-07-30T23:53:34Z</time>
    </trkpt>
    <trkpt lat="47.517588" lon="9.647674">
    <ele>394</ele>
    <time>2016-07-30T23:54:05Z</time>
    </trkpt>
    <trkpt lat="47.515783" lon="9.649205">
    <ele>394</ele>
    <time>2016-07-30T23:54:54Z</time>
    </trkpt>
    <trkpt lat="47.514534" lon="9.650812">
    <ele>394</ele>
    <time>2016-07-30T23:55:33Z</time>
    </trkpt>
    <trkpt lat="47.51351" lon="9.652283">
    <ele>394</ele>
    <time>2016-07-30T23:56:07Z</time>
    </trkpt>
    <trkpt lat="47.512581" lon="9.653876">
    <ele>394</ele>
    <time>2016-07-30T23:56:40Z</time>
    </trkpt>
    <trkpt lat="47.511804" lon="9.655435">
    <ele>394</ele>
    <time>2016-07-30T23:57:11Z</time>
    </trkpt>
    <trkpt lat="47.511191" lon="9.656901">
    <ele>394</ele>
    <time>2016-07-30T23:57:39Z</time>
    </trkpt>
    <trkpt lat="47.510323" lon="9.658944">
    <ele>394</ele>
    <time>2016-07-30T23:58:17Z</time>
    </trkpt>
    <trkpt lat="47.509389" lon="9.660974">
    <ele>394</ele>
    <time>2016-07-30T23:58:56Z</time>
    </trkpt>
    <trkpt lat="47.508258" lon="9.663176">
    <ele>394</ele>
    <time>2016-07-30T23:59:40Z</time>
    </trkpt>
    <trkpt lat="47.507599" lon="9.664248">
    <ele>394</ele>
    <time>2016-07-31T00:00:03Z</time>
    </trkpt>
    <trkpt lat="47.506531" lon="9.665608">
    <ele>394</ele>
    <time>2016-07-31T00:00:37Z</time>
    </trkpt>
    <trkpt lat="47.505674" lon="9.66653">
    <ele>394</ele>
    <time>2016-07-31T00:01:02Z</time>
    </trkpt>
    <trkpt lat="47.505107" lon="9.667081">
    <ele>394</ele>
    <time>2016-07-31T00:01:18Z</time>
    </trkpt>
    <trkpt lat="47.504347" lon="9.667613">
    <ele>395</ele>
    <time>2016-07-31T00:01:37Z</time>
    </trkpt>
    <trkpt lat="47.503357" lon="9.66815">
    <ele>395</ele>
    <time>2016-07-31T00:02:02Z</time>
    </trkpt>
    <trkpt lat="47.502671" lon="9.668599">
    <ele>395</ele>
    <time>2016-07-31T00:02:20Z</time>
    </trkpt>
    <trkpt lat="47.501681" lon="9.66887">
    <ele>395</ele>
    <time>2016-07-31T00:02:44Z</time>
    </trkpt>
    <trkpt lat="47.501184" lon="9.669015">
    <ele>395</ele>
    <time>2016-07-31T00:02:55Z</time>
    </trkpt>
    <trkpt lat="47.5009" lon="9.669106">
    <ele>395</ele>
    <time>2016-07-31T00:03:02Z</time>
    </trkpt>
    <trkpt lat="47.499767" lon="9.66895">
    <ele>396</ele>
    <time>2016-07-31T00:03:29Z</time>
    </trkpt>
    <trkpt lat="47.49774" lon="9.668758">
    <ele>396</ele>
    <time>2016-07-31T00:04:17Z</time>
    </trkpt>
    <trkpt lat="47.493061" lon="9.668265">
    <ele>396</ele>
    <time>2016-07-31T00:06:07Z</time>
    </trkpt>
    <trkpt lat="47.486558" lon="9.667824">
    <ele>397</ele>
    <time>2016-07-31T00:08:41Z</time>
    </trkpt>
    <trkpt lat="47.483969" lon="9.667707">
    <ele>397</ele>
    <time>2016-07-31T00:09:42Z</time>
    </trkpt>
    <trkpt lat="47.483338" lon="9.667695">
    <ele>397</ele>
    <time>2016-07-31T00:09:56Z</time>
    </trkpt>
    <trkpt lat="47.483058" lon="9.667684">
    <ele>397</ele>
    <time>2016-07-31T00:10:03Z</time>
    </trkpt>
    <trkpt lat="47.483058" lon="9.667684">
    <ele>397</ele>
    <time>2016-07-31T00:10:03Z</time>
    </trkpt>
    <trkpt lat="47.483114" lon="9.667747">
    <ele>397</ele>
    <time>2016-07-31T00:10:05Z</time>
    </trkpt>
    <trkpt lat="47.482759" lon="9.667086">
    <ele>396</ele>
    <time>2016-07-31T00:10:18Z</time>
    </trkpt>
    <trkpt lat="47.482455" lon="9.66653">
    <ele>396</ele>
    <time>2016-07-31T00:10:29Z</time>
    </trkpt>
    <trkpt lat="47.481669" lon="9.664926">
    <ele>395</ele>
    <time>2016-07-31T00:11:01Z</time>
    </trkpt>
    <trkpt lat="47.481483" lon="9.664225">
    <ele>395</ele>
    <time>2016-07-31T00:11:13Z</time>
    </trkpt>
    <trkpt lat="47.481632" lon="9.663163">
    <ele>394</ele>
    <time>2016-07-31T00:11:30Z</time>
    </trkpt>
    <trkpt lat="47.481612" lon="9.663165">
    <ele>394</ele>
    <time>2016-07-31T00:11:31Z</time>
    </trkpt>
    <trkpt lat="47.482081" lon="9.661852">
    <ele>393</ele>
    <time>2016-07-31T00:11:55Z</time>
    </trkpt>
    <trkpt lat="47.482899" lon="9.659666">
    <ele>392</ele>
    <time>2016-07-31T00:12:34Z</time>
    </trkpt>
    <trkpt lat="47.482999" lon="9.659208">
    <ele>392</ele>
    <time>2016-07-31T00:12:42Z</time>
    </trkpt>
    <trkpt lat="47.484029" lon="9.657919">
    <ele>393</ele>
    <time>2016-07-31T00:13:14Z</time>
    </trkpt>
    <trkpt lat="47.48518" lon="9.656734">
    <ele>394</ele>
    <time>2016-07-31T00:13:47Z</time>
    </trkpt>
    <trkpt lat="47.48596" lon="9.655834">
    <ele>394</ele>
    <time>2016-07-31T00:14:10Z</time>
    </trkpt>
    <trkpt lat="47.486198" lon="9.655429">
    <ele>395</ele>
    <time>2016-07-31T00:14:19Z</time>
    </trkpt>
    <trkpt lat="47.48637" lon="9.654946">
    <ele>395</ele>
    <time>2016-07-31T00:14:27Z</time>
    </trkpt>
    <trkpt lat="47.486459" lon="9.654865">
    <ele>395</ele>
    <time>2016-07-31T00:14:30Z</time>
    </trkpt>
    <trkpt lat="47.48647" lon="9.654832">
    <ele>395</ele>
    <time>2016-07-31T00:14:31Z</time>
    </trkpt>
    <trkpt lat="47.486459" lon="9.654028">
    <ele>395</ele>
    <time>2016-07-31T00:14:43Z</time>
    </trkpt>
    <trkpt lat="47.486372" lon="9.651565">
    <ele>394</ele>
    <time>2016-07-31T00:15:23Z</time>
    </trkpt>
    <trkpt lat="47.486357" lon="9.650568">
    <ele>394</ele>
    <time>2016-07-31T00:15:39Z</time>
    </trkpt>
    <trkpt lat="47.486403" lon="9.649176">
    <ele>394</ele>
    <time>2016-07-31T00:16:01Z</time>
    </trkpt>
    <trkpt lat="47.486801" lon="9.647767">
    <ele>394</ele>
    <time>2016-07-31T00:16:25Z</time>
    </trkpt>
    <trkpt lat="47.487297" lon="9.64691">
    <ele>394</ele>
    <time>2016-07-31T00:16:43Z</time>
    </trkpt>
    <trkpt lat="47.487985" lon="9.646051">
    <ele>394</ele>
    <time>2016-07-31T00:17:04Z</time>
    </trkpt>
    <trkpt lat="47.489713" lon="9.644061">
    <ele>394</ele>
    <time>2016-07-31T00:17:56Z</time>
    </trkpt>
    <trkpt lat="47.490945" lon="9.642343">
    <ele>394</ele>
    <time>2016-07-31T00:18:36Z</time>
    </trkpt>
    <trkpt lat="47.492005" lon="9.640792">
    <ele>394</ele>
    <time>2016-07-31T00:19:11Z</time>
    </trkpt>
    <trkpt lat="47.492774" lon="9.639609">
    <ele>394</ele>
    <time>2016-07-31T00:19:37Z</time>
    </trkpt>
    <trkpt lat="47.493644" lon="9.638573">
    <ele>394</ele>
    <time>2016-07-31T00:20:04Z</time>
    </trkpt>
    <trkpt lat="47.494218" lon="9.63794">
    <ele>394</ele>
    <time>2016-07-31T00:20:20Z</time>
    </trkpt>
    <trkpt lat="47.494833" lon="9.637694">
    <ele>394</ele>
    <time>2016-07-31T00:20:35Z</time>
    </trkpt>
    <trkpt lat="47.496203" lon="9.637303">
    <ele>394</ele>
    <time>2016-07-31T00:21:08Z</time>
    </trkpt>
    <trkpt lat="47.496776" lon="9.637076">
    <ele>394</ele>
    <time>2016-07-31T00:21:22Z</time>
    </trkpt>
    <trkpt lat="47.497324" lon="9.636678">
    <ele>394</ele>
    <time>2016-07-31T00:21:37Z</time>
    </trkpt>
    <trkpt lat="47.497746" lon="9.635944">
    <ele>395</ele>
    <time>2016-07-31T00:21:52Z</time>
    </trkpt>
    <trkpt lat="47.497922" lon="9.635053">
    <ele>395</ele>
    <time>2016-07-31T00:22:07Z</time>
    </trkpt>
    <trkpt lat="47.498271" lon="9.633495">
    <ele>395</ele>
    <time>2016-07-31T00:22:33Z</time>
    </trkpt>
    <trkpt lat="47.498209" lon="9.633461">
    <ele>395</ele>
    <time>2016-07-31T00:22:34Z</time>
    </trkpt>
    <trkpt lat="47.497627" lon="9.632808">
    <ele>395</ele>
    <time>2016-07-31T00:22:52Z</time>
    </trkpt>
    <trkpt lat="47.497425" lon="9.632385">
    <ele>396</ele>
    <time>2016-07-31T00:23:00Z</time>
    </trkpt>
    <trkpt lat="47.496422" lon="9.629823">
    <ele>398</ele>
    <time>2016-07-31T00:23:47Z</time>
    </trkpt>
    <trkpt lat="47.495799" lon="9.628198">
    <ele>399</ele>
    <time>2016-07-31T00:24:17Z</time>
    </trkpt>
    <trkpt lat="47.495691" lon="9.6279">
    <ele>399</ele>
    <time>2016-07-31T00:24:22Z</time>
    </trkpt>
    <trkpt lat="47.495678" lon="9.627838">
    <ele>399</ele>
    <time>2016-07-31T00:24:23Z</time>
    </trkpt>
    <trkpt lat="47.495454" lon="9.627933">
    <ele>399</ele>
    <time>2016-07-31T00:24:29Z</time>
    </trkpt>
    <trkpt lat="47.493675" lon="9.627608">
    <ele>398</ele>
    <time>2016-07-31T00:25:11Z</time>
    </trkpt>
    <trkpt lat="47.492044" lon="9.6273">
    <ele>397</ele>
    <time>2016-07-31T00:25:50Z</time>
    </trkpt>
    <trkpt lat="47.49143" lon="9.625999">
    <ele>396</ele>
    <time>2016-07-31T00:26:15Z</time>
    </trkpt>
    <trkpt lat="47.491226" lon="9.625519">
    <ele>396</ele>
    <time>2016-07-31T00:26:24Z</time>
    </trkpt>
    <trkpt lat="47.490371" lon="9.625544">
    <ele>395</ele>
    <time>2016-07-31T00:26:44Z</time>
    </trkpt>
    <trkpt lat="47.488815" lon="9.625658">
    <ele>395</ele>
    <time>2016-07-31T00:27:21Z</time>
    </trkpt>
    <trkpt lat="47.487645" lon="9.625979">
    <ele>395</ele>
    <time>2016-07-31T00:27:49Z</time>
    </trkpt>
    <trkpt lat="47.485265" lon="9.624214">
    <ele>395</ele>
    <time>2016-07-31T00:28:52Z</time>
    </trkpt>
    <trkpt lat="47.484647" lon="9.623755">
    <ele>395</ele>
    <time>2016-07-31T00:29:08Z</time>
    </trkpt>
    <trkpt lat="47.483839" lon="9.623635">
    <ele>395</ele>
    <time>2016-07-31T00:29:27Z</time>
    </trkpt>
    <trkpt lat="47.482038" lon="9.624605">
    <ele>395</ele>
    <time>2016-07-31T00:30:12Z</time>
    </trkpt>
    <trkpt lat="47.481426" lon="9.624859">
    <ele>395</ele>
    <time>2016-07-31T00:30:27Z</time>
    </trkpt>
    <trkpt lat="47.48134" lon="9.623936">
    <ele>395</ele>
    <time>2016-07-31T00:30:42Z</time>
    </trkpt>
    <trkpt lat="47.481275" lon="9.623247">
    <ele>395</ele>
    <time>2016-07-31T00:30:53Z</time>
    </trkpt>
    <trkpt lat="47.481195" lon="9.623112">
    <ele>395</ele>
    <time>2016-07-31T00:30:56Z</time>
    </trkpt>
    <trkpt lat="47.480842" lon="9.623178">
    <ele>396</ele>
    <time>2016-07-31T00:31:04Z</time>
    </trkpt>
    <trkpt lat="47.479793" lon="9.623376">
    <ele>396</ele>
    <time>2016-07-31T00:31:29Z</time>
    </trkpt>
    <trkpt lat="47.47889" lon="9.623909">
    <ele>397</ele>
    <time>2016-07-31T00:31:52Z</time>
    </trkpt>
    <trkpt lat="47.478463" lon="9.624165">
    <ele>397</ele>
    <time>2016-07-31T00:32:03Z</time>
    </trkpt>
    <trkpt lat="47.478268" lon="9.623499">
    <ele>397</ele>
    <time>2016-07-31T00:32:15Z</time>
    </trkpt>
    <trkpt lat="47.477789" lon="9.621482">
    <ele>397</ele>
    <time>2016-07-31T00:32:49Z</time>
    </trkpt>
    <trkpt lat="47.477632" lon="9.620956">
    <ele>398</ele>
    <time>2016-07-31T00:32:58Z</time>
    </trkpt>
    <trkpt lat="47.477382" lon="9.621024">
    <ele>398</ele>
    <time>2016-07-31T00:33:04Z</time>
    </trkpt>
    <trkpt lat="47.475837" lon="9.621611">
    <ele>398</ele>
    <time>2016-07-31T00:33:41Z</time>
    </trkpt>
    <trkpt lat="47.475427" lon="9.620706">
    <ele>398</ele>
    <time>2016-07-31T00:33:59Z</time>
    </trkpt>
    <trkpt lat="47.475553" lon="9.62021">
    <ele>398</ele>
    <time>2016-07-31T00:34:07Z</time>
    </trkpt>
    <trkpt lat="47.475754" lon="9.616641">
    <ele>399</ele>
    <time>2016-07-31T00:35:04Z</time>
    </trkpt>
    <trkpt lat="47.475873" lon="9.616113">
    <ele>399</ele>
    <time>2016-07-31T00:35:13Z</time>
    </trkpt>
    <trkpt lat="47.477186" lon="9.613845">
    <ele>399</ele>
    <time>2016-07-31T00:36:01Z</time>
    </trkpt>
    <trkpt lat="47.477585" lon="9.611691">
    <ele>399</ele>
    <time>2016-07-31T00:36:37Z</time>
    </trkpt>
    <trkpt lat="47.47753" lon="9.610215">
    <ele>400</ele>
    <time>2016-07-31T00:37:00Z</time>
    </trkpt>
    <trkpt lat="47.477254" lon="9.608526">
    <ele>401</ele>
    <time>2016-07-31T00:37:28Z</time>
    </trkpt>
    <trkpt lat="47.476547" lon="9.607113">
    <ele>401</ele>
    <time>2016-07-31T00:37:56Z</time>
    </trkpt>
    <trkpt lat="47.476546" lon="9.607127">
    <ele>401</ele>
    <time>2016-07-31T00:37:56Z</time>
    </trkpt>
    <trkpt lat="47.47593" lon="9.606614">
    <ele>402</ele>
    <time>2016-07-31T00:38:13Z</time>
    </trkpt>
    <trkpt lat="47.474553" lon="9.605966">
    <ele>402</ele>
    <time>2016-07-31T00:38:47Z</time>
    </trkpt>
    <trkpt lat="47.473508" lon="9.605392">
    <ele>402</ele>
    <time>2016-07-31T00:39:13Z</time>
    </trkpt>
    <trkpt lat="47.472974" lon="9.605318">
    <ele>402</ele>
    <time>2016-07-31T00:39:26Z</time>
    </trkpt>
    <trkpt lat="47.471854" lon="9.605824">
    <ele>402</ele>
    <time>2016-07-31T00:39:53Z</time>
    </trkpt>
    <trkpt lat="47.471707" lon="9.605863">
    <ele>401</ele>
    <time>2016-07-31T00:39:57Z</time>
    </trkpt>
    <trkpt lat="47.471707" lon="9.605863">
    <ele>401</ele>
    <time>2016-07-31T00:39:57Z</time>
    </trkpt>
    <trkpt lat="47.471458" lon="9.60586">
    <ele>401</ele>
    <time>2016-07-31T00:40:03Z</time>
    </trkpt>
    <trkpt lat="47.470981" lon="9.605809">
    <ele>400</ele>
    <time>2016-07-31T00:40:14Z</time>
    </trkpt>
    <trkpt lat="47.470981" lon="9.605809">
    <ele>400</ele>
    <time>2016-07-31T00:40:14Z</time>
    </trkpt>
    <trkpt lat="47.470496" lon="9.605763">
    <ele>400</ele>
    <time>2016-07-31T00:40:25Z</time>
    </trkpt>
    <trkpt lat="47.470496" lon="9.605763">
    <ele>400</ele>
    <time>2016-07-31T00:40:25Z</time>
    </trkpt>
    <trkpt lat="47.470031" lon="9.605653">
    <ele>400</ele>
    <time>2016-07-31T00:40:36Z</time>
    </trkpt>
    <trkpt lat="47.469349" lon="9.605264">
    <ele>400</ele>
    <time>2016-07-31T00:40:54Z</time>
    </trkpt>
    <trkpt lat="47.469326" lon="9.605263">
    <ele>400</ele>
    <time>2016-07-31T00:40:54Z</time>
    </trkpt>
    <trkpt lat="47.468662" lon="9.604852">
    <ele>400</ele>
    <time>2016-07-31T00:41:11Z</time>
    </trkpt>
    <trkpt lat="47.467581" lon="9.604596">
    <ele>400</ele>
    <time>2016-07-31T00:41:37Z</time>
    </trkpt>
    <trkpt lat="47.466758" lon="9.604579">
    <ele>400</ele>
    <time>2016-07-31T00:41:56Z</time>
    </trkpt>
    <trkpt lat="47.465417" lon="9.604527">
    <ele>399</ele>
    <time>2016-07-31T00:42:28Z</time>
    </trkpt>
    <trkpt lat="47.464729" lon="9.604276">
    <ele>399</ele>
    <time>2016-07-31T00:42:45Z</time>
    </trkpt>
    <trkpt lat="47.464029" lon="9.603889">
    <ele>399</ele>
    <time>2016-07-31T00:43:02Z</time>
    </trkpt>
    <trkpt lat="47.463465" lon="9.602745">
    <ele>399</ele>
    <time>2016-07-31T00:43:25Z</time>
    </trkpt>
    <trkpt lat="47.462735" lon="9.600938">
    <ele>400</ele>
    <time>2016-07-31T00:43:58Z</time>
    </trkpt>
    <trkpt lat="47.462565" lon="9.600005">
    <ele>400</ele>
    <time>2016-07-31T00:44:14Z</time>
    </trkpt>
    <trkpt lat="47.462686" lon="9.598769">
    <ele>400</ele>
    <time>2016-07-31T00:44:34Z</time>
    </trkpt>
    <trkpt lat="47.463417" lon="9.596976">
    <ele>401</ele>
    <time>2016-07-31T00:45:07Z</time>
    </trkpt>
    <trkpt lat="47.463545" lon="9.596724">
    <ele>401</ele>
    <time>2016-07-31T00:45:12Z</time>
    </trkpt>
    <trkpt lat="47.463545" lon="9.596724">
    <ele>401</ele>
    <time>2016-07-31T00:45:12Z</time>
    </trkpt>
    <trkpt lat="47.463907" lon="9.596234">
    <ele>401</ele>
    <time>2016-07-31T00:45:24Z</time>
    </trkpt>
    <trkpt lat="47.464274" lon="9.59586">
    <ele>402</ele>
    <time>2016-07-31T00:45:34Z</time>
    </trkpt>
    <trkpt lat="47.464299" lon="9.595817">
    <ele>402</ele>
    <time>2016-07-31T00:45:35Z</time>
    </trkpt>
    <trkpt lat="47.464952" lon="9.595215">
    <ele>401</ele>
    <time>2016-07-31T00:45:53Z</time>
    </trkpt>
    <trkpt lat="47.464979" lon="9.595121">
    <ele>401</ele>
    <time>2016-07-31T00:45:55Z</time>
    </trkpt>
    <trkpt lat="47.464822" lon="9.594537">
    <ele>401</ele>
    <time>2016-07-31T00:46:05Z</time>
    </trkpt>
    <trkpt lat="47.464552" lon="9.593742">
    <ele>400</ele>
    <time>2016-07-31T00:46:19Z</time>
    </trkpt>
    <trkpt lat="47.464624" lon="9.593637">
    <ele>400</ele>
    <time>2016-07-31T00:46:21Z</time>
    </trkpt>
    <trkpt lat="47.465459" lon="9.593003">
    <ele>400</ele>
    <time>2016-07-31T00:46:43Z</time>
    </trkpt>
    <trkpt lat="47.465459" lon="9.593003">
    <ele>400</ele>
    <time>2016-07-31T00:46:43Z</time>
    </trkpt>
    <trkpt lat="47.465958" lon="9.592654">
    <ele>400</ele>
    <time>2016-07-31T00:46:56Z</time>
    </trkpt>
    <trkpt lat="47.467884" lon="9.591264">
    <ele>400</ele>
    <time>2016-07-31T00:47:47Z</time>
    </trkpt>
    <trkpt lat="47.470956" lon="9.589226">
    <ele>400</ele>
    <time>2016-07-31T00:49:06Z</time>
    </trkpt>
    <trkpt lat="47.4712" lon="9.589242">
    <ele>400</ele>
    <time>2016-07-31T00:49:12Z</time>
    </trkpt>
    <trkpt lat="47.472038" lon="9.588701">
    <ele>401</ele>
    <time>2016-07-31T00:49:34Z</time>
    </trkpt>
    <trkpt lat="47.473949" lon="9.587499">
    <ele>401</ele>
    <time>2016-07-31T00:50:22Z</time>
    </trkpt>
    <trkpt lat="47.476031" lon="9.586295">
    <ele>401</ele>
    <time>2016-07-31T00:51:15Z</time>
    </trkpt>
    <trkpt lat="47.477591" lon="9.585274">
    <ele>401</ele>
    <time>2016-07-31T00:51:55Z</time>
    </trkpt>
    <trkpt lat="47.478893" lon="9.583866">
    <ele>402</ele>
    <time>2016-07-31T00:52:33Z</time>
    </trkpt>
    <trkpt lat="47.479469" lon="9.582906">
    <ele>402</ele>
    <time>2016-07-31T00:52:54Z</time>
    </trkpt>
    <trkpt lat="47.479887" lon="9.582084">
    <ele>402</ele>
    <time>2016-07-31T00:53:10Z</time>
    </trkpt>
    <trkpt lat="47.480345" lon="9.581586">
    <ele>402</ele>
    <time>2016-07-31T00:53:24Z</time>
    </trkpt>
    <trkpt lat="47.481179" lon="9.580475">
    <ele>402</ele>
    <time>2016-07-31T00:53:50Z</time>
    </trkpt>
    <trkpt lat="47.481269" lon="9.580135">
    <ele>402</ele>
    <time>2016-07-31T00:53:56Z</time>
    </trkpt>
    <trkpt lat="47.481344" lon="9.580172">
    <ele>402</ele>
    <time>2016-07-31T00:53:58Z</time>
    </trkpt>
    <trkpt lat="47.482052" lon="9.58036">
    <ele>402</ele>
    <time>2016-07-31T00:54:15Z</time>
    </trkpt>
    <trkpt lat="47.482052" lon="9.58036">
    <ele>402</ele>
    <time>2016-07-31T00:54:15Z</time>
    </trkpt>
    <trkpt lat="47.483031" lon="9.579555">
    <ele>401</ele>
    <time>2016-07-31T00:54:41Z</time>
    </trkpt>
    <trkpt lat="47.484758" lon="9.577184">
    <ele>401</ele>
    <time>2016-07-31T00:55:37Z</time>
    </trkpt>
    <trkpt lat="47.485808" lon="9.575044">
    <ele>401</ele>
    <time>2016-07-31T00:56:19Z</time>
    </trkpt>
    <trkpt lat="47.4873" lon="9.571759">
    <ele>401</ele>
    <time>2016-07-31T00:57:22Z</time>
    </trkpt>
    <trkpt lat="47.488587" lon="9.569403">
    <ele>401</ele>
    <time>2016-07-31T00:58:10Z</time>
    </trkpt>
    <trkpt lat="47.488587" lon="9.569403">
    <ele>401</ele>
    <time>2016-07-31T00:58:10Z</time>
    </trkpt>
    <trkpt lat="47.488887" lon="9.568614">
    <ele>401</ele>
    <time>2016-07-31T00:58:24Z</time>
    </trkpt>
    <trkpt lat="47.489856" lon="9.566894">
    <ele>399</ele>
    <time>2016-07-31T00:59:00Z</time>
    </trkpt>
    <trkpt lat="47.489869" lon="9.566858">
    <ele>399</ele>
    <time>2016-07-31T00:59:01Z</time>
    </trkpt>
    <trkpt lat="47.490735" lon="9.565803">
    <ele>399</ele>
    <time>2016-07-31T00:59:27Z</time>
    </trkpt>
    <trkpt lat="47.492205" lon="9.564278">
    <ele>398</ele>
    <time>2016-07-31T01:00:10Z</time>
    </trkpt>
    <trkpt lat="47.492675" lon="9.563819">
    <ele>397</ele>
    <time>2016-07-31T01:00:23Z</time>
    </trkpt>
    <trkpt lat="47.492674" lon="9.563765">
    <ele>397</ele>
    <time>2016-07-31T01:00:24Z</time>
    </trkpt>
    <trkpt lat="47.492186" lon="9.563456">
    <ele>397</ele>
    <time>2016-07-31T01:00:36Z</time>
    </trkpt>
    <trkpt lat="47.4918" lon="9.563283">
    <ele>397</ele>
    <time>2016-07-31T01:00:46Z</time>
    </trkpt>
    <trkpt lat="47.491359" lon="9.562932">
    <ele>397</ele>
    <time>2016-07-31T01:00:57Z</time>
    </trkpt>
    <trkpt lat="47.490742" lon="9.562323">
    <ele>397</ele>
    <time>2016-07-31T01:01:15Z</time>
    </trkpt>
    <trkpt lat="47.490731" lon="9.561749">
    <ele>397</ele>
    <time>2016-07-31T01:01:24Z</time>
    </trkpt>
    <trkpt lat="47.490284" lon="9.560576">
    <ele>397</ele>
    <time>2016-07-31T01:01:46Z</time>
    </trkpt>
    <trkpt lat="47.490092" lon="9.559784">
    <ele>397</ele>
    <time>2016-07-31T01:01:59Z</time>
    </trkpt>
    <trkpt lat="47.490221" lon="9.558863">
    <ele>397</ele>
    <time>2016-07-31T01:02:14Z</time>
    </trkpt>
    <trkpt lat="47.490193" lon="9.557177">
    <ele>397</ele>
    <time>2016-07-31T01:02:41Z</time>
    </trkpt>
    <trkpt lat="47.490187" lon="9.556122">
    <ele>397</ele>
    <time>2016-07-31T01:02:58Z</time>
    </trkpt>
    <trkpt lat="47.490239" lon="9.555139">
    <ele>398</ele>
    <time>2016-07-31T01:03:14Z</time>
    </trkpt>
    <trkpt lat="47.490005" lon="9.554294">
    <ele>398</ele>
    <time>2016-07-31T01:03:28Z</time>
    </trkpt>
    <trkpt lat="47.490195" lon="9.553307">
    <ele>398</ele>
    <time>2016-07-31T01:03:44Z</time>
    </trkpt>
    <trkpt lat="47.490383" lon="9.552759">
    <ele>398</ele>
    <time>2016-07-31T01:03:54Z</time>
    </trkpt>
    <trkpt lat="47.490432" lon="9.552219">
    <ele>398</ele>
    <time>2016-07-31T01:04:03Z</time>
    </trkpt>
    <trkpt lat="47.490405" lon="9.55199">
    <ele>398</ele>
    <time>2016-07-31T01:04:07Z</time>
    </trkpt>
    <trkpt lat="47.490373" lon="9.551831">
    <ele>398</ele>
    <time>2016-07-31T01:04:09Z</time>
    </trkpt>
    <trkpt lat="47.490268" lon="9.551577">
    <ele>398</ele>
    <time>2016-07-31T01:04:14Z</time>
    </trkpt>
    <trkpt lat="47.490088" lon="9.551196">
    <ele>398</ele>
    <time>2016-07-31T01:04:21Z</time>
    </trkpt>
    <trkpt lat="47.489825" lon="9.551223">
    <ele>398</ele>
    <time>2016-07-31T01:04:28Z</time>
    </trkpt>
    <trkpt lat="47.48873" lon="9.551248">
    <ele>398</ele>
    <time>2016-07-31T01:04:53Z</time>
    </trkpt>
    <trkpt lat="47.488069" lon="9.550901">
    <ele>398</ele>
    <time>2016-07-31T01:05:10Z</time>
    </trkpt>
    <trkpt lat="47.4874" lon="9.550283">
    <ele>398</ele>
    <time>2016-07-31T01:05:29Z</time>
    </trkpt>
    <trkpt lat="47.486522" lon="9.549351">
    <ele>398</ele>
    <time>2016-07-31T01:05:54Z</time>
    </trkpt>
    <trkpt lat="47.486522" lon="9.549351">
    <ele>398</ele>
    <time>2016-07-31T01:05:54Z</time>
    </trkpt>
    <trkpt lat="47.486645" lon="9.548885">
    <ele>397</ele>
    <time>2016-07-31T01:06:02Z</time>
    </trkpt>
    <trkpt lat="47.486916" lon="9.547904">
    <ele>397</ele>
    <time>2016-07-31T01:06:19Z</time>
    </trkpt>
    <trkpt lat="47.487161" lon="9.546954">
    <ele>397</ele>
    <time>2016-07-31T01:06:35Z</time>
    </trkpt>
    <trkpt lat="47.48714" lon="9.546589">
    <ele>397</ele>
    <time>2016-07-31T01:06:41Z</time>
    </trkpt>
    <trkpt lat="47.486857" lon="9.546152">
    <ele>397</ele>
    <time>2016-07-31T01:06:51Z</time>
    </trkpt>
    <trkpt lat="47.486479" lon="9.545724">
    <ele>397</ele>
    <time>2016-07-31T01:07:02Z</time>
    </trkpt>
    <trkpt lat="47.486534" lon="9.545547">
    <ele>397</ele>
    <time>2016-07-31T01:07:05Z</time>
    </trkpt>
    <trkpt lat="47.486062" lon="9.545242">
    <ele>397</ele>
    <time>2016-07-31T01:07:17Z</time>
    </trkpt>
    <trkpt lat="47.485889" lon="9.544243">
    <ele>397</ele>
    <time>2016-07-31T01:07:33Z</time>
    </trkpt>
    <trkpt lat="47.485677" lon="9.544227">
    <ele>397</ele>
    <time>2016-07-31T01:07:38Z</time>
    </trkpt>
    <trkpt lat="47.485003" lon="9.543511">
    <ele>397</ele>
    <time>2016-07-31T01:07:58Z</time>
    </trkpt>
    <trkpt lat="47.484401" lon="9.543564">
    <ele>398</ele>
    <time>2016-07-31T01:08:12Z</time>
    </trkpt>
    <trkpt lat="47.484141" lon="9.543212">
    <ele>398</ele>
    <time>2016-07-31T01:08:21Z</time>
    </trkpt>
    <trkpt lat="47.483845" lon="9.543456">
    <ele>398</ele>
    <time>2016-07-31T01:08:29Z</time>
    </trkpt>
    <trkpt lat="47.483883" lon="9.543617">
    <ele>398</ele>
    <time>2016-07-31T01:08:31Z</time>
    </trkpt>
    <trkpt lat="47.483374" lon="9.543857">
    <ele>399</ele>
    <time>2016-07-31T01:08:44Z</time>
    </trkpt>
    <trkpt lat="47.482743" lon="9.544064">
    <ele>399</ele>
    <time>2016-07-31T01:08:59Z</time>
    </trkpt>
    <trkpt lat="47.482743" lon="9.544064">
    <ele>399</ele>
    <time>2016-07-31T01:08:59Z</time>
    </trkpt>
    <trkpt lat="47.482564" lon="9.544066">
    <ele>399</ele>
    <time>2016-07-31T01:09:03Z</time>
    </trkpt>
    <trkpt lat="47.482426" lon="9.542894">
    <ele>400</ele>
    <time>2016-07-31T01:09:22Z</time>
    </trkpt>
    <trkpt lat="47.482226" lon="9.541874">
    <ele>400</ele>
    <time>2016-07-31T01:09:39Z</time>
    </trkpt>
    <trkpt lat="47.482226" lon="9.541874">
    <ele>400</ele>
    <time>2016-07-31T01:09:39Z</time>
    </trkpt>
    <trkpt lat="47.482059" lon="9.542001">
    <ele>401</ele>
    <time>2016-07-31T01:09:44Z</time>
    </trkpt>
    <trkpt lat="47.481791" lon="9.540918">
    <ele>401</ele>
    <time>2016-07-31T01:10:02Z</time>
    </trkpt>
    <trkpt lat="47.481157" lon="9.537982">
    <ele>403</ele>
    <time>2016-07-31T01:10:51Z</time>
    </trkpt>
    <trkpt lat="47.480554" lon="9.535464">
    <ele>405</ele>
    <time>2016-07-31T01:11:34Z</time>
    </trkpt>
    <trkpt lat="47.48028" lon="9.53494">
    <ele>405</ele>
    <time>2016-07-31T01:11:44Z</time>
    </trkpt>
    <trkpt lat="47.480004" lon="9.533504">
    <ele>406</ele>
    <time>2016-07-31T01:12:08Z</time>
    </trkpt>
    <trkpt lat="47.479987" lon="9.533105">
    <ele>406</ele>
    <time>2016-07-31T01:12:15Z</time>
    </trkpt>
    <trkpt lat="47.479917" lon="9.532583">
    <ele>407</ele>
    <time>2016-07-31T01:12:23Z</time>
    </trkpt>
    <trkpt lat="47.479541" lon="9.530405">
    <ele>409</ele>
    <time>2016-07-31T01:12:59Z</time>
    </trkpt>
    <trkpt lat="47.479382" lon="9.528037">
    <ele>411</ele>
    <time>2016-07-31T01:13:37Z</time>
    </trkpt>
    <trkpt lat="47.479257" lon="9.527334">
    <ele>412</ele>
    <time>2016-07-31T01:13:48Z</time>
    </trkpt>
    <trkpt lat="47.479155" lon="9.526363">
    <ele>413</ele>
    <time>2016-07-31T01:14:04Z</time>
    </trkpt>
    <trkpt lat="47.479136" lon="9.525993">
    <ele>413</ele>
    <time>2016-07-31T01:14:10Z</time>
    </trkpt>
    <trkpt lat="47.478887" lon="9.525772">
    <ele>414</ele>
    <time>2016-07-31T01:14:17Z</time>
    </trkpt>
    <trkpt lat="47.478704" lon="9.525736">
    <ele>414</ele>
    <time>2016-07-31T01:14:21Z</time>
    </trkpt>
    <trkpt lat="47.47828" lon="9.524493">
    <ele>414</ele>
    <time>2016-07-31T01:14:43Z</time>
    </trkpt>
    <trkpt lat="47.478165" lon="9.523324">
    <ele>413</ele>
    <time>2016-07-31T01:15:02Z</time>
    </trkpt>
    <trkpt lat="47.478149" lon="9.522349">
    <ele>412</ele>
    <time>2016-07-31T01:15:18Z</time>
    </trkpt>
    <trkpt lat="47.478154" lon="9.522299">
    <ele>412</ele>
    <time>2016-07-31T01:15:19Z</time>
    </trkpt>
    <trkpt lat="47.478959" lon="9.522265">
    <ele>411</ele>
    <time>2016-07-31T01:15:38Z</time>
    </trkpt>
    <trkpt lat="47.478953" lon="9.522151">
    <ele>411</ele>
    <time>2016-07-31T01:15:39Z</time>
    </trkpt>
    <trkpt lat="47.478785" lon="9.521641">
    <ele>410</ele>
    <time>2016-07-31T01:15:49Z</time>
    </trkpt>
    <trkpt lat="47.478638" lon="9.520739">
    <ele>410</ele>
    <time>2016-07-31T01:16:03Z</time>
    </trkpt>
    <trkpt lat="47.478314" lon="9.518699">
    <ele>409</ele>
    <time>2016-07-31T01:16:37Z</time>
    </trkpt>
    <trkpt lat="47.478082" lon="9.517362">
    <ele>408</ele>
    <time>2016-07-31T01:16:59Z</time>
    </trkpt>
    <trkpt lat="47.477943" lon="9.516457">
    <ele>406</ele>
    <time>2016-07-31T01:17:14Z</time>
    </trkpt>
    <trkpt lat="47.477943" lon="9.516457">
    <ele>406</ele>
    <time>2016-07-31T01:17:14Z</time>
    </trkpt>
    <trkpt lat="47.478721" lon="9.516218">
    <ele>404</ele>
    <time>2016-07-31T01:17:32Z</time>
    </trkpt>
    <trkpt lat="47.478964" lon="9.516021">
    <ele>403</ele>
    <time>2016-07-31T01:17:39Z</time>
    </trkpt>
    <trkpt lat="47.478937" lon="9.515688">
    <ele>402</ele>
    <time>2016-07-31T01:17:44Z</time>
    </trkpt>
    <trkpt lat="47.478783" lon="9.51566">
    <ele>402</ele>
    <time>2016-07-31T01:17:48Z</time>
    </trkpt>
    <trkpt lat="47.478715" lon="9.513891">
    <ele>401</ele>
    <time>2016-07-31T01:18:16Z</time>
    </trkpt>
    <trkpt lat="47.47857" lon="9.511411">
    <ele>401</ele>
    <time>2016-07-31T01:18:56Z</time>
    </trkpt>
    <trkpt lat="47.478182" lon="9.506919">
    <ele>400</ele>
    <time>2016-07-31T01:20:08Z</time>
    </trkpt>
    <trkpt lat="47.478351" lon="9.505747">
    <ele>399</ele>
    <time>2016-07-31T01:20:27Z</time>
    </trkpt>
    <trkpt lat="47.4782" lon="9.504278">
    <ele>399</ele>
    <time>2016-07-31T01:20:51Z</time>
    </trkpt>
    <trkpt lat="47.477937" lon="9.50346">
    <ele>399</ele>
    <time>2016-07-31T01:21:05Z</time>
    </trkpt>
    <trkpt lat="47.477824" lon="9.502518">
    <ele>399</ele>
    <time>2016-07-31T01:21:21Z</time>
    </trkpt>
    <trkpt lat="47.477694" lon="9.499673">
    <ele>398</ele>
    <time>2016-07-31T01:22:06Z</time>
    </trkpt>
    <trkpt lat="47.477666" lon="9.498614">
    <ele>398</ele>
    <time>2016-07-31T01:22:23Z</time>
    </trkpt>
    <trkpt lat="47.477935" lon="9.498525">
    <ele>398</ele>
    <time>2016-07-31T01:22:30Z</time>
    </trkpt>
    <trkpt lat="47.477973" lon="9.497943">
    <ele>398</ele>
    <time>2016-07-31T01:22:39Z</time>
    </trkpt>
    <trkpt lat="47.478414" lon="9.496361">
    <ele>399</ele>
    <time>2016-07-31T01:23:06Z</time>
    </trkpt>
    <trkpt lat="47.478616" lon="9.49501">
    <ele>399</ele>
    <time>2016-07-31T01:23:28Z</time>
    </trkpt>
    <trkpt lat="47.478616" lon="9.49501">
    <ele>399</ele>
    <time>2016-07-31T01:23:28Z</time>
    </trkpt>
    <trkpt lat="47.478729" lon="9.493983">
    <ele>400</ele>
    <time>2016-07-31T01:23:45Z</time>
    </trkpt>
    <trkpt lat="47.478763" lon="9.492959">
    <ele>400</ele>
    <time>2016-07-31T01:24:01Z</time>
    </trkpt>
    <trkpt lat="47.478763" lon="9.492959">
    <ele>400</ele>
    <time>2016-07-31T01:24:01Z</time>
    </trkpt>
    <trkpt lat="47.478964" lon="9.492365">
    <ele>400</ele>
    <time>2016-07-31T01:24:12Z</time>
    </trkpt>
    <trkpt lat="47.479313" lon="9.491438">
    <ele>400</ele>
    <time>2016-07-31T01:24:29Z</time>
    </trkpt>
    <trkpt lat="47.479426" lon="9.49085">
    <ele>400</ele>
    <time>2016-07-31T01:24:39Z</time>
    </trkpt>
    <trkpt lat="47.479424" lon="9.490873">
    <ele>400</ele>
    <time>2016-07-31T01:24:39Z</time>
    </trkpt>
    <trkpt lat="47.479465" lon="9.489862">
    <ele>399</ele>
    <time>2016-07-31T01:24:55Z</time>
    </trkpt>
    <trkpt lat="47.479599" lon="9.488554">
    <ele>398</ele>
    <time>2016-07-31T01:25:16Z</time>
    </trkpt>
    <trkpt lat="47.479599" lon="9.488554">
    <ele>398</ele>
    <time>2016-07-31T01:25:16Z</time>
    </trkpt>
    <trkpt lat="47.47965" lon="9.488279">
    <ele>397</ele>
    <time>2016-07-31T01:25:21Z</time>
    </trkpt>
    <trkpt lat="47.47988" lon="9.486509">
    <ele>397</ele>
    <time>2016-07-31T01:25:49Z</time>
    </trkpt>
    <trkpt lat="47.480157" lon="9.485041">
    <ele>397</ele>
    <time>2016-07-31T01:26:14Z</time>
    </trkpt>
    <trkpt lat="47.480685" lon="9.482891">
    <ele>397</ele>
    <time>2016-07-31T01:26:50Z</time>
    </trkpt>
    <trkpt lat="47.480928" lon="9.482337">
    <ele>397</ele>
    <time>2016-07-31T01:27:02Z</time>
    </trkpt>
    <trkpt lat="47.480886" lon="9.482281">
    <ele>397</ele>
    <time>2016-07-31T01:27:03Z</time>
    </trkpt>
    <trkpt lat="47.48139" lon="9.481371">
    <ele>397</ele>
    <time>2016-07-31T01:27:22Z</time>
    </trkpt>
    <trkpt lat="47.482104" lon="9.479903">
    <ele>397</ele>
    <time>2016-07-31T01:27:51Z</time>
    </trkpt>
    <trkpt lat="47.482478" lon="9.479426">
    <ele>397</ele>
    <time>2016-07-31T01:28:02Z</time>
    </trkpt>
    <trkpt lat="47.48287" lon="9.479094">
    <ele>397</ele>
    <time>2016-07-31T01:28:13Z</time>
    </trkpt>
    <trkpt lat="47.483649" lon="9.478361">
    <ele>397</ele>
    <time>2016-07-31T01:28:35Z</time>
    </trkpt>
    <trkpt lat="47.483664" lon="9.47834">
    <ele>397</ele>
    <time>2016-07-31T01:28:35Z</time>
    </trkpt>
    <trkpt lat="47.484983" lon="9.477221">
    <ele>397</ele>
    <time>2016-07-31T01:29:11Z</time>
    </trkpt>
    <trkpt lat="47.485283" lon="9.477094">
    <ele>397</ele>
    <time>2016-07-31T01:29:18Z</time>
    </trkpt>
    <trkpt lat="47.485254" lon="9.477004">
    <ele>398</ele>
    <time>2016-07-31T01:29:20Z</time>
    </trkpt>
    <trkpt lat="47.48545" lon="9.477001">
    <ele>398</ele>
    <time>2016-07-31T01:29:25Z</time>
    </trkpt>
    <trkpt lat="47.485872" lon="9.476733">
    <ele>398</ele>
    <time>2016-07-31T01:29:35Z</time>
    </trkpt>
    <trkpt lat="47.487559" lon="9.475051">
    <ele>398</ele>
    <time>2016-07-31T01:30:23Z</time>
    </trkpt>
    <trkpt lat="47.488579" lon="9.474044">
    <ele>399</ele>
    <time>2016-07-31T01:30:52Z</time>
    </trkpt>
    <trkpt lat="47.490036" lon="9.472623">
    <ele>399</ele>
    <time>2016-07-31T01:31:33Z</time>
    </trkpt>
    <trkpt lat="47.492287" lon="9.470908">
    <ele>399</ele>
    <time>2016-07-31T01:32:33Z</time>
    </trkpt>
    <trkpt lat="47.493336" lon="9.469643">
    <ele>399</ele>
    <time>2016-07-31T01:33:05Z</time>
    </trkpt>
    <trkpt lat="47.493918" lon="9.468861">
    <ele>398</ele>
    <time>2016-07-31T01:33:23Z</time>
    </trkpt>
    <trkpt lat="47.493898" lon="9.468872">
    <ele>398</ele>
    <time>2016-07-31T01:33:24Z</time>
    </trkpt>
    <trkpt lat="47.494259" lon="9.468391">
    <ele>398</ele>
    <time>2016-07-31T01:33:35Z</time>
    </trkpt>
    <trkpt lat="47.494686" lon="9.467854">
    <ele>398</ele>
    <time>2016-07-31T01:33:49Z</time>
    </trkpt>
    <trkpt lat="47.495781" lon="9.463448">
    <ele>399</ele>
    <time>2016-07-31T01:35:03Z</time>
    </trkpt>
    <trkpt lat="47.49579" lon="9.463428">
    <ele>399</ele>
    <time>2016-07-31T01:35:04Z</time>
    </trkpt>
    <trkpt lat="47.495935" lon="9.462213">
    <ele>399</ele>
    <time>2016-07-31T01:35:23Z</time>
    </trkpt>
    <trkpt lat="47.496119" lon="9.461809">
    <ele>399</ele>
    <time>2016-07-31T01:35:31Z</time>
    </trkpt>
    <trkpt lat="47.49669" lon="9.459402">
    <ele>399</ele>
    <time>2016-07-31T01:36:12Z</time>
    </trkpt>
    <trkpt lat="47.496911" lon="9.45946">
    <ele>399</ele>
    <time>2016-07-31T01:36:17Z</time>
    </trkpt>
    <trkpt lat="47.497109" lon="9.459562">
    <ele>399</ele>
    <time>2016-07-31T01:36:22Z</time>
    </trkpt>
    <trkpt lat="47.497669" lon="9.457925">
    <ele>399</ele>
    <time>2016-07-31T01:36:51Z</time>
    </trkpt>
    <trkpt lat="47.498013" lon="9.457343">
    <ele>399</ele>
    <time>2016-07-31T01:37:04Z</time>
    </trkpt>
    <trkpt lat="47.498294" lon="9.456278">
    <ele>398</ele>
    <time>2016-07-31T01:37:22Z</time>
    </trkpt>
    <trkpt lat="47.498652" lon="9.455385">
    <ele>398</ele>
    <time>2016-07-31T01:37:39Z</time>
    </trkpt>
    <trkpt lat="47.498861" lon="9.45457">
    <ele>397</ele>
    <time>2016-07-31T01:37:52Z</time>
    </trkpt>
    <trkpt lat="47.499028" lon="9.453611">
    <ele>397</ele>
    <time>2016-07-31T01:38:08Z</time>
    </trkpt>
    <trkpt lat="47.499027" lon="9.452844">
    <ele>397</ele>
    <time>2016-07-31T01:38:20Z</time>
    </trkpt>
    <trkpt lat="47.499011" lon="9.452474">
    <ele>397</ele>
    <time>2016-07-31T01:38:26Z</time>
    </trkpt>
    <trkpt lat="47.499136" lon="9.45197">
    <ele>396</ele>
    <time>2016-07-31T01:38:35Z</time>
    </trkpt>
    <trkpt lat="47.49941" lon="9.451404">
    <ele>396</ele>
    <time>2016-07-31T01:38:46Z</time>
    </trkpt>
    <trkpt lat="47.499707" lon="9.450884">
    <ele>396</ele>
    <time>2016-07-31T01:38:57Z</time>
    </trkpt>
    <trkpt lat="47.499858" lon="9.450637">
    <ele>396</ele>
    <time>2016-07-31T01:39:02Z</time>
    </trkpt>
    <trkpt lat="47.499882" lon="9.450616">
    <ele>396</ele>
    <time>2016-07-31T01:39:03Z</time>
    </trkpt>
    <trkpt lat="47.500328" lon="9.449802">
    <ele>397</ele>
    <time>2016-07-31T01:39:20Z</time>
    </trkpt>
    <trkpt lat="47.500908" lon="9.44864">
    <ele>397</ele>
    <time>2016-07-31T01:39:43Z</time>
    </trkpt>
    <trkpt lat="47.500776" lon="9.448318">
    <ele>397</ele>
    <time>2016-07-31T01:39:49Z</time>
    </trkpt>
    <trkpt lat="47.501888" lon="9.447069">
    <ele>398</ele>
    <time>2016-07-31T01:40:21Z</time>
    </trkpt>
    <trkpt lat="47.502643" lon="9.446057">
    <ele>399</ele>
    <time>2016-07-31T01:40:45Z</time>
    </trkpt>
    <trkpt lat="47.503053" lon="9.445238">
    <ele>400</ele>
    <time>2016-07-31T01:41:02Z</time>
    </trkpt>
    <trkpt lat="47.503154" lon="9.44484">
    <ele>400</ele>
    <time>2016-07-31T01:41:08Z</time>
    </trkpt>
    <trkpt lat="47.503246" lon="9.444951">
    <ele>400</ele>
    <time>2016-07-31T01:41:11Z</time>
    </trkpt>
    <trkpt lat="47.503838" lon="9.444683">
    <ele>401</ele>
    <time>2016-07-31T01:41:26Z</time>
    </trkpt>
    <trkpt lat="47.504344" lon="9.444251">
    <ele>401</ele>
    <time>2016-07-31T01:41:40Z</time>
    </trkpt>
    <trkpt lat="47.504445" lon="9.443653">
    <ele>401</ele>
    <time>2016-07-31T01:41:49Z</time>
    </trkpt>
    <trkpt lat="47.504449" lon="9.442669">
    <ele>401</ele>
    <time>2016-07-31T01:42:05Z</time>
    </trkpt>
    <trkpt lat="47.504436" lon="9.442759">
    <ele>401</ele>
    <time>2016-07-31T01:42:07Z</time>
    </trkpt>
    <trkpt lat="47.504643" lon="9.442076">
    <ele>401</ele>
    <time>2016-07-31T01:42:19Z</time>
    </trkpt>
    <trkpt lat="47.504824" lon="9.441563">
    <ele>401</ele>
    <time>2016-07-31T01:42:28Z</time>
    </trkpt>
    <trkpt lat="47.504824" lon="9.441563">
    <ele>401</ele>
    <time>2016-07-31T01:42:28Z</time>
    </trkpt>
    <trkpt lat="47.504966" lon="9.441006">
    <ele>401</ele>
    <time>2016-07-31T01:42:37Z</time>
    </trkpt>
    <trkpt lat="47.504842" lon="9.440224">
    <ele>401</ele>
    <time>2016-07-31T01:42:50Z</time>
    </trkpt>
    <trkpt lat="47.504842" lon="9.440224">
    <ele>401</ele>
    <time>2016-07-31T01:42:50Z</time>
    </trkpt>
    <trkpt lat="47.504655" lon="9.440476">
    <ele>401</ele>
    <time>2016-07-31T01:42:56Z</time>
    </trkpt>
    <trkpt lat="47.504262" lon="9.440565">
    <ele>401</ele>
    <time>2016-07-31T01:43:05Z</time>
    </trkpt>
    <trkpt lat="47.504181" lon="9.440542">
    <ele>401</ele>
    <time>2016-07-31T01:43:07Z</time>
    </trkpt>
    <trkpt lat="47.504305" lon="9.43973">
    <ele>400</ele>
    <time>2016-07-31T01:43:21Z</time>
    </trkpt>
    <trkpt lat="47.504262" lon="9.439001">
    <ele>400</ele>
    <time>2016-07-31T01:43:32Z</time>
    </trkpt>
    <trkpt lat="47.504069" lon="9.438427">
    <ele>400</ele>
    <time>2016-07-31T01:43:43Z</time>
    </trkpt>
    <trkpt lat="47.50471" lon="9.437538">
    <ele>400</ele>
    <time>2016-07-31T01:44:03Z</time>
    </trkpt>
    <trkpt lat="47.504713" lon="9.437522">
    <ele>400</ele>
    <time>2016-07-31T01:44:03Z</time>
    </trkpt>
    <trkpt lat="47.504859" lon="9.437396">
    <ele>400</ele>
    <time>2016-07-31T01:44:07Z</time>
    </trkpt>
    <trkpt lat="47.505275" lon="9.437461">
    <ele>400</ele>
    <time>2016-07-31T01:44:17Z</time>
    </trkpt>
    <trkpt lat="47.505909" lon="9.436391">
    <ele>400</ele>
    <time>2016-07-31T01:44:40Z</time>
    </trkpt>
    <trkpt lat="47.506518" lon="9.435718">
    <ele>400</ele>
    <time>2016-07-31T01:44:58Z</time>
    </trkpt>
    <trkpt lat="47.506899" lon="9.435449">
    <ele>400</ele>
    <time>2016-07-31T01:45:08Z</time>
    </trkpt>
    <trkpt lat="47.506899" lon="9.435449">
    <ele>400</ele>
    <time>2016-07-31T01:45:08Z</time>
    </trkpt>
    <trkpt lat="47.50751" lon="9.435034">
    <ele>400</ele>
    <time>2016-07-31T01:45:24Z</time>
    </trkpt>
    <trkpt lat="47.508592" lon="9.434597">
    <ele>399</ele>
    <time>2016-07-31T01:45:50Z</time>
    </trkpt>
    <trkpt lat="47.510313" lon="9.434369">
    <ele>398</ele>
    <time>2016-07-31T01:46:31Z</time>
    </trkpt>
    <trkpt lat="47.511051" lon="9.434403">
    <ele>398</ele>
    <time>2016-07-31T01:46:48Z</time>
    </trkpt>
    <trkpt lat="47.511543" lon="9.434619">
    <ele>397</ele>
    <time>2016-07-31T01:47:00Z</time>
    </trkpt>
    <trkpt lat="47.511925" lon="9.434969">
    <ele>397</ele>
    <time>2016-07-31T01:47:11Z</time>
    </trkpt>
    <trkpt lat="47.512175" lon="9.435286">
    <ele>397</ele>
    <time>2016-07-31T01:47:19Z</time>
    </trkpt>
    <trkpt lat="47.512372" lon="9.435297">
    <ele>397</ele>
    <time>2016-07-31T01:47:23Z</time>
    </trkpt>
    <trkpt lat="47.512378" lon="9.435339">
    <ele>397</ele>
    <time>2016-07-31T01:47:24Z</time>
    </trkpt>
    <trkpt lat="47.512685" lon="9.436005">
    <ele>398</ele>
    <time>2016-07-31T01:47:37Z</time>
    </trkpt>
    <trkpt lat="47.513649" lon="9.437343">
    <ele>398</ele>
    <time>2016-07-31T01:48:08Z</time>
    </trkpt>
    <trkpt lat="47.513997" lon="9.437739">
    <ele>399</ele>
    <time>2016-07-31T01:48:18Z</time>
    </trkpt>
    <trkpt lat="47.513997" lon="9.437739">
    <ele>399</ele>
    <time>2016-07-31T01:48:18Z</time>
    </trkpt>
    <trkpt lat="47.514391" lon="9.438178">
    <ele>400</ele>
    <time>2016-07-31T01:48:30Z</time>
    </trkpt>
    <trkpt lat="47.515266" lon="9.438748">
    <ele>402</ele>
    <time>2016-07-31T01:48:52Z</time>
    </trkpt>
    <trkpt lat="47.515826" lon="9.439156">
    <ele>404</ele>
    <time>2016-07-31T01:49:07Z</time>
    </trkpt>
    <trkpt lat="47.515834" lon="9.439141">
    <ele>404</ele>
    <time>2016-07-31T01:49:07Z</time>
    </trkpt>
    <trkpt lat="47.516185" lon="9.439274">
    <ele>403</ele>
    <time>2016-07-31T01:49:16Z</time>
    </trkpt>
    <trkpt lat="47.51676" lon="9.439046">
    <ele>403</ele>
    <time>2016-07-31T01:49:30Z</time>
    </trkpt>
    <trkpt lat="47.517313" lon="9.438539">
    <ele>402</ele>
    <time>2016-07-31T01:49:45Z</time>
    </trkpt>
    <trkpt lat="47.518157" lon="9.437429">
    <ele>401</ele>
    <time>2016-07-31T01:50:12Z</time>
    </trkpt>
    <trkpt lat="47.517965" lon="9.437032">
    <ele>401</ele>
    <time>2016-07-31T01:50:20Z</time>
    </trkpt>
    <trkpt lat="47.518291" lon="9.436185">
    <ele>400</ele>
    <time>2016-07-31T01:50:35Z</time>
    </trkpt>
    <trkpt lat="47.518404" lon="9.435405">
    <ele>400</ele>
    <time>2016-07-31T01:50:48Z</time>
    </trkpt>
    <trkpt lat="47.518383" lon="9.43542">
    <ele>400</ele>
    <time>2016-07-31T01:50:48Z</time>
    </trkpt>
    <trkpt lat="47.518673" lon="9.434357">
    <ele>400</ele>
    <time>2016-07-31T01:51:07Z</time>
    </trkpt>
    <trkpt lat="47.519046" lon="9.433343">
    <ele>400</ele>
    <time>2016-07-31T01:51:25Z</time>
    </trkpt>
    <trkpt lat="47.519264" lon="9.432693">
    <ele>399</ele>
    <time>2016-07-31T01:51:37Z</time>
    </trkpt>
    <trkpt lat="47.519539" lon="9.43169">
    <ele>399</ele>
    <time>2016-07-31T01:51:54Z</time>
    </trkpt>
    <trkpt lat="47.519608" lon="9.431498">
    <ele>399</ele>
    <time>2016-07-31T01:51:57Z</time>
    </trkpt>
    <trkpt lat="47.519598" lon="9.431451">
    <ele>399</ele>
    <time>2016-07-31T01:51:58Z</time>
    </trkpt>
    <trkpt lat="47.519683" lon="9.431141">
    <ele>399</ele>
    <time>2016-07-31T01:52:03Z</time>
    </trkpt>
    <trkpt lat="47.519604" lon="9.430837">
    <ele>399</ele>
    <time>2016-07-31T01:52:09Z</time>
    </trkpt>
    <trkpt lat="47.519674" lon="9.430403">
    <ele>399</ele>
    <time>2016-07-31T01:52:16Z</time>
    </trkpt>
    <trkpt lat="47.519431" lon="9.43013">
    <ele>399</ele>
    <time>2016-07-31T01:52:23Z</time>
    </trkpt>
    <trkpt lat="47.52017" lon="9.428029">
    <ele>399</ele>
    <time>2016-07-31T01:53:01Z</time>
    </trkpt>
    <trkpt lat="47.521202" lon="9.42551">
    <ele>400</ele>
    <time>2016-07-31T01:53:48Z</time>
    </trkpt>
    <trkpt lat="47.521935" lon="9.423615">
    <ele>400</ele>
    <time>2016-07-31T01:54:22Z</time>
    </trkpt>
    <trkpt lat="47.522554" lon="9.422153">
    <ele>401</ele>
    <time>2016-07-31T01:54:50Z</time>
    </trkpt>
    <trkpt lat="47.52325" lon="9.421286">
    <ele>401</ele>
    <time>2016-07-31T01:55:11Z</time>
    </trkpt>
    <trkpt lat="47.523804" lon="9.420759">
    <ele>401</ele>
    <time>2016-07-31T01:55:27Z</time>
    </trkpt>
    <trkpt lat="47.524598" lon="9.420274">
    <ele>401</ele>
    <time>2016-07-31T01:55:47Z</time>
    </trkpt>
    <trkpt lat="47.52522" lon="9.419931">
    <ele>401</ele>
    <time>2016-07-31T01:56:03Z</time>
    </trkpt>
    <trkpt lat="47.525943" lon="9.419072">
    <ele>400</ele>
    <time>2016-07-31T01:56:25Z</time>
    </trkpt>
    <trkpt lat="47.526041" lon="9.418902">
    <ele>400</ele>
    <time>2016-07-31T01:56:28Z</time>
    </trkpt>
    <trkpt lat="47.525867" lon="9.418639">
    <ele>400</ele>
    <time>2016-07-31T01:56:34Z</time>
    </trkpt>
    <trkpt lat="47.526258" lon="9.418025">
    <ele>400</ele>
    <time>2016-07-31T01:56:47Z</time>
    </trkpt>
    <trkpt lat="47.527007" lon="9.416675">
    <ele>400</ele>
    <time>2016-07-31T01:57:15Z</time>
    </trkpt>
    <trkpt lat="47.528079" lon="9.414947">
    <ele>400</ele>
    <time>2016-07-31T01:57:53Z</time>
    </trkpt>
    <trkpt lat="47.530101" lon="9.411615">
    <ele>401</ele>
    <time>2016-07-31T01:59:04Z</time>
    </trkpt>
    <trkpt lat="47.530094" lon="9.411608">
    <ele>401</ele>
    <time>2016-07-31T01:59:04Z</time>
    </trkpt>
    <trkpt lat="47.532201" lon="9.408127">
    <ele>401</ele>
    <time>2016-07-31T02:00:19Z</time>
    </trkpt>
    <trkpt lat="47.533558" lon="9.405871">
    <ele>401</ele>
    <time>2016-07-31T02:01:07Z</time>
    </trkpt>
    <trkpt lat="47.534856" lon="9.403639">
    <ele>401</ele>
    <time>2016-07-31T02:01:54Z</time>
    </trkpt>
    <trkpt lat="47.536172" lon="9.401448">
    <ele>401</ele>
    <time>2016-07-31T02:02:40Z</time>
    </trkpt>
    <trkpt lat="47.536654" lon="9.400462">
    <ele>401</ele>
    <time>2016-07-31T02:03:00Z</time>
    </trkpt>
    <trkpt lat="47.537582" lon="9.398349">
    <ele>401</ele>
    <time>2016-07-31T02:03:40Z</time>
    </trkpt>
    <trkpt lat="47.53987" lon="9.392944">
    <ele>401</ele>
    <time>2016-07-31T02:05:22Z</time>
    </trkpt>
    <trkpt lat="47.541609" lon="9.388823">
    <ele>400</ele>
    <time>2016-07-31T02:06:39Z</time>
    </trkpt>
    <trkpt lat="47.542256" lon="9.387219">
    <ele>400</ele>
    <time>2016-07-31T02:07:09Z</time>
    </trkpt>
    <trkpt lat="47.543419" lon="9.384257">
    <ele>400</ele>
    <time>2016-07-31T02:08:03Z</time>
    </trkpt>
    <trkpt lat="47.543407" lon="9.383694">
    <ele>400</ele>
    <time>2016-07-31T02:08:12Z</time>
    </trkpt>
    <trkpt lat="47.543549" lon="9.383468">
    <ele>400</ele>
    <time>2016-07-31T02:08:17Z</time>
    </trkpt>
    <trkpt lat="47.543549" lon="9.383468">
    <ele>400</ele>
    <time>2016-07-31T02:08:17Z</time>
    </trkpt>
    <trkpt lat="47.543775" lon="9.383076">
    <ele>400</ele>
    <time>2016-07-31T02:08:25Z</time>
    </trkpt>
    <trkpt lat="47.54462" lon="9.380937">
    <ele>400</ele>
    <time>2016-07-31T02:09:05Z</time>
    </trkpt>
    <trkpt lat="47.544645" lon="9.38093">
    <ele>400</ele>
    <time>2016-07-31T02:09:05Z</time>
    </trkpt>
    <trkpt lat="47.545153" lon="9.381283">
    <ele>400</ele>
    <time>2016-07-31T02:09:19Z</time>
    </trkpt>
    <trkpt lat="47.545116" lon="9.381259">
    <ele>400</ele>
    <time>2016-07-31T02:09:20Z</time>
    </trkpt>
    <trkpt lat="47.545549" lon="9.380383">
    <ele>400</ele>
    <time>2016-07-31T02:09:37Z</time>
    </trkpt>
    <trkpt lat="47.546148" lon="9.379629">
    <ele>399</ele>
    <time>2016-07-31T02:09:55Z</time>
    </trkpt>
    <trkpt lat="47.546745" lon="9.379242">
    <ele>399</ele>
    <time>2016-07-31T02:10:11Z</time>
    </trkpt>
    <trkpt lat="47.547324" lon="9.379173">
    <ele>399</ele>
    <time>2016-07-31T02:10:24Z</time>
    </trkpt>
    <trkpt lat="47.547258" lon="9.379124">
    <ele>399</ele>
    <time>2016-07-31T02:10:26Z</time>
    </trkpt>
    <trkpt lat="47.547506" lon="9.379223">
    <ele>399</ele>
    <time>2016-07-31T02:10:32Z</time>
    </trkpt>
    <trkpt lat="47.547836" lon="9.379544">
    <ele>399</ele>
    <time>2016-07-31T02:10:42Z</time>
    </trkpt>
    <trkpt lat="47.548819" lon="9.377693">
    <ele>399</ele>
    <time>2016-07-31T02:11:19Z</time>
    </trkpt>
    <trkpt lat="47.548789" lon="9.377615">
    <ele>399</ele>
    <time>2016-07-31T02:11:20Z</time>
    </trkpt>
    <trkpt lat="47.549693" lon="9.376239">
    <ele>400</ele>
    <time>2016-07-31T02:11:51Z</time>
    </trkpt>
    <trkpt lat="47.550874" lon="9.374746">
    <ele>400</ele>
    <time>2016-07-31T02:12:28Z</time>
    </trkpt>
    <trkpt lat="47.552151" lon="9.374327">
    <ele>400</ele>
    <time>2016-07-31T02:12:58Z</time>
    </trkpt>
    <trkpt lat="47.553249" lon="9.374223">
    <ele>400</ele>
    <time>2016-07-31T02:13:24Z</time>
    </trkpt>
    <trkpt lat="47.553974" lon="9.374287">
    <ele>400</ele>
    <time>2016-07-31T02:13:41Z</time>
    </trkpt>
    <trkpt lat="47.554812" lon="9.374331">
    <ele>399</ele>
    <time>2016-07-31T02:14:01Z</time>
    </trkpt>
    <trkpt lat="47.556099" lon="9.374277">
    <ele>399</ele>
    <time>2016-07-31T02:14:31Z</time>
    </trkpt>
    <trkpt lat="47.556687" lon="9.374477">
    <ele>399</ele>
    <time>2016-07-31T02:14:46Z</time>
    </trkpt>
    <trkpt lat="47.556729" lon="9.374514">
    <ele>399</ele>
    <time>2016-07-31T02:14:47Z</time>
    </trkpt>
    <trkpt lat="47.557138" lon="9.374752">
    <ele>399</ele>
    <time>2016-07-31T02:14:57Z</time>
    </trkpt>
    <trkpt lat="47.55851" lon="9.375561">
    <ele>399</ele>
    <time>2016-07-31T02:15:32Z</time>
    </trkpt>
    <trkpt lat="47.559999" lon="9.376436">
    <ele>400</ele>
    <time>2016-07-31T02:16:10Z</time>
    </trkpt>
    <trkpt lat="47.560318" lon="9.377096">
    <ele>400</ele>
    <time>2016-07-31T02:16:23Z</time>
    </trkpt>
    <trkpt lat="47.560499" lon="9.377568">
    <ele>400</ele>
    <time>2016-07-31T02:16:31Z</time>
    </trkpt>
    <trkpt lat="47.561009" lon="9.378223">
    <ele>400</ele>
    <time>2016-07-31T02:16:47Z</time>
    </trkpt>
    <trkpt lat="47.561436" lon="9.378573">
    <ele>400</ele>
    <time>2016-07-31T02:16:59Z</time>
    </trkpt>
    <trkpt lat="47.562122" lon="9.378978">
    <ele>400</ele>
    <time>2016-07-31T02:17:16Z</time>
    </trkpt>
    <trkpt lat="47.562883" lon="9.37924">
    <ele>400</ele>
    <time>2016-07-31T02:17:34Z</time>
    </trkpt>
    <trkpt lat="47.562911" lon="9.379226">
    <ele>400</ele>
    <time>2016-07-31T02:17:35Z</time>
    </trkpt>
    <trkpt lat="47.564467" lon="9.37918">
    <ele>400</ele>
    <time>2016-07-31T02:18:12Z</time>
    </trkpt>
    <trkpt lat="47.566533" lon="9.379183">
    <ele>399</ele>
    <time>2016-07-31T02:19:00Z</time>
    </trkpt>
    <trkpt lat="47.566939" lon="9.379194">
    <ele>399</ele>
    <time>2016-07-31T02:19:10Z</time>
    </trkpt>
    <trkpt lat="47.567411" lon="9.379461">
    <ele>399</ele>
    <time>2016-07-31T02:19:22Z</time>
    </trkpt>
    <trkpt lat="47.567427" lon="9.379471">
    <ele>399</ele>
    <time>2016-07-31T02:19:22Z</time>
    </trkpt>
    <trkpt lat="47.567518" lon="9.380167">
    <ele>399</ele>
    <time>2016-07-31T02:19:34Z</time>
    </trkpt>
    <trkpt lat="47.567558" lon="9.380699">
    <ele>399</ele>
    <time>2016-07-31T02:19:42Z</time>
    </trkpt>
    <trkpt lat="47.567556" lon="9.380706">
    <ele>399</ele>
    <time>2016-07-31T02:19:42Z</time>
    </trkpt>
    <trkpt lat="47.567629" lon="9.381271">
    <ele>399</ele>
    <time>2016-07-31T02:19:51Z</time>
    </trkpt>
    <trkpt lat="47.567652" lon="9.382056">
    <ele>399</ele>
    <time>2016-07-31T02:20:04Z</time>
    </trkpt>
    <trkpt lat="47.567668" lon="9.382695">
    <ele>400</ele>
    <time>2016-07-31T02:20:14Z</time>
    </trkpt>
    <trkpt lat="47.567748" lon="9.382823">
    <ele>400</ele>
    <time>2016-07-31T02:20:17Z</time>
    </trkpt>
    <trkpt lat="47.568287" lon="9.382668">
    <ele>400</ele>
    <time>2016-07-31T02:20:30Z</time>
    </trkpt>
    <trkpt lat="47.5687" lon="9.382859">
    <ele>400</ele>
    <time>2016-07-31T02:20:40Z</time>
    </trkpt>
    <trkpt lat="47.569242" lon="9.382522">
    <ele>400</ele>
    <time>2016-07-31T02:20:54Z</time>
    </trkpt>
    <trkpt lat="47.569597" lon="9.382261">
    <ele>401</ele>
    <time>2016-07-31T02:21:03Z</time>
    </trkpt>
    <trkpt lat="47.569408" lon="9.382398">
    <ele>401</ele>
    <time>2016-07-31T02:21:08Z</time>
    </trkpt>
    <trkpt lat="47.569822" lon="9.382014">
    <ele>401</ele>
    <time>2016-07-31T02:21:20Z</time>
    </trkpt>
    <trkpt lat="47.570186" lon="9.381724">
    <ele>401</ele>
    <time>2016-07-31T02:21:29Z</time>
    </trkpt>
    <trkpt lat="47.570519" lon="9.381834">
    <ele>401</ele>
    <time>2016-07-31T02:21:37Z</time>
    </trkpt>
    <trkpt lat="47.570629" lon="9.381818">
    <ele>401</ele>
    <time>2016-07-31T02:21:40Z</time>
    </trkpt>
    <trkpt lat="47.570962" lon="9.381579">
    <ele>402</ele>
    <time>2016-07-31T02:21:49Z</time>
    </trkpt>
    <trkpt lat="47.571006" lon="9.381173">
    <ele>402</ele>
    <time>2016-07-31T02:21:55Z</time>
    </trkpt>
    <trkpt lat="47.570903" lon="9.380573">
    <ele>402</ele>
    <time>2016-07-31T02:22:05Z</time>
    </trkpt>
    <trkpt lat="47.571051" lon="9.380077">
    <ele>402</ele>
    <time>2016-07-31T02:22:14Z</time>
    </trkpt>
    <trkpt lat="47.571001" lon="9.38014">
    <ele>402</ele>
    <time>2016-07-31T02:22:15Z</time>
    </trkpt>
    <trkpt lat="47.571365" lon="9.379166">
    <ele>402</ele>
    <time>2016-07-31T02:22:33Z</time>
    </trkpt>
    <trkpt lat="47.571651" lon="9.378281">
    <ele>401</ele>
    <time>2016-07-31T02:22:49Z</time>
    </trkpt>
    <trkpt lat="47.572116" lon="9.377261">
    <ele>401</ele>
    <time>2016-07-31T02:23:08Z</time>
    </trkpt>
    <trkpt lat="47.572566" lon="9.37621">
    <ele>400</ele>
    <time>2016-07-31T02:23:28Z</time>
    </trkpt>
    <trkpt lat="47.572829" lon="9.375498">
    <ele>400</ele>
    <time>2016-07-31T02:23:41Z</time>
    </trkpt>
    <trkpt lat="47.573113" lon="9.375417">
    <ele>400</ele>
    <time>2016-07-31T02:23:48Z</time>
    </trkpt>
    <trkpt lat="47.573585" lon="9.374339">
    <ele>400</ele>
    <time>2016-07-31T02:24:08Z</time>
    </trkpt>
    <trkpt lat="47.573794" lon="9.373207">
    <ele>399</ele>
    <time>2016-07-31T02:24:27Z</time>
    </trkpt>
    <trkpt lat="47.574077" lon="9.372425">
    <ele>399</ele>
    <time>2016-07-31T02:24:41Z</time>
    </trkpt>
    <trkpt lat="47.574436" lon="9.371434">
    <ele>400</ele>
    <time>2016-07-31T02:24:59Z</time>
    </trkpt>
    <trkpt lat="47.575236" lon="9.369547">
    <ele>400</ele>
    <time>2016-07-31T02:25:34Z</time>
    </trkpt>
    <trkpt lat="47.576511" lon="9.36666">
    <ele>401</ele>
    <time>2016-07-31T02:26:29Z</time>
    </trkpt>
    <trkpt lat="47.578015" lon="9.362979">
    <ele>402</ele>
    <time>2016-07-31T02:27:38Z</time>
    </trkpt>
    <trkpt lat="47.579135" lon="9.359892">
    <ele>402</ele>
    <time>2016-07-31T02:28:34Z</time>
    </trkpt>
    <trkpt lat="47.580311" lon="9.35663">
    <ele>401</ele>
    <time>2016-07-31T02:29:32Z</time>
    </trkpt>
    <trkpt lat="47.581944" lon="9.351957">
    <ele>401</ele>
    <time>2016-07-31T02:30:56Z</time>
    </trkpt>
    <trkpt lat="47.583156" lon="9.348228">
    <ele>400</ele>
    <time>2016-07-31T02:32:02Z</time>
    </trkpt>
    <trkpt lat="47.583268" lon="9.34798">
    <ele>400</ele>
    <time>2016-07-31T02:32:07Z</time>
    </trkpt>
    <trkpt lat="47.583895" lon="9.348388">
    <ele>400</ele>
    <time>2016-07-31T02:32:23Z</time>
    </trkpt>
    <trkpt lat="47.584369" lon="9.34738">
    <ele>400</ele>
    <time>2016-07-31T02:32:43Z</time>
    </trkpt>
    <trkpt lat="47.584928" lon="9.34633">
    <ele>400</ele>
    <time>2016-07-31T02:33:04Z</time>
    </trkpt>
    <trkpt lat="47.585353" lon="9.345661">
    <ele>400</ele>
    <time>2016-07-31T02:33:18Z</time>
    </trkpt>
    <trkpt lat="47.58545" lon="9.345136">
    <ele>400</ele>
    <time>2016-07-31T02:33:27Z</time>
    </trkpt>
    <trkpt lat="47.585561" lon="9.343766">
    <ele>400</ele>
    <time>2016-07-31T02:33:49Z</time>
    </trkpt>
    <trkpt lat="47.58532" lon="9.343008">
    <ele>401</ele>
    <time>2016-07-31T02:34:02Z</time>
    </trkpt>
    <trkpt lat="47.585037" lon="9.342175">
    <ele>402</ele>
    <time>2016-07-31T02:34:17Z</time>
    </trkpt>
    <trkpt lat="47.58504" lon="9.342186">
    <ele>402</ele>
    <time>2016-07-31T02:34:17Z</time>
    </trkpt>
    <trkpt lat="47.585675" lon="9.340535">
    <ele>404</ele>
    <time>2016-07-31T02:34:48Z</time>
    </trkpt>
    <trkpt lat="47.585811" lon="9.340127">
    <ele>404</ele>
    <time>2016-07-31T02:34:55Z</time>
    </trkpt>
    <trkpt lat="47.585711" lon="9.339816">
    <ele>405</ele>
    <time>2016-07-31T02:35:00Z</time>
    </trkpt>
    <trkpt lat="47.586265" lon="9.338539">
    <ele>406</ele>
    <time>2016-07-31T02:35:25Z</time>
    </trkpt>
    <trkpt lat="47.586265" lon="9.338539">
    <ele>406</ele>
    <time>2016-07-31T02:35:25Z</time>
    </trkpt>
    <trkpt lat="47.586393" lon="9.338486">
    <ele>406</ele>
    <time>2016-07-31T02:35:28Z</time>
    </trkpt>
    <trkpt lat="47.587002" lon="9.336962">
    <ele>408</ele>
    <time>2016-07-31T02:35:56Z</time>
    </trkpt>
    <trkpt lat="47.587206" lon="9.336754">
    <ele>408</ele>
    <time>2016-07-31T02:36:02Z</time>
    </trkpt>
    <trkpt lat="47.587843" lon="9.335193">
    <ele>409</ele>
    <time>2016-07-31T02:36:31Z</time>
    </trkpt>
    <trkpt lat="47.58779" lon="9.335124">
    <ele>409</ele>
    <time>2016-07-31T02:36:32Z</time>
    </trkpt>
    <trkpt lat="47.587713" lon="9.335036">
    <ele>410</ele>
    <time>2016-07-31T02:36:35Z</time>
    </trkpt>
    <trkpt lat="47.587649" lon="9.334993">
    <ele>410</ele>
    <time>2016-07-31T02:36:36Z</time>
    </trkpt>
    <trkpt lat="47.587661" lon="9.334862">
    <ele>409</ele>
    <time>2016-07-31T02:36:38Z</time>
    </trkpt>
    <trkpt lat="47.587693" lon="9.334784">
    <ele>409</ele>
    <time>2016-07-31T02:36:40Z</time>
    </trkpt>
    <trkpt lat="47.587693" lon="9.334784">
    <ele>409</ele>
    <time>2016-07-31T02:36:40Z</time>
    </trkpt>
    <trkpt lat="47.587794" lon="9.334825">
    <ele>409</ele>
    <time>2016-07-31T02:36:42Z</time>
    </trkpt>
    <trkpt lat="47.587869" lon="9.334875">
    <ele>409</ele>
    <time>2016-07-31T02:36:44Z</time>
    </trkpt>
    <trkpt lat="47.587887" lon="9.334889">
    <ele>409</ele>
    <time>2016-07-31T02:36:45Z</time>
    </trkpt>
    <trkpt lat="47.587896" lon="9.334917">
    <ele>408</ele>
    <time>2016-07-31T02:36:45Z</time>
    </trkpt>
    <trkpt lat="47.588219" lon="9.335168">
    <ele>407</ele>
    <time>2016-07-31T02:36:54Z</time>
    </trkpt>
    <trkpt lat="47.588228" lon="9.335133">
    <ele>407</ele>
    <time>2016-07-31T02:36:55Z</time>
    </trkpt>
    <trkpt lat="47.588263" lon="9.33496">
    <ele>407</ele>
    <time>2016-07-31T02:36:57Z</time>
    </trkpt>
    <trkpt lat="47.588279" lon="9.334805">
    <ele>407</ele>
    <time>2016-07-31T02:37:00Z</time>
    </trkpt>
    <trkpt lat="47.588941" lon="9.333055">
    <ele>406</ele>
    <time>2016-07-31T02:37:32Z</time>
    </trkpt>
    <trkpt lat="47.589726" lon="9.331152">
    <ele>405</ele>
    <time>2016-07-31T02:38:07Z</time>
    </trkpt>
    <trkpt lat="47.591047" lon="9.32776">
    <ele>404</ele>
    <time>2016-07-31T02:39:10Z</time>
    </trkpt>
    <trkpt lat="47.591988" lon="9.325275">
    <ele>403</ele>
    <time>2016-07-31T02:39:55Z</time>
    </trkpt>
    <trkpt lat="47.593323" lon="9.322184">
    <ele>402</ele>
    <time>2016-07-31T02:40:53Z</time>
    </trkpt>
    <trkpt lat="47.593444" lon="9.321909">
    <ele>402</ele>
    <time>2016-07-31T02:40:59Z</time>
    </trkpt>
    <trkpt lat="47.594424" lon="9.322798">
    <ele>402</ele>
    <time>2016-07-31T02:41:26Z</time>
    </trkpt>
    <trkpt lat="47.59525" lon="9.321278">
    <ele>401</ele>
    <time>2016-07-31T02:41:57Z</time>
    </trkpt>
    <trkpt lat="47.595276" lon="9.321271">
    <ele>401</ele>
    <time>2016-07-31T02:41:57Z</time>
    </trkpt>
    <trkpt lat="47.596003" lon="9.320339">
    <ele>401</ele>
    <time>2016-07-31T02:42:20Z</time>
    </trkpt>
    <trkpt lat="47.597531" lon="9.317288">
    <ele>401</ele>
    <time>2016-07-31T02:43:20Z</time>
    </trkpt>
    <trkpt lat="47.59827" lon="9.316053">
    <ele>401</ele>
    <time>2016-07-31T02:43:47Z</time>
    </trkpt>
    <trkpt lat="47.599239" lon="9.314722">
    <ele>401</ele>
    <time>2016-07-31T02:44:18Z</time>
    </trkpt>
    <trkpt lat="47.600111" lon="9.313488">
    <ele>401</ele>
    <time>2016-07-31T02:44:46Z</time>
    </trkpt>
    <trkpt lat="47.600204" lon="9.313155">
    <ele>401</ele>
    <time>2016-07-31T02:44:52Z</time>
    </trkpt>
    <trkpt lat="47.60023" lon="9.313108">
    <ele>401</ele>
    <time>2016-07-31T02:44:53Z</time>
    </trkpt>
    <trkpt lat="47.599442" lon="9.312226">
    <ele>402</ele>
    <time>2016-07-31T02:45:16Z</time>
    </trkpt>
    <trkpt lat="47.599817" lon="9.311338">
    <ele>403</ele>
    <time>2016-07-31T02:45:33Z</time>
    </trkpt>
    <trkpt lat="47.599186" lon="9.310447">
    <ele>403</ele>
    <time>2016-07-31T02:45:53Z</time>
    </trkpt>
    <trkpt lat="47.599938" lon="9.308933">
    <ele>404</ele>
    <time>2016-07-31T02:46:23Z</time>
    </trkpt>
    <trkpt lat="47.601847" lon="9.305281">
    <ele>406</ele>
    <time>2016-07-31T02:47:37Z</time>
    </trkpt>
    <trkpt lat="47.603124" lon="9.302869">
    <ele>407</ele>
    <time>2016-07-31T02:48:26Z</time>
    </trkpt>
    <trkpt lat="47.603854" lon="9.303313">
    <ele>408</ele>
    <time>2016-07-31T02:48:44Z</time>
    </trkpt>
    <trkpt lat="47.604156" lon="9.3031">
    <ele>408</ele>
    <time>2016-07-31T02:48:52Z</time>
    </trkpt>
    <trkpt lat="47.604474" lon="9.302852">
    <ele>407</ele>
    <time>2016-07-31T02:49:01Z</time>
    </trkpt>
    <trkpt lat="47.604964" lon="9.303258">
    <ele>407</ele>
    <time>2016-07-31T02:49:14Z</time>
    </trkpt>
    <trkpt lat="47.604985" lon="9.303291">
    <ele>407</ele>
    <time>2016-07-31T02:49:14Z</time>
    </trkpt>
    <trkpt lat="47.606304" lon="9.300862">
    <ele>405</ele>
    <time>2016-07-31T02:50:04Z</time>
    </trkpt>
    <trkpt lat="47.60718" lon="9.299332">
    <ele>404</ele>
    <time>2016-07-31T02:50:36Z</time>
    </trkpt>
    <trkpt lat="47.607739" lon="9.298568">
    <ele>404</ele>
    <time>2016-07-31T02:50:54Z</time>
    </trkpt>
    <trkpt lat="47.607985" lon="9.298508">
    <ele>404</ele>
    <time>2016-07-31T02:51:00Z</time>
    </trkpt>
    <trkpt lat="47.608123" lon="9.297926">
    <ele>404</ele>
    <time>2016-07-31T02:51:10Z</time>
    </trkpt>
    <trkpt lat="47.60846" lon="9.297416">
    <ele>404</ele>
    <time>2016-07-31T02:51:21Z</time>
    </trkpt>
    <trkpt lat="47.608814" lon="9.296948">
    <ele>404</ele>
    <time>2016-07-31T02:51:32Z</time>
    </trkpt>
    <trkpt lat="47.608356" lon="9.296267">
    <ele>405</ele>
    <time>2016-07-31T02:51:47Z</time>
    </trkpt>
    <trkpt lat="47.607489" lon="9.295014">
    <ele>406</ele>
    <time>2016-07-31T02:52:16Z</time>
    </trkpt>
    <trkpt lat="47.607802" lon="9.294396">
    <ele>407</ele>
    <time>2016-07-31T02:52:28Z</time>
    </trkpt>
    <trkpt lat="47.60832" lon="9.293632">
    <ele>408</ele>
    <time>2016-07-31T02:52:45Z</time>
    </trkpt>
    <trkpt lat="47.609106" lon="9.29227">
    <ele>408</ele>
    <time>2016-07-31T02:53:14Z</time>
    </trkpt>
    <trkpt lat="47.610605" lon="9.289479">
    <ele>409</ele>
    <time>2016-07-31T02:54:11Z</time>
    </trkpt>
    <trkpt lat="47.610622" lon="9.28945">
    <ele>409</ele>
    <time>2016-07-31T02:54:11Z</time>
    </trkpt>
    <trkpt lat="47.610436" lon="9.289205">
    <ele>409</ele>
    <time>2016-07-31T02:54:17Z</time>
    </trkpt>
    <trkpt lat="47.610495" lon="9.289138">
    <ele>409</ele>
    <time>2016-07-31T02:54:19Z</time>
    </trkpt>
    <trkpt lat="47.611923" lon="9.286536">
    <ele>410</ele>
    <time>2016-07-31T02:55:12Z</time>
    </trkpt>
    <trkpt lat="47.612792" lon="9.285006">
    <ele>410</ele>
    <time>2016-07-31T02:55:44Z</time>
    </trkpt>
    <trkpt lat="47.613658" lon="9.283">
    <ele>410</ele>
    <time>2016-07-31T02:56:22Z</time>
    </trkpt>
    <trkpt lat="47.614878" lon="9.280279">
    <ele>410</ele>
    <time>2016-07-31T02:57:14Z</time>
    </trkpt>
    <trkpt lat="47.616479" lon="9.276673">
    <ele>410</ele>
    <time>2016-07-31T02:58:23Z</time>
    </trkpt>
    <trkpt lat="47.618221" lon="9.272963">
    <ele>411</ele>
    <time>2016-07-31T02:59:35Z</time>
    </trkpt>
    <trkpt lat="47.619863" lon="9.269202">
    <ele>411</ele>
    <time>2016-07-31T03:00:46Z</time>
    </trkpt>
    <trkpt lat="47.619896" lon="9.269114">
    <ele>411</ele>
    <time>2016-07-31T03:00:47Z</time>
    </trkpt>
    <trkpt lat="47.621178" lon="9.265854">
    <ele>412</ele>
    <time>2016-07-31T03:01:47Z</time>
    </trkpt>
    <trkpt lat="47.621193" lon="9.265796">
    <ele>412</ele>
    <time>2016-07-31T03:01:48Z</time>
    </trkpt>
    <trkpt lat="47.62159" lon="9.264951">
    <ele>411</ele>
    <time>2016-07-31T03:02:05Z</time>
    </trkpt>
    <trkpt lat="47.621913" lon="9.264369">
    <ele>411</ele>
    <time>2016-07-31T03:02:17Z</time>
    </trkpt>
    <trkpt lat="47.621936" lon="9.264299">
    <ele>411</ele>
    <time>2016-07-31T03:02:18Z</time>
    </trkpt>
    <trkpt lat="47.62278" lon="9.262514">
    <ele>410</ele>
    <time>2016-07-31T03:02:53Z</time>
    </trkpt>
    <trkpt lat="47.623938" lon="9.259728">
    <ele>409</ele>
    <time>2016-07-31T03:03:45Z</time>
    </trkpt>
    <trkpt lat="47.625779" lon="9.255471">
    <ele>408</ele>
    <time>2016-07-31T03:05:05Z</time>
    </trkpt>
    <trkpt lat="47.626789" lon="9.253105">
    <ele>407</ele>
    <time>2016-07-31T03:05:50Z</time>
    </trkpt>
    <trkpt lat="47.62715" lon="9.251981">
    <ele>406</ele>
    <time>2016-07-31T03:06:10Z</time>
    </trkpt>
    <trkpt lat="47.627193" lon="9.251983">
    <ele>406</ele>
    <time>2016-07-31T03:06:11Z</time>
    </trkpt>
    <trkpt lat="47.62733" lon="9.252094">
    <ele>406</ele>
    <time>2016-07-31T03:06:14Z</time>
    </trkpt>
    <trkpt lat="47.627355" lon="9.252101">
    <ele>406</ele>
    <time>2016-07-31T03:06:15Z</time>
    </trkpt>
    <trkpt lat="47.627528" lon="9.251615">
    <ele>406</ele>
    <time>2016-07-31T03:06:24Z</time>
    </trkpt>
    <trkpt lat="47.629339" lon="9.246179">
    <ele>405</ele>
    <time>2016-07-31T03:08:00Z</time>
    </trkpt>
    <trkpt lat="47.62935" lon="9.246116">
    <ele>405</ele>
    <time>2016-07-31T03:08:01Z</time>
    </trkpt>
    <trkpt lat="47.63051" lon="9.242619">
    <ele>404</ele>
    <time>2016-07-31T03:09:03Z</time>
    </trkpt>
    <trkpt lat="47.631159" lon="9.240674">
    <ele>404</ele>
    <time>2016-07-31T03:09:38Z</time>
    </trkpt>
    <trkpt lat="47.631608" lon="9.239254">
    <ele>404</ele>
    <time>2016-07-31T03:10:02Z</time>
    </trkpt>
    <trkpt lat="47.632074" lon="9.239188">
    <ele>404</ele>
    <time>2016-07-31T03:10:14Z</time>
    </trkpt>
    <trkpt lat="47.632438" lon="9.23917">
    <ele>405</ele>
    <time>2016-07-31T03:10:22Z</time>
    </trkpt>
    <trkpt lat="47.632435" lon="9.238014">
    <ele>405</ele>
    <time>2016-07-31T03:10:40Z</time>
    </trkpt>
    <trkpt lat="47.632497" lon="9.237035">
    <ele>405</ele>
    <time>2016-07-31T03:10:56Z</time>
    </trkpt>
    <trkpt lat="47.632858" lon="9.235345">
    <ele>406</ele>
    <time>2016-07-31T03:11:24Z</time>
    </trkpt>
    <trkpt lat="47.632818" lon="9.235108">
    <ele>406</ele>
    <time>2016-07-31T03:11:28Z</time>
    </trkpt>
    <trkpt lat="47.632521" lon="9.235013">
    <ele>406</ele>
    <time>2016-07-31T03:11:35Z</time>
    </trkpt>
    <trkpt lat="47.632491" lon="9.235001">
    <ele>406</ele>
    <time>2016-07-31T03:11:36Z</time>
    </trkpt>
    <trkpt lat="47.632281" lon="9.234915">
    <ele>406</ele>
    <time>2016-07-31T03:11:41Z</time>
    </trkpt>
    <trkpt lat="47.632233" lon="9.234857">
    <ele>406</ele>
    <time>2016-07-31T03:11:43Z</time>
    </trkpt>
    <trkpt lat="47.632278" lon="9.234351">
    <ele>406</ele>
    <time>2016-07-31T03:11:51Z</time>
    </trkpt>
    <trkpt lat="47.632469" lon="9.232513">
    <ele>408</ele>
    <time>2016-07-31T03:12:20Z</time>
    </trkpt>
    <trkpt lat="47.632456" lon="9.232537">
    <ele>408</ele>
    <time>2016-07-31T03:12:21Z</time>
    </trkpt>
    <trkpt lat="47.632604" lon="9.232197">
    <ele>408</ele>
    <time>2016-07-31T03:12:27Z</time>
    </trkpt>
    <trkpt lat="47.632736" lon="9.231408">
    <ele>408</ele>
    <time>2016-07-31T03:12:40Z</time>
    </trkpt>
    <trkpt lat="47.632736" lon="9.231408">
    <ele>408</ele>
    <time>2016-07-31T03:12:40Z</time>
    </trkpt>
    <trkpt lat="47.632856" lon="9.230411">
    <ele>408</ele>
    <time>2016-07-31T03:12:56Z</time>
    </trkpt>
    <trkpt lat="47.632928" lon="9.229556">
    <ele>408</ele>
    <time>2016-07-31T03:13:10Z</time>
    </trkpt>
    <trkpt lat="47.633026" lon="9.229011">
    <ele>408</ele>
    <time>2016-07-31T03:13:19Z</time>
    </trkpt>
    <trkpt lat="47.633026" lon="9.229011">
    <ele>408</ele>
    <time>2016-07-31T03:13:19Z</time>
    </trkpt>
    <trkpt lat="47.633209" lon="9.227822">
    <ele>408</ele>
    <time>2016-07-31T03:13:38Z</time>
    </trkpt>
    <trkpt lat="47.633399" lon="9.226548">
    <ele>407</ele>
    <time>2016-07-31T03:13:59Z</time>
    </trkpt>
    <trkpt lat="47.633504" lon="9.226414">
    <ele>407</ele>
    <time>2016-07-31T03:14:02Z</time>
    </trkpt>
    <trkpt lat="47.633642" lon="9.225551">
    <ele>407</ele>
    <time>2016-07-31T03:14:17Z</time>
    </trkpt>
    <trkpt lat="47.633709" lon="9.225016">
    <ele>407</ele>
    <time>2016-07-31T03:14:25Z</time>
    </trkpt>
    <trkpt lat="47.63369" lon="9.224641">
    <ele>407</ele>
    <time>2016-07-31T03:14:31Z</time>
    </trkpt>
    <trkpt lat="47.633762" lon="9.224478">
    <ele>407</ele>
    <time>2016-07-31T03:14:34Z</time>
    </trkpt>
    <trkpt lat="47.633892" lon="9.223688">
    <ele>407</ele>
    <time>2016-07-31T03:14:47Z</time>
    </trkpt>
    <trkpt lat="47.633985" lon="9.22362">
    <ele>407</ele>
    <time>2016-07-31T03:14:50Z</time>
    </trkpt>
    <trkpt lat="47.634011" lon="9.223681">
    <ele>407</ele>
    <time>2016-07-31T03:14:51Z</time>
    </trkpt>
    <trkpt lat="47.634442" lon="9.22365">
    <ele>406</ele>
    <time>2016-07-31T03:15:01Z</time>
    </trkpt>
    <trkpt lat="47.63447" lon="9.223598">
    <ele>406</ele>
    <time>2016-07-31T03:15:02Z</time>
    </trkpt>
    <trkpt lat="47.634589" lon="9.223336">
    <ele>406</ele>
    <time>2016-07-31T03:15:07Z</time>
    </trkpt>
    <trkpt lat="47.634683" lon="9.222485">
    <ele>405</ele>
    <time>2016-07-31T03:15:21Z</time>
    </trkpt>
    <trkpt lat="47.63539" lon="9.221272">
    <ele>405</ele>
    <time>2016-07-31T03:15:46Z</time>
    </trkpt>
    <trkpt lat="47.635811" lon="9.220756">
    <ele>405</ele>
    <time>2016-07-31T03:15:59Z</time>
    </trkpt>
    <trkpt lat="47.636221" lon="9.220212">
    <ele>405</ele>
    <time>2016-07-31T03:16:12Z</time>
    </trkpt>
    <trkpt lat="47.636946" lon="9.219339">
    <ele>405</ele>
    <time>2016-07-31T03:16:34Z</time>
    </trkpt>
    <trkpt lat="47.637982" lon="9.218049">
    <ele>405</ele>
    <time>2016-07-31T03:17:06Z</time>
    </trkpt>
    <trkpt lat="47.638649" lon="9.217169">
    <ele>405</ele>
    <time>2016-07-31T03:17:27Z</time>
    </trkpt>
    <trkpt lat="47.639196" lon="9.216285">
    <ele>405</ele>
    <time>2016-07-31T03:17:46Z</time>
    </trkpt>
    <trkpt lat="47.640391" lon="9.214142">
    <ele>404</ele>
    <time>2016-07-31T03:18:30Z</time>
    </trkpt>
    <trkpt lat="47.64116" lon="9.212544">
    <ele>404</ele>
    <time>2016-07-31T03:19:01Z</time>
    </trkpt>
    <trkpt lat="47.641174" lon="9.212531">
    <ele>404</ele>
    <time>2016-07-31T03:19:02Z</time>
    </trkpt>
    <trkpt lat="47.641956" lon="9.210684">
    <ele>404</ele>
    <time>2016-07-31T03:19:37Z</time>
    </trkpt>
    <trkpt lat="47.642586" lon="9.211134">
    <ele>404</ele>
    <time>2016-07-31T03:19:53Z</time>
    </trkpt>
    <trkpt lat="47.643244" lon="9.210739">
    <ele>404</ele>
    <time>2016-07-31T03:20:10Z</time>
    </trkpt>
    <trkpt lat="47.643298" lon="9.210668">
    <ele>404</ele>
    <time>2016-07-31T03:20:11Z</time>
    </trkpt>
    <trkpt lat="47.643383" lon="9.210516">
    <ele>404</ele>
    <time>2016-07-31T03:20:15Z</time>
    </trkpt>
    <trkpt lat="47.643647" lon="9.209864">
    <ele>404</ele>
    <time>2016-07-31T03:20:27Z</time>
    </trkpt>
    <trkpt lat="47.642814" lon="9.208833">
    <ele>403</ele>
    <time>2016-07-31T03:20:52Z</time>
    </trkpt>
    <trkpt lat="47.642663" lon="9.208586">
    <ele>403</ele>
    <time>2016-07-31T03:20:58Z</time>
    </trkpt>
    <trkpt lat="47.642679" lon="9.208499">
    <ele>403</ele>
    <time>2016-07-31T03:20:59Z</time>
    </trkpt>
    <trkpt lat="47.643029" lon="9.207097">
    <ele>403</ele>
    <time>2016-07-31T03:21:23Z</time>
    </trkpt>
    <trkpt lat="47.64354" lon="9.204346">
    <ele>402</ele>
    <time>2016-07-31T03:22:08Z</time>
    </trkpt>
    <trkpt lat="47.643665" lon="9.202847">
    <ele>401</ele>
    <time>2016-07-31T03:22:32Z</time>
    </trkpt>
    <trkpt lat="47.643989" lon="9.202637">
    <ele>401</ele>
    <time>2016-07-31T03:22:40Z</time>
    </trkpt>
    <trkpt lat="47.644216" lon="9.201881">
    <ele>401</ele>
    <time>2016-07-31T03:22:54Z</time>
    </trkpt>
    <trkpt lat="47.644222" lon="9.201814">
    <ele>401</ele>
    <time>2016-07-31T03:22:55Z</time>
    </trkpt>
    <trkpt lat="47.644408" lon="9.200963">
    <ele>401</ele>
    <time>2016-07-31T03:23:09Z</time>
    </trkpt>
    <trkpt lat="47.644312" lon="9.200848">
    <ele>401</ele>
    <time>2016-07-31T03:23:12Z</time>
    </trkpt>
    <trkpt lat="47.644505" lon="9.199777">
    <ele>401</ele>
    <time>2016-07-31T03:23:29Z</time>
    </trkpt>
    <trkpt lat="47.645121" lon="9.196883">
    <ele>400</ele>
    <time>2016-07-31T03:24:18Z</time>
    </trkpt>
    <trkpt lat="47.645359" lon="9.195748">
    <ele>400</ele>
    <time>2016-07-31T03:24:37Z</time>
    </trkpt>
    <trkpt lat="47.645358" lon="9.19582">
    <ele>400</ele>
    <time>2016-07-31T03:24:38Z</time>
    </trkpt>
    <trkpt lat="47.645995" lon="9.196103">
    <ele>400</ele>
    <time>2016-07-31T03:24:53Z</time>
    </trkpt>
    <trkpt lat="47.646209" lon="9.194507">
    <ele>400</ele>
    <time>2016-07-31T03:25:19Z</time>
    </trkpt>
    <trkpt lat="47.646277" lon="9.193196">
    <ele>400</ele>
    <time>2016-07-31T03:25:40Z</time>
    </trkpt>
    <trkpt lat="47.646309" lon="9.1911">
    <ele>401</ele>
    <time>2016-07-31T03:26:14Z</time>
    </trkpt>
    <trkpt lat="47.646642" lon="9.190519">
    <ele>402</ele>
    <time>2016-07-31T03:26:26Z</time>
    </trkpt>
    <trkpt lat="47.647269" lon="9.189609">
    <ele>403</ele>
    <time>2016-07-31T03:26:46Z</time>
    </trkpt>
    <trkpt lat="47.647272" lon="9.189594">
    <ele>403</ele>
    <time>2016-07-31T03:26:47Z</time>
    </trkpt>
    <trkpt lat="47.647173" lon="9.188347">
    <ele>404</ele>
    <time>2016-07-31T03:27:07Z</time>
    </trkpt>
    <trkpt lat="47.647235" lon="9.188112">
    <ele>404</ele>
    <time>2016-07-31T03:27:11Z</time>
    </trkpt>
    <trkpt lat="47.647254" lon="9.188051">
    <ele>405</ele>
    <time>2016-07-31T03:27:12Z</time>
    </trkpt>
    <trkpt lat="47.647413" lon="9.187518">
    <ele>406</ele>
    <time>2016-07-31T03:27:21Z</time>
    </trkpt>
    <trkpt lat="47.647557" lon="9.18735">
    <ele>407</ele>
    <time>2016-07-31T03:27:25Z</time>
    </trkpt>
    <trkpt lat="47.647775" lon="9.187153">
    <ele>407</ele>
    <time>2016-07-31T03:27:31Z</time>
    </trkpt>
    <trkpt lat="47.647742" lon="9.186937">
    <ele>408</ele>
    <time>2016-07-31T03:27:35Z</time>
    </trkpt>
    <trkpt lat="47.647742" lon="9.186937">
    <ele>408</ele>
    <time>2016-07-31T03:27:35Z</time>
    </trkpt>
    <trkpt lat="47.647479" lon="9.185486">
    <ele>407</ele>
    <time>2016-07-31T03:27:59Z</time>
    </trkpt>
    <trkpt lat="47.647876" lon="9.184561">
    <ele>406</ele>
    <time>2016-07-31T03:28:16Z</time>
    </trkpt>
    <trkpt lat="47.648518" lon="9.183667">
    <ele>405</ele>
    <time>2016-07-31T03:28:37Z</time>
    </trkpt>
    <trkpt lat="47.649647" lon="9.182259">
    <ele>404</ele>
    <time>2016-07-31T03:29:12Z</time>
    </trkpt>
    <trkpt lat="47.650305" lon="9.181386">
    <ele>404</ele>
    <time>2016-07-31T03:29:32Z</time>
    </trkpt>
    <trkpt lat="47.650265" lon="9.181357">
    <ele>404</ele>
    <time>2016-07-31T03:29:34Z</time>
    </trkpt>
    <trkpt lat="47.650284" lon="9.181073">
    <ele>403</ele>
    <time>2016-07-31T03:29:38Z</time>
    </trkpt>
    <trkpt lat="47.650399" lon="9.180796">
    <ele>403</ele>
    <time>2016-07-31T03:29:43Z</time>
    </trkpt>
    <trkpt lat="47.650721" lon="9.180409">
    <ele>403</ele>
    <time>2016-07-31T03:29:53Z</time>
    </trkpt>
    <trkpt lat="47.650987" lon="9.180059">
    <ele>403</ele>
    <time>2016-07-31T03:30:01Z</time>
    </trkpt>
    <trkpt lat="47.651247" lon="9.180017">
    <ele>403</ele>
    <time>2016-07-31T03:30:08Z</time>
    </trkpt>
    <trkpt lat="47.651413" lon="9.180336">
    <ele>402</ele>
    <time>2016-07-31T03:30:14Z</time>
    </trkpt>
    <trkpt lat="47.651525" lon="9.18032">
    <ele>402</ele>
    <time>2016-07-31T03:30:17Z</time>
    </trkpt>
    <trkpt lat="47.653479" lon="9.178287">
    <ele>400</ele>
    <time>2016-07-31T03:31:13Z</time>
    </trkpt>
    <trkpt lat="47.654401" lon="9.177352">
    <ele>399</ele>
    <time>2016-07-31T03:31:39Z</time>
    </trkpt>
    <trkpt lat="47.654587" lon="9.177189">
    <ele>399</ele>
    <time>2016-07-31T03:31:44Z</time>
    </trkpt>
    <trkpt lat="47.654586" lon="9.177177">
    <ele>399</ele>
    <time>2016-07-31T03:31:44Z</time>
    </trkpt>
    <trkpt lat="47.654844" lon="9.177316">
    <ele>399</ele>
    <time>2016-07-31T03:31:51Z</time>
    </trkpt>
    <trkpt lat="47.655202" lon="9.177389">
    <ele>399</ele>
    <time>2016-07-31T03:31:59Z</time>
    </trkpt>
    <trkpt lat="47.654878" lon="9.177032">
    <ele>399</ele>
    <time>2016-07-31T03:32:09Z</time>
    </trkpt>
    <trkpt lat="47.654685" lon="9.176766">
    <ele>399</ele>
    <time>2016-07-31T03:32:15Z</time>
    </trkpt>
    <trkpt lat="47.654665" lon="9.176448">
    <ele>399</ele>
    <time>2016-07-31T03:32:20Z</time>
    </trkpt>
    <trkpt lat="47.655019" lon="9.176289">
    <ele>399</ele>
    <time>2016-07-31T03:32:29Z</time>
    </trkpt>
    <trkpt lat="47.657407" lon="9.176794">
    <ele>400</ele>
    <time>2016-07-31T03:33:26Z</time>
    </trkpt>
    <trkpt lat="47.657724" lon="9.176843">
    <ele>400</ele>
    <time>2016-07-31T03:33:33Z</time>
    </trkpt>
    <trkpt lat="47.657788" lon="9.176684">
    <ele>400</ele>
    <time>2016-07-31T03:33:36Z</time>
    </trkpt>
    <trkpt lat="47.657962" lon="9.176724">
    <ele>400</ele>
    <time>2016-07-31T03:33:40Z</time>
    </trkpt>
    <trkpt lat="47.658986" lon="9.1769">
    <ele>400</ele>
    <time>2016-07-31T03:34:05Z</time>
    </trkpt>
    <trkpt lat="47.659583" lon="9.177087">
    <ele>400</ele>
    <time>2016-07-31T03:34:19Z</time>
    </trkpt>
    <trkpt lat="47.660247" lon="9.177214">
    <ele>400</ele>
    <time>2016-07-31T03:34:35Z</time>
    </trkpt>
    <trkpt lat="47.660289" lon="9.177287">
    <ele>400</ele>
    <time>2016-07-31T03:34:36Z</time>
    </trkpt>
    <trkpt lat="47.660522" lon="9.17758">
    <ele>400</ele>
    <time>2016-07-31T03:34:43Z</time>
    </trkpt>
    <trkpt lat="47.660836" lon="9.177893">
    <ele>400</ele>
    <time>2016-07-31T03:34:52Z</time>
    </trkpt>
    <trkpt lat="47.661249" lon="9.177854">
    <ele>400</ele>
    <time>2016-07-31T03:35:02Z</time>
    </trkpt>
    <trkpt lat="47.661522" lon="9.177511">
    <ele>401</ele>
    <time>2016-07-31T03:35:10Z</time>
    </trkpt>
    <trkpt lat="47.661549" lon="9.177426">
    <ele>401</ele>
    <time>2016-07-31T03:35:12Z</time>
    </trkpt>
    <trkpt lat="47.661961" lon="9.177445">
    <ele>401</ele>
    <time>2016-07-31T03:35:22Z</time>
    </trkpt>
    <trkpt lat="47.662304" lon="9.177598">
    <ele>401</ele>
    <time>2016-07-31T03:35:30Z</time>
    </trkpt>
    <trkpt lat="47.662903" lon="9.17779">
    <ele>401</ele>
    <time>2016-07-31T03:35:44Z</time>
    </trkpt>
    <trkpt lat="47.664155" lon="9.177593">
    <ele>401</ele>
    <time>2016-07-31T03:36:14Z</time>
    </trkpt>
    <trkpt lat="47.664739" lon="9.177556">
    <ele>400</ele>
    <time>2016-07-31T03:36:28Z</time>
    </trkpt>
    <trkpt lat="47.665163" lon="9.177629">
    <ele>400</ele>
    <time>2016-07-31T03:36:38Z</time>
    </trkpt>
    <trkpt lat="47.665666" lon="9.178018">
    <ele>400</ele>
    <time>2016-07-31T03:36:51Z</time>
    </trkpt>
    <trkpt lat="47.66588" lon="9.177871">
    <ele>400</ele>
    <time>2016-07-31T03:36:57Z</time>
    </trkpt>
    <trkpt lat="47.66594" lon="9.177735">
    <ele>400</ele>
    <time>2016-07-31T03:36:59Z</time>
    </trkpt>
    <trkpt lat="47.666267" lon="9.177057">
    <ele>400</ele>
    <time>2016-07-31T03:37:13Z</time>
    </trkpt>
    <trkpt lat="47.666703" lon="9.176235">
    <ele>400</ele>
    <time>2016-07-31T03:37:29Z</time>
    </trkpt>
    <trkpt lat="47.666814" lon="9.175915">
    <ele>400</ele>
    <time>2016-07-31T03:37:35Z</time>
    </trkpt>
    <trkpt lat="47.667009" lon="9.175059">
    <ele>401</ele>
    <time>2016-07-31T03:37:49Z</time>
    </trkpt>
    <trkpt lat="47.667694" lon="9.173705">
    <ele>402</ele>
    <time>2016-07-31T03:38:16Z</time>
    </trkpt>
    <trkpt lat="47.667712" lon="9.173652">
    <ele>402</ele>
    <time>2016-07-31T03:38:17Z</time>
    </trkpt>
    <trkpt lat="47.668987" lon="9.174449">
    <ele>403</ele>
    <time>2016-07-31T03:38:50Z</time>
    </trkpt>
    <trkpt lat="47.669495" lon="9.174781">
    <ele>404</ele>
    <time>2016-07-31T03:39:03Z</time>
    </trkpt>
    <trkpt lat="47.669809" lon="9.175422">
    <ele>404</ele>
    <time>2016-07-31T03:39:15Z</time>
    </trkpt>
    <trkpt lat="47.669794" lon="9.175545">
    <ele>404</ele>
    <time>2016-07-31T03:39:17Z</time>
    </trkpt>
    <trkpt lat="47.670225" lon="9.176227">
    <ele>404</ele>
    <time>2016-07-31T03:39:32Z</time>
    </trkpt>
    <trkpt lat="47.670225" lon="9.176227">
    <ele>404</ele>
    <time>2016-07-31T03:39:32Z</time>
    </trkpt>
    <trkpt lat="47.670928" lon="9.177429">
    <ele>404</ele>
    <time>2016-07-31T03:39:58Z</time>
    </trkpt>
    <trkpt lat="47.671671" lon="9.178801">
    <ele>404</ele>
    <time>2016-07-31T03:40:26Z</time>
    </trkpt>
    <trkpt lat="47.671702" lon="9.178788">
    <ele>404</ele>
    <time>2016-07-31T03:40:26Z</time>
    </trkpt>
    <trkpt lat="47.672391" lon="9.177734">
    <ele>403</ele>
    <time>2016-07-31T03:40:50Z</time>
    </trkpt>
    <trkpt lat="47.672939" lon="9.176484">
    <ele>403</ele>
    <time>2016-07-31T03:41:13Z</time>
    </trkpt>
    <trkpt lat="47.673403" lon="9.175181">
    <ele>403</ele>
    <time>2016-07-31T03:41:37Z</time>
    </trkpt>
    <trkpt lat="47.674662" lon="9.171137">
    <ele>402</ele>
    <time>2016-07-31T03:42:48Z</time>
    </trkpt>
    <trkpt lat="47.675814" lon="9.167637">
    <ele>402</ele>
    <time>2016-07-31T03:43:49Z</time>
    </trkpt>
    <trkpt lat="47.677342" lon="9.162899">
    <ele>402</ele>
    <time>2016-07-31T03:45:13Z</time>
    </trkpt>
    <trkpt lat="47.677626" lon="9.161958">
    <ele>402</ele>
    <time>2016-07-31T03:45:29Z</time>
    </trkpt>
    <trkpt lat="47.678733" lon="9.158585">
    <ele>402</ele>
    <time>2016-07-31T03:46:29Z</time>
    </trkpt>
    <trkpt lat="47.679908" lon="9.154944">
    <ele>401</ele>
    <time>2016-07-31T03:47:33Z</time>
    </trkpt>
    <trkpt lat="47.682168" lon="9.14776">
    <ele>401</ele>
    <time>2016-07-31T03:49:39Z</time>
    </trkpt>
    <trkpt lat="47.682168" lon="9.14776">
    <ele>401</ele>
    <time>2016-07-31T03:49:39Z</time>
    </trkpt>
    <trkpt lat="47.682423" lon="9.146951">
    <ele>401</ele>
    <time>2016-07-31T03:49:53Z</time>
    </trkpt>
    <trkpt lat="47.682587" lon="9.146269">
    <ele>401</ele>
    <time>2016-07-31T03:50:05Z</time>
    </trkpt>
    <trkpt lat="47.68293" lon="9.14523">
    <ele>401</ele>
    <time>2016-07-31T03:50:23Z</time>
    </trkpt>
    <trkpt lat="47.684246" lon="9.141323">
    <ele>400</ele>
    <time>2016-07-31T03:51:33Z</time>
    </trkpt>
    <trkpt lat="47.68478" lon="9.139554">
    <ele>399</ele>
    <time>2016-07-31T03:52:03Z</time>
    </trkpt>
    <trkpt lat="47.685279" lon="9.138041">
    <ele>399</ele>
    <time>2016-07-31T03:52:30Z</time>
    </trkpt>
    <trkpt lat="47.685707" lon="9.136677">
    <ele>398</ele>
    <time>2016-07-31T03:52:54Z</time>
    </trkpt>
    <trkpt lat="47.686227" lon="9.135144">
    <ele>398</ele>
    <time>2016-07-31T03:53:21Z</time>
    </trkpt>
    <trkpt lat="47.686924" lon="9.132924">
    <ele>398</ele>
    <time>2016-07-31T03:54:00Z</time>
    </trkpt>
    <trkpt lat="47.686924" lon="9.132924">
    <ele>398</ele>
    <time>2016-07-31T03:54:00Z</time>
    </trkpt>
    <trkpt lat="47.687346" lon="9.131521">
    <ele>398</ele>
    <time>2016-07-31T03:54:25Z</time>
    </trkpt>
    <trkpt lat="47.687346" lon="9.131521">
    <ele>398</ele>
    <time>2016-07-31T03:54:25Z</time>
    </trkpt>
    <trkpt lat="47.689389" lon="9.125393">
    <ele>399</ele>
    <time>2016-07-31T03:56:13Z</time>
    </trkpt>
    <trkpt lat="47.689425" lon="9.125222">
    <ele>399</ele>
    <time>2016-07-31T03:56:16Z</time>
    </trkpt>
    <trkpt lat="47.689658" lon="9.126121">
    <ele>399</ele>
    <time>2016-07-31T03:56:31Z</time>
    </trkpt>
    <trkpt lat="47.689807" lon="9.126038">
    <ele>399</ele>
    <time>2016-07-31T03:56:35Z</time>
    </trkpt>
    <trkpt lat="47.690091" lon="9.125057">
    <ele>399</ele>
    <time>2016-07-31T03:56:52Z</time>
    </trkpt>
    <trkpt lat="47.690198" lon="9.124056">
    <ele>400</ele>
    <time>2016-07-31T03:57:08Z</time>
    </trkpt>
    <trkpt lat="47.691212" lon="9.121278">
    <ele>401</ele>
    <time>2016-07-31T03:57:58Z</time>
    </trkpt>
    <trkpt lat="47.692157" lon="9.118483">
    <ele>402</ele>
    <time>2016-07-31T03:58:48Z</time>
    </trkpt>
    <trkpt lat="47.692806" lon="9.117065">
    <ele>402</ele>
    <time>2016-07-31T03:59:15Z</time>
    </trkpt>
    <trkpt lat="47.693456" lon="9.116073">
    <ele>402</ele>
    <time>2016-07-31T03:59:37Z</time>
    </trkpt>
    <trkpt lat="47.69492" lon="9.115246">
    <ele>404</ele>
    <time>2016-07-31T04:00:14Z</time>
    </trkpt>
    <trkpt lat="47.695771" lon="9.114533">
    <ele>405</ele>
    <time>2016-07-31T04:00:37Z</time>
    </trkpt>
    <trkpt lat="47.696667" lon="9.114062">
    <ele>406</ele>
    <time>2016-07-31T04:01:00Z</time>
    </trkpt>
    <trkpt lat="47.697083" lon="9.113884">
    <ele>407</ele>
    <time>2016-07-31T04:01:10Z</time>
    </trkpt>
    <trkpt lat="47.697223" lon="9.114046">
    <ele>407</ele>
    <time>2016-07-31T04:01:14Z</time>
    </trkpt>
    <trkpt lat="47.696959" lon="9.113187">
    <ele>408</ele>
    <time>2016-07-31T04:01:29Z</time>
    </trkpt>
    <trkpt lat="47.697054" lon="9.113129">
    <ele>408</ele>
    <time>2016-07-31T04:01:31Z</time>
    </trkpt>
    <trkpt lat="47.697673" lon="9.113013">
    <ele>409</ele>
    <time>2016-07-31T04:01:46Z</time>
    </trkpt>
    <trkpt lat="47.699005" lon="9.112948">
    <ele>410</ele>
    <time>2016-07-31T04:02:17Z</time>
    </trkpt>
    <trkpt lat="47.699557" lon="9.112931">
    <ele>411</ele>
    <time>2016-07-31T04:02:30Z</time>
    </trkpt>
    <trkpt lat="47.700266" lon="9.112074">
    <ele>411</ele>
    <time>2016-07-31T04:02:52Z</time>
    </trkpt>
    <trkpt lat="47.701441" lon="9.110731">
    <ele>411</ele>
    <time>2016-07-31T04:03:27Z</time>
    </trkpt>
    <trkpt lat="47.701786" lon="9.111056">
    <ele>411</ele>
    <time>2016-07-31T04:03:37Z</time>
    </trkpt>
    <trkpt lat="47.701938" lon="9.111247">
    <ele>411</ele>
    <time>2016-07-31T04:03:41Z</time>
    </trkpt>
    <trkpt lat="47.702594" lon="9.109875">
    <ele>411</ele>
    <time>2016-07-31T04:04:08Z</time>
    </trkpt>
    <trkpt lat="47.703091" lon="9.108495">
    <ele>410</ele>
    <time>2016-07-31T04:04:33Z</time>
    </trkpt>
    <trkpt lat="47.703675" lon="9.10725">
    <ele>409</ele>
    <time>2016-07-31T04:04:57Z</time>
    </trkpt>
    <trkpt lat="47.70385" lon="9.106842">
    <ele>409</ele>
    <time>2016-07-31T04:05:05Z</time>
    </trkpt>
    <trkpt lat="47.70405" lon="9.106463">
    <ele>409</ele>
    <time>2016-07-31T04:05:12Z</time>
    </trkpt>
    <trkpt lat="47.704759" lon="9.105284">
    <ele>408</ele>
    <time>2016-07-31T04:05:37Z</time>
    </trkpt>
    <trkpt lat="47.705716" lon="9.103458">
    <ele>407</ele>
    <time>2016-07-31T04:06:14Z</time>
    </trkpt>
    <trkpt lat="47.706559" lon="9.101783">
    <ele>405</ele>
    <time>2016-07-31T04:06:47Z</time>
    </trkpt>
    <trkpt lat="47.707069" lon="9.100734">
    <ele>404</ele>
    <time>2016-07-31T04:07:08Z</time>
    </trkpt>
    <trkpt lat="47.706909" lon="9.100592">
    <ele>404</ele>
    <time>2016-07-31T04:07:12Z</time>
    </trkpt>
    <trkpt lat="47.707858" lon="9.098679">
    <ele>402</ele>
    <time>2016-07-31T04:07:50Z</time>
    </trkpt>
    <trkpt lat="47.707958" lon="9.098691">
    <ele>402</ele>
    <time>2016-07-31T04:07:52Z</time>
    </trkpt>
    <trkpt lat="47.708529" lon="9.097518">
    <ele>403</ele>
    <time>2016-07-31T04:08:15Z</time>
    </trkpt>
    <trkpt lat="47.708949" lon="9.096666">
    <ele>404</ele>
    <time>2016-07-31T04:08:32Z</time>
    </trkpt>
    <trkpt lat="47.709194" lon="9.095874">
    <ele>405</ele>
    <time>2016-07-31T04:08:46Z</time>
    </trkpt>
    <trkpt lat="47.709152" lon="9.094811">
    <ele>405</ele>
    <time>2016-07-31T04:09:03Z</time>
    </trkpt>
    <trkpt lat="47.709147" lon="9.092947">
    <ele>407</ele>
    <time>2016-07-31T04:09:32Z</time>
    </trkpt>
    <trkpt lat="47.709535" lon="9.091216">
    <ele>407</ele>
    <time>2016-07-31T04:10:01Z</time>
    </trkpt>
    <trkpt lat="47.709919" lon="9.089676">
    <ele>408</ele>
    <time>2016-07-31T04:10:27Z</time>
    </trkpt>
    <trkpt lat="47.710217" lon="9.088761">
    <ele>408</ele>
    <time>2016-07-31T04:10:44Z</time>
    </trkpt>
    <trkpt lat="47.710451" lon="9.087959">
    <ele>409</ele>
    <time>2016-07-31T04:10:58Z</time>
    </trkpt>
    <trkpt lat="47.710977" lon="9.086321">
    <ele>409</ele>
    <time>2016-07-31T04:11:26Z</time>
    </trkpt>
    <trkpt lat="47.71139" lon="9.085152">
    <ele>408</ele>
    <time>2016-07-31T04:11:47Z</time>
    </trkpt>
    <trkpt lat="47.711753" lon="9.083433">
    <ele>408</ele>
    <time>2016-07-31T04:12:16Z</time>
    </trkpt>
    <trkpt lat="47.711994" lon="9.082301">
    <ele>408</ele>
    <time>2016-07-31T04:12:35Z</time>
    </trkpt>
    <trkpt lat="47.712123" lon="9.081503">
    <ele>408</ele>
    <time>2016-07-31T04:12:48Z</time>
    </trkpt>
    <trkpt lat="47.712055" lon="9.081512">
    <ele>407</ele>
    <time>2016-07-31T04:12:49Z</time>
    </trkpt>
    <trkpt lat="47.710975" lon="9.081133">
    <ele>404</ele>
    <time>2016-07-31T04:13:16Z</time>
    </trkpt>
    <trkpt lat="47.711274" lon="9.079978">
    <ele>401</ele>
    <time>2016-07-31T04:13:35Z</time>
    </trkpt>
    <trkpt lat="47.711298" lon="9.080038">
    <ele>401</ele>
    <time>2016-07-31T04:13:36Z</time>
    </trkpt>
    <trkpt lat="47.711153" lon="9.08014">
    <ele>401</ele>
    <time>2016-07-31T04:13:40Z</time>
    </trkpt>
    <trkpt lat="47.710824" lon="9.07997">
    <ele>400</ele>
    <time>2016-07-31T04:13:48Z</time>
    </trkpt>
    <trkpt lat="47.710819" lon="9.0799">
    <ele>400</ele>
    <time>2016-07-31T04:13:49Z</time>
    </trkpt>
    <trkpt lat="47.711077" lon="9.07893">
    <ele>400</ele>
    <time>2016-07-31T04:14:06Z</time>
    </trkpt>
    <trkpt lat="47.711321" lon="9.077921">
    <ele>400</ele>
    <time>2016-07-31T04:14:23Z</time>
    </trkpt>
    <trkpt lat="47.711373" lon="9.076528">
    <ele>400</ele>
    <time>2016-07-31T04:14:45Z</time>
    </trkpt>
    <trkpt lat="47.711525" lon="9.075518">
    <ele>399</ele>
    <time>2016-07-31T04:15:02Z</time>
    </trkpt>
    <trkpt lat="47.711731" lon="9.074524">
    <ele>399</ele>
    <time>2016-07-31T04:15:18Z</time>
    </trkpt>
    <trkpt lat="47.712051" lon="9.073606">
    <ele>399</ele>
    <time>2016-07-31T04:15:35Z</time>
    </trkpt>
    <trkpt lat="47.712459" lon="9.07241">
    <ele>399</ele>
    <time>2016-07-31T04:15:56Z</time>
    </trkpt>
    <trkpt lat="47.71263" lon="9.070909">
    <ele>398</ele>
    <time>2016-07-31T04:16:20Z</time>
    </trkpt>
    <trkpt lat="47.712861" lon="9.070012">
    <ele>398</ele>
    <time>2016-07-31T04:16:35Z</time>
    </trkpt>
    <trkpt lat="47.713141" lon="9.069219">
    <ele>398</ele>
    <time>2016-07-31T04:16:49Z</time>
    </trkpt>
    <trkpt lat="47.71367" lon="9.068258">
    <ele>399</ele>
    <time>2016-07-31T04:17:09Z</time>
    </trkpt>
    <trkpt lat="47.71412" lon="9.067741">
    <ele>399</ele>
    <time>2016-07-31T04:17:23Z</time>
    </trkpt>
    <trkpt lat="47.714816" lon="9.067624">
    <ele>399</ele>
    <time>2016-07-31T04:17:39Z</time>
    </trkpt>
    <trkpt lat="47.71505" lon="9.067691">
    <ele>399</ele>
    <time>2016-07-31T04:17:45Z</time>
    </trkpt>
    <trkpt lat="47.715526" lon="9.066568">
    <ele>401</ele>
    <time>2016-07-31T04:18:06Z</time>
    </trkpt>
    <trkpt lat="47.715863" lon="9.065988">
    <ele>401</ele>
    <time>2016-07-31T04:18:18Z</time>
    </trkpt>
    <trkpt lat="47.715883" lon="9.065266">
    <ele>402</ele>
    <time>2016-07-31T04:18:29Z</time>
    </trkpt>
    <trkpt lat="47.716162" lon="9.064424">
    <ele>403</ele>
    <time>2016-07-31T04:18:44Z</time>
    </trkpt>
    <trkpt lat="47.716536" lon="9.064272">
    <ele>403</ele>
    <time>2016-07-31T04:18:53Z</time>
    </trkpt>
    <trkpt lat="47.716791" lon="9.064631">
    <ele>404</ele>
    <time>2016-07-31T04:19:02Z</time>
    </trkpt>
    <trkpt lat="47.717218" lon="9.065053">
    <ele>406</ele>
    <time>2016-07-31T04:19:14Z</time>
    </trkpt>
    <trkpt lat="47.717445" lon="9.064562">
    <ele>407</ele>
    <time>2016-07-31T04:19:23Z</time>
    </trkpt>
    <trkpt lat="47.717834" lon="9.063855">
    <ele>409</ele>
    <time>2016-07-31T04:19:38Z</time>
    </trkpt>
    <trkpt lat="47.718232" lon="9.063261">
    <ele>410</ele>
    <time>2016-07-31T04:19:51Z</time>
    </trkpt>
    <trkpt lat="47.718458" lon="9.063">
    <ele>410</ele>
    <time>2016-07-31T04:19:58Z</time>
    </trkpt>
    <trkpt lat="47.718529" lon="9.062843">
    <ele>410</ele>
    <time>2016-07-31T04:20:01Z</time>
    </trkpt>
    <trkpt lat="47.718538" lon="9.062816">
    <ele>410</ele>
    <time>2016-07-31T04:20:01Z</time>
    </trkpt>
    <trkpt lat="47.719361" lon="9.060831">
    <ele>412</ele>
    <time>2016-07-31T04:20:38Z</time>
    </trkpt>
    <trkpt lat="47.719792" lon="9.059597">
    <ele>412</ele>
    <time>2016-07-31T04:21:00Z</time>
    </trkpt>
    <trkpt lat="47.720099" lon="9.058301">
    <ele>412</ele>
    <time>2016-07-31T04:21:22Z</time>
    </trkpt>
    <trkpt lat="47.720597" lon="9.056549">
    <ele>412</ele>
    <time>2016-07-31T04:21:52Z</time>
    </trkpt>
    <trkpt lat="47.721253" lon="9.05475">
    <ele>412</ele>
    <time>2016-07-31T04:22:25Z</time>
    </trkpt>
    <trkpt lat="47.721793" lon="9.053448">
    <ele>412</ele>
    <time>2016-07-31T04:22:49Z</time>
    </trkpt>
    <trkpt lat="47.722158" lon="9.05244">
    <ele>412</ele>
    <time>2016-07-31T04:23:07Z</time>
    </trkpt>
    <trkpt lat="47.72114" lon="9.051586">
    <ele>410</ele>
    <time>2016-07-31T04:23:35Z</time>
    </trkpt>
    <trkpt lat="47.721138" lon="9.051587">
    <ele>410</ele>
    <time>2016-07-31T04:23:35Z</time>
    </trkpt>
    <trkpt lat="47.721463" lon="9.050987">
    <ele>410</ele>
    <time>2016-07-31T04:23:47Z</time>
    </trkpt>
    <trkpt lat="47.721814" lon="9.050111">
    <ele>409</ele>
    <time>2016-07-31T04:24:03Z</time>
    </trkpt>
    <trkpt lat="47.722674" lon="9.048672">
    <ele>408</ele>
    <time>2016-07-31T04:24:34Z</time>
    </trkpt>
    <trkpt lat="47.723974" lon="9.045928">
    <ele>407</ele>
    <time>2016-07-31T04:25:27Z</time>
    </trkpt>
    <trkpt lat="47.725214" lon="9.042476">
    <ele>406</ele>
    <time>2016-07-31T04:26:29Z</time>
    </trkpt>
    <trkpt lat="47.725811" lon="9.041111">
    <ele>406</ele>
    <time>2016-07-31T04:26:55Z</time>
    </trkpt>
    <trkpt lat="47.726255" lon="9.040478">
    <ele>406</ele>
    <time>2016-07-31T04:27:10Z</time>
    </trkpt>
    <trkpt lat="47.726971" lon="9.039692">
    <ele>406</ele>
    <time>2016-07-31T04:27:31Z</time>
    </trkpt>
    <trkpt lat="47.727374" lon="9.039203">
    <ele>406</ele>
    <time>2016-07-31T04:27:43Z</time>
    </trkpt>
    <trkpt lat="47.727698" lon="9.038584">
    <ele>406</ele>
    <time>2016-07-31T04:27:55Z</time>
    </trkpt>
    <trkpt lat="47.727888" lon="9.037895">
    <ele>406</ele>
    <time>2016-07-31T04:28:07Z</time>
    </trkpt>
    <trkpt lat="47.728248" lon="9.035534">
    <ele>406</ele>
    <time>2016-07-31T04:28:45Z</time>
    </trkpt>
    <trkpt lat="47.728689" lon="9.033063">
    <ele>406</ele>
    <time>2016-07-31T04:29:26Z</time>
    </trkpt>
    <trkpt lat="47.729208" lon="9.030522">
    <ele>404</ele>
    <time>2016-07-31T04:30:08Z</time>
    </trkpt>
    <trkpt lat="47.729455" lon="9.029702">
    <ele>404</ele>
    <time>2016-07-31T04:30:23Z</time>
    </trkpt>
    <trkpt lat="47.729763" lon="9.028508">
    <ele>403</ele>
    <time>2016-07-31T04:30:43Z</time>
    </trkpt>
    <trkpt lat="47.73016" lon="9.027132">
    <ele>402</ele>
    <time>2016-07-31T04:31:07Z</time>
    </trkpt>
    <trkpt lat="47.729991" lon="9.026974">
    <ele>402</ele>
    <time>2016-07-31T04:31:11Z</time>
    </trkpt>
    <trkpt lat="47.730822" lon="9.024206">
    <ele>403</ele>
    <time>2016-07-31T04:31:59Z</time>
    </trkpt>
    <trkpt lat="47.731067" lon="9.023354">
    <ele>403</ele>
    <time>2016-07-31T04:32:14Z</time>
    </trkpt>
    <trkpt lat="47.731251" lon="9.023412">
    <ele>403</ele>
    <time>2016-07-31T04:32:19Z</time>
    </trkpt>
    <trkpt lat="47.732133" lon="9.020195">
    <ele>403</ele>
    <time>2016-07-31T04:33:14Z</time>
    </trkpt>
    <trkpt lat="47.733173" lon="9.016643">
    <ele>404</ele>
    <time>2016-07-31T04:34:15Z</time>
    </trkpt>
    <trkpt lat="47.733747" lon="9.015046">
    <ele>404</ele>
    <time>2016-07-31T04:34:44Z</time>
    </trkpt>
    <trkpt lat="47.734286" lon="9.013878">
    <ele>405</ele>
    <time>2016-07-31T04:35:06Z</time>
    </trkpt>
    <trkpt lat="47.735345" lon="9.012124">
    <ele>405</ele>
    <time>2016-07-31T04:35:44Z</time>
    </trkpt>
    <trkpt lat="47.7363" lon="9.010586">
    <ele>405</ele>
    <time>2016-07-31T04:36:17Z</time>
    </trkpt>
    <trkpt lat="47.737432" lon="9.008713">
    <ele>405</ele>
    <time>2016-07-31T04:36:57Z</time>
    </trkpt>
    <trkpt lat="47.738308" lon="9.007426">
    <ele>404</ele>
    <time>2016-07-31T04:37:26Z</time>
    </trkpt>
    <trkpt lat="47.739209" lon="9.006166">
    <ele>404</ele>
    <time>2016-07-31T04:37:55Z</time>
    </trkpt>
    <trkpt lat="47.740395" lon="9.005306">
    <ele>403</ele>
    <time>2016-07-31T04:38:26Z</time>
    </trkpt>
    <trkpt lat="47.740938" lon="9.004948">
    <ele>403</ele>
    <time>2016-07-31T04:38:40Z</time>
    </trkpt>
    <trkpt lat="47.740957" lon="9.004885">
    <ele>403</ele>
    <time>2016-07-31T04:38:41Z</time>
    </trkpt>
    <trkpt lat="47.741034" lon="9.004006">
    <ele>403</ele>
    <time>2016-07-31T04:38:55Z</time>
    </trkpt>
    <trkpt lat="47.741172" lon="9.003438">
    <ele>402</ele>
    <time>2016-07-31T04:39:05Z</time>
    </trkpt>
    <trkpt lat="47.741205" lon="9.003283">
    <ele>402</ele>
    <time>2016-07-31T04:39:08Z</time>
    </trkpt>
    <trkpt lat="47.740534" lon="9.00294">
    <ele>401</ele>
    <time>2016-07-31T04:39:24Z</time>
    </trkpt>
    <trkpt lat="47.740537" lon="9.002923">
    <ele>401</ele>
    <time>2016-07-31T04:39:25Z</time>
    </trkpt>
    <trkpt lat="47.740685" lon="9.002017">
    <ele>401</ele>
    <time>2016-07-31T04:39:39Z</time>
    </trkpt>
    <trkpt lat="47.741093" lon="9.001276">
    <ele>401</ele>
    <time>2016-07-31T04:39:55Z</time>
    </trkpt>
    <trkpt lat="47.741712" lon="9.000604">
    <ele>400</ele>
    <time>2016-07-31T04:40:13Z</time>
    </trkpt>
    <trkpt lat="47.742953" lon="8.999401">
    <ele>399</ele>
    <time>2016-07-31T04:40:48Z</time>
    </trkpt>
    <trkpt lat="47.743646" lon="8.998944">
    <ele>399</ele>
    <time>2016-07-31T04:41:05Z</time>
    </trkpt>
    <trkpt lat="47.744524" lon="8.998397">
    <ele>398</ele>
    <time>2016-07-31T04:41:28Z</time>
    </trkpt>
    <trkpt lat="47.744555" lon="8.998393">
    <ele>398</ele>
    <time>2016-07-31T04:41:29Z</time>
    </trkpt>
    <trkpt lat="47.744594" lon="8.997506">
    <ele>398</ele>
    <time>2016-07-31T04:41:43Z</time>
    </trkpt>
    <trkpt lat="47.74477" lon="8.996298">
    <ele>398</ele>
    <time>2016-07-31T04:42:02Z</time>
    </trkpt>
    <trkpt lat="47.745211" lon="8.992713">
    <ele>398</ele>
    <time>2016-07-31T04:43:00Z</time>
    </trkpt>
    <trkpt lat="47.745331" lon="8.990293">
    <ele>398</ele>
    <time>2016-07-31T04:43:39Z</time>
    </trkpt>
    <trkpt lat="47.745262" lon="8.987384">
    <ele>398</ele>
    <time>2016-07-31T04:44:25Z</time>
    </trkpt>
    <trkpt lat="47.74507" lon="8.984487">
    <ele>398</ele>
    <time>2016-07-31T04:45:11Z</time>
    </trkpt>
    <trkpt lat="47.745071" lon="8.984445">
    <ele>398</ele>
    <time>2016-07-31T04:45:12Z</time>
    </trkpt>
    <trkpt lat="47.74495" lon="8.983496">
    <ele>399</ele>
    <time>2016-07-31T04:45:27Z</time>
    </trkpt>
    <trkpt lat="47.74464" lon="8.983259">
    <ele>399</ele>
    <time>2016-07-31T04:45:35Z</time>
    </trkpt>
    <trkpt lat="47.744398" lon="8.983081">
    <ele>399</ele>
    <time>2016-07-31T04:45:42Z</time>
    </trkpt>
    <trkpt lat="47.743953" lon="8.982228">
    <ele>399</ele>
    <time>2016-07-31T04:45:59Z</time>
    </trkpt>
    <trkpt lat="47.74312" lon="8.980826">
    <ele>398</ele>
    <time>2016-07-31T04:46:28Z</time>
    </trkpt>
    <trkpt lat="47.742216" lon="8.979463">
    <ele>399</ele>
    <time>2016-07-31T04:46:59Z</time>
    </trkpt>
    <trkpt lat="47.741591" lon="8.978957">
    <ele>399</ele>
    <time>2016-07-31T04:47:16Z</time>
    </trkpt>
    <trkpt lat="47.741956" lon="8.978273">
    <ele>399</ele>
    <time>2016-07-31T04:47:29Z</time>
    </trkpt>
    <trkpt lat="47.741993" lon="8.978186">
    <ele>399</ele>
    <time>2016-07-31T04:47:31Z</time>
    </trkpt>
    <trkpt lat="47.741477" lon="8.977739">
    <ele>399</ele>
    <time>2016-07-31T04:47:45Z</time>
    </trkpt>
    <trkpt lat="47.740666" lon="8.977461">
    <ele>400</ele>
    <time>2016-07-31T04:48:05Z</time>
    </trkpt>
    <trkpt lat="47.739412" lon="8.975681">
    <ele>402</ele>
    <time>2016-07-31T04:48:46Z</time>
    </trkpt>
    <trkpt lat="47.739441" lon="8.975718">
    <ele>402</ele>
    <time>2016-07-31T04:48:47Z</time>
    </trkpt>
    <trkpt lat="47.738976" lon="8.974504">
    <ele>403</ele>
    <time>2016-07-31T04:49:09Z</time>
    </trkpt>
    <trkpt lat="47.737965" lon="8.973962">
    <ele>404</ele>
    <time>2016-07-31T04:49:34Z</time>
    </trkpt>
    <trkpt lat="47.737548" lon="8.97256">
    <ele>404</ele>
    <time>2016-07-31T04:49:58Z</time>
    </trkpt>
    <trkpt lat="47.737302" lon="8.972222">
    <ele>404</ele>
    <time>2016-07-31T04:50:06Z</time>
    </trkpt>
    <trkpt lat="47.73711" lon="8.972189">
    <ele>405</ele>
    <time>2016-07-31T04:50:11Z</time>
    </trkpt>
    <trkpt lat="47.736915" lon="8.972246">
    <ele>405</ele>
    <time>2016-07-31T04:50:15Z</time>
    </trkpt>
    <trkpt lat="47.736899" lon="8.972363">
    <ele>405</ele>
    <time>2016-07-31T04:50:17Z</time>
    </trkpt>
    <trkpt lat="47.73673" lon="8.972927">
    <ele>404</ele>
    <time>2016-07-31T04:50:27Z</time>
    </trkpt>
    <trkpt lat="47.736584" lon="8.974063">
    <ele>403</ele>
    <time>2016-07-31T04:50:46Z</time>
    </trkpt>
    <trkpt lat="47.736273" lon="8.975165">
    <ele>403</ele>
    <time>2016-07-31T04:51:04Z</time>
    </trkpt>
    <trkpt lat="47.736246" lon="8.975286">
    <ele>402</ele>
    <time>2016-07-31T04:51:07Z</time>
    </trkpt>
    <trkpt lat="47.736173" lon="8.975251">
    <ele>402</ele>
    <time>2016-07-31T04:51:08Z</time>
    </trkpt>
    <trkpt lat="47.735509" lon="8.973317">
    <ele>400</ele>
    <time>2016-07-31T04:51:43Z</time>
    </trkpt>
    <trkpt lat="47.73522" lon="8.971837">
    <ele>399</ele>
    <time>2016-07-31T04:52:07Z</time>
    </trkpt>
    <trkpt lat="47.735159" lon="8.970994">
    <ele>399</ele>
    <time>2016-07-31T04:52:21Z</time>
    </trkpt>
    <trkpt lat="47.735284" lon="8.970393">
    <ele>398</ele>
    <time>2016-07-31T04:52:31Z</time>
    </trkpt>
    <trkpt lat="47.735714" lon="8.968116">
    <ele>396</ele>
    <time>2016-07-31T04:53:08Z</time>
    </trkpt>
    <trkpt lat="47.735714" lon="8.968116">
    <ele>396</ele>
    <time>2016-07-31T04:53:08Z</time>
    </trkpt>
    <trkpt lat="47.735917" lon="8.967141">
    <ele>396</ele>
    <time>2016-07-31T04:53:24Z</time>
    </trkpt>
    <trkpt lat="47.736883" lon="8.963721">
    <ele>397</ele>
    <time>2016-07-31T04:54:23Z</time>
    </trkpt>
    <trkpt lat="47.737813" lon="8.961018">
    <ele>398</ele>
    <time>2016-07-31T04:55:11Z</time>
    </trkpt>
    <trkpt lat="47.738781" lon="8.958533">
    <ele>398</ele>
    <time>2016-07-31T04:55:57Z</time>
    </trkpt>
    <trkpt lat="47.738796" lon="8.958632">
    <ele>398</ele>
    <time>2016-07-31T04:55:59Z</time>
    </trkpt>
    <trkpt lat="47.738542" lon="8.954773">
    <ele>398</ele>
    <time>2016-07-31T04:57:00Z</time>
    </trkpt>
    <trkpt lat="47.738534" lon="8.954822">
    <ele>398</ele>
    <time>2016-07-31T04:57:01Z</time>
    </trkpt>
    <trkpt lat="47.738467" lon="8.953902">
    <ele>398</ele>
    <time>2016-07-31T04:57:16Z</time>
    </trkpt>
    <trkpt lat="47.738625" lon="8.953016">
    <ele>398</ele>
    <time>2016-07-31T04:57:30Z</time>
    </trkpt>
    <trkpt lat="47.738891" lon="8.95261">
    <ele>398</ele>
    <time>2016-07-31T04:57:39Z</time>
    </trkpt>
    <trkpt lat="47.739041" lon="8.952622">
    <ele>398</ele>
    <time>2016-07-31T04:57:43Z</time>
    </trkpt>
    <trkpt lat="47.738967" lon="8.951742">
    <ele>397</ele>
    <time>2016-07-31T04:57:57Z</time>
    </trkpt>
    <trkpt lat="47.738761" lon="8.949713">
    <ele>396</ele>
    <time>2016-07-31T04:58:30Z</time>
    </trkpt>
    <trkpt lat="47.738583" lon="8.949026">
    <ele>396</ele>
    <time>2016-07-31T04:58:41Z</time>
    </trkpt>
    <trkpt lat="47.738435" lon="8.948909">
    <ele>396</ele>
    <time>2016-07-31T04:58:45Z</time>
    </trkpt>
    <trkpt lat="47.738267" lon="8.948793">
    <ele>396</ele>
    <time>2016-07-31T04:58:50Z</time>
    </trkpt>
    <trkpt lat="47.738178" lon="8.948528">
    <ele>396</ele>
    <time>2016-07-31T04:58:54Z</time>
    </trkpt>
    <trkpt lat="47.738167" lon="8.948217">
    <ele>396</ele>
    <time>2016-07-31T04:58:59Z</time>
    </trkpt>
    <trkpt lat="47.738181" lon="8.947821">
    <ele>396</ele>
    <time>2016-07-31T04:59:05Z</time>
    </trkpt>
    <trkpt lat="47.737901" lon="8.947244">
    <ele>396</ele>
    <time>2016-07-31T04:59:17Z</time>
    </trkpt>
    <trkpt lat="47.736943" lon="8.945286">
    <ele>396</ele>
    <time>2016-07-31T04:59:55Z</time>
    </trkpt>
    <trkpt lat="47.735976" lon="8.943066">
    <ele>396</ele>
    <time>2016-07-31T05:00:37Z</time>
    </trkpt>
    <trkpt lat="47.73484" lon="8.940465">
    <ele>396</ele>
    <time>2016-07-31T05:01:26Z</time>
    </trkpt>
    <trkpt lat="47.734327" lon="8.939529">
    <ele>396</ele>
    <time>2016-07-31T05:01:45Z</time>
    </trkpt>
    <trkpt lat="47.733955" lon="8.938958">
    <ele>396</ele>
    <time>2016-07-31T05:01:58Z</time>
    </trkpt>
    <trkpt lat="47.733094" lon="8.937725">
    <ele>396</ele>
    <time>2016-07-31T05:02:26Z</time>
    </trkpt>
    <trkpt lat="47.730887" lon="8.93557">
    <ele>397</ele>
    <time>2016-07-31T05:03:28Z</time>
    </trkpt>
    <trkpt lat="47.730239" lon="8.935022">
    <ele>397</ele>
    <time>2016-07-31T05:03:46Z</time>
    </trkpt>
    <trkpt lat="47.728182" lon="8.934181">
    <ele>397</ele>
    <time>2016-07-31T05:04:36Z</time>
    </trkpt>
    <trkpt lat="47.7281" lon="8.934534">
    <ele>397</ele>
    <time>2016-07-31T05:04:42Z</time>
    </trkpt>
    <trkpt lat="47.727932" lon="8.935088">
    <ele>397</ele>
    <time>2016-07-31T05:04:52Z</time>
    </trkpt>
    <trkpt lat="47.727951" lon="8.935959">
    <ele>398</ele>
    <time>2016-07-31T05:05:06Z</time>
    </trkpt>
    <trkpt lat="47.727588" lon="8.93643">
    <ele>398</ele>
    <time>2016-07-31T05:05:17Z</time>
    </trkpt>
    <trkpt lat="47.727355" lon="8.937398">
    <ele>399</ele>
    <time>2016-07-31T05:05:33Z</time>
    </trkpt>
    <trkpt lat="47.72715" lon="8.937551">
    <ele>399</ele>
    <time>2016-07-31T05:05:39Z</time>
    </trkpt>
    <trkpt lat="47.727166" lon="8.93759">
    <ele>399</ele>
    <time>2016-07-31T05:05:40Z</time>
    </trkpt>
    <trkpt lat="47.726581" lon="8.937579">
    <ele>399</ele>
    <time>2016-07-31T05:05:53Z</time>
    </trkpt>
    <trkpt lat="47.725869" lon="8.938144">
    <ele>398</ele>
    <time>2016-07-31T05:06:12Z</time>
    </trkpt>
    <trkpt lat="47.725378" lon="8.938506">
    <ele>398</ele>
    <time>2016-07-31T05:06:25Z</time>
    </trkpt>
    <trkpt lat="47.724692" lon="8.939351">
    <ele>398</ele>
    <time>2016-07-31T05:06:46Z</time>
    </trkpt>
    <trkpt lat="47.724436" lon="8.939673">
    <ele>398</ele>
    <time>2016-07-31T05:06:54Z</time>
    </trkpt>
    <trkpt lat="47.724374" lon="8.940022">
    <ele>398</ele>
    <time>2016-07-31T05:07:00Z</time>
    </trkpt>
    <trkpt lat="47.723965" lon="8.940518">
    <ele>398</ele>
    <time>2016-07-31T05:07:12Z</time>
    </trkpt>
    <trkpt lat="47.723258" lon="8.941456">
    <ele>398</ele>
    <time>2016-07-31T05:07:35Z</time>
    </trkpt>
    <trkpt lat="47.723013" lon="8.942385">
    <ele>398</ele>
    <time>2016-07-31T05:07:50Z</time>
    </trkpt>
    <trkpt lat="47.722844" lon="8.943557">
    <ele>398</ele>
    <time>2016-07-31T05:08:10Z</time>
    </trkpt>
    <trkpt lat="47.722453" lon="8.943458">
    <ele>398</ele>
    <time>2016-07-31T05:08:19Z</time>
    </trkpt>
    <trkpt lat="47.722144" lon="8.94438">
    <ele>398</ele>
    <time>2016-07-31T05:08:35Z</time>
    </trkpt>
    <trkpt lat="47.721943" lon="8.945648">
    <ele>398</ele>
    <time>2016-07-31T05:08:56Z</time>
    </trkpt>
    <trkpt lat="47.721936" lon="8.945764">
    <ele>398</ele>
    <time>2016-07-31T05:08:58Z</time>
    </trkpt>
    <trkpt lat="47.721606" lon="8.947517">
    <ele>398</ele>
    <time>2016-07-31T05:09:27Z</time>
    </trkpt>
    <trkpt lat="47.72103" lon="8.949453">
    <ele>397</ele>
    <time>2016-07-31T05:10:00Z</time>
    </trkpt>
    <trkpt lat="47.720315" lon="8.951119">
    <ele>397</ele>
    <time>2016-07-31T05:10:32Z</time>
    </trkpt>
    <trkpt lat="47.719515" lon="8.952949">
    <ele>397</ele>
    <time>2016-07-31T05:11:06Z</time>
    </trkpt>
    <trkpt lat="47.719261" lon="8.95388">
    <ele>397</ele>
    <time>2016-07-31T05:11:22Z</time>
    </trkpt>
    <trkpt lat="47.719019" lon="8.954269">
    <ele>397</ele>
    <time>2016-07-31T05:11:31Z</time>
    </trkpt>
    <trkpt lat="47.718905" lon="8.954992">
    <ele>397</ele>
    <time>2016-07-31T05:11:42Z</time>
    </trkpt>
    <trkpt lat="47.718614" lon="8.955519">
    <ele>397</ele>
    <time>2016-07-31T05:11:53Z</time>
    </trkpt>
    <trkpt lat="47.718579" lon="8.955466">
    <ele>397</ele>
    <time>2016-07-31T05:11:54Z</time>
    </trkpt>
    <trkpt lat="47.717611" lon="8.956954">
    <ele>398</ele>
    <time>2016-07-31T05:12:27Z</time>
    </trkpt>
    <trkpt lat="47.717351" lon="8.95756">
    <ele>398</ele>
    <time>2016-07-31T05:12:39Z</time>
    </trkpt>
    <trkpt lat="47.717362" lon="8.958277">
    <ele>398</ele>
    <time>2016-07-31T05:12:50Z</time>
    </trkpt>
    <trkpt lat="47.717426" lon="8.958873">
    <ele>398</ele>
    <time>2016-07-31T05:13:00Z</time>
    </trkpt>
    <trkpt lat="47.717128" lon="8.959324">
    <ele>398</ele>
    <time>2016-07-31T05:13:10Z</time>
    </trkpt>
    <trkpt lat="47.716894" lon="8.9596">
    <ele>398</ele>
    <time>2016-07-31T05:13:17Z</time>
    </trkpt>
    <trkpt lat="47.716783" lon="8.959929">
    <ele>398</ele>
    <time>2016-07-31T05:13:23Z</time>
    </trkpt>
    <trkpt lat="47.716438" lon="8.960103">
    <ele>398</ele>
    <time>2016-07-31T05:13:31Z</time>
    </trkpt>
    <trkpt lat="47.715671" lon="8.959898">
    <ele>399</ele>
    <time>2016-07-31T05:13:49Z</time>
    </trkpt>
    <trkpt lat="47.715409" lon="8.960104">
    <ele>399</ele>
    <time>2016-07-31T05:13:56Z</time>
    </trkpt>
    <trkpt lat="47.715409" lon="8.960104">
    <ele>399</ele>
    <time>2016-07-31T05:13:56Z</time>
    </trkpt>
    <trkpt lat="47.715648" lon="8.960786">
    <ele>399</ele>
    <time>2016-07-31T05:14:09Z</time>
    </trkpt>
    <trkpt lat="47.715641" lon="8.961586">
    <ele>399</ele>
    <time>2016-07-31T05:14:21Z</time>
    </trkpt>
    <trkpt lat="47.715314" lon="8.962984">
    <ele>399</ele>
    <time>2016-07-31T05:14:45Z</time>
    </trkpt>
    <trkpt lat="47.714923" lon="8.96425">
    <ele>399</ele>
    <time>2016-07-31T05:15:07Z</time>
    </trkpt>
    <trkpt lat="47.714926" lon="8.964195">
    <ele>399</ele>
    <time>2016-07-31T05:15:08Z</time>
    </trkpt>
    <trkpt lat="47.714265" lon="8.964894">
    <ele>399</ele>
    <time>2016-07-31T05:15:27Z</time>
    </trkpt>
    <trkpt lat="47.713655" lon="8.965542">
    <ele>399</ele>
    <time>2016-07-31T05:15:45Z</time>
    </trkpt>
    <trkpt lat="47.712952" lon="8.967333">
    <ele>400</ele>
    <time>2016-07-31T05:16:18Z</time>
    </trkpt>
    <trkpt lat="47.712294" lon="8.968589">
    <ele>400</ele>
    <time>2016-07-31T05:16:43Z</time>
    </trkpt>
    <trkpt lat="47.709952" lon="8.972228">
    <ele>401</ele>
    <time>2016-07-31T05:18:03Z</time>
    </trkpt>
    <trkpt lat="47.709431" lon="8.97311">
    <ele>401</ele>
    <time>2016-07-31T05:18:21Z</time>
    </trkpt>
    <trkpt lat="47.709283" lon="8.973661">
    <ele>401</ele>
    <time>2016-07-31T05:18:31Z</time>
    </trkpt>
    <trkpt lat="47.709168" lon="8.974776">
    <ele>401</ele>
    <time>2016-07-31T05:18:49Z</time>
    </trkpt>
    <trkpt lat="47.709277" lon="8.976561">
    <ele>401</ele>
    <time>2016-07-31T05:19:17Z</time>
    </trkpt>
    <trkpt lat="47.709278" lon="8.976544">
    <ele>401</ele>
    <time>2016-07-31T05:19:17Z</time>
    </trkpt>
    <trkpt lat="47.709189" lon="8.978629">
    <ele>402</ele>
    <time>2016-07-31T05:19:51Z</time>
    </trkpt>
    <trkpt lat="47.709118" lon="8.979248">
    <ele>402</ele>
    <time>2016-07-31T05:20:01Z</time>
    </trkpt>
    <trkpt lat="47.708759" lon="8.980178">
    <ele>402</ele>
    <time>2016-07-31T05:20:18Z</time>
    </trkpt>
    <trkpt lat="47.707991" lon="8.981424">
    <ele>402</ele>
    <time>2016-07-31T05:20:44Z</time>
    </trkpt>
    <trkpt lat="47.707126" lon="8.982426">
    <ele>402</ele>
    <time>2016-07-31T05:21:10Z</time>
    </trkpt>
    <trkpt lat="47.707113" lon="8.982429">
    <ele>402</ele>
    <time>2016-07-31T05:21:11Z</time>
    </trkpt>
    <trkpt lat="47.706933" lon="8.982854">
    <ele>402</ele>
    <time>2016-07-31T05:21:19Z</time>
    </trkpt>
    <trkpt lat="47.70683" lon="8.983393">
    <ele>402</ele>
    <time>2016-07-31T05:21:28Z</time>
    </trkpt>
    <trkpt lat="47.706697" lon="8.984812">
    <ele>402</ele>
    <time>2016-07-31T05:21:50Z</time>
    </trkpt>
    <trkpt lat="47.706127" lon="8.986372">
    <ele>402</ele>
    <time>2016-07-31T05:22:18Z</time>
    </trkpt>
    <trkpt lat="47.705634" lon="8.9878">
    <ele>402</ele>
    <time>2016-07-31T05:22:44Z</time>
    </trkpt>
    <trkpt lat="47.705469" lon="8.989026">
    <ele>402</ele>
    <time>2016-07-31T05:23:04Z</time>
    </trkpt>
    <trkpt lat="47.70537" lon="8.989549">
    <ele>402</ele>
    <time>2016-07-31T05:23:12Z</time>
    </trkpt>
    <trkpt lat="47.705373" lon="8.989558">
    <ele>402</ele>
    <time>2016-07-31T05:23:13Z</time>
    </trkpt>
    <trkpt lat="47.704964" lon="8.990955">
    <ele>402</ele>
    <time>2016-07-31T05:23:37Z</time>
    </trkpt>
    <trkpt lat="47.704894" lon="8.991368">
    <ele>402</ele>
    <time>2016-07-31T05:23:44Z</time>
    </trkpt>
    <trkpt lat="47.704835" lon="8.991803">
    <ele>402</ele>
    <time>2016-07-31T05:23:51Z</time>
    </trkpt>
    <trkpt lat="47.704633" lon="8.992267">
    <ele>402</ele>
    <time>2016-07-31T05:23:59Z</time>
    </trkpt>
    <trkpt lat="47.703854" lon="8.992912">
    <ele>402</ele>
    <time>2016-07-31T05:24:20Z</time>
    </trkpt>
    <trkpt lat="47.703627" lon="8.993003">
    <ele>402</ele>
    <time>2016-07-31T05:24:26Z</time>
    </trkpt>
    <trkpt lat="47.703532" lon="8.993023">
    <ele>402</ele>
    <time>2016-07-31T05:24:28Z</time>
    </trkpt>
    <trkpt lat="47.70285" lon="8.99391">
    <ele>402</ele>
    <time>2016-07-31T05:24:50Z</time>
    </trkpt>
    <trkpt lat="47.702227" lon="8.99471">
    <ele>402</ele>
    <time>2016-07-31T05:25:09Z</time>
    </trkpt>
    <trkpt lat="47.702103" lon="8.995191">
    <ele>402</ele>
    <time>2016-07-31T05:25:17Z</time>
    </trkpt>
    <trkpt lat="47.701502" lon="8.996542">
    <ele>402</ele>
    <time>2016-07-31T05:25:43Z</time>
    </trkpt>
    <trkpt lat="47.701103" lon="8.997325">
    <ele>402</ele>
    <time>2016-07-31T05:25:58Z</time>
    </trkpt>
    <trkpt lat="47.700065" lon="8.998198">
    <ele>402</ele>
    <time>2016-07-31T05:26:27Z</time>
    </trkpt>
    <trkpt lat="47.699561" lon="8.998632">
    <ele>402</ele>
    <time>2016-07-31T05:26:40Z</time>
    </trkpt>
    <trkpt lat="47.69894" lon="8.99917">
    <ele>402</ele>
    <time>2016-07-31T05:26:57Z</time>
    </trkpt>
    <trkpt lat="47.698664" lon="9.000153">
    <ele>402</ele>
    <time>2016-07-31T05:27:14Z</time>
    </trkpt>
    <trkpt lat="47.698066" lon="9.000768">
    <ele>403</ele>
    <time>2016-07-31T05:27:31Z</time>
    </trkpt>
    <trkpt lat="47.697891" lon="9.001151">
    <ele>403</ele>
    <time>2016-07-31T05:27:39Z</time>
    </trkpt>
    <trkpt lat="47.697077" lon="9.001441">
    <ele>404</ele>
    <time>2016-07-31T05:27:58Z</time>
    </trkpt>
    <trkpt lat="47.696545" lon="9.001627">
    <ele>404</ele>
    <time>2016-07-31T05:28:11Z</time>
    </trkpt>
    <trkpt lat="47.696199" lon="9.000831">
    <ele>405</ele>
    <time>2016-07-31T05:28:26Z</time>
    </trkpt>
    <trkpt lat="47.695769" lon="9.000204">
    <ele>407</ele>
    <time>2016-07-31T05:28:40Z</time>
    </trkpt>
    <trkpt lat="47.69542" lon="8.999859">
    <ele>408</ele>
    <time>2016-07-31T05:28:50Z</time>
    </trkpt>
    <trkpt lat="47.694906" lon="8.99982">
    <ele>410</ele>
    <time>2016-07-31T05:29:02Z</time>
    </trkpt>
    <trkpt lat="47.694796" lon="8.999837">
    <ele>410</ele>
    <time>2016-07-31T05:29:05Z</time>
    </trkpt>
    <trkpt lat="47.694134" lon="8.999871">
    <ele>411</ele>
    <time>2016-07-31T05:29:21Z</time>
    </trkpt>
    <trkpt lat="47.693707" lon="8.998468">
    <ele>411</ele>
    <time>2016-07-31T05:29:45Z</time>
    </trkpt>
    <trkpt lat="47.693385" lon="8.997325">
    <ele>411</ele>
    <time>2016-07-31T05:30:05Z</time>
    </trkpt>
    <trkpt lat="47.69288" lon="8.997834">
    <ele>410</ele>
    <time>2016-07-31T05:30:19Z</time>
    </trkpt>
    <trkpt lat="47.692383" lon="8.998289">
    <ele>410</ele>
    <time>2016-07-31T05:30:33Z</time>
    </trkpt>
    <trkpt lat="47.692025" lon="8.99844">
    <ele>409</ele>
    <time>2016-07-31T05:30:42Z</time>
    </trkpt>
    <trkpt lat="47.691646" lon="8.998629">
    <ele>408</ele>
    <time>2016-07-31T05:30:51Z</time>
    </trkpt>
    <trkpt lat="47.691209" lon="8.998893">
    <ele>407</ele>
    <time>2016-07-31T05:31:02Z</time>
    </trkpt>
    <trkpt lat="47.69102" lon="8.999377">
    <ele>405</ele>
    <time>2016-07-31T05:31:11Z</time>
    </trkpt>
    <trkpt lat="47.690576" lon="9.000235">
    <ele>403</ele>
    <time>2016-07-31T05:31:28Z</time>
    </trkpt>
    <trkpt lat="47.690119" lon="8.999322">
    <ele>401</ele>
    <time>2016-07-31T05:31:46Z</time>
    </trkpt>
    <trkpt lat="47.689544" lon="8.998279">
    <ele>401</ele>
    <time>2016-07-31T05:32:08Z</time>
    </trkpt>
    <trkpt lat="47.689569" lon="8.997704">
    <ele>401</ele>
    <time>2016-07-31T05:32:17Z</time>
    </trkpt>
    <trkpt lat="47.689544" lon="8.997797">
    <ele>401</ele>
    <time>2016-07-31T05:32:18Z</time>
    </trkpt>
    <trkpt lat="47.688928" lon="8.997569">
    <ele>400</ele>
    <time>2016-07-31T05:32:33Z</time>
    </trkpt>
    <trkpt lat="47.688319" lon="8.997129">
    <ele>401</ele>
    <time>2016-07-31T05:32:49Z</time>
    </trkpt>
    <trkpt lat="47.687886" lon="8.996774">
    <ele>401</ele>
    <time>2016-07-31T05:33:01Z</time>
    </trkpt>
    <trkpt lat="47.687112" lon="8.996366">
    <ele>402</ele>
    <time>2016-07-31T05:33:20Z</time>
    </trkpt>
    <trkpt lat="47.686386" lon="8.995681">
    <ele>403</ele>
    <time>2016-07-31T05:33:41Z</time>
    </trkpt>
    <trkpt lat="47.686052" lon="8.994412">
    <ele>405</ele>
    <time>2016-07-31T05:34:02Z</time>
    </trkpt>
    <trkpt lat="47.686486" lon="8.994004">
    <ele>405</ele>
    <time>2016-07-31T05:34:14Z</time>
    </trkpt>
    <trkpt lat="47.68758" lon="8.992756">
    <ele>408</ele>
    <time>2016-07-31T05:34:47Z</time>
    </trkpt>
    <trkpt lat="47.687672" lon="8.992655">
    <ele>408</ele>
    <time>2016-07-31T05:34:50Z</time>
    </trkpt>
    <trkpt lat="47.686583" lon="8.990669">
    <ele>411</ele>
    <time>2016-07-31T05:35:30Z</time>
    </trkpt>
    <trkpt lat="47.686097" lon="8.990253">
    <ele>412</ele>
    <time>2016-07-31T05:35:44Z</time>
    </trkpt>
    <trkpt lat="47.685885" lon="8.98966">
    <ele>413</ele>
    <time>2016-07-31T05:35:54Z</time>
    </trkpt>
    <trkpt lat="47.68582" lon="8.988629">
    <ele>414</ele>
    <time>2016-07-31T05:36:11Z</time>
    </trkpt>
    <trkpt lat="47.684695" lon="8.986687">
    <ele>418</ele>
    <time>2016-07-31T05:36:51Z</time>
    </trkpt>
    <trkpt lat="47.6841" lon="8.985163">
    <ele>421</ele>
    <time>2016-07-31T05:37:19Z</time>
    </trkpt>
    <trkpt lat="47.683513" lon="8.983852">
    <ele>424</ele>
    <time>2016-07-31T05:37:44Z</time>
    </trkpt>
    <trkpt lat="47.683407" lon="8.983581">
    <ele>424</ele>
    <time>2016-07-31T05:37:49Z</time>
    </trkpt>
    <trkpt lat="47.68282" lon="8.983111">
    <ele>422</ele>
    <time>2016-07-31T05:38:05Z</time>
    </trkpt>
    <trkpt lat="47.682439" lon="8.982617">
    <ele>420</ele>
    <time>2016-07-31T05:38:17Z</time>
    </trkpt>
    <trkpt lat="47.682185" lon="8.9819">
    <ele>418</ele>
    <time>2016-07-31T05:38:30Z</time>
    </trkpt>
    <trkpt lat="47.681113" lon="8.981477">
    <ele>415</ele>
    <time>2016-07-31T05:38:56Z</time>
    </trkpt>
    <trkpt lat="47.68087" lon="8.980974">
    <ele>414</ele>
    <time>2016-07-31T05:39:06Z</time>
    </trkpt>
    <trkpt lat="47.680719" lon="8.980088">
    <ele>414</ele>
    <time>2016-07-31T05:39:20Z</time>
    </trkpt>
    <trkpt lat="47.680535" lon="8.979448">
    <ele>413</ele>
    <time>2016-07-31T05:39:31Z</time>
    </trkpt>
    <trkpt lat="47.680514" lon="8.979366">
    <ele>413</ele>
    <time>2016-07-31T05:39:33Z</time>
    </trkpt>
    <trkpt lat="47.68001" lon="8.978191">
    <ele>413</ele>
    <time>2016-07-31T05:39:55Z</time>
    </trkpt>
    <trkpt lat="47.679474" lon="8.97675">
    <ele>412</ele>
    <time>2016-07-31T05:40:21Z</time>
    </trkpt>
    <trkpt lat="47.679047" lon="8.975918">
    <ele>412</ele>
    <time>2016-07-31T05:40:38Z</time>
    </trkpt>
    <trkpt lat="47.677871" lon="8.974224">
    <ele>411</ele>
    <time>2016-07-31T05:41:16Z</time>
    </trkpt>
    <trkpt lat="47.676434" lon="8.972316">
    <ele>410</ele>
    <time>2016-07-31T05:42:02Z</time>
    </trkpt>
    <trkpt lat="47.674994" lon="8.970563">
    <ele>409</ele>
    <time>2016-07-31T05:42:46Z</time>
    </trkpt>
    <trkpt lat="47.674903" lon="8.970446">
    <ele>409</ele>
    <time>2016-07-31T05:42:48Z</time>
    </trkpt>
    <trkpt lat="47.674526" lon="8.970034">
    <ele>409</ele>
    <time>2016-07-31T05:42:59Z</time>
    </trkpt>
    <trkpt lat="47.674117" lon="8.969178">
    <ele>409</ele>
    <time>2016-07-31T05:43:16Z</time>
    </trkpt>
    <trkpt lat="47.673746" lon="8.96758">
    <ele>408</ele>
    <time>2016-07-31T05:43:43Z</time>
    </trkpt>
    <trkpt lat="47.673254" lon="8.966837">
    <ele>408</ele>
    <time>2016-07-31T05:43:59Z</time>
    </trkpt>
    <trkpt lat="47.672777" lon="8.966092">
    <ele>409</ele>
    <time>2016-07-31T05:44:16Z</time>
    </trkpt>
    <trkpt lat="47.672786" lon="8.965748">
    <ele>409</ele>
    <time>2016-07-31T05:44:21Z</time>
    </trkpt>
    <trkpt lat="47.672924" lon="8.965022">
    <ele>410</ele>
    <time>2016-07-31T05:44:33Z</time>
    </trkpt>
    <trkpt lat="47.672906" lon="8.964519">
    <ele>411</ele>
    <time>2016-07-31T05:44:41Z</time>
    </trkpt>
    <trkpt lat="47.672394" lon="8.963284">
    <ele>413</ele>
    <time>2016-07-31T05:45:04Z</time>
    </trkpt>
    <trkpt lat="47.672253" lon="8.96227">
    <ele>414</ele>
    <time>2016-07-31T05:45:21Z</time>
    </trkpt>
    <trkpt lat="47.671943" lon="8.959208">
    <ele>419</ele>
    <time>2016-07-31T05:46:10Z</time>
    </trkpt>
    <trkpt lat="47.671988" lon="8.957354">
    <ele>422</ele>
    <time>2016-07-31T05:46:40Z</time>
    </trkpt>
    <trkpt lat="47.671324" lon="8.955289">
    <ele>426</ele>
    <time>2016-07-31T05:47:16Z</time>
    </trkpt>
    <trkpt lat="47.671299" lon="8.953897">
    <ele>428</ele>
    <time>2016-07-31T05:47:38Z</time>
    </trkpt>
    <trkpt lat="47.6713" lon="8.952477">
    <ele>429</ele>
    <time>2016-07-31T05:48:01Z</time>
    </trkpt>
    <trkpt lat="47.671112" lon="8.951714">
    <ele>430</ele>
    <time>2016-07-31T05:48:14Z</time>
    </trkpt>
    <trkpt lat="47.670782" lon="8.950953">
    <ele>430</ele>
    <time>2016-07-31T05:48:28Z</time>
    </trkpt>
    <trkpt lat="47.670163" lon="8.949931">
    <ele>430</ele>
    <time>2016-07-31T05:48:50Z</time>
    </trkpt>
    <trkpt lat="47.668586" lon="8.947896">
    <ele>430</ele>
    <time>2016-07-31T05:49:39Z</time>
    </trkpt>
    <trkpt lat="47.667523" lon="8.946413">
    <ele>429</ele>
    <time>2016-07-31T05:50:13Z</time>
    </trkpt>
    <trkpt lat="47.667178" lon="8.945723">
    <ele>427</ele>
    <time>2016-07-31T05:50:27Z</time>
    </trkpt>
    <trkpt lat="47.666347" lon="8.943599">
    <ele>424</ele>
    <time>2016-07-31T05:51:06Z</time>
    </trkpt>
    <trkpt lat="47.665644" lon="8.942446">
    <ele>421</ele>
    <time>2016-07-31T05:51:31Z</time>
    </trkpt>
    <trkpt lat="47.6649" lon="8.940212">
    <ele>417</ele>
    <time>2016-07-31T05:52:10Z</time>
    </trkpt>
    <trkpt lat="47.663959" lon="8.939064">
    <ele>415</ele>
    <time>2016-07-31T05:52:39Z</time>
    </trkpt>
    <trkpt lat="47.663291" lon="8.937227">
    <ele>412</ele>
    <time>2016-07-31T05:53:12Z</time>
    </trkpt>
    <trkpt lat="47.663256" lon="8.937167">
    <ele>412</ele>
    <time>2016-07-31T05:53:14Z</time>
    </trkpt>
    <trkpt lat="47.661853" lon="8.934958">
    <ele>408</ele>
    <time>2016-07-31T05:54:02Z</time>
    </trkpt>
    <trkpt lat="47.66118" lon="8.934026">
    <ele>406</ele>
    <time>2016-07-31T05:54:23Z</time>
    </trkpt>
    <trkpt lat="47.660483" lon="8.933998">
    <ele>405</ele>
    <time>2016-07-31T05:54:40Z</time>
    </trkpt>
    <trkpt lat="47.660013" lon="8.934054">
    <ele>405</ele>
    <time>2016-07-31T05:54:51Z</time>
    </trkpt>
    <trkpt lat="47.659845" lon="8.933599">
    <ele>404</ele>
    <time>2016-07-31T05:54:59Z</time>
    </trkpt>
    <trkpt lat="47.659901" lon="8.93262">
    <ele>404</ele>
    <time>2016-07-31T05:55:15Z</time>
    </trkpt>
    <trkpt lat="47.659971" lon="8.93155">
    <ele>403</ele>
    <time>2016-07-31T05:55:32Z</time>
    </trkpt>
    <trkpt lat="47.660263" lon="8.93006">
    <ele>403</ele>
    <time>2016-07-31T05:55:57Z</time>
    </trkpt>
    <trkpt lat="47.660535" lon="8.929048">
    <ele>403</ele>
    <time>2016-07-31T05:56:14Z</time>
    </trkpt>
    <trkpt lat="47.660573" lon="8.928935">
    <ele>403</ele>
    <time>2016-07-31T05:56:16Z</time>
    </trkpt>
    <trkpt lat="47.660699" lon="8.928218">
    <ele>403</ele>
    <time>2016-07-31T05:56:28Z</time>
    </trkpt>
    <trkpt lat="47.660686" lon="8.925986">
    <ele>404</ele>
    <time>2016-07-31T05:57:03Z</time>
    </trkpt>
    <trkpt lat="47.660494" lon="8.924577">
    <ele>405</ele>
    <time>2016-07-31T05:57:26Z</time>
    </trkpt>
    <trkpt lat="47.660229" lon="8.923102">
    <ele>407</ele>
    <time>2016-07-31T05:57:50Z</time>
    </trkpt>
    <trkpt lat="47.659832" lon="8.920935">
    <ele>411</ele>
    <time>2016-07-31T05:58:26Z</time>
    </trkpt>
    <trkpt lat="47.659656" lon="8.919962">
    <ele>413</ele>
    <time>2016-07-31T05:58:42Z</time>
    </trkpt>
    <trkpt lat="47.659592" lon="8.919747">
    <ele>413</ele>
    <time>2016-07-31T05:58:46Z</time>
    </trkpt>
    <trkpt lat="47.659457" lon="8.919163">
    <ele>415</ele>
    <time>2016-07-31T05:58:56Z</time>
    </trkpt>
    <trkpt lat="47.659278" lon="8.91811">
    <ele>417</ele>
    <time>2016-07-31T05:59:13Z</time>
    </trkpt>
    <trkpt lat="47.659307" lon="8.917092">
    <ele>420</ele>
    <time>2016-07-31T05:59:29Z</time>
    </trkpt>
    <trkpt lat="47.659141" lon="8.916177">
    <ele>422</ele>
    <time>2016-07-31T05:59:44Z</time>
    </trkpt>
    <trkpt lat="47.658606" lon="8.915202">
    <ele>426</ele>
    <time>2016-07-31T06:00:04Z</time>
    </trkpt>
    <trkpt lat="47.658576" lon="8.914724">
    <ele>427</ele>
    <time>2016-07-31T06:00:12Z</time>
    </trkpt>
    <trkpt lat="47.658589" lon="8.914665">
    <ele>427</ele>
    <time>2016-07-31T06:00:13Z</time>
    </trkpt>
    <trkpt lat="47.658287" lon="8.913358">
    <ele>428</ele>
    <time>2016-07-31T06:00:35Z</time>
    </trkpt>
    <trkpt lat="47.65823" lon="8.913431">
    <ele>428</ele>
    <time>2016-07-31T06:00:37Z</time>
    </trkpt>
    <trkpt lat="47.658152" lon="8.91344">
    <ele>428</ele>
    <time>2016-07-31T06:00:38Z</time>
    </trkpt>
    <trkpt lat="47.658044" lon="8.913384">
    <ele>428</ele>
    <time>2016-07-31T06:00:41Z</time>
    </trkpt>
    <trkpt lat="47.657996" lon="8.913114">
    <ele>427</ele>
    <time>2016-07-31T06:00:45Z</time>
    </trkpt>
    <trkpt lat="47.657856" lon="8.912634">
    <ele>425</ele>
    <time>2016-07-31T06:00:54Z</time>
    </trkpt>
    <trkpt lat="47.657624" lon="8.912357">
    <ele>423</ele>
    <time>2016-07-31T06:01:01Z</time>
    </trkpt>
    <trkpt lat="47.657181" lon="8.912067">
    <ele>420</ele>
    <time>2016-07-31T06:01:12Z</time>
    </trkpt>
    <trkpt lat="47.656709" lon="8.911809">
    <ele>418</ele>
    <time>2016-07-31T06:01:24Z</time>
    </trkpt>
    <trkpt lat="47.656102" lon="8.910627">
    <ele>416</ele>
    <time>2016-07-31T06:01:48Z</time>
    </trkpt>
    <trkpt lat="47.655941" lon="8.909176">
    <ele>414</ele>
    <time>2016-07-31T06:02:11Z</time>
    </trkpt>
    <trkpt lat="47.655639" lon="8.907497">
    <ele>412</ele>
    <time>2016-07-31T06:02:39Z</time>
    </trkpt>
    <trkpt lat="47.655436" lon="8.90615">
    <ele>410</ele>
    <time>2016-07-31T06:03:01Z</time>
    </trkpt>
    <trkpt lat="47.655392" lon="8.904388">
    <ele>408</ele>
    <time>2016-07-31T06:03:29Z</time>
    </trkpt>
    <trkpt lat="47.655425" lon="8.902751">
    <ele>407</ele>
    <time>2016-07-31T06:03:55Z</time>
    </trkpt>
    <trkpt lat="47.655478" lon="8.901568">
    <ele>407</ele>
    <time>2016-07-31T06:04:14Z</time>
    </trkpt>
    <trkpt lat="47.655509" lon="8.900506">
    <ele>406</ele>
    <time>2016-07-31T06:04:31Z</time>
    </trkpt>
    <trkpt lat="47.655005" lon="8.898333">
    <ele>405</ele>
    <time>2016-07-31T06:05:07Z</time>
    </trkpt>
    <trkpt lat="47.654864" lon="8.895929">
    <ele>404</ele>
    <time>2016-07-31T06:05:45Z</time>
    </trkpt>
    <trkpt lat="47.654885" lon="8.894459">
    <ele>403</ele>
    <time>2016-07-31T06:06:09Z</time>
    </trkpt>
    <trkpt lat="47.65504" lon="8.893434">
    <ele>403</ele>
    <time>2016-07-31T06:06:26Z</time>
    </trkpt>
    <trkpt lat="47.655438" lon="8.891018">
    <ele>402</ele>
    <time>2016-07-31T06:07:05Z</time>
    </trkpt>
    <trkpt lat="47.655577" lon="8.889755">
    <ele>401</ele>
    <time>2016-07-31T06:07:25Z</time>
    </trkpt>
    <trkpt lat="47.655728" lon="8.888118">
    <ele>401</ele>
    <time>2016-07-31T06:07:52Z</time>
    </trkpt>
    <trkpt lat="47.655751" lon="8.887194">
    <ele>401</ele>
    <time>2016-07-31T06:08:06Z</time>
    </trkpt>
    <trkpt lat="47.65584" lon="8.885539">
    <ele>401</ele>
    <time>2016-07-31T06:08:33Z</time>
    </trkpt>
    <trkpt lat="47.655875" lon="8.884626">
    <ele>402</ele>
    <time>2016-07-31T06:08:47Z</time>
    </trkpt>
    <trkpt lat="47.656134" lon="8.88377">
    <ele>402</ele>
    <time>2016-07-31T06:09:02Z</time>
    </trkpt>
    <trkpt lat="47.656198" lon="8.882952">
    <ele>402</ele>
    <time>2016-07-31T06:09:15Z</time>
    </trkpt>
    <trkpt lat="47.656188" lon="8.882005">
    <ele>402</ele>
    <time>2016-07-31T06:09:30Z</time>
    </trkpt>
    <trkpt lat="47.656416" lon="8.881037">
    <ele>402</ele>
    <time>2016-07-31T06:09:47Z</time>
    </trkpt>
    <trkpt lat="47.656426" lon="8.88098">
    <ele>402</ele>
    <time>2016-07-31T06:09:48Z</time>
    </trkpt>
    <trkpt lat="47.657095" lon="8.879736">
    <ele>402</ele>
    <time>2016-07-31T06:10:13Z</time>
    </trkpt>
    <trkpt lat="47.657293" lon="8.877444">
    <ele>402</ele>
    <time>2016-07-31T06:10:50Z</time>
    </trkpt>
    <trkpt lat="47.657278" lon="8.877447">
    <ele>402</ele>
    <time>2016-07-31T06:10:50Z</time>
    </trkpt>
    <trkpt lat="47.65721" lon="8.876788">
    <ele>402</ele>
    <time>2016-07-31T06:11:01Z</time>
    </trkpt>
    <trkpt lat="47.657059" lon="8.875616">
    <ele>402</ele>
    <time>2016-07-31T06:11:20Z</time>
    </trkpt>
    <trkpt lat="47.657064" lon="8.875602">
    <ele>402</ele>
    <time>2016-07-31T06:11:20Z</time>
    </trkpt>
    <trkpt lat="47.657055" lon="8.874985">
    <ele>402</ele>
    <time>2016-07-31T06:11:30Z</time>
    </trkpt>
    <trkpt lat="47.657101" lon="8.8743">
    <ele>403</ele>
    <time>2016-07-31T06:11:41Z</time>
    </trkpt>
    <trkpt lat="47.657101" lon="8.874278">
    <ele>403</ele>
    <time>2016-07-31T06:11:41Z</time>
    </trkpt>
    <trkpt lat="47.657205" lon="8.873476">
    <ele>404</ele>
    <time>2016-07-31T06:11:54Z</time>
    </trkpt>
    <trkpt lat="47.657487" lon="8.872579">
    <ele>405</ele>
    <time>2016-07-31T06:12:10Z</time>
    </trkpt>
    <trkpt lat="47.657686" lon="8.871798">
    <ele>406</ele>
    <time>2016-07-31T06:12:23Z</time>
    </trkpt>
    <trkpt lat="47.657671" lon="8.870615">
    <ele>408</ele>
    <time>2016-07-31T06:12:42Z</time>
    </trkpt>
    <trkpt lat="47.657731" lon="8.870225">
    <ele>409</ele>
    <time>2016-07-31T06:12:48Z</time>
    </trkpt>
    <trkpt lat="47.657787" lon="8.869944">
    <ele>409</ele>
    <time>2016-07-31T06:12:53Z</time>
    </trkpt>
    <trkpt lat="47.658185" lon="8.869337">
    <ele>411</ele>
    <time>2016-07-31T06:13:06Z</time>
    </trkpt>
    <trkpt lat="47.658246" lon="8.869349">
    <ele>411</ele>
    <time>2016-07-31T06:13:08Z</time>
    </trkpt>
    <trkpt lat="47.658246" lon="8.869243">
    <ele>411</ele>
    <time>2016-07-31T06:13:09Z</time>
    </trkpt>
    <trkpt lat="47.658241" lon="8.868563">
    <ele>411</ele>
    <time>2016-07-31T06:13:20Z</time>
    </trkpt>
    <trkpt lat="47.658295" lon="8.868226">
    <ele>410</ele>
    <time>2016-07-31T06:13:26Z</time>
    </trkpt>
    <trkpt lat="47.65888" lon="8.866521">
    <ele>409</ele>
    <time>2016-07-31T06:13:56Z</time>
    </trkpt>
    <trkpt lat="47.659536" lon="8.864662">
    <ele>408</ele>
    <time>2016-07-31T06:14:30Z</time>
    </trkpt>
    <trkpt lat="47.659598" lon="8.863411">
    <ele>407</ele>
    <time>2016-07-31T06:14:50Z</time>
    </trkpt>
    <trkpt lat="47.659592" lon="8.862384">
    <ele>406</ele>
    <time>2016-07-31T06:15:06Z</time>
    </trkpt>
    <trkpt lat="47.659396" lon="8.861743">
    <ele>406</ele>
    <time>2016-07-31T06:15:17Z</time>
    </trkpt>
    <trkpt lat="47.659416" lon="8.861372">
    <ele>406</ele>
    <time>2016-07-31T06:15:23Z</time>
    </trkpt>
    <trkpt lat="47.659446" lon="8.861305">
    <ele>406</ele>
    <time>2016-07-31T06:15:24Z</time>
    </trkpt>
    <trkpt lat="47.659376" lon="8.861231">
    <ele>406</ele>
    <time>2016-07-31T06:15:26Z</time>
    </trkpt>
    <trkpt lat="47.659381" lon="8.861285">
    <ele>406</ele>
    <time>2016-07-31T06:15:27Z</time>
    </trkpt>
    <trkpt lat="47.659295" lon="8.860226">
    <ele>406</ele>
    <time>2016-07-31T06:15:44Z</time>
    </trkpt>
    <trkpt lat="47.659336" lon="8.859673">
    <ele>405</ele>
    <time>2016-07-31T06:15:53Z</time>
    </trkpt>
    <trkpt lat="47.659488" lon="8.859325">
    <ele>405</ele>
    <time>2016-07-31T06:16:00Z</time>
    </trkpt>
    <trkpt lat="47.659488" lon="8.859325">
    <ele>405</ele>
    <time>2016-07-31T06:16:00Z</time>
    </trkpt>
    <trkpt lat="47.659996" lon="8.858917">
    <ele>404</ele>
    <time>2016-07-31T06:16:13Z</time>
    </trkpt>
    <trkpt lat="47.660271" lon="8.858573">
    <ele>404</ele>
    <time>2016-07-31T06:16:22Z</time>
    </trkpt>
    <trkpt lat="47.660656" lon="8.858018">
    <ele>403</ele>
    <time>2016-07-31T06:16:34Z</time>
    </trkpt>
    <trkpt lat="47.660893" lon="8.857632">
    <ele>403</ele>
    <time>2016-07-31T06:16:43Z</time>
    </trkpt>
    <trkpt lat="47.66132" lon="8.857318">
    <ele>402</ele>
    <time>2016-07-31T06:16:54Z</time>
    </trkpt>
    <trkpt lat="47.661679" lon="8.857043">
    <ele>402</ele>
    <time>2016-07-31T06:17:03Z</time>
    </trkpt>
    <trkpt lat="47.661931" lon="8.856507">
    <ele>402</ele>
    <time>2016-07-31T06:17:14Z</time>
    </trkpt>
    <trkpt lat="47.661931" lon="8.856507">
    <ele>402</ele>
    <time>2016-07-31T06:17:14Z</time>
    </trkpt>
    <trkpt lat="47.662327" lon="8.855326">
    <ele>402</ele>
    <time>2016-07-31T06:17:35Z</time>
    </trkpt>
    <trkpt lat="47.662327" lon="8.855326">
    <ele>402</ele>
    <time>2016-07-31T06:17:35Z</time>
    </trkpt>
    <trkpt lat="47.662828" lon="8.853695">
    <ele>402</ele>
    <time>2016-07-31T06:18:03Z</time>
    </trkpt>
    <trkpt lat="47.663374" lon="8.852023">
    <ele>402</ele>
    <time>2016-07-31T06:18:33Z</time>
    </trkpt>
    <trkpt lat="47.663882" lon="8.851062">
    <ele>402</ele>
    <time>2016-07-31T06:18:52Z</time>
    </trkpt>
    <trkpt lat="47.663839" lon="8.851158">
    <ele>402</ele>
    <time>2016-07-31T06:18:54Z</time>
    </trkpt>
    <trkpt lat="47.664058" lon="8.850631">
    <ele>402</ele>
    <time>2016-07-31T06:19:04Z</time>
    </trkpt>
    <trkpt lat="47.664337" lon="8.849769">
    <ele>403</ele>
    <time>2016-07-31T06:19:19Z</time>
    </trkpt>
    <trkpt lat="47.664618" lon="8.849086">
    <ele>404</ele>
    <time>2016-07-31T06:19:32Z</time>
    </trkpt>
    <trkpt lat="47.66544" lon="8.847933">
    <ele>406</ele>
    <time>2016-07-31T06:19:58Z</time>
    </trkpt>
    <trkpt lat="47.665403" lon="8.847998">
    <ele>406</ele>
    <time>2016-07-31T06:20:00Z</time>
    </trkpt>
    <trkpt lat="47.665687" lon="8.847641">
    <ele>406</ele>
    <time>2016-07-31T06:20:08Z</time>
    </trkpt>
    <trkpt lat="47.666066" lon="8.847222">
    <ele>407</ele>
    <time>2016-07-31T06:20:20Z</time>
    </trkpt>
    <trkpt lat="47.666455" lon="8.846797">
    <ele>407</ele>
    <time>2016-07-31T06:20:31Z</time>
    </trkpt>
    <trkpt lat="47.666812" lon="8.846116">
    <ele>407</ele>
    <time>2016-07-31T06:20:45Z</time>
    </trkpt>
    <trkpt lat="47.667031" lon="8.845855">
    <ele>408</ele>
    <time>2016-07-31T06:20:51Z</time>
    </trkpt>
    <trkpt lat="47.667819" lon="8.844638">
    <ele>409</ele>
    <time>2016-07-31T06:21:18Z</time>
    </trkpt>
    <trkpt lat="47.668507" lon="8.843857">
    <ele>411</ele>
    <time>2016-07-31T06:21:39Z</time>
    </trkpt>
    <trkpt lat="47.669516" lon="8.842898">
    <ele>412</ele>
    <time>2016-07-31T06:22:07Z</time>
    </trkpt>
    <trkpt lat="47.670339" lon="8.842049">
    <ele>414</ele>
    <time>2016-07-31T06:22:30Z</time>
    </trkpt>
    <trkpt lat="47.671002" lon="8.841175">
    <ele>414</ele>
    <time>2016-07-31T06:22:51Z</time>
    </trkpt>
    <trkpt lat="47.671002" lon="8.841175">
    <ele>414</ele>
    <time>2016-07-31T06:22:51Z</time>
    </trkpt>
    <trkpt lat="47.671676" lon="8.839931">
    <ele>414</ele>
    <time>2016-07-31T06:23:17Z</time>
    </trkpt>
    <trkpt lat="47.672536" lon="8.838345">
    <ele>414</ele>
    <time>2016-07-31T06:23:49Z</time>
    </trkpt>
    <trkpt lat="47.673663" lon="8.836309">
    <ele>414</ele>
    <time>2016-07-31T06:24:31Z</time>
    </trkpt>
    <trkpt lat="47.673725" lon="8.836224">
    <ele>414</ele>
    <time>2016-07-31T06:24:33Z</time>
    </trkpt>
    <trkpt lat="47.674684" lon="8.834711">
    <ele>413</ele>
    <time>2016-07-31T06:25:06Z</time>
    </trkpt>
    <trkpt lat="47.674747" lon="8.83463">
    <ele>412</ele>
    <time>2016-07-31T06:25:08Z</time>
    </trkpt>
    <trkpt lat="47.675479" lon="8.833499">
    <ele>412</ele>
    <time>2016-07-31T06:25:33Z</time>
    </trkpt>
    <trkpt lat="47.676249" lon="8.832515">
    <ele>411</ele>
    <time>2016-07-31T06:25:57Z</time>
    </trkpt>
    <trkpt lat="47.676811" lon="8.831956">
    <ele>410</ele>
    <time>2016-07-31T06:26:13Z</time>
    </trkpt>
    <trkpt lat="47.676785" lon="8.831812">
    <ele>410</ele>
    <time>2016-07-31T06:26:15Z</time>
    </trkpt>
    <trkpt lat="47.67634" lon="8.831508">
    <ele>409</ele>
    <time>2016-07-31T06:26:26Z</time>
    </trkpt>
    <trkpt lat="47.676377" lon="8.83049">
    <ele>408</ele>
    <time>2016-07-31T06:26:43Z</time>
    </trkpt>
    <trkpt lat="47.676789" lon="8.82889">
    <ele>405</ele>
    <time>2016-07-31T06:27:10Z</time>
    </trkpt>
    <trkpt lat="47.677268" lon="8.828043">
    <ele>405</ele>
    <time>2016-07-31T06:27:27Z</time>
    </trkpt>
    <trkpt lat="47.677401" lon="8.827255">
    <ele>404</ele>
    <time>2016-07-31T06:27:40Z</time>
    </trkpt>
    <trkpt lat="47.677869" lon="8.825889">
    <ele>404</ele>
    <time>2016-07-31T06:28:05Z</time>
    </trkpt>
    <trkpt lat="47.678493" lon="8.824591">
    <ele>404</ele>
    <time>2016-07-31T06:28:30Z</time>
    </trkpt>
    <trkpt lat="47.679065" lon="8.823181">
    <ele>403</ele>
    <time>2016-07-31T06:28:56Z</time>
    </trkpt>
    <trkpt lat="47.679656" lon="8.821375">
    <ele>403</ele>
    <time>2016-07-31T06:29:28Z</time>
    </trkpt>
    <trkpt lat="47.679854" lon="8.820599">
    <ele>403</ele>
    <time>2016-07-31T06:29:41Z</time>
    </trkpt>
    <trkpt lat="47.680024" lon="8.819025">
    <ele>402</ele>
    <time>2016-07-31T06:30:07Z</time>
    </trkpt>
    <trkpt lat="47.680468" lon="8.817852">
    <ele>402</ele>
    <time>2016-07-31T06:30:28Z</time>
    </trkpt>
    <trkpt lat="47.680773" lon="8.816889">
    <ele>402</ele>
    <time>2016-07-31T06:30:45Z</time>
    </trkpt>
    <trkpt lat="47.680828" lon="8.815672">
    <ele>401</ele>
    <time>2016-07-31T06:31:04Z</time>
    </trkpt>
    <trkpt lat="47.680905" lon="8.814941">
    <ele>400</ele>
    <time>2016-07-31T06:31:16Z</time>
    </trkpt>
    <trkpt lat="47.681142" lon="8.813713">
    <ele>399</ele>
    <time>2016-07-31T06:31:36Z</time>
    </trkpt>
    <trkpt lat="47.681389" lon="8.811588">
    <ele>398</ele>
    <time>2016-07-31T06:32:11Z</time>
    </trkpt>
    <trkpt lat="47.681435" lon="8.810481">
    <ele>397</ele>
    <time>2016-07-31T06:32:28Z</time>
    </trkpt>
    <trkpt lat="47.681529" lon="8.809451">
    <ele>397</ele>
    <time>2016-07-31T06:32:45Z</time>
    </trkpt>
    <trkpt lat="47.681536" lon="8.808239">
    <ele>397</ele>
    <time>2016-07-31T06:33:04Z</time>
    </trkpt>
    <trkpt lat="47.681401" lon="8.807797">
    <ele>398</ele>
    <time>2016-07-31T06:33:12Z</time>
    </trkpt>
    <trkpt lat="47.681306" lon="8.807343">
    <ele>398</ele>
    <time>2016-07-31T06:33:19Z</time>
    </trkpt>
    <trkpt lat="47.680937" lon="8.806253">
    <ele>399</ele>
    <time>2016-07-31T06:33:39Z</time>
    </trkpt>
    <trkpt lat="47.681145" lon="8.80549">
    <ele>400</ele>
    <time>2016-07-31T06:33:52Z</time>
    </trkpt>
    <trkpt lat="47.681389" lon="8.804494">
    <ele>403</ele>
    <time>2016-07-31T06:34:09Z</time>
    </trkpt>
    <trkpt lat="47.681433" lon="8.804379">
    <ele>404</ele>
    <time>2016-07-31T06:34:11Z</time>
    </trkpt>
    <trkpt lat="47.681343" lon="8.803891">
    <ele>405</ele>
    <time>2016-07-31T06:34:19Z</time>
    </trkpt>
    <trkpt lat="47.681226" lon="8.803163">
    <ele>407</ele>
    <time>2016-07-31T06:34:31Z</time>
    </trkpt>
    <trkpt lat="47.681285" lon="8.802445">
    <ele>410</ele>
    <time>2016-07-31T06:34:42Z</time>
    </trkpt>
    <trkpt lat="47.681246" lon="8.801523">
    <ele>415</ele>
    <time>2016-07-31T06:34:57Z</time>
    </trkpt>
    <trkpt lat="47.68085" lon="8.800509">
    <ele>420</ele>
    <time>2016-07-31T06:35:16Z</time>
    </trkpt>
    <trkpt lat="47.680531" lon="8.799729">
    <ele>425</ele>
    <time>2016-07-31T06:35:30Z</time>
    </trkpt>
    <trkpt lat="47.680276" lon="8.798907">
    <ele>429</ele>
    <time>2016-07-31T06:35:44Z</time>
    </trkpt>
    <trkpt lat="47.680129" lon="8.798387">
    <ele>432</ele>
    <time>2016-07-31T06:35:53Z</time>
    </trkpt>
    <trkpt lat="47.679115" lon="8.797967">
    <ele>439</ele>
    <time>2016-07-31T06:36:18Z</time>
    </trkpt>
    <trkpt lat="47.679043" lon="8.797569">
    <ele>441</ele>
    <time>2016-07-31T06:36:25Z</time>
    </trkpt>
    <trkpt lat="47.679049" lon="8.797265">
    <ele>442</ele>
    <time>2016-07-31T06:36:30Z</time>
    </trkpt>
    <trkpt lat="47.679805" lon="8.796698">
    <ele>448</ele>
    <time>2016-07-31T06:36:49Z</time>
    </trkpt>
    <trkpt lat="47.679827" lon="8.796062">
    <ele>450</ele>
    <time>2016-07-31T06:37:00Z</time>
    </trkpt>
    <trkpt lat="47.679842" lon="8.795584">
    <ele>451</ele>
    <time>2016-07-31T06:37:07Z</time>
    </trkpt>
    <trkpt lat="47.679822" lon="8.794866">
    <ele>453</ele>
    <time>2016-07-31T06:37:19Z</time>
    </trkpt>
    <trkpt lat="47.679896" lon="8.794015">
    <ele>455</ele>
    <time>2016-07-31T06:37:32Z</time>
    </trkpt>
    <trkpt lat="47.680107" lon="8.793688">
    <ele>457</ele>
    <time>2016-07-31T06:37:39Z</time>
    </trkpt>
    <trkpt lat="47.680429" lon="8.79342">
    <ele>457</ele>
    <time>2016-07-31T06:37:48Z</time>
    </trkpt>
    <trkpt lat="47.68318" lon="8.791481">
    <ele>450</ele>
    <time>2016-07-31T06:39:00Z</time>
    </trkpt>
    <trkpt lat="47.683224" lon="8.791437">
    <ele>450</ele>
    <time>2016-07-31T06:39:01Z</time>
    </trkpt>
    <trkpt lat="47.683939" lon="8.788313">
    <ele>446</ele>
    <time>2016-07-31T06:39:54Z</time>
    </trkpt>
    <trkpt lat="47.684589" lon="8.785697">
    <ele>442</ele>
    <time>2016-07-31T06:40:38Z</time>
    </trkpt>
    <trkpt lat="47.684972" lon="8.783974">
    <ele>438</ele>
    <time>2016-07-31T06:41:07Z</time>
    </trkpt>
    <trkpt lat="47.684942" lon="8.783952">
    <ele>438</ele>
    <time>2016-07-31T06:41:07Z</time>
    </trkpt>
    <trkpt lat="47.685011" lon="8.782295">
    <ele>434</ele>
    <time>2016-07-31T06:41:34Z</time>
    </trkpt>
    <trkpt lat="47.685388" lon="8.776502">
    <ele>418</ele>
    <time>2016-07-31T06:43:06Z</time>
    </trkpt>
    <trkpt lat="47.68539" lon="8.775895">
    <ele>417</ele>
    <time>2016-07-31T06:43:16Z</time>
    </trkpt>
    <trkpt lat="47.685056" lon="8.774772">
    <ele>415</ele>
    <time>2016-07-31T06:43:36Z</time>
    </trkpt>
    <trkpt lat="47.685675" lon="8.771663">
    <ele>411</ele>
    <time>2016-07-31T06:44:27Z</time>
    </trkpt>
    <trkpt lat="47.686133" lon="8.770356">
    <ele>409</ele>
    <time>2016-07-31T06:44:50Z</time>
    </trkpt>
    <trkpt lat="47.686625" lon="8.769385">
    <ele>407</ele>
    <time>2016-07-31T06:45:10Z</time>
    </trkpt>
    <trkpt lat="47.688224" lon="8.764666">
    <ele>401</ele>
    <time>2016-07-31T06:46:34Z</time>
    </trkpt>
    <trkpt lat="47.689243" lon="8.761507">
    <ele>398</ele>
    <time>2016-07-31T06:47:29Z</time>
    </trkpt>
    <trkpt lat="47.689568" lon="8.760926">
    <ele>398</ele>
    <time>2016-07-31T06:47:41Z</time>
    </trkpt>
    <trkpt lat="47.690258" lon="8.758553">
    <ele>396</ele>
    <time>2016-07-31T06:48:22Z</time>
    </trkpt>
    <trkpt lat="47.690416" lon="8.75716">
    <ele>396</ele>
    <time>2016-07-31T06:48:45Z</time>
    </trkpt>
    <trkpt lat="47.69059" lon="8.756028">
    <ele>395</ele>
    <time>2016-07-31T06:49:03Z</time>
    </trkpt>
    <trkpt lat="47.690487" lon="8.755811">
    <ele>395</ele>
    <time>2016-07-31T06:49:08Z</time>
    </trkpt>
    <trkpt lat="47.690729" lon="8.754237">
    <ele>397</ele>
    <time>2016-07-31T06:49:33Z</time>
    </trkpt>
    <trkpt lat="47.691198" lon="8.751783">
    <ele>399</ele>
    <time>2016-07-31T06:50:14Z</time>
    </trkpt>
    <trkpt lat="47.691363" lon="8.751135">
    <ele>399</ele>
    <time>2016-07-31T06:50:25Z</time>
    </trkpt>
    <trkpt lat="47.691378" lon="8.751049">
    <ele>399</ele>
    <time>2016-07-31T06:50:26Z</time>
    </trkpt>
    <trkpt lat="47.691327" lon="8.750302">
    <ele>400</ele>
    <time>2016-07-31T06:50:38Z</time>
    </trkpt>
    <trkpt lat="47.691384" lon="8.749584">
    <ele>401</ele>
    <time>2016-07-31T06:50:50Z</time>
    </trkpt>
    <trkpt lat="47.691512" lon="8.747495">
    <ele>402</ele>
    <time>2016-07-31T06:51:23Z</time>
    </trkpt>
    <trkpt lat="47.691819" lon="8.745248">
    <ele>404</ele>
    <time>2016-07-31T06:51:59Z</time>
    </trkpt>
    <trkpt lat="47.692247" lon="8.743532">
    <ele>406</ele>
    <time>2016-07-31T06:52:28Z</time>
    </trkpt>
    <trkpt lat="47.692282" lon="8.743467">
    <ele>406</ele>
    <time>2016-07-31T06:52:30Z</time>
    </trkpt>
    <trkpt lat="47.692332" lon="8.742471">
    <ele>406</ele>
    <time>2016-07-31T06:52:46Z</time>
    </trkpt>
    <trkpt lat="47.692983" lon="8.738867">
    <ele>405</ele>
    <time>2016-07-31T06:53:45Z</time>
    </trkpt>
    <trkpt lat="47.693105" lon="8.73737">
    <ele>405</ele>
    <time>2016-07-31T06:54:09Z</time>
    </trkpt>
    <trkpt lat="47.693294" lon="8.736259">
    <ele>405</ele>
    <time>2016-07-31T06:54:27Z</time>
    </trkpt>
    <trkpt lat="47.693708" lon="8.733371">
    <ele>405</ele>
    <time>2016-07-31T06:55:14Z</time>
    </trkpt>
    <trkpt lat="47.693752" lon="8.729223">
    <ele>403</ele>
    <time>2016-07-31T06:56:20Z</time>
    </trkpt>
    <trkpt lat="47.693393" lon="8.724018">
    <ele>401</ele>
    <time>2016-07-31T06:57:43Z</time>
    </trkpt>
    <trkpt lat="47.693293" lon="8.72289">
    <ele>401</ele>
    <time>2016-07-31T06:58:01Z</time>
    </trkpt>
    <trkpt lat="47.692994" lon="8.721204">
    <ele>400</ele>
    <time>2016-07-31T06:58:29Z</time>
    </trkpt>
    <trkpt lat="47.692885" lon="8.720651">
    <ele>400</ele>
    <time>2016-07-31T06:58:38Z</time>
    </trkpt>
    <trkpt lat="47.692648" lon="8.720313">
    <ele>400</ele>
    <time>2016-07-31T06:58:46Z</time>
    </trkpt>
    <trkpt lat="47.692573" lon="8.719984">
    <ele>400</ele>
    <time>2016-07-31T06:58:51Z</time>
    </trkpt>
    <trkpt lat="47.692606" lon="8.720119">
    <ele>400</ele>
    <time>2016-07-31T06:58:54Z</time>
    </trkpt>
    <trkpt lat="47.692328" lon="8.719206">
    <ele>399</ele>
    <time>2016-07-31T06:59:10Z</time>
    </trkpt>
    <trkpt lat="47.692005" lon="8.718023">
    <ele>400</ele>
    <time>2016-07-31T06:59:30Z</time>
    </trkpt>
    <trkpt lat="47.691877" lon="8.717082">
    <ele>400</ele>
    <time>2016-07-31T06:59:45Z</time>
    </trkpt>
    <trkpt lat="47.691877" lon="8.717082">
    <ele>400</ele>
    <time>2016-07-31T06:59:45Z</time>
    </trkpt>
    <trkpt lat="47.691472" lon="8.714781">
    <ele>401</ele>
    <time>2016-07-31T07:00:23Z</time>
    </trkpt>
    <trkpt lat="47.691594" lon="8.713706">
    <ele>402</ele>
    <time>2016-07-31T07:00:40Z</time>
    </trkpt>
    <trkpt lat="47.691946" lon="8.712319">
    <ele>402</ele>
    <time>2016-07-31T07:01:04Z</time>
    </trkpt>
    <trkpt lat="47.692764" lon="8.710338">
    <ele>400</ele>
    <time>2016-07-31T07:01:41Z</time>
    </trkpt>
    <trkpt lat="47.693835" lon="8.707294">
    <ele>398</ele>
    <time>2016-07-31T07:02:35Z</time>
    </trkpt>
    <trkpt lat="47.693791" lon="8.707338">
    <ele>398</ele>
    <time>2016-07-31T07:02:36Z</time>
    </trkpt>
    <trkpt lat="47.694283" lon="8.704806">
    <ele>396</ele>
    <time>2016-07-31T07:03:18Z</time>
    </trkpt>
    <trkpt lat="47.69461" lon="8.703637">
    <ele>395</ele>
    <time>2016-07-31T07:03:38Z</time>
    </trkpt>
    <trkpt lat="47.695144" lon="8.702191">
    <ele>395</ele>
    <time>2016-07-31T07:04:05Z</time>
    </trkpt>
    <trkpt lat="47.695427" lon="8.701522">
    <ele>395</ele>
    <time>2016-07-31T07:04:17Z</time>
    </trkpt>
    <trkpt lat="47.695562" lon="8.700556">
    <ele>394</ele>
    <time>2016-07-31T07:04:33Z</time>
    </trkpt>
    <trkpt lat="47.696047" lon="8.699248">
    <ele>394</ele>
    <time>2016-07-31T07:04:57Z</time>
    </trkpt>
    <trkpt lat="47.696214" lon="8.69908">
    <ele>394</ele>
    <time>2016-07-31T07:05:01Z</time>
    </trkpt>
    <trkpt lat="47.696314" lon="8.698893">
    <ele>394</ele>
    <time>2016-07-31T07:05:05Z</time>
    </trkpt>
    <trkpt lat="47.696269" lon="8.697095">
    <ele>395</ele>
    <time>2016-07-31T07:05:34Z</time>
    </trkpt>
    <trkpt lat="47.696754" lon="8.694629">
    <ele>396</ele>
    <time>2016-07-31T07:06:15Z</time>
    </trkpt>
    <trkpt lat="47.697108" lon="8.692496">
    <ele>397</ele>
    <time>2016-07-31T07:06:49Z</time>
    </trkpt>
    <trkpt lat="47.697163" lon="8.691578">
    <ele>397</ele>
    <time>2016-07-31T07:07:04Z</time>
    </trkpt>
    <trkpt lat="47.697103" lon="8.690632">
    <ele>397</ele>
    <time>2016-07-31T07:07:19Z</time>
    </trkpt>
    <trkpt lat="47.696917" lon="8.690154">
    <ele>397</ele>
    <time>2016-07-31T07:07:28Z</time>
    </trkpt>
    <trkpt lat="47.696701" lon="8.689155">
    <ele>396</ele>
    <time>2016-07-31T07:07:45Z</time>
    </trkpt>
    <trkpt lat="47.696336" lon="8.688016">
    <ele>396</ele>
    <time>2016-07-31T07:08:05Z</time>
    </trkpt>
    <trkpt lat="47.695839" lon="8.687092">
    <ele>396</ele>
    <time>2016-07-31T07:08:23Z</time>
    </trkpt>
    <trkpt lat="47.695603" lon="8.686966">
    <ele>396</ele>
    <time>2016-07-31T07:08:29Z</time>
    </trkpt>
    <trkpt lat="47.695603" lon="8.686966">
    <ele>396</ele>
    <time>2016-07-31T07:08:29Z</time>
    </trkpt>
    <trkpt lat="47.694891" lon="8.6866">
    <ele>396</ele>
    <time>2016-07-31T07:08:47Z</time>
    </trkpt>
    <trkpt lat="47.693268" lon="8.685238">
    <ele>397</ele>
    <time>2016-07-31T07:09:31Z</time>
    </trkpt>
    <trkpt lat="47.692515" lon="8.684289">
    <ele>397</ele>
    <time>2016-07-31T07:09:54Z</time>
    </trkpt>
    <trkpt lat="47.691799" lon="8.683169">
    <ele>397</ele>
    <time>2016-07-31T07:10:19Z</time>
    </trkpt>
    <trkpt lat="47.691082" lon="8.681763">
    <ele>396</ele>
    <time>2016-07-31T07:10:47Z</time>
    </trkpt>
    <trkpt lat="47.690989" lon="8.681616">
    <ele>396</ele>
    <time>2016-07-31T07:10:50Z</time>
    </trkpt>
    <trkpt lat="47.689944" lon="8.67986">
    <ele>395</ele>
    <time>2016-07-31T07:11:27Z</time>
    </trkpt>
    <trkpt lat="47.688381" lon="8.677641">
    <ele>395</ele>
    <time>2016-07-31T07:12:18Z</time>
    </trkpt>
    <trkpt lat="47.687721" lon="8.676024">
    <ele>395</ele>
    <time>2016-07-31T07:12:48Z</time>
    </trkpt>
    <trkpt lat="47.686933" lon="8.672889">
    <ele>394</ele>
    <time>2016-07-31T07:13:41Z</time>
    </trkpt>
    <trkpt lat="47.686306" lon="8.669161">
    <ele>394</ele>
    <time>2016-07-31T07:14:42Z</time>
    </trkpt>
    <trkpt lat="47.68645" lon="8.668875">
    <ele>394</ele>
    <time>2016-07-31T07:14:48Z</time>
    </trkpt>
    <trkpt lat="47.686284" lon="8.667636">
    <ele>394</ele>
    <time>2016-07-31T07:15:08Z</time>
    </trkpt>
    <trkpt lat="47.686283" lon="8.66593">
    <ele>395</ele>
    <time>2016-07-31T07:15:35Z</time>
    </trkpt>
    <trkpt lat="47.686426" lon="8.663612">
    <ele>395</ele>
    <time>2016-07-31T07:16:12Z</time>
    </trkpt>
    <trkpt lat="47.6864" lon="8.663566">
    <ele>395</ele>
    <time>2016-07-31T07:16:13Z</time>
    </trkpt>
    <trkpt lat="47.686535" lon="8.662761">
    <ele>396</ele>
    <time>2016-07-31T07:16:26Z</time>
    </trkpt>
    <trkpt lat="47.686935" lon="8.661702">
    <ele>396</ele>
    <time>2016-07-31T07:16:46Z</time>
    </trkpt>
    <trkpt lat="47.68737" lon="8.660801">
    <ele>396</ele>
    <time>2016-07-31T07:17:03Z</time>
    </trkpt>
    <trkpt lat="47.688127" lon="8.659028">
    <ele>397</ele>
    <time>2016-07-31T07:17:37Z</time>
    </trkpt>
    <trkpt lat="47.688474" lon="8.657914">
    <ele>397</ele>
    <time>2016-07-31T07:17:56Z</time>
    </trkpt>
    <trkpt lat="47.689083" lon="8.65628">
    <ele>398</ele>
    <time>2016-07-31T07:18:26Z</time>
    </trkpt>
    <trkpt lat="47.689858" lon="8.654924">
    <ele>398</ele>
    <time>2016-07-31T07:18:54Z</time>
    </trkpt>
    <trkpt lat="47.690931" lon="8.653613">
    <ele>398</ele>
    <time>2016-07-31T07:19:27Z</time>
    </trkpt>
    <trkpt lat="47.691661" lon="8.652807">
    <ele>399</ele>
    <time>2016-07-31T07:19:48Z</time>
    </trkpt>
    <trkpt lat="47.692437" lon="8.651801">
    <ele>399</ele>
    <time>2016-07-31T07:20:13Z</time>
    </trkpt>
    <trkpt lat="47.693046" lon="8.650496">
    <ele>399</ele>
    <time>2016-07-31T07:20:38Z</time>
    </trkpt>
    <trkpt lat="47.692988" lon="8.650627">
    <ele>399</ele>
    <time>2016-07-31T07:20:40Z</time>
    </trkpt>
    <trkpt lat="47.693628" lon="8.649021">
    <ele>397</ele>
    <time>2016-07-31T07:21:10Z</time>
    </trkpt>
    <trkpt lat="47.693778" lon="8.648463">
    <ele>397</ele>
    <time>2016-07-31T07:21:19Z</time>
    </trkpt>
    <trkpt lat="47.694286" lon="8.647101">
    <ele>396</ele>
    <time>2016-07-31T07:21:44Z</time>
    </trkpt>
    <trkpt lat="47.69455" lon="8.646509">
    <ele>395</ele>
    <time>2016-07-31T07:21:55Z</time>
    </trkpt>
    <trkpt lat="47.694885" lon="8.64536">
    <ele>394</ele>
    <time>2016-07-31T07:22:15Z</time>
    </trkpt>
    <trkpt lat="47.694934" lon="8.64508">
    <ele>393</ele>
    <time>2016-07-31T07:22:20Z</time>
    </trkpt>
    <trkpt lat="47.694943" lon="8.644916">
    <ele>393</ele>
    <time>2016-07-31T07:22:23Z</time>
    </trkpt>
    <trkpt lat="47.694997" lon="8.644697">
    <ele>393</ele>
    <time>2016-07-31T07:22:26Z</time>
    </trkpt>
    <trkpt lat="47.695061" lon="8.64445">
    <ele>393</ele>
    <time>2016-07-31T07:22:30Z</time>
    </trkpt>
    <trkpt lat="47.695061" lon="8.644328">
    <ele>393</ele>
    <time>2016-07-31T07:22:32Z</time>
    </trkpt>
    <trkpt lat="47.695133" lon="8.643889">
    <ele>393</ele>
    <time>2016-07-31T07:22:40Z</time>
    </trkpt>
    <trkpt lat="47.695139" lon="8.643864">
    <ele>393</ele>
    <time>2016-07-31T07:22:40Z</time>
    </trkpt>
    <trkpt lat="47.695213" lon="8.643399">
    <ele>392</ele>
    <time>2016-07-31T07:22:48Z</time>
    </trkpt>
    <trkpt lat="47.695205" lon="8.643463">
    <ele>392</ele>
    <time>2016-07-31T07:22:49Z</time>
    </trkpt>
    <trkpt lat="47.695432" lon="8.641974">
    <ele>392</ele>
    <time>2016-07-31T07:23:13Z</time>
    </trkpt>
    <trkpt lat="47.695388" lon="8.641368">
    <ele>392</ele>
    <time>2016-07-31T07:23:23Z</time>
    </trkpt>
    <trkpt lat="47.695368" lon="8.641048">
    <ele>392</ele>
    <time>2016-07-31T07:23:28Z</time>
    </trkpt>
    <trkpt lat="47.695335" lon="8.640744">
    <ele>392</ele>
    <time>2016-07-31T07:23:33Z</time>
    </trkpt>
    <trkpt lat="47.695335" lon="8.640744">
    <ele>392</ele>
    <time>2016-07-31T07:23:33Z</time>
    </trkpt>
    <trkpt lat="47.695151" lon="8.640264">
    <ele>392</ele>
    <time>2016-07-31T07:23:41Z</time>
    </trkpt>
    <trkpt lat="47.695249" lon="8.640294">
    <ele>392</ele>
    <time>2016-07-31T07:23:44Z</time>
    </trkpt>
    <trkpt lat="47.694921" lon="8.639329">
    <ele>392</ele>
    <time>2016-07-31T07:24:01Z</time>
    </trkpt>
    <trkpt lat="47.694947" lon="8.639331">
    <ele>392</ele>
    <time>2016-07-31T07:24:01Z</time>
    </trkpt>
    <trkpt lat="47.694487" lon="8.638152">
    <ele>393</ele>
    <time>2016-07-31T07:24:23Z</time>
    </trkpt>
    <trkpt lat="47.694152" lon="8.637384">
    <ele>393</ele>
    <time>2016-07-31T07:24:38Z</time>
    </trkpt>
    <trkpt lat="47.693795" lon="8.636504">
    <ele>393</ele>
    <time>2016-07-31T07:24:54Z</time>
    </trkpt>
    <trkpt lat="47.693512" lon="8.635485">
    <ele>393</ele>
    <time>2016-07-31T07:25:11Z</time>
    </trkpt>
    <trkpt lat="47.693434" lon="8.633598">
    <ele>393</ele>
    <time>2016-07-31T07:25:42Z</time>
    </trkpt>
    <trkpt lat="47.693472" lon="8.632651">
    <ele>392</ele>
    <time>2016-07-31T07:25:57Z</time>
    </trkpt>
    <trkpt lat="47.693571" lon="8.631633">
    <ele>392</ele>
    <time>2016-07-31T07:26:13Z</time>
    </trkpt>
    <trkpt lat="47.693595" lon="8.631741">
    <ele>392</ele>
    <time>2016-07-31T07:26:15Z</time>
    </trkpt>
    <trkpt lat="47.693701" lon="8.630513">
    <ele>392</ele>
    <time>2016-07-31T07:26:34Z</time>
    </trkpt>
    <trkpt lat="47.69367" lon="8.629901">
    <ele>391</ele>
    <time>2016-07-31T07:26:44Z</time>
    </trkpt>
    <trkpt lat="47.693489" lon="8.629022">
    <ele>391</ele>
    <time>2016-07-31T07:26:59Z</time>
    </trkpt>
    <trkpt lat="47.693208" lon="8.628424">
    <ele>390</ele>
    <time>2016-07-31T07:27:10Z</time>
    </trkpt>
    <trkpt lat="47.693064" lon="8.627901">
    <ele>390</ele>
    <time>2016-07-31T07:27:19Z</time>
    </trkpt>
    <trkpt lat="47.692966" lon="8.627056">
    <ele>389</ele>
    <time>2016-07-31T07:27:33Z</time>
    </trkpt>
    <trkpt lat="47.692994" lon="8.627024">
    <ele>389</ele>
    <time>2016-07-31T07:27:34Z</time>
    </trkpt>
    <trkpt lat="47.692887" lon="8.626301">
    <ele>388</ele>
    <time>2016-07-31T07:27:46Z</time>
    </trkpt>
    <trkpt lat="47.692546" lon="8.625568">
    <ele>388</ele>
    <time>2016-07-31T07:28:00Z</time>
    </trkpt>
    <trkpt lat="47.692311" lon="8.624953">
    <ele>388</ele>
    <time>2016-07-31T07:28:11Z</time>
    </trkpt>
    <trkpt lat="47.692321" lon="8.624953">
    <ele>388</ele>
    <time>2016-07-31T07:28:11Z</time>
    </trkpt>
    <trkpt lat="47.691946" lon="8.624146">
    <ele>389</ele>
    <time>2016-07-31T07:28:27Z</time>
    </trkpt>
    <trkpt lat="47.691023" lon="8.623407">
    <ele>389</ele>
    <time>2016-07-31T07:28:51Z</time>
    </trkpt>
    <trkpt lat="47.691074" lon="8.623441">
    <ele>389</ele>
    <time>2016-07-31T07:28:53Z</time>
    </trkpt>
    <trkpt lat="47.691402" lon="8.622819">
    <ele>389</ele>
    <time>2016-07-31T07:29:05Z</time>
    </trkpt>
    <trkpt lat="47.691126" lon="8.622609">
    <ele>390</ele>
    <time>2016-07-31T07:29:13Z</time>
    </trkpt>
    <trkpt lat="47.690542" lon="8.622662">
    <ele>390</ele>
    <time>2016-07-31T07:29:26Z</time>
    </trkpt>
    <trkpt lat="47.689243" lon="8.622949">
    <ele>392</ele>
    <time>2016-07-31T07:29:57Z</time>
    </trkpt>
    <trkpt lat="47.687978" lon="8.623431">
    <ele>392</ele>
    <time>2016-07-31T07:30:28Z</time>
    </trkpt>
    <trkpt lat="47.687201" lon="8.623886">
    <ele>392</ele>
    <time>2016-07-31T07:30:48Z</time>
    </trkpt>
    <trkpt lat="47.687187" lon="8.624164">
    <ele>392</ele>
    <time>2016-07-31T07:30:52Z</time>
    </trkpt>
    <trkpt lat="47.687242" lon="8.624138">
    <ele>392</ele>
    <time>2016-07-31T07:30:54Z</time>
    </trkpt>
    <trkpt lat="47.686164" lon="8.624338">
    <ele>391</ele>
    <time>2016-07-31T07:31:19Z</time>
    </trkpt>
    <trkpt lat="47.6847" lon="8.624907">
    <ele>391</ele>
    <time>2016-07-31T07:31:55Z</time>
    </trkpt>
    <trkpt lat="47.684488" lon="8.625042">
    <ele>391</ele>
    <time>2016-07-31T07:32:00Z</time>
    </trkpt>
    <trkpt lat="47.684219" lon="8.625095">
    <ele>391</ele>
    <time>2016-07-31T07:32:07Z</time>
    </trkpt>
    <trkpt lat="47.682779" lon="8.625648">
    <ele>390</ele>
    <time>2016-07-31T07:32:42Z</time>
    </trkpt>
    <trkpt lat="47.682205" lon="8.625892">
    <ele>390</ele>
    <time>2016-07-31T07:32:56Z</time>
    </trkpt>
    <trkpt lat="47.682387" lon="8.625741">
    <ele>390</ele>
    <time>2016-07-31T07:33:01Z</time>
    </trkpt>
    <trkpt lat="47.68282" lon="8.625499">
    <ele>392</ele>
    <time>2016-07-31T07:33:11Z</time>
    </trkpt>
    <trkpt lat="47.683032" lon="8.625274">
    <ele>394</ele>
    <time>2016-07-31T07:33:18Z</time>
    </trkpt>
    <trkpt lat="47.683032" lon="8.625274">
    <ele>394</ele>
    <time>2016-07-31T07:33:18Z</time>
    </trkpt>
    <trkpt lat="47.683112" lon="8.625046">
    <ele>395</ele>
    <time>2016-07-31T07:33:22Z</time>
    </trkpt>
    <trkpt lat="47.682721" lon="8.625109">
    <ele>396</ele>
    <time>2016-07-31T07:33:31Z</time>
    </trkpt>
    <trkpt lat="47.68291" lon="8.624958">
    <ele>397</ele>
    <time>2016-07-31T07:33:36Z</time>
    </trkpt>
    <trkpt lat="47.682872" lon="8.624759">
    <ele>398</ele>
    <time>2016-07-31T07:33:39Z</time>
    </trkpt>
    <trkpt lat="47.682872" lon="8.624759">
    <ele>398</ele>
    <time>2016-07-31T07:33:39Z</time>
    </trkpt>
    <trkpt lat="47.682762" lon="8.624749">
    <ele>398</ele>
    <time>2016-07-31T07:33:42Z</time>
    </trkpt>
    <trkpt lat="47.6818" lon="8.624889">
    <ele>400</ele>
    <time>2016-07-31T07:34:05Z</time>
    </trkpt>
    <trkpt lat="47.681474" lon="8.624686">
    <ele>401</ele>
    <time>2016-07-31T07:34:13Z</time>
    </trkpt>
    <trkpt lat="47.680888" lon="8.624179">
    <ele>403</ele>
    <time>2016-07-31T07:34:29Z</time>
    </trkpt>
    <trkpt lat="47.680426" lon="8.623681">
    <ele>404</ele>
    <time>2016-07-31T07:34:42Z</time>
    </trkpt>
    <trkpt lat="47.67952" lon="8.622321">
    <ele>406</ele>
    <time>2016-07-31T07:35:13Z</time>
    </trkpt>
    <trkpt lat="47.67915" lon="8.62178">
    <ele>407</ele>
    <time>2016-07-31T07:35:25Z</time>
    </trkpt>
    <trkpt lat="47.679044" lon="8.621296">
    <ele>408</ele>
    <time>2016-07-31T07:35:33Z</time>
    </trkpt>
    <trkpt lat="47.679494" lon="8.620873">
    <ele>409</ele>
    <time>2016-07-31T07:35:46Z</time>
    </trkpt>
    <trkpt lat="47.679624" lon="8.620594">
    <ele>409</ele>
    <time>2016-07-31T07:35:51Z</time>
    </trkpt>
    <trkpt lat="47.679631" lon="8.619747">
    <ele>410</ele>
    <time>2016-07-31T07:36:04Z</time>
    </trkpt>
    <trkpt lat="47.679584" lon="8.618824">
    <ele>410</ele>
    <time>2016-07-31T07:36:19Z</time>
    </trkpt>
    <trkpt lat="47.679617" lon="8.618449">
    <ele>409</ele>
    <time>2016-07-31T07:36:25Z</time>
    </trkpt>
    <trkpt lat="47.679628" lon="8.618465">
    <ele>409</ele>
    <time>2016-07-31T07:36:26Z</time>
    </trkpt>
    <trkpt lat="47.679442" lon="8.618471">
    <ele>409</ele>
    <time>2016-07-31T07:36:30Z</time>
    </trkpt>
    <trkpt lat="47.679275" lon="8.618399">
    <ele>408</ele>
    <time>2016-07-31T07:36:34Z</time>
    </trkpt>
    <trkpt lat="47.679338" lon="8.61816">
    <ele>406</ele>
    <time>2016-07-31T07:36:38Z</time>
    </trkpt>
    <trkpt lat="47.679411" lon="8.617964">
    <ele>404</ele>
    <time>2016-07-31T07:36:42Z</time>
    </trkpt>
    <trkpt lat="47.679358" lon="8.61766">
    <ele>401</ele>
    <time>2016-07-31T07:36:47Z</time>
    </trkpt>
    <trkpt lat="47.679129" lon="8.61697">
    <ele>394</ele>
    <time>2016-07-31T07:36:59Z</time>
    </trkpt>
    <trkpt lat="47.678843" lon="8.615996">
    <ele>384</ele>
    <time>2016-07-31T07:37:16Z</time>
    </trkpt>
    <trkpt lat="47.678843" lon="8.615996">
    <ele>384</ele>
    <time>2016-07-31T07:37:16Z</time>
    </trkpt>
    <trkpt lat="47.679129" lon="8.61697">
    <ele>394</ele>
    <time>2016-07-31T07:37:33Z</time>
    </trkpt>
    <trkpt lat="47.679358" lon="8.61766">
    <ele>401</ele>
    <time>2016-07-31T07:37:45Z</time>
    </trkpt>
    <trkpt lat="47.679411" lon="8.617964">
    <ele>404</ele>
    <time>2016-07-31T07:37:50Z</time>
    </trkpt>
    <trkpt lat="47.679338" lon="8.61816">
    <ele>406</ele>
    <time>2016-07-31T07:37:53Z</time>
    </trkpt>
    <trkpt lat="47.679275" lon="8.618399">
    <ele>408</ele>
    <time>2016-07-31T07:37:57Z</time>
    </trkpt>
    <trkpt lat="47.679442" lon="8.618471">
    <ele>409</ele>
    <time>2016-07-31T07:38:02Z</time>
    </trkpt>
    <trkpt lat="47.679628" lon="8.618465">
    <ele>409</ele>
    <time>2016-07-31T07:38:06Z</time>
    </trkpt>
    <trkpt lat="47.679617" lon="8.618449">
    <ele>409</ele>
    <time>2016-07-31T07:38:06Z</time>
    </trkpt>
    <trkpt lat="47.679584" lon="8.618824">
    <ele>410</ele>
    <time>2016-07-31T07:38:12Z</time>
    </trkpt>
    <trkpt lat="47.679631" lon="8.619747">
    <ele>410</ele>
    <time>2016-07-31T07:38:27Z</time>
    </trkpt>
    <trkpt lat="47.679624" lon="8.620594">
    <ele>409</ele>
    <time>2016-07-31T07:38:40Z</time>
    </trkpt>
    <trkpt lat="47.679494" lon="8.620873">
    <ele>409</ele>
    <time>2016-07-31T07:38:46Z</time>
    </trkpt>
    <trkpt lat="47.679044" lon="8.621296">
    <ele>408</ele>
    <time>2016-07-31T07:38:58Z</time>
    </trkpt>
    <trkpt lat="47.67915" lon="8.62178">
    <ele>407</ele>
    <time>2016-07-31T07:39:06Z</time>
    </trkpt>
    <trkpt lat="47.67952" lon="8.622321">
    <ele>406</ele>
    <time>2016-07-31T07:39:19Z</time>
    </trkpt>
    <trkpt lat="47.680426" lon="8.623681">
    <ele>404</ele>
    <time>2016-07-31T07:39:49Z</time>
    </trkpt>
    <trkpt lat="47.680888" lon="8.624179">
    <ele>403</ele>
    <time>2016-07-31T07:40:03Z</time>
    </trkpt>
    <trkpt lat="47.681474" lon="8.624686">
    <ele>401</ele>
    <time>2016-07-31T07:40:19Z</time>
    </trkpt>
    <trkpt lat="47.6818" lon="8.624889">
    <ele>400</ele>
    <time>2016-07-31T07:40:27Z</time>
    </trkpt>
    <trkpt lat="47.682762" lon="8.624749">
    <ele>398</ele>
    <time>2016-07-31T07:40:50Z</time>
    </trkpt>
    <trkpt lat="47.682872" lon="8.624759">
    <ele>398</ele>
    <time>2016-07-31T07:40:52Z</time>
    </trkpt>
    <trkpt lat="47.682872" lon="8.624759">
    <ele>398</ele>
    <time>2016-07-31T07:40:52Z</time>
    </trkpt>
    <trkpt lat="47.68291" lon="8.624958">
    <ele>397</ele>
    <time>2016-07-31T07:40:55Z</time>
    </trkpt>
    <trkpt lat="47.682721" lon="8.625109">
    <ele>396</ele>
    <time>2016-07-31T07:41:01Z</time>
    </trkpt>
    <trkpt lat="47.683112" lon="8.625046">
    <ele>395</ele>
    <time>2016-07-31T07:41:10Z</time>
    </trkpt>
    <trkpt lat="47.683032" lon="8.625274">
    <ele>394</ele>
    <time>2016-07-31T07:41:14Z</time>
    </trkpt>
    <trkpt lat="47.683032" lon="8.625274">
    <ele>394</ele>
    <time>2016-07-31T07:41:14Z</time>
    </trkpt>
    <trkpt lat="47.68282" lon="8.625499">
    <ele>392</ele>
    <time>2016-07-31T07:41:20Z</time>
    </trkpt>
    <trkpt lat="47.682387" lon="8.625741">
    <ele>390</ele>
    <time>2016-07-31T07:41:31Z</time>
    </trkpt>
    <trkpt lat="47.682205" lon="8.625892">
    <ele>390</ele>
    <time>2016-07-31T07:41:36Z</time>
    </trkpt>
    <trkpt lat="47.682779" lon="8.625648">
    <ele>390</ele>
    <time>2016-07-31T07:41:50Z</time>
    </trkpt>
    <trkpt lat="47.684219" lon="8.625095">
    <ele>391</ele>
    <time>2016-07-31T07:42:25Z</time>
    </trkpt>
    <trkpt lat="47.684488" lon="8.625042">
    <ele>391</ele>
    <time>2016-07-31T07:42:31Z</time>
    </trkpt>
    <trkpt lat="47.6847" lon="8.624907">
    <ele>391</ele>
    <time>2016-07-31T07:42:37Z</time>
    </trkpt>
    <trkpt lat="47.686164" lon="8.624338">
    <ele>391</ele>
    <time>2016-07-31T07:43:12Z</time>
    </trkpt>
    <trkpt lat="47.687242" lon="8.624138">
    <ele>392</ele>
    <time>2016-07-31T07:43:38Z</time>
    </trkpt>
    <trkpt lat="47.687187" lon="8.624164">
    <ele>392</ele>
    <time>2016-07-31T07:43:39Z</time>
    </trkpt>
    <trkpt lat="47.687201" lon="8.623886">
    <ele>392</ele>
    <time>2016-07-31T07:43:44Z</time>
    </trkpt>
    <trkpt lat="47.687978" lon="8.623431">
    <ele>392</ele>
    <time>2016-07-31T07:44:03Z</time>
    </trkpt>
    <trkpt lat="47.689243" lon="8.622949">
    <ele>392</ele>
    <time>2016-07-31T07:44:34Z</time>
    </trkpt>
    <trkpt lat="47.690542" lon="8.622662">
    <ele>390</ele>
    <time>2016-07-31T07:45:05Z</time>
    </trkpt>
    <trkpt lat="47.691126" lon="8.622609">
    <ele>390</ele>
    <time>2016-07-31T07:45:19Z</time>
    </trkpt>
    <trkpt lat="47.691402" lon="8.622819">
    <ele>389</ele>
    <time>2016-07-31T07:45:26Z</time>
    </trkpt>
    <trkpt lat="47.691074" lon="8.623441">
    <ele>389</ele>
    <time>2016-07-31T07:45:39Z</time>
    </trkpt>
    <trkpt lat="47.691023" lon="8.623407">
    <ele>389</ele>
    <time>2016-07-31T07:45:40Z</time>
    </trkpt>
    <trkpt lat="47.691946" lon="8.624146">
    <ele>389</ele>
    <time>2016-07-31T07:46:05Z</time>
    </trkpt>
    <trkpt lat="47.692321" lon="8.624953">
    <ele>388</ele>
    <time>2016-07-31T07:46:20Z</time>
    </trkpt>
    <trkpt lat="47.692311" lon="8.624953">
    <ele>388</ele>
    <time>2016-07-31T07:46:20Z</time>
    </trkpt>
    <trkpt lat="47.692546" lon="8.625568">
    <ele>388</ele>
    <time>2016-07-31T07:46:32Z</time>
    </trkpt>
    <trkpt lat="47.692887" lon="8.626301">
    <ele>388</ele>
    <time>2016-07-31T07:46:46Z</time>
    </trkpt>
    <trkpt lat="47.692994" lon="8.627024">
    <ele>389</ele>
    <time>2016-07-31T07:46:58Z</time>
    </trkpt>
    <trkpt lat="47.692966" lon="8.627056">
    <ele>389</ele>
    <time>2016-07-31T07:46:58Z</time>
    </trkpt>
    <trkpt lat="47.693064" lon="8.627901">
    <ele>390</ele>
    <time>2016-07-31T07:47:12Z</time>
    </trkpt>
    <trkpt lat="47.693208" lon="8.628424">
    <ele>390</ele>
    <time>2016-07-31T07:47:21Z</time>
    </trkpt>
    <trkpt lat="47.693489" lon="8.629022">
    <ele>391</ele>
    <time>2016-07-31T07:47:33Z</time>
    </trkpt>
    <trkpt lat="47.69367" lon="8.629901">
    <ele>391</ele>
    <time>2016-07-31T07:47:47Z</time>
    </trkpt>
    <trkpt lat="47.693701" lon="8.630513">
    <ele>392</ele>
    <time>2016-07-31T07:47:57Z</time>
    </trkpt>
    <trkpt lat="47.693595" lon="8.631741">
    <ele>392</ele>
    <time>2016-07-31T07:48:17Z</time>
    </trkpt>
    <trkpt lat="47.693571" lon="8.631633">
    <ele>392</ele>
    <time>2016-07-31T07:48:18Z</time>
    </trkpt>
    <trkpt lat="47.693472" lon="8.632651">
    <ele>392</ele>
    <time>2016-07-31T07:48:35Z</time>
    </trkpt>
    <trkpt lat="47.693434" lon="8.633598">
    <ele>393</ele>
    <time>2016-07-31T07:48:50Z</time>
    </trkpt>
    <trkpt lat="47.693512" lon="8.635485">
    <ele>393</ele>
    <time>2016-07-31T07:49:20Z</time>
    </trkpt>
    <trkpt lat="47.693795" lon="8.636504">
    <ele>393</ele>
    <time>2016-07-31T07:49:37Z</time>
    </trkpt>
    <trkpt lat="47.694152" lon="8.637384">
    <ele>393</ele>
    <time>2016-07-31T07:49:54Z</time>
    </trkpt>
    <trkpt lat="47.694487" lon="8.638152">
    <ele>393</ele>
    <time>2016-07-31T07:50:08Z</time>
    </trkpt>
    <trkpt lat="47.694947" lon="8.639331">
    <ele>392</ele>
    <time>2016-07-31T07:50:30Z</time>
    </trkpt>
    <trkpt lat="47.694921" lon="8.639329">
    <ele>392</ele>
    <time>2016-07-31T07:50:31Z</time>
    </trkpt>
    <trkpt lat="47.695249" lon="8.640294">
    <ele>392</ele>
    <time>2016-07-31T07:50:48Z</time>
    </trkpt>
    <trkpt lat="47.695151" lon="8.640264">
    <ele>392</ele>
    <time>2016-07-31T07:50:50Z</time>
    </trkpt>
    <trkpt lat="47.695335" lon="8.640744">
    <ele>392</ele>
    <time>2016-07-31T07:50:59Z</time>
    </trkpt>
    <trkpt lat="47.695335" lon="8.640744">
    <ele>392</ele>
    <time>2016-07-31T07:50:59Z</time>
    </trkpt>
    <trkpt lat="47.695368" lon="8.641048">
    <ele>392</ele>
    <time>2016-07-31T07:51:04Z</time>
    </trkpt>
    <trkpt lat="47.695388" lon="8.641368">
    <ele>392</ele>
    <time>2016-07-31T07:51:09Z</time>
    </trkpt>
    <trkpt lat="47.695432" lon="8.641974">
    <ele>392</ele>
    <time>2016-07-31T07:51:19Z</time>
    </trkpt>
    <trkpt lat="47.695205" lon="8.643463">
    <ele>392</ele>
    <time>2016-07-31T07:51:43Z</time>
    </trkpt>
    <trkpt lat="47.695213" lon="8.643399">
    <ele>392</ele>
    <time>2016-07-31T07:51:44Z</time>
    </trkpt>
    <trkpt lat="47.695139" lon="8.643864">
    <ele>393</ele>
    <time>2016-07-31T07:51:51Z</time>
    </trkpt>
    <trkpt lat="47.695133" lon="8.643889">
    <ele>393</ele>
    <time>2016-07-31T07:51:52Z</time>
    </trkpt>
    <trkpt lat="47.695061" lon="8.644328">
    <ele>393</ele>
    <time>2016-07-31T07:51:59Z</time>
    </trkpt>
    <trkpt lat="47.695061" lon="8.64445">
    <ele>393</ele>
    <time>2016-07-31T07:52:01Z</time>
    </trkpt>
    <trkpt lat="47.694997" lon="8.644697">
    <ele>393</ele>
    <time>2016-07-31T07:52:05Z</time>
    </trkpt>
    <trkpt lat="47.694943" lon="8.644916">
    <ele>393</ele>
    <time>2016-07-31T07:52:09Z</time>
    </trkpt>
    <trkpt lat="47.694934" lon="8.64508">
    <ele>393</ele>
    <time>2016-07-31T07:52:11Z</time>
    </trkpt>
    <trkpt lat="47.694885" lon="8.64536">
    <ele>394</ele>
    <time>2016-07-31T07:52:16Z</time>
    </trkpt>
    <trkpt lat="47.69455" lon="8.646509">
    <ele>395</ele>
    <time>2016-07-31T07:52:36Z</time>
    </trkpt>
    <trkpt lat="47.694286" lon="8.647101">
    <ele>396</ele>
    <time>2016-07-31T07:52:47Z</time>
    </trkpt>
    <trkpt lat="47.693778" lon="8.648463">
    <ele>397</ele>
    <time>2016-07-31T07:53:12Z</time>
    </trkpt>
    <trkpt lat="47.693628" lon="8.649021">
    <ele>397</ele>
    <time>2016-07-31T07:53:21Z</time>
    </trkpt>
    <trkpt lat="47.692988" lon="8.650627">
    <ele>399</ele>
    <time>2016-07-31T07:53:51Z</time>
    </trkpt>
    <trkpt lat="47.693046" lon="8.650496">
    <ele>399</ele>
    <time>2016-07-31T07:53:54Z</time>
    </trkpt>
    <trkpt lat="47.692437" lon="8.651801">
    <ele>399</ele>
    <time>2016-07-31T07:54:19Z</time>
    </trkpt>
    <trkpt lat="47.691661" lon="8.652807">
    <ele>399</ele>
    <time>2016-07-31T07:54:43Z</time>
    </trkpt>
    <trkpt lat="47.690931" lon="8.653613">
    <ele>398</ele>
    <time>2016-07-31T07:55:05Z</time>
    </trkpt>
    <trkpt lat="47.689858" lon="8.654924">
    <ele>398</ele>
    <time>2016-07-31T07:55:37Z</time>
    </trkpt>
    <trkpt lat="47.689083" lon="8.65628">
    <ele>398</ele>
    <time>2016-07-31T07:56:06Z</time>
    </trkpt>
    <trkpt lat="47.688474" lon="8.657914">
    <ele>397</ele>
    <time>2016-07-31T07:56:35Z</time>
    </trkpt>
    <trkpt lat="47.688127" lon="8.659028">
    <ele>397</ele>
    <time>2016-07-31T07:56:55Z</time>
    </trkpt>
    <trkpt lat="47.68737" lon="8.660801">
    <ele>396</ele>
    <time>2016-07-31T07:57:28Z</time>
    </trkpt>
    <trkpt lat="47.686935" lon="8.661702">
    <ele>396</ele>
    <time>2016-07-31T07:57:46Z</time>
    </trkpt>
    <trkpt lat="47.686535" lon="8.662761">
    <ele>396</ele>
    <time>2016-07-31T07:58:05Z</time>
    </trkpt>
    <trkpt lat="47.6864" lon="8.663566">
    <ele>395</ele>
    <time>2016-07-31T07:58:18Z</time>
    </trkpt>
    <trkpt lat="47.686426" lon="8.663612">
    <ele>395</ele>
    <time>2016-07-31T07:58:19Z</time>
    </trkpt>
    <trkpt lat="47.686283" lon="8.66593">
    <ele>395</ele>
    <time>2016-07-31T07:58:56Z</time>
    </trkpt>
    <trkpt lat="47.686284" lon="8.667636">
    <ele>394</ele>
    <time>2016-07-31T07:59:23Z</time>
    </trkpt>
    <trkpt lat="47.68645" lon="8.668875">
    <ele>394</ele>
    <time>2016-07-31T07:59:43Z</time>
    </trkpt>
    <trkpt lat="47.686306" lon="8.669161">
    <ele>394</ele>
    <time>2016-07-31T07:59:49Z</time>
    </trkpt>
    <trkpt lat="47.686933" lon="8.672889">
    <ele>394</ele>
    <time>2016-07-31T08:00:50Z</time>
    </trkpt>
    <trkpt lat="47.687721" lon="8.676024">
    <ele>395</ele>
    <time>2016-07-31T08:01:43Z</time>
    </trkpt>
    <trkpt lat="47.688381" lon="8.677641">
    <ele>395</ele>
    <time>2016-07-31T08:02:13Z</time>
    </trkpt>
    <trkpt lat="47.689944" lon="8.67986">
    <ele>395</ele>
    <time>2016-07-31T08:03:04Z</time>
    </trkpt>
    <trkpt lat="47.690989" lon="8.681616">
    <ele>396</ele>
    <time>2016-07-31T08:03:41Z</time>
    </trkpt>
    <trkpt lat="47.691082" lon="8.681763">
    <ele>396</ele>
    <time>2016-07-31T08:03:45Z</time>
    </trkpt>
    <trkpt lat="47.691799" lon="8.683169">
    <ele>397</ele>
    <time>2016-07-31T08:04:13Z</time>
    </trkpt>
    <trkpt lat="47.692515" lon="8.684289">
    <ele>397</ele>
    <time>2016-07-31T08:04:37Z</time>
    </trkpt>
    <trkpt lat="47.693268" lon="8.685238">
    <ele>397</ele>
    <time>2016-07-31T08:05:00Z</time>
    </trkpt>
    <trkpt lat="47.694891" lon="8.6866">
    <ele>396</ele>
    <time>2016-07-31T08:05:44Z</time>
    </trkpt>
    <trkpt lat="47.695603" lon="8.686966">
    <ele>396</ele>
    <time>2016-07-31T08:06:02Z</time>
    </trkpt>
    <trkpt lat="47.695603" lon="8.686966">
    <ele>396</ele>
    <time>2016-07-31T08:06:02Z</time>
    </trkpt>
    <trkpt lat="47.695839" lon="8.687092">
    <ele>396</ele>
    <time>2016-07-31T08:06:08Z</time>
    </trkpt>
    <trkpt lat="47.696336" lon="8.688016">
    <ele>396</ele>
    <time>2016-07-31T08:06:27Z</time>
    </trkpt>
    <trkpt lat="47.696701" lon="8.689155">
    <ele>396</ele>
    <time>2016-07-31T08:06:47Z</time>
    </trkpt>
    <trkpt lat="47.696917" lon="8.690154">
    <ele>397</ele>
    <time>2016-07-31T08:07:03Z</time>
    </trkpt>
    <trkpt lat="47.697103" lon="8.690632">
    <ele>397</ele>
    <time>2016-07-31T08:07:12Z</time>
    </trkpt>
    <trkpt lat="47.697163" lon="8.691578">
    <ele>397</ele>
    <time>2016-07-31T08:07:27Z</time>
    </trkpt>
    <trkpt lat="47.697108" lon="8.692496">
    <ele>397</ele>
    <time>2016-07-31T08:07:42Z</time>
    </trkpt>
    <trkpt lat="47.696754" lon="8.694629">
    <ele>396</ele>
    <time>2016-07-31T08:08:17Z</time>
    </trkpt>
    <trkpt lat="47.696269" lon="8.697095">
    <ele>395</ele>
    <time>2016-07-31T08:08:58Z</time>
    </trkpt>
    <trkpt lat="47.696314" lon="8.698893">
    <ele>394</ele>
    <time>2016-07-31T08:09:26Z</time>
    </trkpt>
    <trkpt lat="47.696214" lon="8.69908">
    <ele>394</ele>
    <time>2016-07-31T08:09:30Z</time>
    </trkpt>
    <trkpt lat="47.696047" lon="8.699248">
    <ele>394</ele>
    <time>2016-07-31T08:09:35Z</time>
    </trkpt>
    <trkpt lat="47.695562" lon="8.700556">
    <ele>394</ele>
    <time>2016-07-31T08:09:59Z</time>
    </trkpt>
    <trkpt lat="47.695427" lon="8.701522">
    <ele>395</ele>
    <time>2016-07-31T08:10:14Z</time>
    </trkpt>
    <trkpt lat="47.695144" lon="8.702191">
    <ele>395</ele>
    <time>2016-07-31T08:10:27Z</time>
    </trkpt>
    <trkpt lat="47.69461" lon="8.703637">
    <ele>395</ele>
    <time>2016-07-31T08:10:53Z</time>
    </trkpt>
    <trkpt lat="47.694283" lon="8.704806">
    <ele>396</ele>
    <time>2016-07-31T08:11:13Z</time>
    </trkpt>
    <trkpt lat="47.693791" lon="8.707338">
    <ele>398</ele>
    <time>2016-07-31T08:11:55Z</time>
    </trkpt>
    <trkpt lat="47.693835" lon="8.707294">
    <ele>398</ele>
    <time>2016-07-31T08:11:56Z</time>
    </trkpt>
    <trkpt lat="47.692764" lon="8.710338">
    <ele>400</ele>
    <time>2016-07-31T08:12:51Z</time>
    </trkpt>
    <trkpt lat="47.691946" lon="8.712319">
    <ele>402</ele>
    <time>2016-07-31T08:13:28Z</time>
    </trkpt>
    <trkpt lat="47.691594" lon="8.713706">
    <ele>402</ele>
    <time>2016-07-31T08:13:51Z</time>
    </trkpt>
    <trkpt lat="47.691472" lon="8.714781">
    <ele>401</ele>
    <time>2016-07-31T08:14:09Z</time>
    </trkpt>
    <trkpt lat="47.691877" lon="8.717082">
    <ele>400</ele>
    <time>2016-07-31T08:14:46Z</time>
    </trkpt>
    <trkpt lat="47.691877" lon="8.717082">
    <ele>400</ele>
    <time>2016-07-31T08:14:46Z</time>
    </trkpt>
    <trkpt lat="47.692005" lon="8.718023">
    <ele>400</ele>
    <time>2016-07-31T08:15:02Z</time>
    </trkpt>
    <trkpt lat="47.692328" lon="8.719206">
    <ele>399</ele>
    <time>2016-07-31T08:15:22Z</time>
    </trkpt>
    <trkpt lat="47.692606" lon="8.720119">
    <ele>400</ele>
    <time>2016-07-31T08:15:38Z</time>
    </trkpt>
    <trkpt lat="47.692573" lon="8.719984">
    <ele>400</ele>
    <time>2016-07-31T08:15:40Z</time>
    </trkpt>
    <trkpt lat="47.692648" lon="8.720313">
    <ele>400</ele>
    <time>2016-07-31T08:15:46Z</time>
    </trkpt>
    <trkpt lat="47.692885" lon="8.720651">
    <ele>400</ele>
    <time>2016-07-31T08:15:53Z</time>
    </trkpt>
    <trkpt lat="47.692994" lon="8.721204">
    <ele>400</ele>
    <time>2016-07-31T08:16:03Z</time>
    </trkpt>
    <trkpt lat="47.693293" lon="8.72289">
    <ele>401</ele>
    <time>2016-07-31T08:16:30Z</time>
    </trkpt>
    <trkpt lat="47.693393" lon="8.724018">
    <ele>401</ele>
    <time>2016-07-31T08:16:48Z</time>
    </trkpt>
    <trkpt lat="47.693752" lon="8.729223">
    <ele>403</ele>
    <time>2016-07-31T08:18:11Z</time>
    </trkpt>
    <trkpt lat="47.693708" lon="8.733371">
    <ele>405</ele>
    <time>2016-07-31T08:19:17Z</time>
    </trkpt>
    <trkpt lat="47.693294" lon="8.736259">
    <ele>405</ele>
    <time>2016-07-31T08:20:04Z</time>
    </trkpt>
    <trkpt lat="47.693105" lon="8.73737">
    <ele>405</ele>
    <time>2016-07-31T08:20:23Z</time>
    </trkpt>
    <trkpt lat="47.692983" lon="8.738867">
    <ele>405</ele>
    <time>2016-07-31T08:20:46Z</time>
    </trkpt>
    <trkpt lat="47.692332" lon="8.742471">
    <ele>406</ele>
    <time>2016-07-31T08:21:46Z</time>
    </trkpt>
    <trkpt lat="47.692282" lon="8.743467">
    <ele>406</ele>
    <time>2016-07-31T08:22:02Z</time>
    </trkpt>
    <trkpt lat="47.692247" lon="8.743532">
    <ele>406</ele>
    <time>2016-07-31T08:22:03Z</time>
    </trkpt>
    <trkpt lat="47.691819" lon="8.745248">
    <ele>404</ele>
    <time>2016-07-31T08:22:32Z</time>
    </trkpt>
    <trkpt lat="47.691512" lon="8.747495">
    <ele>402</ele>
    <time>2016-07-31T08:23:08Z</time>
    </trkpt>
    <trkpt lat="47.691384" lon="8.749584">
    <ele>401</ele>
    <time>2016-07-31T08:23:42Z</time>
    </trkpt>
    <trkpt lat="47.691327" lon="8.750302">
    <ele>400</ele>
    <time>2016-07-31T08:23:53Z</time>
    </trkpt>
    <trkpt lat="47.691378" lon="8.751049">
    <ele>399</ele>
    <time>2016-07-31T08:24:05Z</time>
    </trkpt>
    <trkpt lat="47.691363" lon="8.751135">
    <ele>399</ele>
    <time>2016-07-31T08:24:07Z</time>
    </trkpt>
    <trkpt lat="47.691198" lon="8.751783">
    <ele>399</ele>
    <time>2016-07-31T08:24:18Z</time>
    </trkpt>
    <trkpt lat="47.690729" lon="8.754237">
    <ele>397</ele>
    <time>2016-07-31T08:24:58Z</time>
    </trkpt>
    <trkpt lat="47.690487" lon="8.755811">
    <ele>395</ele>
    <time>2016-07-31T08:25:24Z</time>
    </trkpt>
    <trkpt lat="47.69059" lon="8.756028">
    <ele>395</ele>
    <time>2016-07-31T08:25:28Z</time>
    </trkpt>
    <trkpt lat="47.690416" lon="8.75716">
    <ele>396</ele>
    <time>2016-07-31T08:25:47Z</time>
    </trkpt>
    <trkpt lat="47.690258" lon="8.758553">
    <ele>396</ele>
    <time>2016-07-31T08:26:09Z</time>
    </trkpt>
    <trkpt lat="47.689568" lon="8.760926">
    <ele>398</ele>
    <time>2016-07-31T08:26:50Z</time>
    </trkpt>
    <trkpt lat="47.689243" lon="8.761507">
    <ele>398</ele>
    <time>2016-07-31T08:27:02Z</time>
    </trkpt>
    <trkpt lat="47.688224" lon="8.764666">
    <ele>401</ele>
    <time>2016-07-31T08:27:58Z</time>
    </trkpt>
    <trkpt lat="47.686625" lon="8.769385">
    <ele>407</ele>
    <time>2016-07-31T08:29:22Z</time>
    </trkpt>
    <trkpt lat="47.686133" lon="8.770356">
    <ele>409</ele>
    <time>2016-07-31T08:29:41Z</time>
    </trkpt>
    <trkpt lat="47.685675" lon="8.771663">
    <ele>411</ele>
    <time>2016-07-31T08:30:04Z</time>
    </trkpt>
    <trkpt lat="47.685056" lon="8.774772">
    <ele>415</ele>
    <time>2016-07-31T08:30:56Z</time>
    </trkpt>
    <trkpt lat="47.68539" lon="8.775895">
    <ele>417</ele>
    <time>2016-07-31T08:31:15Z</time>
    </trkpt>
    <trkpt lat="47.685388" lon="8.776502">
    <ele>418</ele>
    <time>2016-07-31T08:31:25Z</time>
    </trkpt>
    <trkpt lat="47.685011" lon="8.782295">
    <ele>434</ele>
    <time>2016-07-31T08:32:58Z</time>
    </trkpt>
    <trkpt lat="47.684942" lon="8.783952">
    <ele>438</ele>
    <time>2016-07-31T08:33:24Z</time>
    </trkpt>
    <trkpt lat="47.684972" lon="8.783974">
    <ele>438</ele>
    <time>2016-07-31T08:33:25Z</time>
    </trkpt>
    <trkpt lat="47.684589" lon="8.785697">
    <ele>442</ele>
    <time>2016-07-31T08:33:54Z</time>
    </trkpt>
    <trkpt lat="47.683939" lon="8.788313">
    <ele>446</ele>
    <time>2016-07-31T08:34:38Z</time>
    </trkpt>
    <trkpt lat="47.683224" lon="8.791437">
    <ele>450</ele>
    <time>2016-07-31T08:35:30Z</time>
    </trkpt>
    <trkpt lat="47.68318" lon="8.791481">
    <ele>450</ele>
    <time>2016-07-31T08:35:32Z</time>
    </trkpt>
    <trkpt lat="47.680429" lon="8.79342">
    <ele>457</ele>
    <time>2016-07-31T08:36:43Z</time>
    </trkpt>
    <trkpt lat="47.680107" lon="8.793688">
    <ele>457</ele>
    <time>2016-07-31T08:36:52Z</time>
    </trkpt>
    <trkpt lat="47.679896" lon="8.794015">
    <ele>455</ele>
    <time>2016-07-31T08:36:59Z</time>
    </trkpt>
    <trkpt lat="47.679822" lon="8.794866">
    <ele>453</ele>
    <time>2016-07-31T08:37:13Z</time>
    </trkpt>
    <trkpt lat="47.679842" lon="8.795584">
    <ele>451</ele>
    <time>2016-07-31T08:37:24Z</time>
    </trkpt>
    <trkpt lat="47.679827" lon="8.796062">
    <ele>450</ele>
    <time>2016-07-31T08:37:32Z</time>
    </trkpt>
    <trkpt lat="47.679805" lon="8.796698">
    <ele>448</ele>
    <time>2016-07-31T08:37:42Z</time>
    </trkpt>
    <trkpt lat="47.679049" lon="8.797265">
    <ele>442</ele>
    <time>2016-07-31T08:38:02Z</time>
    </trkpt>
    <trkpt lat="47.679043" lon="8.797569">
    <ele>441</ele>
    <time>2016-07-31T08:38:07Z</time>
    </trkpt>
    <trkpt lat="47.679115" lon="8.797967">
    <ele>439</ele>
    <time>2016-07-31T08:38:13Z</time>
    </trkpt>
    <trkpt lat="47.680129" lon="8.798387">
    <ele>432</ele>
    <time>2016-07-31T08:38:38Z</time>
    </trkpt>
    <trkpt lat="47.680276" lon="8.798907">
    <ele>429</ele>
    <time>2016-07-31T08:38:47Z</time>
    </trkpt>
    <trkpt lat="47.680531" lon="8.799729">
    <ele>425</ele>
    <time>2016-07-31T08:39:01Z</time>
    </trkpt>
    <trkpt lat="47.68085" lon="8.800509">
    <ele>420</ele>
    <time>2016-07-31T08:39:16Z</time>
    </trkpt>
    <trkpt lat="47.681246" lon="8.801523">
    <ele>415</ele>
    <time>2016-07-31T08:39:35Z</time>
    </trkpt>
    <trkpt lat="47.681285" lon="8.802445">
    <ele>410</ele>
    <time>2016-07-31T08:39:49Z</time>
    </trkpt>
    <trkpt lat="47.681226" lon="8.803163">
    <ele>407</ele>
    <time>2016-07-31T08:40:01Z</time>
    </trkpt>
    <trkpt lat="47.681343" lon="8.803891">
    <ele>405</ele>
    <time>2016-07-31T08:40:13Z</time>
    </trkpt>
    <trkpt lat="47.681433" lon="8.804379">
    <ele>404</ele>
    <time>2016-07-31T08:40:21Z</time>
    </trkpt>
    <trkpt lat="47.681389" lon="8.804494">
    <ele>403</ele>
    <time>2016-07-31T08:40:23Z</time>
    </trkpt>
    <trkpt lat="47.681145" lon="8.80549">
    <ele>400</ele>
    <time>2016-07-31T08:40:40Z</time>
    </trkpt>
    <trkpt lat="47.680937" lon="8.806253">
    <ele>399</ele>
    <time>2016-07-31T08:40:53Z</time>
    </trkpt>
    <trkpt lat="47.681306" lon="8.807343">
    <ele>398</ele>
    <time>2016-07-31T08:41:12Z</time>
    </trkpt>
    <trkpt lat="47.681401" lon="8.807797">
    <ele>398</ele>
    <time>2016-07-31T08:41:20Z</time>
    </trkpt>
    <trkpt lat="47.681536" lon="8.808239">
    <ele>397</ele>
    <time>2016-07-31T08:41:27Z</time>
    </trkpt>
    <trkpt lat="47.681529" lon="8.809451">
    <ele>397</ele>
    <time>2016-07-31T08:41:47Z</time>
    </trkpt>
    <trkpt lat="47.681435" lon="8.810481">
    <ele>397</ele>
    <time>2016-07-31T08:42:03Z</time>
    </trkpt>
    <trkpt lat="47.681389" lon="8.811588">
    <ele>398</ele>
    <time>2016-07-31T08:42:21Z</time>
    </trkpt>
    <trkpt lat="47.681142" lon="8.813713">
    <ele>399</ele>
    <time>2016-07-31T08:42:55Z</time>
    </trkpt>
    <trkpt lat="47.680905" lon="8.814941">
    <ele>400</ele>
    <time>2016-07-31T08:43:15Z</time>
    </trkpt>
    <trkpt lat="47.680828" lon="8.815672">
    <ele>401</ele>
    <time>2016-07-31T08:43:27Z</time>
    </trkpt>
    <trkpt lat="47.680773" lon="8.816889">
    <ele>402</ele>
    <time>2016-07-31T08:43:47Z</time>
    </trkpt>
    <trkpt lat="47.680468" lon="8.817852">
    <ele>402</ele>
    <time>2016-07-31T08:44:03Z</time>
    </trkpt>
    <trkpt lat="47.680024" lon="8.819025">
    <ele>402</ele>
    <time>2016-07-31T08:44:25Z</time>
    </trkpt>
    <trkpt lat="47.679854" lon="8.820599">
    <ele>403</ele>
    <time>2016-07-31T08:44:50Z</time>
    </trkpt>
    <trkpt lat="47.679656" lon="8.821375">
    <ele>403</ele>
    <time>2016-07-31T08:45:03Z</time>
    </trkpt>
    <trkpt lat="47.679065" lon="8.823181">
    <ele>403</ele>
    <time>2016-07-31T08:45:35Z</time>
    </trkpt>
    <trkpt lat="47.678493" lon="8.824591">
    <ele>404</ele>
    <time>2016-07-31T08:46:01Z</time>
    </trkpt>
    <trkpt lat="47.677869" lon="8.825889">
    <ele>404</ele>
    <time>2016-07-31T08:46:27Z</time>
    </trkpt>
    <trkpt lat="47.677401" lon="8.827255">
    <ele>404</ele>
    <time>2016-07-31T08:46:51Z</time>
    </trkpt>
    <trkpt lat="47.677268" lon="8.828043">
    <ele>405</ele>
    <time>2016-07-31T08:47:04Z</time>
    </trkpt>
    <trkpt lat="47.676789" lon="8.82889">
    <ele>405</ele>
    <time>2016-07-31T08:47:22Z</time>
    </trkpt>
    <trkpt lat="47.676377" lon="8.83049">
    <ele>408</ele>
    <time>2016-07-31T08:47:49Z</time>
    </trkpt>
    <trkpt lat="47.67634" lon="8.831508">
    <ele>409</ele>
    <time>2016-07-31T08:48:05Z</time>
    </trkpt>
    <trkpt lat="47.676785" lon="8.831812">
    <ele>410</ele>
    <time>2016-07-31T08:48:17Z</time>
    </trkpt>
    <trkpt lat="47.676811" lon="8.831956">
    <ele>410</ele>
    <time>2016-07-31T08:48:19Z</time>
    </trkpt>
    <trkpt lat="47.676249" lon="8.832515">
    <ele>411</ele>
    <time>2016-07-31T08:48:35Z</time>
    </trkpt>
    <trkpt lat="47.675479" lon="8.833499">
    <ele>412</ele>
    <time>2016-07-31T08:48:59Z</time>
    </trkpt>
    <trkpt lat="47.674747" lon="8.83463">
    <ele>412</ele>
    <time>2016-07-31T08:49:24Z</time>
    </trkpt>
    <trkpt lat="47.674684" lon="8.834711">
    <ele>413</ele>
    <time>2016-07-31T08:49:26Z</time>
    </trkpt>
    <trkpt lat="47.673725" lon="8.836224">
    <ele>414</ele>
    <time>2016-07-31T08:49:59Z</time>
    </trkpt>
    <trkpt lat="47.673663" lon="8.836309">
    <ele>414</ele>
    <time>2016-07-31T08:50:01Z</time>
    </trkpt>
    <trkpt lat="47.672536" lon="8.838345">
    <ele>414</ele>
    <time>2016-07-31T08:50:42Z</time>
    </trkpt>
    <trkpt lat="47.671676" lon="8.839931">
    <ele>414</ele>
    <time>2016-07-31T08:51:15Z</time>
    </trkpt>
    <trkpt lat="47.671002" lon="8.841175">
    <ele>414</ele>
    <time>2016-07-31T08:51:40Z</time>
    </trkpt>
    <trkpt lat="47.671002" lon="8.841175">
    <ele>414</ele>
    <time>2016-07-31T08:51:40Z</time>
    </trkpt>
    <trkpt lat="47.670339" lon="8.842049">
    <ele>414</ele>
    <time>2016-07-31T08:52:01Z</time>
    </trkpt>
    <trkpt lat="47.669516" lon="8.842898">
    <ele>412</ele>
    <time>2016-07-31T08:52:25Z</time>
    </trkpt>
    <trkpt lat="47.668507" lon="8.843857">
    <ele>411</ele>
    <time>2016-07-31T08:52:53Z</time>
    </trkpt>
    <trkpt lat="47.667819" lon="8.844638">
    <ele>409</ele>
    <time>2016-07-31T08:53:13Z</time>
    </trkpt>
    <trkpt lat="47.667031" lon="8.845855">
    <ele>408</ele>
    <time>2016-07-31T08:53:40Z</time>
    </trkpt>
    <trkpt lat="47.666812" lon="8.846116">
    <ele>407</ele>
    <time>2016-07-31T08:53:47Z</time>
    </trkpt>
    <trkpt lat="47.666455" lon="8.846797">
    <ele>407</ele>
    <time>2016-07-31T08:54:00Z</time>
    </trkpt>
    <trkpt lat="47.666066" lon="8.847222">
    <ele>407</ele>
    <time>2016-07-31T08:54:12Z</time>
    </trkpt>
    <trkpt lat="47.665687" lon="8.847641">
    <ele>406</ele>
    <time>2016-07-31T08:54:23Z</time>
    </trkpt>
    <trkpt lat="47.665403" lon="8.847998">
    <ele>406</ele>
    <time>2016-07-31T08:54:32Z</time>
    </trkpt>
    <trkpt lat="47.66544" lon="8.847933">
    <ele>406</ele>
    <time>2016-07-31T08:54:33Z</time>
    </trkpt>
    <trkpt lat="47.664618" lon="8.849086">
    <ele>404</ele>
    <time>2016-07-31T08:55:00Z</time>
    </trkpt>
    <trkpt lat="47.664337" lon="8.849769">
    <ele>403</ele>
    <time>2016-07-31T08:55:12Z</time>
    </trkpt>
    <trkpt lat="47.664058" lon="8.850631">
    <ele>402</ele>
    <time>2016-07-31T08:55:28Z</time>
    </trkpt>
    <trkpt lat="47.663839" lon="8.851158">
    <ele>402</ele>
    <time>2016-07-31T08:55:38Z</time>
    </trkpt>
    <trkpt lat="47.663882" lon="8.851062">
    <ele>402</ele>
    <time>2016-07-31T08:55:39Z</time>
    </trkpt>
    <trkpt lat="47.663374" lon="8.852023">
    <ele>402</ele>
    <time>2016-07-31T08:55:59Z</time>
    </trkpt>
    <trkpt lat="47.662828" lon="8.853695">
    <ele>402</ele>
    <time>2016-07-31T08:56:28Z</time>
    </trkpt>
    <trkpt lat="47.662327" lon="8.855326">
    <ele>402</ele>
    <time>2016-07-31T08:56:57Z</time>
    </trkpt>
    <trkpt lat="47.662327" lon="8.855326">
    <ele>402</ele>
    <time>2016-07-31T08:56:57Z</time>
    </trkpt>
    <trkpt lat="47.661931" lon="8.856507">
    <ele>402</ele>
    <time>2016-07-31T08:57:18Z</time>
    </trkpt>
    <trkpt lat="47.661931" lon="8.856507">
    <ele>402</ele>
    <time>2016-07-31T08:57:18Z</time>
    </trkpt>
    <trkpt lat="47.661679" lon="8.857043">
    <ele>402</ele>
    <time>2016-07-31T08:57:28Z</time>
    </trkpt>
    <trkpt lat="47.66132" lon="8.857318">
    <ele>402</ele>
    <time>2016-07-31T08:57:38Z</time>
    </trkpt>
    <trkpt lat="47.660893" lon="8.857632">
    <ele>403</ele>
    <time>2016-07-31T08:57:49Z</time>
    </trkpt>
    <trkpt lat="47.660656" lon="8.858018">
    <ele>403</ele>
    <time>2016-07-31T08:57:57Z</time>
    </trkpt>
    <trkpt lat="47.660271" lon="8.858573">
    <ele>404</ele>
    <time>2016-07-31T08:58:10Z</time>
    </trkpt>
    <trkpt lat="47.659996" lon="8.858917">
    <ele>404</ele>
    <time>2016-07-31T08:58:18Z</time>
    </trkpt>
    <trkpt lat="47.659488" lon="8.859325">
    <ele>405</ele>
    <time>2016-07-31T08:58:32Z</time>
    </trkpt>
    <trkpt lat="47.659488" lon="8.859325">
    <ele>405</ele>
    <time>2016-07-31T08:58:32Z</time>
    </trkpt>
    <trkpt lat="47.659336" lon="8.859673">
    <ele>405</ele>
    <time>2016-07-31T08:58:38Z</time>
    </trkpt>
    <trkpt lat="47.659295" lon="8.860226">
    <ele>405</ele>
    <time>2016-07-31T08:58:47Z</time>
    </trkpt>
    <trkpt lat="47.659381" lon="8.861285">
    <ele>405</ele>
    <time>2016-07-31T08:59:04Z</time>
    </trkpt>
    <trkpt lat="47.659376" lon="8.861231">
    <ele>405</ele>
    <time>2016-07-31T08:59:05Z</time>
    </trkpt>
    <trkpt lat="47.659446" lon="8.861305">
    <ele>405</ele>
    <time>2016-07-31T08:59:07Z</time>
    </trkpt>
    <trkpt lat="47.65911" lon="8.861141">
    <ele>405</ele>
    <time>2016-07-31T08:59:16Z</time>
    </trkpt>
    <trkpt lat="47.658967" lon="8.860989">
    <ele>405</ele>
    <time>2016-07-31T08:59:20Z</time>
    </trkpt>
    <trkpt lat="47.658934" lon="8.860702">
    <ele>405</ele>
    <time>2016-07-31T08:59:24Z</time>
    </trkpt>
    <trkpt lat="47.659156" lon="8.859457">
    <ele>405</ele>
    <time>2016-07-31T08:59:45Z</time>
    </trkpt>
    <trkpt lat="47.659118" lon="8.859507">
    <ele>405</ele>
    <time>2016-07-31T08:59:46Z</time>
    </trkpt>
    <trkpt lat="47.658412" lon="8.859075">
    <ele>405</ele>
    <time>2016-07-31T09:00:04Z</time>
    </trkpt>
    <trkpt lat="47.657411" lon="8.858333">
    <ele>409</ele>
    <time>2016-07-31T09:00:30Z</time>
    </trkpt>
    <trkpt lat="47.657044" lon="8.857944">
    <ele>410</ele>
    <time>2016-07-31T09:00:41Z</time>
    </trkpt>
    <trkpt lat="47.656708" lon="8.857657">
    <ele>411</ele>
    <time>2016-07-31T09:00:50Z</time>
    </trkpt>
    <trkpt lat="47.656708" lon="8.857657">
    <ele>411</ele>
    <time>2016-07-31T09:00:50Z</time>
    </trkpt>
    <trkpt lat="47.656374" lon="8.857683">
    <ele>412</ele>
    <time>2016-07-31T09:00:58Z</time>
    </trkpt>
    <trkpt lat="47.656229" lon="8.857749">
    <ele>412</ele>
    <time>2016-07-31T09:01:02Z</time>
    </trkpt>
    <trkpt lat="47.656136" lon="8.857915">
    <ele>413</ele>
    <time>2016-07-31T09:01:05Z</time>
    </trkpt>
    <trkpt lat="47.656124" lon="8.858233">
    <ele>414</ele>
    <time>2016-07-31T09:01:10Z</time>
    </trkpt>
    <trkpt lat="47.655955" lon="8.858445">
    <ele>414</ele>
    <time>2016-07-31T09:01:15Z</time>
    </trkpt>
    <trkpt lat="47.655772" lon="8.858272">
    <ele>415</ele>
    <time>2016-07-31T09:01:20Z</time>
    </trkpt>
    <trkpt lat="47.655693" lon="8.857921">
    <ele>415</ele>
    <time>2016-07-31T09:01:26Z</time>
    </trkpt>
    <trkpt lat="47.655684" lon="8.857855">
    <ele>415</ele>
    <time>2016-07-31T09:01:27Z</time>
    </trkpt>
    <trkpt lat="47.655204" lon="8.857396">
    <ele>414</ele>
    <time>2016-07-31T09:01:41Z</time>
    </trkpt>
    <trkpt lat="47.655068" lon="8.857321">
    <ele>414</ele>
    <time>2016-07-31T09:01:44Z</time>
    </trkpt>
    <trkpt lat="47.655068" lon="8.857321">
    <ele>414</ele>
    <time>2016-07-31T09:01:44Z</time>
    </trkpt>
    <trkpt lat="47.654868" lon="8.857217">
    <ele>414</ele>
    <time>2016-07-31T09:01:49Z</time>
    </trkpt>
    <trkpt lat="47.654575" lon="8.856896">
    <ele>413</ele>
    <time>2016-07-31T09:01:58Z</time>
    </trkpt>
    <trkpt lat="47.654499" lon="8.856992">
    <ele>413</ele>
    <time>2016-07-31T09:02:00Z</time>
    </trkpt>
    <trkpt lat="47.653719" lon="8.858027">
    <ele>411</ele>
    <time>2016-07-31T09:02:25Z</time>
    </trkpt>
    <trkpt lat="47.652714" lon="8.858976">
    <ele>409</ele>
    <time>2016-07-31T09:02:53Z</time>
    </trkpt>
    <trkpt lat="47.652131" lon="8.859593">
    <ele>409</ele>
    <time>2016-07-31T09:03:10Z</time>
    </trkpt>
    <trkpt lat="47.651583" lon="8.860341">
    <ele>409</ele>
    <time>2016-07-31T09:03:27Z</time>
    </trkpt>
    <trkpt lat="47.651583" lon="8.860341">
    <ele>409</ele>
    <time>2016-07-31T09:03:27Z</time>
    </trkpt>
    <trkpt lat="47.651396" lon="8.860643">
    <ele>408</ele>
    <time>2016-07-31T09:03:34Z</time>
    </trkpt>
    <trkpt lat="47.651036" lon="8.861983">
    <ele>409</ele>
    <time>2016-07-31T09:03:57Z</time>
    </trkpt>
    <trkpt lat="47.650761" lon="8.863055">
    <ele>409</ele>
    <time>2016-07-31T09:04:15Z</time>
    </trkpt>
    <trkpt lat="47.65069" lon="8.863434">
    <ele>410</ele>
    <time>2016-07-31T09:04:21Z</time>
    </trkpt>
    <trkpt lat="47.65069" lon="8.863434">
    <ele>410</ele>
    <time>2016-07-31T09:04:21Z</time>
    </trkpt>
    <trkpt lat="47.65093" lon="8.863784">
    <ele>410</ele>
    <time>2016-07-31T09:04:29Z</time>
    </trkpt>
    <trkpt lat="47.650749" lon="8.864198">
    <ele>410</ele>
    <time>2016-07-31T09:04:37Z</time>
    </trkpt>
    <trkpt lat="47.650539" lon="8.864669">
    <ele>411</ele>
    <time>2016-07-31T09:04:46Z</time>
    </trkpt>
    <trkpt lat="47.64995" lon="8.865524">
    <ele>411</ele>
    <time>2016-07-31T09:05:05Z</time>
    </trkpt>
    <trkpt lat="47.648747" lon="8.867209">
    <ele>413</ele>
    <time>2016-07-31T09:05:44Z</time>
    </trkpt>
    <trkpt lat="47.647564" lon="8.868943">
    <ele>414</ele>
    <time>2016-07-31T09:06:23Z</time>
    </trkpt>
    <trkpt lat="47.647438" lon="8.869126">
    <ele>414</ele>
    <time>2016-07-31T09:06:28Z</time>
    </trkpt>
    <trkpt lat="47.647443" lon="8.869154">
    <ele>414</ele>
    <time>2016-07-31T09:06:28Z</time>
    </trkpt>
    <trkpt lat="47.646865" lon="8.870107">
    <ele>415</ele>
    <time>2016-07-31T09:06:48Z</time>
    </trkpt>
    <trkpt lat="47.646703" lon="8.870246">
    <ele>415</ele>
    <time>2016-07-31T09:06:53Z</time>
    </trkpt>
    <trkpt lat="47.646709" lon="8.870423">
    <ele>415</ele>
    <time>2016-07-31T09:06:56Z</time>
    </trkpt>
    <trkpt lat="47.646611" lon="8.870746">
    <ele>415</ele>
    <time>2016-07-31T09:07:01Z</time>
    </trkpt>
    <trkpt lat="47.646386" lon="8.871388">
    <ele>415</ele>
    <time>2016-07-31T09:07:13Z</time>
    </trkpt>
    <trkpt lat="47.646139" lon="8.872573">
    <ele>415</ele>
    <time>2016-07-31T09:07:33Z</time>
    </trkpt>
    <trkpt lat="47.645733" lon="8.872519">
    <ele>415</ele>
    <time>2016-07-31T09:07:42Z</time>
    </trkpt>
    <trkpt lat="47.645715" lon="8.872469">
    <ele>415</ele>
    <time>2016-07-31T09:07:43Z</time>
    </trkpt>
    <trkpt lat="47.645608" lon="8.873034">
    <ele>415</ele>
    <time>2016-07-31T09:07:52Z</time>
    </trkpt>
    <trkpt lat="47.64556" lon="8.873679">
    <ele>416</ele>
    <time>2016-07-31T09:08:03Z</time>
    </trkpt>
    <trkpt lat="47.64553" lon="8.874948">
    <ele>416</ele>
    <time>2016-07-31T09:08:23Z</time>
    </trkpt>
    <trkpt lat="47.645801" lon="8.874885">
    <ele>416</ele>
    <time>2016-07-31T09:08:29Z</time>
    </trkpt>
    <trkpt lat="47.645271" lon="8.876547">
    <ele>417</ele>
    <time>2016-07-31T09:08:59Z</time>
    </trkpt>
    <trkpt lat="47.645159" lon="8.877135">
    <ele>417</ele>
    <time>2016-07-31T09:09:08Z</time>
    </trkpt>
    <trkpt lat="47.645071" lon="8.877453">
    <ele>417</ele>
    <time>2016-07-31T09:09:14Z</time>
    </trkpt>
    <trkpt lat="47.644949" lon="8.877928">
    <ele>417</ele>
    <time>2016-07-31T09:09:22Z</time>
    </trkpt>
    <trkpt lat="47.64495" lon="8.877892">
    <ele>417</ele>
    <time>2016-07-31T09:09:22Z</time>
    </trkpt>
    <trkpt lat="47.644718" lon="8.878908">
    <ele>417</ele>
    <time>2016-07-31T09:09:39Z</time>
    </trkpt>
    <trkpt lat="47.644259" lon="8.88073">
    <ele>417</ele>
    <time>2016-07-31T09:10:10Z</time>
    </trkpt>
    <trkpt lat="47.64412" lon="8.88139">
    <ele>417</ele>
    <time>2016-07-31T09:10:21Z</time>
    </trkpt>
    <trkpt lat="47.644054" lon="8.88182">
    <ele>417</ele>
    <time>2016-07-31T09:10:28Z</time>
    </trkpt>
    <trkpt lat="47.643575" lon="8.88366">
    <ele>418</ele>
    <time>2016-07-31T09:11:00Z</time>
    </trkpt>
    <trkpt lat="47.643262" lon="8.884804">
    <ele>418</ele>
    <time>2016-07-31T09:11:19Z</time>
    </trkpt>
    <trkpt lat="47.643013" lon="8.886683">
    <ele>418</ele>
    <time>2016-07-31T09:11:50Z</time>
    </trkpt>
    <trkpt lat="47.642814" lon="8.888995">
    <ele>418</ele>
    <time>2016-07-31T09:12:27Z</time>
    </trkpt>
    <trkpt lat="47.642602" lon="8.89072">
    <ele>419</ele>
    <time>2016-07-31T09:12:55Z</time>
    </trkpt>
    <trkpt lat="47.642504" lon="8.891624">
    <ele>419</ele>
    <time>2016-07-31T09:13:09Z</time>
    </trkpt>
    <trkpt lat="47.642649" lon="8.891731">
    <ele>419</ele>
    <time>2016-07-31T09:13:13Z</time>
    </trkpt>
    <trkpt lat="47.642804" lon="8.891738">
    <ele>419</ele>
    <time>2016-07-31T09:13:17Z</time>
    </trkpt>
    <trkpt lat="47.642428" lon="8.893308">
    <ele>418</ele>
    <time>2016-07-31T09:13:43Z</time>
    </trkpt>
    <trkpt lat="47.642213" lon="8.894949">
    <ele>418</ele>
    <time>2016-07-31T09:14:10Z</time>
    </trkpt>
    <trkpt lat="47.642423" lon="8.895088">
    <ele>418</ele>
    <time>2016-07-31T09:14:15Z</time>
    </trkpt>
    <trkpt lat="47.642485" lon="8.895247">
    <ele>418</ele>
    <time>2016-07-31T09:14:18Z</time>
    </trkpt>
    <trkpt lat="47.642862" lon="8.895174">
    <ele>418</ele>
    <time>2016-07-31T09:14:27Z</time>
    </trkpt>
    <trkpt lat="47.642819" lon="8.89652">
    <ele>417</ele>
    <time>2016-07-31T09:14:49Z</time>
    </trkpt>
    <trkpt lat="47.642655" lon="8.898501">
    <ele>415</ele>
    <time>2016-07-31T09:15:20Z</time>
    </trkpt>
    <trkpt lat="47.642508" lon="8.903001">
    <ele>412</ele>
    <time>2016-07-31T09:16:32Z</time>
    </trkpt>
    <trkpt lat="47.642474" lon="8.904242">
    <ele>411</ele>
    <time>2016-07-31T09:16:52Z</time>
    </trkpt>
    <trkpt lat="47.642412" lon="8.904757">
    <ele>411</ele>
    <time>2016-07-31T09:17:00Z</time>
    </trkpt>
    <trkpt lat="47.642456" lon="8.905152">
    <ele>411</ele>
    <time>2016-07-31T09:17:07Z</time>
    </trkpt>
    <trkpt lat="47.642468" lon="8.906319">
    <ele>411</ele>
    <time>2016-07-31T09:17:25Z</time>
    </trkpt>
    <trkpt lat="47.642489" lon="8.907207">
    <ele>411</ele>
    <time>2016-07-31T09:17:39Z</time>
    </trkpt>
    <trkpt lat="47.64243" lon="8.908583">
    <ele>411</ele>
    <time>2016-07-31T09:18:01Z</time>
    </trkpt>
    <trkpt lat="47.642558" lon="8.909849">
    <ele>411</ele>
    <time>2016-07-31T09:18:22Z</time>
    </trkpt>
    <trkpt lat="47.642991" lon="8.911513">
    <ele>411</ele>
    <time>2016-07-31T09:18:50Z</time>
    </trkpt>
    <trkpt lat="47.643604" lon="8.913184">
    <ele>411</ele>
    <time>2016-07-31T09:19:20Z</time>
    </trkpt>
    <trkpt lat="47.644021" lon="8.914252">
    <ele>411</ele>
    <time>2016-07-31T09:19:40Z</time>
    </trkpt>
    <trkpt lat="47.644042" lon="8.914279">
    <ele>411</ele>
    <time>2016-07-31T09:19:41Z</time>
    </trkpt>
    <trkpt lat="47.644339" lon="8.915122">
    <ele>411</ele>
    <time>2016-07-31T09:19:56Z</time>
    </trkpt>
    <trkpt lat="47.644363" lon="8.915468">
    <ele>411</ele>
    <time>2016-07-31T09:20:01Z</time>
    </trkpt>
    <trkpt lat="47.644474" lon="8.915504">
    <ele>411</ele>
    <time>2016-07-31T09:20:04Z</time>
    </trkpt>
    <trkpt lat="47.644712" lon="8.915506">
    <ele>411</ele>
    <time>2016-07-31T09:20:09Z</time>
    </trkpt>
    <trkpt lat="47.644711" lon="8.915509">
    <ele>411</ele>
    <time>2016-07-31T09:20:09Z</time>
    </trkpt>
    <trkpt lat="47.644946" lon="8.9164">
    <ele>410</ele>
    <time>2016-07-31T09:20:25Z</time>
    </trkpt>
    <trkpt lat="47.645627" lon="8.916219">
    <ele>410</ele>
    <time>2016-07-31T09:20:41Z</time>
    </trkpt>
    <trkpt lat="47.645741" lon="8.916226">
    <ele>410</ele>
    <time>2016-07-31T09:20:44Z</time>
    </trkpt>
    <trkpt lat="47.64548" lon="8.917909">
    <ele>410</ele>
    <time>2016-07-31T09:21:11Z</time>
    </trkpt>
    <trkpt lat="47.645087" lon="8.919546">
    <ele>410</ele>
    <time>2016-07-31T09:21:39Z</time>
    </trkpt>
    <trkpt lat="47.645007" lon="8.920323">
    <ele>410</ele>
    <time>2016-07-31T09:21:51Z</time>
    </trkpt>
    <trkpt lat="47.644785" lon="8.920838">
    <ele>410</ele>
    <time>2016-07-31T09:22:01Z</time>
    </trkpt>
    <trkpt lat="47.64483" lon="8.921327">
    <ele>410</ele>
    <time>2016-07-31T09:22:09Z</time>
    </trkpt>
    <trkpt lat="47.644865" lon="8.921371">
    <ele>411</ele>
    <time>2016-07-31T09:22:10Z</time>
    </trkpt>
    <trkpt lat="47.645047" lon="8.922272">
    <ele>411</ele>
    <time>2016-07-31T09:22:25Z</time>
    </trkpt>
    <trkpt lat="47.645408" lon="8.923553">
    <ele>412</ele>
    <time>2016-07-31T09:22:47Z</time>
    </trkpt>
    <trkpt lat="47.646114" lon="8.925181">
    <ele>412</ele>
    <time>2016-07-31T09:23:18Z</time>
    </trkpt>
    <trkpt lat="47.64645" lon="8.925677">
    <ele>412</ele>
    <time>2016-07-31T09:23:29Z</time>
    </trkpt>
    <trkpt lat="47.647166" lon="8.926523">
    <ele>412</ele>
    <time>2016-07-31T09:23:50Z</time>
    </trkpt>
    <trkpt lat="47.647986" lon="8.927603">
    <ele>412</ele>
    <time>2016-07-31T09:24:16Z</time>
    </trkpt>
    <trkpt lat="47.648813" lon="8.92897">
    <ele>411</ele>
    <time>2016-07-31T09:24:45Z</time>
    </trkpt>
    <trkpt lat="47.650213" lon="8.931522">
    <ele>411</ele>
    <time>2016-07-31T09:25:38Z</time>
    </trkpt>
    <trkpt lat="47.65062" lon="8.932799">
    <ele>411</ele>
    <time>2016-07-31T09:26:00Z</time>
    </trkpt>
    <trkpt lat="47.650909" lon="8.934119">
    <ele>411</ele>
    <time>2016-07-31T09:26:22Z</time>
    </trkpt>
    <trkpt lat="47.65095" lon="8.934624">
    <ele>411</ele>
    <time>2016-07-31T09:26:30Z</time>
    </trkpt>
    <trkpt lat="47.650933" lon="8.935767">
    <ele>411</ele>
    <time>2016-07-31T09:26:49Z</time>
    </trkpt>
    <trkpt lat="47.651081" lon="8.938167">
    <ele>412</ele>
    <time>2016-07-31T09:27:27Z</time>
    </trkpt>
    <trkpt lat="47.651484" lon="8.940189">
    <ele>412</ele>
    <time>2016-07-31T09:28:00Z</time>
    </trkpt>
    <trkpt lat="47.651479" lon="8.940166">
    <ele>412</ele>
    <time>2016-07-31T09:28:01Z</time>
    </trkpt>
    <trkpt lat="47.651822" lon="8.941743">
    <ele>413</ele>
    <time>2016-07-31T09:28:27Z</time>
    </trkpt>
    <trkpt lat="47.652332" lon="8.944714">
    <ele>413</ele>
    <time>2016-07-31T09:29:16Z</time>
    </trkpt>
    <trkpt lat="47.653139" lon="8.946526">
    <ele>413</ele>
    <time>2016-07-31T09:29:50Z</time>
    </trkpt>
    <trkpt lat="47.653578" lon="8.948081">
    <ele>413</ele>
    <time>2016-07-31T09:30:17Z</time>
    </trkpt>
    <trkpt lat="47.653772" lon="8.950597">
    <ele>413</ele>
    <time>2016-07-31T09:30:58Z</time>
    </trkpt>
    <trkpt lat="47.653902" lon="8.951808">
    <ele>413</ele>
    <time>2016-07-31T09:31:17Z</time>
    </trkpt>
    <trkpt lat="47.653854" lon="8.951844">
    <ele>413</ele>
    <time>2016-07-31T09:31:18Z</time>
    </trkpt>
    <trkpt lat="47.654031" lon="8.952801">
    <ele>412</ele>
    <time>2016-07-31T09:31:34Z</time>
    </trkpt>
    <trkpt lat="47.654595" lon="8.954024">
    <ele>409</ele>
    <time>2016-07-31T09:31:58Z</time>
    </trkpt>
    <trkpt lat="47.654963" lon="8.954779">
    <ele>408</ele>
    <time>2016-07-31T09:32:12Z</time>
    </trkpt>
    <trkpt lat="47.655319" lon="8.955423">
    <ele>407</ele>
    <time>2016-07-31T09:32:26Z</time>
    </trkpt>
    <trkpt lat="47.655456" lon="8.955827">
    <ele>406</ele>
    <time>2016-07-31T09:32:33Z</time>
    </trkpt>
    <trkpt lat="47.655519" lon="8.956692">
    <ele>407</ele>
    <time>2016-07-31T09:32:47Z</time>
    </trkpt>
    <trkpt lat="47.655527" lon="8.957055">
    <ele>407</ele>
    <time>2016-07-31T09:32:53Z</time>
    </trkpt>
    <trkpt lat="47.655495" lon="8.957098">
    <ele>407</ele>
    <time>2016-07-31T09:32:54Z</time>
    </trkpt>
    <trkpt lat="47.655612" lon="8.958062">
    <ele>407</ele>
    <time>2016-07-31T09:33:09Z</time>
    </trkpt>
    <trkpt lat="47.65582" lon="8.960811">
    <ele>408</ele>
    <time>2016-07-31T09:33:53Z</time>
    </trkpt>
    <trkpt lat="47.655776" lon="8.960863">
    <ele>408</ele>
    <time>2016-07-31T09:33:54Z</time>
    </trkpt>
    <trkpt lat="47.655763" lon="8.962059">
    <ele>409</ele>
    <time>2016-07-31T09:34:13Z</time>
    </trkpt>
    <trkpt lat="47.655925" lon="8.962948">
    <ele>409</ele>
    <time>2016-07-31T09:34:28Z</time>
    </trkpt>
    <trkpt lat="47.656121" lon="8.963889">
    <ele>409</ele>
    <time>2016-07-31T09:34:44Z</time>
    </trkpt>
    <trkpt lat="47.656958" lon="8.966345">
    <ele>409</ele>
    <time>2016-07-31T09:35:28Z</time>
    </trkpt>
    <trkpt lat="47.657273" lon="8.967243">
    <ele>408</ele>
    <time>2016-07-31T09:35:44Z</time>
    </trkpt>
    <trkpt lat="47.657273" lon="8.967243">
    <ele>408</ele>
    <time>2016-07-31T09:35:44Z</time>
    </trkpt>
    <trkpt lat="47.657346" lon="8.967551">
    <ele>408</ele>
    <time>2016-07-31T09:35:49Z</time>
    </trkpt>
    <trkpt lat="47.657544" lon="8.968274">
    <ele>408</ele>
    <time>2016-07-31T09:36:01Z</time>
    </trkpt>
    <trkpt lat="47.658382" lon="8.970749">
    <ele>407</ele>
    <time>2016-07-31T09:36:45Z</time>
    </trkpt>
    <trkpt lat="47.658996" lon="8.972121">
    <ele>406</ele>
    <time>2016-07-31T09:37:11Z</time>
    </trkpt>
    <trkpt lat="47.659668" lon="8.972991">
    <ele>406</ele>
    <time>2016-07-31T09:37:32Z</time>
    </trkpt>
    <trkpt lat="47.659966" lon="8.973199">
    <ele>406</ele>
    <time>2016-07-31T09:37:40Z</time>
    </trkpt>
    <trkpt lat="47.660015" lon="8.973233">
    <ele>406</ele>
    <time>2016-07-31T09:37:41Z</time>
    </trkpt>
    <trkpt lat="47.660187" lon="8.973895">
    <ele>407</ele>
    <time>2016-07-31T09:37:53Z</time>
    </trkpt>
    <trkpt lat="47.660298" lon="8.974749">
    <ele>408</ele>
    <time>2016-07-31T09:38:07Z</time>
    </trkpt>
    <trkpt lat="47.6603" lon="8.975246">
    <ele>409</ele>
    <time>2016-07-31T09:38:14Z</time>
    </trkpt>
    <trkpt lat="47.660307" lon="8.97577">
    <ele>409</ele>
    <time>2016-07-31T09:38:23Z</time>
    </trkpt>
    <trkpt lat="47.660419" lon="8.975996">
    <ele>410</ele>
    <time>2016-07-31T09:38:27Z</time>
    </trkpt>
    <trkpt lat="47.660828" lon="8.976336">
    <ele>410</ele>
    <time>2016-07-31T09:38:38Z</time>
    </trkpt>
    <trkpt lat="47.661411" lon="8.977278">
    <ele>408</ele>
    <time>2016-07-31T09:38:59Z</time>
    </trkpt>
    <trkpt lat="47.661714" lon="8.977421">
    <ele>408</ele>
    <time>2016-07-31T09:39:06Z</time>
    </trkpt>
    <trkpt lat="47.662873" lon="8.977">
    <ele>405</ele>
    <time>2016-07-31T09:39:34Z</time>
    </trkpt>
    <trkpt lat="47.663057" lon="8.976929">
    <ele>405</ele>
    <time>2016-07-31T09:39:39Z</time>
    </trkpt>
    <trkpt lat="47.663645" lon="8.977933">
    <ele>403</ele>
    <time>2016-07-31T09:40:00Z</time>
    </trkpt>
    <trkpt lat="47.664491" lon="8.979636">
    <ele>402</ele>
    <time>2016-07-31T09:40:33Z</time>
    </trkpt>
    <trkpt lat="47.665431" lon="8.981028">
    <ele>401</ele>
    <time>2016-07-31T09:41:05Z</time>
    </trkpt>
    <trkpt lat="47.665851" lon="8.981459">
    <ele>401</ele>
    <time>2016-07-31T09:41:17Z</time>
    </trkpt>
    <trkpt lat="47.665851" lon="8.981459">
    <ele>401</ele>
    <time>2016-07-31T09:41:17Z</time>
    </trkpt>
    <trkpt lat="47.667068" lon="8.981364">
    <ele>400</ele>
    <time>2016-07-31T09:41:45Z</time>
    </trkpt>
    <trkpt lat="47.66747" lon="8.981405">
    <ele>400</ele>
    <time>2016-07-31T09:41:55Z</time>
    </trkpt>
    <trkpt lat="47.668523" lon="8.982828">
    <ele>401</ele>
    <time>2016-07-31T09:42:29Z</time>
    </trkpt>
    <trkpt lat="47.668924" lon="8.984078">
    <ele>401</ele>
    <time>2016-07-31T09:42:51Z</time>
    </trkpt>
    <trkpt lat="47.668972" lon="8.984551">
    <ele>401</ele>
    <time>2016-07-31T09:42:58Z</time>
    </trkpt>
    <trkpt lat="47.668311" lon="8.986711">
    <ele>401</ele>
    <time>2016-07-31T09:43:36Z</time>
    </trkpt>
    <trkpt lat="47.667999" lon="8.98759">
    <ele>402</ele>
    <time>2016-07-31T09:43:52Z</time>
    </trkpt>
    <trkpt lat="47.667999" lon="8.98759">
    <ele>402</ele>
    <time>2016-07-31T09:43:52Z</time>
    </trkpt>
    <trkpt lat="47.667846" lon="8.988068">
    <ele>402</ele>
    <time>2016-07-31T09:44:00Z</time>
    </trkpt>
    <trkpt lat="47.668008" lon="8.989013">
    <ele>403</ele>
    <time>2016-07-31T09:44:16Z</time>
    </trkpt>
    <trkpt lat="47.668034" lon="8.989138">
    <ele>403</ele>
    <time>2016-07-31T09:44:18Z</time>
    </trkpt>
    <trkpt lat="47.668249" lon="8.989974">
    <ele>403</ele>
    <time>2016-07-31T09:44:32Z</time>
    </trkpt>
    <trkpt lat="47.669421" lon="8.993494">
    <ele>403</ele>
    <time>2016-07-31T09:45:34Z</time>
    </trkpt>
    <trkpt lat="47.670417" lon="8.996565">
    <ele>403</ele>
    <time>2016-07-31T09:46:28Z</time>
    </trkpt>
    <trkpt lat="47.670841" lon="8.998024">
    <ele>402</ele>
    <time>2016-07-31T09:46:54Z</time>
    </trkpt>
    <trkpt lat="47.671046" lon="8.999444">
    <ele>403</ele>
    <time>2016-07-31T09:47:17Z</time>
    </trkpt>
    <trkpt lat="47.671044" lon="9.001035">
    <ele>403</ele>
    <time>2016-07-31T09:47:42Z</time>
    </trkpt>
    <trkpt lat="47.671039" lon="9.002225">
    <ele>404</ele>
    <time>2016-07-31T09:48:01Z</time>
    </trkpt>
    <trkpt lat="47.671105" lon="9.003186">
    <ele>404</ele>
    <time>2016-07-31T09:48:16Z</time>
    </trkpt>
    <trkpt lat="47.671826" lon="9.006815">
    <ele>405</ele>
    <time>2016-07-31T09:49:17Z</time>
    </trkpt>
    <trkpt lat="47.671896" lon="9.007627">
    <ele>405</ele>
    <time>2016-07-31T09:49:30Z</time>
    </trkpt>
    <trkpt lat="47.67196" lon="9.008956">
    <ele>404</ele>
    <time>2016-07-31T09:49:51Z</time>
    </trkpt>
    <trkpt lat="47.672288" lon="9.010853">
    <ele>403</ele>
    <time>2016-07-31T09:50:22Z</time>
    </trkpt>
    <trkpt lat="47.672269" lon="9.011971">
    <ele>402</ele>
    <time>2016-07-31T09:50:40Z</time>
    </trkpt>
    <trkpt lat="47.67264" lon="9.013993">
    <ele>401</ele>
    <time>2016-07-31T09:51:13Z</time>
    </trkpt>
    <trkpt lat="47.672854" lon="9.014663">
    <ele>401</ele>
    <time>2016-07-31T09:51:25Z</time>
    </trkpt>
    <trkpt lat="47.673094" lon="9.015141">
    <ele>400</ele>
    <time>2016-07-31T09:51:34Z</time>
    </trkpt>
    <trkpt lat="47.673165" lon="9.015283">
    <ele>400</ele>
    <time>2016-07-31T09:51:37Z</time>
    </trkpt>
    <trkpt lat="47.674142" lon="9.016223">
    <ele>399</ele>
    <time>2016-07-31T09:52:04Z</time>
    </trkpt>
    <trkpt lat="47.674544" lon="9.016876">
    <ele>398</ele>
    <time>2016-07-31T09:52:18Z</time>
    </trkpt>
    <trkpt lat="47.674677" lon="9.017253">
    <ele>398</ele>
    <time>2016-07-31T09:52:25Z</time>
    </trkpt>
    <trkpt lat="47.674766" lon="9.017803">
    <ele>398</ele>
    <time>2016-07-31T09:52:34Z</time>
    </trkpt>
    <trkpt lat="47.674837" lon="9.01984">
    <ele>398</ele>
    <time>2016-07-31T09:53:07Z</time>
    </trkpt>
    <trkpt lat="47.674801" lon="9.021034">
    <ele>398</ele>
    <time>2016-07-31T09:53:26Z</time>
    </trkpt>
    <trkpt lat="47.673775" lon="9.022517">
    <ele>398</ele>
    <time>2016-07-31T09:53:59Z</time>
    </trkpt>
    <trkpt lat="47.673256" lon="9.023384">
    <ele>398</ele>
    <time>2016-07-31T09:54:18Z</time>
    </trkpt>
    <trkpt lat="47.673232" lon="9.023467">
    <ele>398</ele>
    <time>2016-07-31T09:54:19Z</time>
    </trkpt>
    <trkpt lat="47.672733" lon="9.025266">
    <ele>398</ele>
    <time>2016-07-31T09:54:50Z</time>
    </trkpt>
    <trkpt lat="47.672699" lon="9.027964">
    <ele>399</ele>
    <time>2016-07-31T09:55:33Z</time>
    </trkpt>
    <trkpt lat="47.673156" lon="9.030101">
    <ele>399</ele>
    <time>2016-07-31T09:56:09Z</time>
    </trkpt>
    <trkpt lat="47.673459" lon="9.032283">
    <ele>399</ele>
    <time>2016-07-31T09:56:44Z</time>
    </trkpt>
    <trkpt lat="47.67358" lon="9.033843">
    <ele>400</ele>
    <time>2016-07-31T09:57:09Z</time>
    </trkpt>
    <trkpt lat="47.673733" lon="9.034943">
    <ele>400</ele>
    <time>2016-07-31T09:57:27Z</time>
    </trkpt>
    <trkpt lat="47.673523" lon="9.036118">
    <ele>400</ele>
    <time>2016-07-31T09:57:46Z</time>
    </trkpt>
    <trkpt lat="47.673438" lon="9.036289">
    <ele>400</ele>
    <time>2016-07-31T09:57:50Z</time>
    </trkpt>
    <trkpt lat="47.673017" lon="9.038962">
    <ele>401</ele>
    <time>2016-07-31T09:58:33Z</time>
    </trkpt>
    <trkpt lat="47.672763" lon="9.040701">
    <ele>401</ele>
    <time>2016-07-31T09:59:02Z</time>
    </trkpt>
    <trkpt lat="47.672426" lon="9.042517">
    <ele>401</ele>
    <time>2016-07-31T09:59:32Z</time>
    </trkpt>
    <trkpt lat="47.672167" lon="9.044184">
    <ele>401</ele>
    <time>2016-07-31T09:59:59Z</time>
    </trkpt>
    <trkpt lat="47.672173" lon="9.045102">
    <ele>401</ele>
    <time>2016-07-31T10:00:13Z</time>
    </trkpt>
    <trkpt lat="47.672443" lon="9.046293">
    <ele>401</ele>
    <time>2016-07-31T10:00:33Z</time>
    </trkpt>
    <trkpt lat="47.672655" lon="9.047232">
    <ele>400</ele>
    <time>2016-07-31T10:00:49Z</time>
    </trkpt>
    <trkpt lat="47.673161" lon="9.048815">
    <ele>399</ele>
    <time>2016-07-31T10:01:17Z</time>
    </trkpt>
    <trkpt lat="47.67323" lon="9.048734">
    <ele>399</ele>
    <time>2016-07-31T10:01:19Z</time>
    </trkpt>
    <trkpt lat="47.673684" lon="9.048776">
    <ele>399</ele>
    <time>2016-07-31T10:01:30Z</time>
    </trkpt>
    <trkpt lat="47.673876" lon="9.048727">
    <ele>399</ele>
    <time>2016-07-31T10:01:34Z</time>
    </trkpt>
    <trkpt lat="47.674071" lon="9.048849">
    <ele>399</ele>
    <time>2016-07-31T10:01:39Z</time>
    </trkpt>
    <trkpt lat="47.67422" lon="9.049191">
    <ele>399</ele>
    <time>2016-07-31T10:01:46Z</time>
    </trkpt>
    <trkpt lat="47.674123" lon="9.049861">
    <ele>399</ele>
    <time>2016-07-31T10:01:57Z</time>
    </trkpt>
    <trkpt lat="47.674041" lon="9.050734">
    <ele>399</ele>
    <time>2016-07-31T10:02:11Z</time>
    </trkpt>
    <trkpt lat="47.673883" lon="9.050614">
    <ele>400</ele>
    <time>2016-07-31T10:02:15Z</time>
    </trkpt>
    <trkpt lat="47.673869" lon="9.050626">
    <ele>400</ele>
    <time>2016-07-31T10:02:15Z</time>
    </trkpt>
    <trkpt lat="47.673768" lon="9.051417">
    <ele>400</ele>
    <time>2016-07-31T10:02:28Z</time>
    </trkpt>
    <trkpt lat="47.67372" lon="9.052123">
    <ele>400</ele>
    <time>2016-07-31T10:02:39Z</time>
    </trkpt>
    <trkpt lat="47.673577" lon="9.052278">
    <ele>400</ele>
    <time>2016-07-31T10:02:44Z</time>
    </trkpt>
    <trkpt lat="47.673506" lon="9.052326">
    <ele>400</ele>
    <time>2016-07-31T10:02:45Z</time>
    </trkpt>
    <trkpt lat="47.673431" lon="9.053447">
    <ele>400</ele>
    <time>2016-07-31T10:03:03Z</time>
    </trkpt>
    <trkpt lat="47.673525" lon="9.055143">
    <ele>402</ele>
    <time>2016-07-31T10:03:30Z</time>
    </trkpt>
    <trkpt lat="47.673913" lon="9.056579">
    <ele>403</ele>
    <time>2016-07-31T10:03:55Z</time>
    </trkpt>
    <trkpt lat="47.67402" lon="9.057716">
    <ele>404</ele>
    <time>2016-07-31T10:04:13Z</time>
    </trkpt>
    <trkpt lat="47.673901" lon="9.059425">
    <ele>404</ele>
    <time>2016-07-31T10:04:40Z</time>
    </trkpt>
    <trkpt lat="47.673614" lon="9.061236">
    <ele>403</ele>
    <time>2016-07-31T10:05:10Z</time>
    </trkpt>
    <trkpt lat="47.673514" lon="9.062401">
    <ele>402</ele>
    <time>2016-07-31T10:05:29Z</time>
    </trkpt>
    <trkpt lat="47.673517" lon="9.062438">
    <ele>402</ele>
    <time>2016-07-31T10:05:29Z</time>
    </trkpt>
    <trkpt lat="47.673575" lon="9.064951">
    <ele>401</ele>
    <time>2016-07-31T10:06:09Z</time>
    </trkpt>
    <trkpt lat="47.673603" lon="9.065203">
    <ele>401</ele>
    <time>2016-07-31T10:06:13Z</time>
    </trkpt>
    <trkpt lat="47.67378" lon="9.065277">
    <ele>401</ele>
    <time>2016-07-31T10:06:18Z</time>
    </trkpt>
    <trkpt lat="47.673776" lon="9.066757">
    <ele>401</ele>
    <time>2016-07-31T10:06:41Z</time>
    </trkpt>
    <trkpt lat="47.673717" lon="9.067361">
    <ele>401</ele>
    <time>2016-07-31T10:06:51Z</time>
    </trkpt>
    <trkpt lat="47.673604" lon="9.068186">
    <ele>400</ele>
    <time>2016-07-31T10:07:04Z</time>
    </trkpt>
    <trkpt lat="47.673298" lon="9.069484">
    <ele>400</ele>
    <time>2016-07-31T10:07:26Z</time>
    </trkpt>
    <trkpt lat="47.67329" lon="9.069461">
    <ele>400</ele>
    <time>2016-07-31T10:07:27Z</time>
    </trkpt>
    <trkpt lat="47.672978" lon="9.070059">
    <ele>400</ele>
    <time>2016-07-31T10:07:39Z</time>
    </trkpt>
    <trkpt lat="47.672304" lon="9.071149">
    <ele>399</ele>
    <time>2016-07-31T10:08:02Z</time>
    </trkpt>
    <trkpt lat="47.671588" lon="9.072195">
    <ele>399</ele>
    <time>2016-07-31T10:08:26Z</time>
    </trkpt>
    <trkpt lat="47.671266" lon="9.073161">
    <ele>398</ele>
    <time>2016-07-31T10:08:43Z</time>
    </trkpt>
    <trkpt lat="47.670628" lon="9.074581">
    <ele>398</ele>
    <time>2016-07-31T10:09:10Z</time>
    </trkpt>
    <trkpt lat="47.670364" lon="9.075191">
    <ele>398</ele>
    <time>2016-07-31T10:09:22Z</time>
    </trkpt>
    <trkpt lat="47.670224" lon="9.075712">
    <ele>398</ele>
    <time>2016-07-31T10:09:30Z</time>
    </trkpt>
    <trkpt lat="47.670165" lon="9.076554">
    <ele>398</ele>
    <time>2016-07-31T10:09:44Z</time>
    </trkpt>
    <trkpt lat="47.670223" lon="9.077104">
    <ele>398</ele>
    <time>2016-07-31T10:09:53Z</time>
    </trkpt>
    <trkpt lat="47.670372" lon="9.077914">
    <ele>398</ele>
    <time>2016-07-31T10:10:06Z</time>
    </trkpt>
    <trkpt lat="47.670671" lon="9.079243">
    <ele>398</ele>
    <time>2016-07-31T10:10:28Z</time>
    </trkpt>
    <trkpt lat="47.670688" lon="9.079325">
    <ele>398</ele>
    <time>2016-07-31T10:10:30Z</time>
    </trkpt>
    <trkpt lat="47.670818" lon="9.079624">
    <ele>398</ele>
    <time>2016-07-31T10:10:35Z</time>
    </trkpt>
    <trkpt lat="47.671366" lon="9.080395">
    <ele>399</ele>
    <time>2016-07-31T10:10:53Z</time>
    </trkpt>
    <trkpt lat="47.67232" lon="9.081485">
    <ele>399</ele>
    <time>2016-07-31T10:11:22Z</time>
    </trkpt>
    <trkpt lat="47.672649" lon="9.081763">
    <ele>399</ele>
    <time>2016-07-31T10:11:30Z</time>
    </trkpt>
    <trkpt lat="47.67316" lon="9.082085">
    <ele>399</ele>
    <time>2016-07-31T10:11:44Z</time>
    </trkpt>
    <trkpt lat="47.672853" lon="9.082772">
    <ele>399</ele>
    <time>2016-07-31T10:11:57Z</time>
    </trkpt>
    <trkpt lat="47.672718" lon="9.083072">
    <ele>399</ele>
    <time>2016-07-31T10:12:02Z</time>
    </trkpt>
    <trkpt lat="47.672679" lon="9.083456">
    <ele>399</ele>
    <time>2016-07-31T10:12:09Z</time>
    </trkpt>
    <trkpt lat="47.672635" lon="9.08397">
    <ele>399</ele>
    <time>2016-07-31T10:12:17Z</time>
    </trkpt>
    <trkpt lat="47.672664" lon="9.084548">
    <ele>399</ele>
    <time>2016-07-31T10:12:26Z</time>
    </trkpt>
    <trkpt lat="47.672664" lon="9.084837">
    <ele>399</ele>
    <time>2016-07-31T10:12:31Z</time>
    </trkpt>
    <trkpt lat="47.672573" lon="9.085054">
    <ele>399</ele>
    <time>2016-07-31T10:12:35Z</time>
    </trkpt>
    <trkpt lat="47.672378" lon="9.085254">
    <ele>399</ele>
    <time>2016-07-31T10:12:40Z</time>
    </trkpt>
    <trkpt lat="47.672026" lon="9.085653">
    <ele>399</ele>
    <time>2016-07-31T10:12:51Z</time>
    </trkpt>
    <trkpt lat="47.671939" lon="9.086405">
    <ele>399</ele>
    <time>2016-07-31T10:13:03Z</time>
    </trkpt>
    <trkpt lat="47.671908" lon="9.087618">
    <ele>398</ele>
    <time>2016-07-31T10:13:22Z</time>
    </trkpt>
    <trkpt lat="47.671896" lon="9.088437">
    <ele>398</ele>
    <time>2016-07-31T10:13:35Z</time>
    </trkpt>
    <trkpt lat="47.67185" lon="9.088423">
    <ele>398</ele>
    <time>2016-07-31T10:13:36Z</time>
    </trkpt>
    <trkpt lat="47.671654" lon="9.088511">
    <ele>398</ele>
    <time>2016-07-31T10:13:41Z</time>
    </trkpt>
    <trkpt lat="47.670647" lon="9.088865">
    <ele>398</ele>
    <time>2016-07-31T10:14:05Z</time>
    </trkpt>
    <trkpt lat="47.669582" lon="9.089549">
    <ele>398</ele>
    <time>2016-07-31T10:14:33Z</time>
    </trkpt>
    <trkpt lat="47.668691" lon="9.090296">
    <ele>398</ele>
    <time>2016-07-31T10:14:57Z</time>
    </trkpt>
    <trkpt lat="47.667608" lon="9.091043">
    <ele>398</ele>
    <time>2016-07-31T10:15:25Z</time>
    </trkpt>
    <trkpt lat="47.667608" lon="9.091043">
    <ele>398</ele>
    <time>2016-07-31T10:15:25Z</time>
    </trkpt>
    <trkpt lat="47.667557" lon="9.091239">
    <ele>398</ele>
    <time>2016-07-31T10:15:28Z</time>
    </trkpt>
    <trkpt lat="47.667324" lon="9.091473">
    <ele>398</ele>
    <time>2016-07-31T10:15:35Z</time>
    </trkpt>
    <trkpt lat="47.666977" lon="9.092099">
    <ele>398</ele>
    <time>2016-07-31T10:15:48Z</time>
    </trkpt>
    <trkpt lat="47.666957" lon="9.092144">
    <ele>398</ele>
    <time>2016-07-31T10:15:49Z</time>
    </trkpt>
    <trkpt lat="47.666164" lon="9.093712">
    <ele>399</ele>
    <time>2016-07-31T10:16:20Z</time>
    </trkpt>
    <trkpt lat="47.665612" lon="9.094912">
    <ele>399</ele>
    <time>2016-07-31T10:16:43Z</time>
    </trkpt>
    <trkpt lat="47.665404" lon="9.095666">
    <ele>399</ele>
    <time>2016-07-31T10:16:56Z</time>
    </trkpt>
    <trkpt lat="47.665293" lon="9.096403">
    <ele>399</ele>
    <time>2016-07-31T10:17:08Z</time>
    </trkpt>
    <trkpt lat="47.665286" lon="9.098093">
    <ele>399</ele>
    <time>2016-07-31T10:17:35Z</time>
    </trkpt>
    <trkpt lat="47.665266" lon="9.099605">
    <ele>399</ele>
    <time>2016-07-31T10:17:59Z</time>
    </trkpt>
    <trkpt lat="47.665012" lon="9.100816">
    <ele>399</ele>
    <time>2016-07-31T10:18:19Z</time>
    </trkpt>
    <trkpt lat="47.664659" lon="9.101714">
    <ele>399</ele>
    <time>2016-07-31T10:18:36Z</time>
    </trkpt>
    <trkpt lat="47.663704" lon="9.103535">
    <ele>399</ele>
    <time>2016-07-31T10:19:12Z</time>
    </trkpt>
    <trkpt lat="47.663294" lon="9.105624">
    <ele>399</ele>
    <time>2016-07-31T10:19:47Z</time>
    </trkpt>
    <trkpt lat="47.66308" lon="9.106994">
    <ele>400</ele>
    <time>2016-07-31T10:20:09Z</time>
    </trkpt>
    <trkpt lat="47.663031" lon="9.107523">
    <ele>400</ele>
    <time>2016-07-31T10:20:18Z</time>
    </trkpt>
    <trkpt lat="47.663162" lon="9.108219">
    <ele>400</ele>
    <time>2016-07-31T10:20:29Z</time>
    </trkpt>
    <trkpt lat="47.663152" lon="9.108628">
    <ele>400</ele>
    <time>2016-07-31T10:20:36Z</time>
    </trkpt>
    <trkpt lat="47.663121" lon="9.109118">
    <ele>399</ele>
    <time>2016-07-31T10:20:43Z</time>
    </trkpt>
    <trkpt lat="47.663215" lon="9.109625">
    <ele>399</ele>
    <time>2016-07-31T10:20:52Z</time>
    </trkpt>
    <trkpt lat="47.663336" lon="9.110315">
    <ele>399</ele>
    <time>2016-07-31T10:21:03Z</time>
    </trkpt>
    <trkpt lat="47.663582" lon="9.11048">
    <ele>399</ele>
    <time>2016-07-31T10:21:10Z</time>
    </trkpt>
    <trkpt lat="47.663397" lon="9.110987">
    <ele>399</ele>
    <time>2016-07-31T10:21:19Z</time>
    </trkpt>
    <trkpt lat="47.663308" lon="9.112239">
    <ele>399</ele>
    <time>2016-07-31T10:21:39Z</time>
    </trkpt>
    <trkpt lat="47.663288" lon="9.112827">
    <ele>398</ele>
    <time>2016-07-31T10:21:48Z</time>
    </trkpt>
    <trkpt lat="47.663381" lon="9.113658">
    <ele>398</ele>
    <time>2016-07-31T10:22:01Z</time>
    </trkpt>
    <trkpt lat="47.663265" lon="9.11579">
    <ele>398</ele>
    <time>2016-07-31T10:22:35Z</time>
    </trkpt>
    <trkpt lat="47.663044" lon="9.11765">
    <ele>398</ele>
    <time>2016-07-31T10:23:05Z</time>
    </trkpt>
    <trkpt lat="47.662884" lon="9.120454">
    <ele>399</ele>
    <time>2016-07-31T10:23:50Z</time>
    </trkpt>
    <trkpt lat="47.662853" lon="9.121293">
    <ele>399</ele>
    <time>2016-07-31T10:24:04Z</time>
    </trkpt>
    <trkpt lat="47.662777" lon="9.122355">
    <ele>399</ele>
    <time>2016-07-31T10:24:21Z</time>
    </trkpt>
    <trkpt lat="47.662599" lon="9.125301">
    <ele>399</ele>
    <time>2016-07-31T10:25:08Z</time>
    </trkpt>
    <trkpt lat="47.662334" lon="9.128615">
    <ele>400</ele>
    <time>2016-07-31T10:26:01Z</time>
    </trkpt>
    <trkpt lat="47.662159" lon="9.130262">
    <ele>401</ele>
    <time>2016-07-31T10:26:27Z</time>
    </trkpt>
    <trkpt lat="47.662159" lon="9.130262">
    <ele>401</ele>
    <time>2016-07-31T10:26:27Z</time>
    </trkpt>
    <trkpt lat="47.661823" lon="9.134694">
    <ele>402</ele>
    <time>2016-07-31T10:27:38Z</time>
    </trkpt>
    <trkpt lat="47.661921" lon="9.134663">
    <ele>402</ele>
    <time>2016-07-31T10:27:41Z</time>
    </trkpt>
    <trkpt lat="47.661031" lon="9.134658">
    <ele>402</ele>
    <time>2016-07-31T10:28:01Z</time>
    </trkpt>
    <trkpt lat="47.660496" lon="9.134668">
    <ele>402</ele>
    <time>2016-07-31T10:28:14Z</time>
    </trkpt>
    <trkpt lat="47.660257" lon="9.134662">
    <ele>402</ele>
    <time>2016-07-31T10:28:20Z</time>
    </trkpt>
    <trkpt lat="47.660257" lon="9.134662">
    <ele>402</ele>
    <time>2016-07-31T10:28:20Z</time>
    </trkpt>
    <trkpt lat="47.660115" lon="9.134699">
    <ele>402</ele>
    <time>2016-07-31T10:28:23Z</time>
    </trkpt>
    <trkpt lat="47.65998" lon="9.134917">
    <ele>401</ele>
    <time>2016-07-31T10:28:28Z</time>
    </trkpt>
    <trkpt lat="47.659944" lon="9.135928">
    <ele>401</ele>
    <time>2016-07-31T10:28:44Z</time>
    </trkpt>
    <trkpt lat="47.659918" lon="9.135965">
    <ele>401</ele>
    <time>2016-07-31T10:28:45Z</time>
    </trkpt>
    <trkpt lat="47.660012" lon="9.13686">
    <ele>400</ele>
    <time>2016-07-31T10:28:59Z</time>
    </trkpt>
    <trkpt lat="47.660054" lon="9.138388">
    <ele>399</ele>
    <time>2016-07-31T10:29:23Z</time>
    </trkpt>
    <trkpt lat="47.660111" lon="9.142138">
    <ele>397</ele>
    <time>2016-07-31T10:30:23Z</time>
    </trkpt>
    <trkpt lat="47.660059" lon="9.143392">
    <ele>397</ele>
    <time>2016-07-31T10:30:43Z</time>
    </trkpt>
    <trkpt lat="47.660089" lon="9.144168">
    <ele>397</ele>
    <time>2016-07-31T10:30:55Z</time>
    </trkpt>
    <trkpt lat="47.660274" lon="9.144088">
    <ele>397</ele>
    <time>2016-07-31T10:31:00Z</time>
    </trkpt>
    <trkpt lat="47.66027" lon="9.144129">
    <ele>397</ele>
    <time>2016-07-31T10:31:01Z</time>
    </trkpt>
    <trkpt lat="47.660396" lon="9.14432">
    <ele>397</ele>
    <time>2016-07-31T10:31:05Z</time>
    </trkpt>
    <trkpt lat="47.660428" lon="9.14446">
    <ele>397</ele>
    <time>2016-07-31T10:31:07Z</time>
    </trkpt>
    <trkpt lat="47.660477" lon="9.144825">
    <ele>398</ele>
    <time>2016-07-31T10:31:13Z</time>
    </trkpt>
    <trkpt lat="47.660483" lon="9.144986">
    <ele>398</ele>
    <time>2016-07-31T10:31:16Z</time>
    </trkpt>
    <trkpt lat="47.660483" lon="9.144986">
    <ele>398</ele>
    <time>2016-07-31T10:31:16Z</time>
    </trkpt>
    <trkpt lat="47.660488" lon="9.145131">
    <ele>398</ele>
    <time>2016-07-31T10:31:18Z</time>
    </trkpt>
    <trkpt lat="47.660893" lon="9.147202">
    <ele>398</ele>
    <time>2016-07-31T10:31:52Z</time>
    </trkpt>
    <trkpt lat="47.661401" lon="9.149969">
    <ele>397</ele>
    <time>2016-07-31T10:32:38Z</time>
    </trkpt>
    <trkpt lat="47.661736" lon="9.152022">
    <ele>397</ele>
    <time>2016-07-31T10:33:12Z</time>
    </trkpt>
    <trkpt lat="47.662139" lon="9.154418">
    <ele>397</ele>
    <time>2016-07-31T10:33:51Z</time>
    </trkpt>
    <trkpt lat="47.662462" lon="9.156481">
    <ele>397</ele>
    <time>2016-07-31T10:34:24Z</time>
    </trkpt>
    <trkpt lat="47.662939" lon="9.159052">
    <ele>397</ele>
    <time>2016-07-31T10:35:07Z</time>
    </trkpt>
    <trkpt lat="47.662952" lon="9.159117">
    <ele>397</ele>
    <time>2016-07-31T10:35:08Z</time>
    </trkpt>
    <trkpt lat="47.663151" lon="9.160354">
    <ele>397</ele>
    <time>2016-07-31T10:35:28Z</time>
    </trkpt>
    <trkpt lat="47.66307" lon="9.160823">
    <ele>397</ele>
    <time>2016-07-31T10:35:36Z</time>
    </trkpt>
    <trkpt lat="47.663233" lon="9.160834">
    <ele>397</ele>
    <time>2016-07-31T10:35:40Z</time>
    </trkpt>
    <trkpt lat="47.664405" lon="9.160913">
    <ele>398</ele>
    <time>2016-07-31T10:36:07Z</time>
    </trkpt>
    <trkpt lat="47.664929" lon="9.160907">
    <ele>398</ele>
    <time>2016-07-31T10:36:20Z</time>
    </trkpt>
    <trkpt lat="47.665767" lon="9.160338">
    <ele>399</ele>
    <time>2016-07-31T10:36:41Z</time>
    </trkpt>
    <trkpt lat="47.665914" lon="9.159436">
    <ele>399</ele>
    <time>2016-07-31T10:36:56Z</time>
    </trkpt>
    <trkpt lat="47.666455" lon="9.159216">
    <ele>399</ele>
    <time>2016-07-31T10:37:09Z</time>
    </trkpt>
    <trkpt lat="47.666762" lon="9.158831">
    <ele>399</ele>
    <time>2016-07-31T10:37:19Z</time>
    </trkpt>
    <trkpt lat="47.667459" lon="9.159002">
    <ele>398</ele>
    <time>2016-07-31T10:37:35Z</time>
    </trkpt>
    <trkpt lat="47.667459" lon="9.159002">
    <ele>398</ele>
    <time>2016-07-31T10:37:35Z</time>
    </trkpt>
    <trkpt lat="47.668568" lon="9.15952">
    <ele>398</ele>
    <time>2016-07-31T10:38:03Z</time>
    </trkpt>
    <trkpt lat="47.66876" lon="9.159779">
    <ele>398</ele>
    <time>2016-07-31T10:38:09Z</time>
    </trkpt>
    <trkpt lat="47.668972" lon="9.160673">
    <ele>399</ele>
    <time>2016-07-31T10:38:24Z</time>
    </trkpt>
    <trkpt lat="47.66925" lon="9.162317">
    <ele>401</ele>
    <time>2016-07-31T10:38:51Z</time>
    </trkpt>
    <trkpt lat="47.66925" lon="9.162303">
    <ele>401</ele>
    <time>2016-07-31T10:38:51Z</time>
    </trkpt>
    <trkpt lat="47.669314" lon="9.163161">
    <ele>401</ele>
    <time>2016-07-31T10:39:05Z</time>
    </trkpt>
    <trkpt lat="47.669284" lon="9.163129">
    <ele>401</ele>
    <time>2016-07-31T10:39:06Z</time>
    </trkpt>
    <trkpt lat="47.669325" lon="9.163624">
    <ele>401</ele>
    <time>2016-07-31T10:39:14Z</time>
    </trkpt>
    <trkpt lat="47.669395" lon="9.16558">
    <ele>401</ele>
    <time>2016-07-31T10:39:45Z</time>
    </trkpt>
    <trkpt lat="47.669198" lon="9.167823">
    <ele>400</ele>
    <time>2016-07-31T10:40:21Z</time>
    </trkpt>
    <trkpt lat="47.668861" lon="9.169518">
    <ele>399</ele>
    <time>2016-07-31T10:40:49Z</time>
    </trkpt>
    <trkpt lat="47.668218" lon="9.171542">
    <ele>399</ele>
    <time>2016-07-31T10:41:25Z</time>
    </trkpt>
    <trkpt lat="47.667835" lon="9.172796">
    <ele>399</ele>
    <time>2016-07-31T10:41:46Z</time>
    </trkpt>
    <trkpt lat="47.667614" lon="9.173441">
    <ele>399</ele>
    <time>2016-07-31T10:41:58Z</time>
    </trkpt>
    <trkpt lat="47.667601" lon="9.17344">
    <ele>399</ele>
    <time>2016-07-31T10:41:58Z</time>
    </trkpt>
    <trkpt lat="47.667219" lon="9.17447">
    <ele>399</ele>
    <time>2016-07-31T10:42:17Z</time>
    </trkpt>
    <trkpt lat="47.667009" lon="9.175059">
    <ele>399</ele>
    <time>2016-07-31T10:42:27Z</time>
    </trkpt>
    <trkpt lat="47.666814" lon="9.175915">
    <ele>399</ele>
    <time>2016-07-31T10:42:42Z</time>
    </trkpt>
    <trkpt lat="47.66594" lon="9.177735">
    <ele>399</ele>
    <time>2016-07-31T10:43:17Z</time>
    </trkpt>
    <trkpt lat="47.665839" lon="9.178149">
    <ele>399</ele>
    <time>2016-07-31T10:43:24Z</time>
    </trkpt>
    <trkpt lat="47.666111" lon="9.178489">
    <ele>399</ele>
    <time>2016-07-31T10:43:33Z</time>
    </trkpt>
    <trkpt lat="47.666559" lon="9.178927">
    <ele>400</ele>
    <time>2016-07-31T10:43:45Z</time>
    </trkpt>
    <trkpt lat="47.66682" lon="9.179174">
    <ele>400</ele>
    <time>2016-07-31T10:43:53Z</time>
    </trkpt>
    <trkpt lat="47.666888" lon="9.179071">
    <ele>400</ele>
    <time>2016-07-31T10:43:55Z</time>
    </trkpt>
    <trkpt lat="47.667113" lon="9.179189">
    <ele>401</ele>
    <time>2016-07-31T10:44:01Z</time>
    </trkpt>
    <trkpt lat="47.66715" lon="9.179193">
    <ele>401</ele>
    <time>2016-07-31T10:44:01Z</time>
    </trkpt>
    <trkpt lat="47.667203" lon="9.179151">
    <ele>401</ele>
    <time>2016-07-31T10:44:03Z</time>
    </trkpt>
    <trkpt lat="47.667275" lon="9.179091">
    <ele>401</ele>
    <time>2016-07-31T10:44:05Z</time>
    </trkpt>
    <trkpt lat="47.667319" lon="9.178932">
    <ele>401</ele>
    <time>2016-07-31T10:44:08Z</time>
    </trkpt>
    <trkpt lat="47.66729" lon="9.178815">
    <ele>401</ele>
    <time>2016-07-31T10:44:09Z</time>
    </trkpt>
    <trkpt lat="47.667203" lon="9.178824">
    <ele>400</ele>
    <time>2016-07-31T10:44:12Z</time>
    </trkpt>
    <trkpt lat="47.667119" lon="9.178902">
    <ele>401</ele>
    <time>2016-07-31T10:44:14Z</time>
    </trkpt>
    <trkpt lat="47.667068" lon="9.178993">
    <ele>401</ele>
    <time>2016-07-31T10:44:16Z</time>
    </trkpt>
    <trkpt lat="47.667124" lon="9.17904">
    <ele>401</ele>
    <time>2016-07-31T10:44:17Z</time>
    </trkpt>
    <trkpt lat="47.667671" lon="9.179279">
    <ele>403</ele>
    <time>2016-07-31T10:44:31Z</time>
    </trkpt>
    <trkpt lat="47.667601" lon="9.179326">
    <ele>403</ele>
    <time>2016-07-31T10:44:33Z</time>
    </trkpt>
    <trkpt lat="47.667947" lon="9.179507">
    <ele>405</ele>
    <time>2016-07-31T10:44:41Z</time>
    </trkpt>
    <trkpt lat="47.668041" lon="9.179771">
    <ele>405</ele>
    <time>2016-07-31T10:44:46Z</time>
    </trkpt>
    <trkpt lat="47.668031" lon="9.179766">
    <ele>405</ele>
    <time>2016-07-31T10:44:46Z</time>
    </trkpt>
    <trkpt lat="47.668144" lon="9.179989">
    <ele>406</ele>
    <time>2016-07-31T10:44:51Z</time>
    </trkpt>
    <trkpt lat="47.668197" lon="9.180217">
    <ele>407</ele>
    <time>2016-07-31T10:44:54Z</time>
    </trkpt>
    <trkpt lat="47.668231" lon="9.180362">
    <ele>407</ele>
    <time>2016-07-31T10:44:57Z</time>
    </trkpt>
    <trkpt lat="47.668374" lon="9.180882">
    <ele>407</ele>
    <time>2016-07-31T10:45:06Z</time>
    </trkpt>
    <trkpt lat="47.668913" lon="9.182912">
    <ele>410</ele>
    <time>2016-07-31T10:45:41Z</time>
    </trkpt>
    <trkpt lat="47.669381" lon="9.184438">
    <ele>411</ele>
    <time>2016-07-31T10:46:07Z</time>
    </trkpt>
    <trkpt lat="47.669673" lon="9.18563">
    <ele>412</ele>
    <time>2016-07-31T10:46:27Z</time>
    </trkpt>
    <trkpt lat="47.670162" lon="9.186718">
    <ele>413</ele>
    <time>2016-07-31T10:46:48Z</time>
    </trkpt>
    <trkpt lat="47.670642" lon="9.188186">
    <ele>415</ele>
    <time>2016-07-31T10:47:14Z</time>
    </trkpt>
    <trkpt lat="47.67101" lon="9.189067">
    <ele>415</ele>
    <time>2016-07-31T10:47:31Z</time>
    </trkpt>
    <trkpt lat="47.671813" lon="9.190982">
    <ele>417</ele>
    <time>2016-07-31T10:48:06Z</time>
    </trkpt>
    <trkpt lat="47.672414" lon="9.191898">
    <ele>418</ele>
    <time>2016-07-31T10:48:27Z</time>
    </trkpt>
    <trkpt lat="47.673668" lon="9.193787">
    <ele>419</ele>
    <time>2016-07-31T10:49:09Z</time>
    </trkpt>
    <trkpt lat="47.673899" lon="9.194763">
    <ele>419</ele>
    <time>2016-07-31T10:49:25Z</time>
    </trkpt>
    <trkpt lat="47.674058" lon="9.195727">
    <ele>419</ele>
    <time>2016-07-31T10:49:41Z</time>
    </trkpt>
    <trkpt lat="47.674262" lon="9.1967">
    <ele>419</ele>
    <time>2016-07-31T10:49:57Z</time>
    </trkpt>
    <trkpt lat="47.674914" lon="9.197476">
    <ele>419</ele>
    <time>2016-07-31T10:50:17Z</time>
    </trkpt>
    <trkpt lat="47.675386" lon="9.198093">
    <ele>419</ele>
    <time>2016-07-31T10:50:32Z</time>
    </trkpt>
    <trkpt lat="47.675611" lon="9.198094">
    <ele>419</ele>
    <time>2016-07-31T10:50:37Z</time>
    </trkpt>
    <trkpt lat="47.676436" lon="9.198792">
    <ele>421</ele>
    <time>2016-07-31T10:50:59Z</time>
    </trkpt>
    <trkpt lat="47.677001" lon="9.198564">
    <ele>422</ele>
    <time>2016-07-31T10:51:13Z</time>
    </trkpt>
    <trkpt lat="47.678182" lon="9.198159">
    <ele>423</ele>
    <time>2016-07-31T10:51:42Z</time>
    </trkpt>
    <trkpt lat="47.678875" lon="9.198829">
    <ele>425</ele>
    <time>2016-07-31T10:52:01Z</time>
    </trkpt>
    <trkpt lat="47.679023" lon="9.199858">
    <ele>425</ele>
    <time>2016-07-31T10:52:18Z</time>
    </trkpt>
    <trkpt lat="47.679209" lon="9.200608">
    <ele>426</ele>
    <time>2016-07-31T10:52:31Z</time>
    </trkpt>
    <trkpt lat="47.679565" lon="9.201193">
    <ele>427</ele>
    <time>2016-07-31T10:52:43Z</time>
    </trkpt>
    <trkpt lat="47.680469" lon="9.201736">
    <ele>428</ele>
    <time>2016-07-31T10:53:06Z</time>
    </trkpt>
    <trkpt lat="47.680989" lon="9.202032">
    <ele>428</ele>
    <time>2016-07-31T10:53:19Z</time>
    </trkpt>
    <trkpt lat="47.682471" lon="9.202621">
    <ele>425</ele>
    <time>2016-07-31T10:53:55Z</time>
    </trkpt>
    <trkpt lat="47.68292" lon="9.203151">
    <ele>425</ele>
    <time>2016-07-31T10:54:09Z</time>
    </trkpt>
    <trkpt lat="47.683032" lon="9.203818">
    <ele>424</ele>
    <time>2016-07-31T10:54:20Z</time>
    </trkpt>
    <trkpt lat="47.682884" lon="9.205142">
    <ele>422</ele>
    <time>2016-07-31T10:54:41Z</time>
    </trkpt>
    <trkpt lat="47.682651" lon="9.206885">
    <ele>421</ele>
    <time>2016-07-31T10:55:09Z</time>
    </trkpt>
    <trkpt lat="47.682644" lon="9.206918">
    <ele>421</ele>
    <time>2016-07-31T10:55:10Z</time>
    </trkpt>
    <trkpt lat="47.682182" lon="9.209683">
    <ele>419</ele>
    <time>2016-07-31T10:55:55Z</time>
    </trkpt>
    <trkpt lat="47.682381" lon="9.211515">
    <ele>418</ele>
    <time>2016-07-31T10:56:25Z</time>
    </trkpt>
    <trkpt lat="47.683185" lon="9.214249">
    <ele>417</ele>
    <time>2016-07-31T10:57:12Z</time>
    </trkpt>
    <trkpt lat="47.695403" lon="9.264024">
    <ele>402</ele>
    <time>2016-07-31T11:11:14Z</time>
    </trkpt>
    <trkpt lat="47.694817" lon="9.264886">
    <ele>402</ele>
    <time>2016-07-31T11:11:33Z</time>
    </trkpt>
    <trkpt lat="47.694573" lon="9.266131">
    <ele>402</ele>
    <time>2016-07-31T11:11:54Z</time>
    </trkpt>
    <trkpt lat="47.694573" lon="9.266131">
    <ele>402</ele>
    <time>2016-07-31T11:11:54Z</time>
    </trkpt>
    <trkpt lat="47.694573" lon="9.266131">
    <ele>402</ele>
    <time>2016-07-31T11:11:54Z</time>
    </trkpt>
    <trkpt lat="47.694214" lon="9.266519">
    <ele>403</ele>
    <time>2016-07-31T11:12:04Z</time>
    </trkpt>
    <trkpt lat="47.694151" lon="9.266758">
    <ele>403</ele>
    <time>2016-07-31T11:12:09Z</time>
    </trkpt>
    <trkpt lat="47.694095" lon="9.267298">
    <ele>404</ele>
    <time>2016-07-31T11:12:17Z</time>
    </trkpt>
    <trkpt lat="47.694035" lon="9.267848">
    <ele>406</ele>
    <time>2016-07-31T11:12:26Z</time>
    </trkpt>
    <trkpt lat="47.694033" lon="9.268127">
    <ele>406</ele>
    <time>2016-07-31T11:12:31Z</time>
    </trkpt>
    <trkpt lat="47.694149" lon="9.268435">
    <ele>407</ele>
    <time>2016-07-31T11:12:36Z</time>
    </trkpt>
    <trkpt lat="47.694126" lon="9.26857">
    <ele>407</ele>
    <time>2016-07-31T11:12:38Z</time>
    </trkpt>
    <trkpt lat="47.693735" lon="9.269226">
    <ele>407</ele>
    <time>2016-07-31T11:12:52Z</time>
    </trkpt>
    <trkpt lat="47.69343" lon="9.269898">
    <ele>407</ele>
    <time>2016-07-31T11:13:05Z</time>
    </trkpt>
    <trkpt lat="47.693016" lon="9.271052">
    <ele>407</ele>
    <time>2016-07-31T11:13:26Z</time>
    </trkpt>
    <trkpt lat="47.692699" lon="9.272112">
    <ele>407</ele>
    <time>2016-07-31T11:13:44Z</time>
    </trkpt>
    <trkpt lat="47.69222" lon="9.273693">
    <ele>406</ele>
    <time>2016-07-31T11:14:12Z</time>
    </trkpt>
    <trkpt lat="47.691939" lon="9.274969">
    <ele>406</ele>
    <time>2016-07-31T11:14:33Z</time>
    </trkpt>
    <trkpt lat="47.691641" lon="9.275671">
    <ele>405</ele>
    <time>2016-07-31T11:14:46Z</time>
    </trkpt>
    <trkpt lat="47.690945" lon="9.27708">
    <ele>404</ele>
    <time>2016-07-31T11:15:14Z</time>
    </trkpt>
    <trkpt lat="47.690368" lon="9.278303">
    <ele>404</ele>
    <time>2016-07-31T11:15:38Z</time>
    </trkpt>
    <trkpt lat="47.690116" lon="9.278846">
    <ele>403</ele>
    <time>2016-07-31T11:15:48Z</time>
    </trkpt>
    <trkpt lat="47.689863" lon="9.279435">
    <ele>403</ele>
    <time>2016-07-31T11:15:59Z</time>
    </trkpt>
    <trkpt lat="47.689325" lon="9.280262">
    <ele>403</ele>
    <time>2016-07-31T11:16:18Z</time>
    </trkpt>
    <trkpt lat="47.688555" lon="9.281071">
    <ele>402</ele>
    <time>2016-07-31T11:16:40Z</time>
    </trkpt>
    <trkpt lat="47.688289" lon="9.281462">
    <ele>402</ele>
    <time>2016-07-31T11:16:49Z</time>
    </trkpt>
    <trkpt lat="47.688056" lon="9.281883">
    <ele>402</ele>
    <time>2016-07-31T11:16:57Z</time>
    </trkpt>
    <trkpt lat="47.687919" lon="9.282555">
    <ele>402</ele>
    <time>2016-07-31T11:17:09Z</time>
    </trkpt>
    <trkpt lat="47.687294" lon="9.283988">
    <ele>402</ele>
    <time>2016-07-31T11:17:36Z</time>
    </trkpt>
    <trkpt lat="47.686712" lon="9.284685">
    <ele>403</ele>
    <time>2016-07-31T11:17:53Z</time>
    </trkpt>
    <trkpt lat="47.686313" lon="9.285191">
    <ele>402</ele>
    <time>2016-07-31T11:18:06Z</time>
    </trkpt>
    <trkpt lat="47.685721" lon="9.286051">
    <ele>402</ele>
    <time>2016-07-31T11:18:25Z</time>
    </trkpt>
    <trkpt lat="47.685454" lon="9.286288">
    <ele>402</ele>
    <time>2016-07-31T11:18:32Z</time>
    </trkpt>
    <trkpt lat="47.684809" lon="9.287388">
    <ele>401</ele>
    <time>2016-07-31T11:18:56Z</time>
    </trkpt>
    <trkpt lat="47.68482" lon="9.287894">
    <ele>401</ele>
    <time>2016-07-31T11:19:04Z</time>
    </trkpt>
    <trkpt lat="47.684639" lon="9.288416">
    <ele>401</ele>
    <time>2016-07-31T11:19:13Z</time>
    </trkpt>
    <trkpt lat="47.684639" lon="9.288416">
    <ele>401</ele>
    <time>2016-07-31T11:19:13Z</time>
    </trkpt>
    <trkpt lat="47.68419" lon="9.288893">
    <ele>401</ele>
    <time>2016-07-31T11:19:26Z</time>
    </trkpt>
    <trkpt lat="47.683802" lon="9.289094">
    <ele>401</ele>
    <time>2016-07-31T11:19:36Z</time>
    </trkpt>
    <trkpt lat="47.682839" lon="9.290515">
    <ele>401</ele>
    <time>2016-07-31T11:20:08Z</time>
    </trkpt>
    <trkpt lat="47.682054" lon="9.292054">
    <ele>401</ele>
    <time>2016-07-31T11:20:38Z</time>
    </trkpt>
    <trkpt lat="47.681583" lon="9.293615">
    <ele>401</ele>
    <time>2016-07-31T11:21:06Z</time>
    </trkpt>
    <trkpt lat="47.681378" lon="9.294474">
    <ele>401</ele>
    <time>2016-07-31T11:21:20Z</time>
    </trkpt>
    <trkpt lat="47.681003" lon="9.295683">
    <ele>401</ele>
    <time>2016-07-31T11:21:41Z</time>
    </trkpt>
    <trkpt lat="47.680853" lon="9.296344">
    <ele>401</ele>
    <time>2016-07-31T11:21:52Z</time>
    </trkpt>
    <trkpt lat="47.679909" lon="9.298197">
    <ele>401</ele>
    <time>2016-07-31T11:22:29Z</time>
    </trkpt>
    <trkpt lat="47.678329" lon="9.302251">
    <ele>400</ele>
    <time>2016-07-31T11:23:44Z</time>
    </trkpt>
    <trkpt lat="47.67804" lon="9.302846">
    <ele>400</ele>
    <time>2016-07-31T11:23:55Z</time>
    </trkpt>
    <trkpt lat="47.67804" lon="9.302846">
    <ele>400</ele>
    <time>2016-07-31T11:23:55Z</time>
    </trkpt>
    <trkpt lat="47.677702" lon="9.303565">
    <ele>400</ele>
    <time>2016-07-31T11:24:09Z</time>
    </trkpt>
    <trkpt lat="47.677467" lon="9.304016">
    <ele>400</ele>
    <time>2016-07-31T11:24:18Z</time>
    </trkpt>
    <trkpt lat="47.677447" lon="9.304036">
    <ele>400</ele>
    <time>2016-07-31T11:24:19Z</time>
    </trkpt>
    <trkpt lat="47.677034" lon="9.305521">
    <ele>400</ele>
    <time>2016-07-31T11:24:44Z</time>
    </trkpt>
    <trkpt lat="47.676578" lon="9.306862">
    <ele>400</ele>
    <time>2016-07-31T11:25:08Z</time>
    </trkpt>
    <trkpt lat="47.675702" lon="9.308173">
    <ele>400</ele>
    <time>2016-07-31T11:25:38Z</time>
    </trkpt>
    <trkpt lat="47.674717" lon="9.309958">
    <ele>399</ele>
    <time>2016-07-31T11:26:14Z</time>
    </trkpt>
    <trkpt lat="47.674002" lon="9.311853">
    <ele>399</ele>
    <time>2016-07-31T11:26:49Z</time>
    </trkpt>
    <trkpt lat="47.673832" lon="9.312603">
    <ele>399</ele>
    <time>2016-07-31T11:27:01Z</time>
    </trkpt>
    <trkpt lat="47.673868" lon="9.313193">
    <ele>399</ele>
    <time>2016-07-31T11:27:11Z</time>
    </trkpt>
    <trkpt lat="47.674209" lon="9.314992">
    <ele>399</ele>
    <time>2016-07-31T11:27:40Z</time>
    </trkpt>
    <trkpt lat="47.674291" lon="9.315489">
    <ele>399</ele>
    <time>2016-07-31T11:27:49Z</time>
    </trkpt>
    <trkpt lat="47.673991" lon="9.31641">
    <ele>399</ele>
    <time>2016-07-31T11:28:05Z</time>
    </trkpt>
    <trkpt lat="47.673854" lon="9.317591">
    <ele>400</ele>
    <time>2016-07-31T11:28:24Z</time>
    </trkpt>
    <trkpt lat="47.673426" lon="9.318995">
    <ele>401</ele>
    <time>2016-07-31T11:28:48Z</time>
    </trkpt>
    <trkpt lat="47.673331" lon="9.319314">
    <ele>401</ele>
    <time>2016-07-31T11:28:54Z</time>
    </trkpt>
    <trkpt lat="47.673331" lon="9.319314">
    <ele>401</ele>
    <time>2016-07-31T11:28:54Z</time>
    </trkpt>
    <trkpt lat="47.673119" lon="9.320205">
    <ele>402</ele>
    <time>2016-07-31T11:29:09Z</time>
    </trkpt>
    <trkpt lat="47.672996" lon="9.320931">
    <ele>402</ele>
    <time>2016-07-31T11:29:21Z</time>
    </trkpt>
    <trkpt lat="47.673024" lon="9.320945">
    <ele>402</ele>
    <time>2016-07-31T11:29:21Z</time>
    </trkpt>
    <trkpt lat="47.674269" lon="9.32175">
    <ele>403</ele>
    <time>2016-07-31T11:29:53Z</time>
    </trkpt>
    <trkpt lat="47.673746" lon="9.324174">
    <ele>405</ele>
    <time>2016-07-31T11:30:34Z</time>
    </trkpt>
    <trkpt lat="47.672961" lon="9.325668">
    <ele>405</ele>
    <time>2016-07-31T11:31:04Z</time>
    </trkpt>
    <trkpt lat="47.672416" lon="9.32655">
    <ele>406</ele>
    <time>2016-07-31T11:31:23Z</time>
    </trkpt>
    <trkpt lat="47.671686" lon="9.327608">
    <ele>407</ele>
    <time>2016-07-31T11:31:47Z</time>
    </trkpt>
    <trkpt lat="47.671294" lon="9.328398">
    <ele>407</ele>
    <time>2016-07-31T11:32:03Z</time>
    </trkpt>
    <trkpt lat="47.671685" lon="9.328993">
    <ele>407</ele>
    <time>2016-07-31T11:32:16Z</time>
    </trkpt>
    <trkpt lat="47.670927" lon="9.330481">
    <ele>409</ele>
    <time>2016-07-31T11:32:45Z</time>
    </trkpt>
    <trkpt lat="47.670564" lon="9.331244">
    <ele>410</ele>
    <time>2016-07-31T11:33:00Z</time>
    </trkpt>
    <trkpt lat="47.66944" lon="9.334187">
    <ele>412</ele>
    <time>2016-07-31T11:33:54Z</time>
    </trkpt>
    <trkpt lat="47.667829" lon="9.340013">
    <ele>418</ele>
    <time>2016-07-31T11:35:34Z</time>
    </trkpt>
    <trkpt lat="47.668019" lon="9.340173">
    <ele>418</ele>
    <time>2016-07-31T11:35:39Z</time>
    </trkpt>
    <trkpt lat="47.667385" lon="9.34239">
    <ele>417</ele>
    <time>2016-07-31T11:36:18Z</time>
    </trkpt>
    <trkpt lat="47.666271" lon="9.345921">
    <ele>415</ele>
    <time>2016-07-31T11:37:20Z</time>
    </trkpt>
    <trkpt lat="47.665938" lon="9.347609">
    <ele>414</ele>
    <time>2016-07-31T11:37:48Z</time>
    </trkpt>
    <trkpt lat="47.665603" lon="9.350149">
    <ele>413</ele>
    <time>2016-07-31T11:38:29Z</time>
    </trkpt>
    <trkpt lat="47.665419" lon="9.350088">
    <ele>413</ele>
    <time>2016-07-31T11:38:33Z</time>
    </trkpt>
    <trkpt lat="47.665199" lon="9.351871">
    <ele>412</ele>
    <time>2016-07-31T11:39:02Z</time>
    </trkpt>
    <trkpt lat="47.665047" lon="9.353431">
    <ele>411</ele>
    <time>2016-07-31T11:39:27Z</time>
    </trkpt>
    <trkpt lat="47.664958" lon="9.354983">
    <ele>410</ele>
    <time>2016-07-31T11:39:52Z</time>
    </trkpt>
    <trkpt lat="47.664992" lon="9.355804">
    <ele>410</ele>
    <time>2016-07-31T11:40:05Z</time>
    </trkpt>
    <trkpt lat="47.664996" lon="9.355854">
    <ele>410</ele>
    <time>2016-07-31T11:40:06Z</time>
    </trkpt>
    <trkpt lat="47.665012" lon="9.356586">
    <ele>410</ele>
    <time>2016-07-31T11:40:17Z</time>
    </trkpt>
    <trkpt lat="47.665168" lon="9.357159">
    <ele>411</ele>
    <time>2016-07-31T11:40:27Z</time>
    </trkpt>
    <trkpt lat="47.665168" lon="9.357453">
    <ele>411</ele>
    <time>2016-07-31T11:40:32Z</time>
    </trkpt>
    <trkpt lat="47.665171" lon="9.357789">
    <ele>411</ele>
    <time>2016-07-31T11:40:37Z</time>
    </trkpt>
    <trkpt lat="47.665129" lon="9.358007">
    <ele>411</ele>
    <time>2016-07-31T11:40:41Z</time>
    </trkpt>
    <trkpt lat="47.665133" lon="9.357989">
    <ele>411</ele>
    <time>2016-07-31T11:40:41Z</time>
    </trkpt>
    <trkpt lat="47.665164" lon="9.358531">
    <ele>411</ele>
    <time>2016-07-31T11:40:50Z</time>
    </trkpt>
    <trkpt lat="47.665521" lon="9.359413">
    <ele>411</ele>
    <time>2016-07-31T11:41:06Z</time>
    </trkpt>
    <trkpt lat="47.665646" lon="9.36037">
    <ele>410</ele>
    <time>2016-07-31T11:41:22Z</time>
    </trkpt>
    <trkpt lat="47.665541" lon="9.361367">
    <ele>410</ele>
    <time>2016-07-31T11:41:38Z</time>
    </trkpt>
    <trkpt lat="47.665467" lon="9.361998">
    <ele>409</ele>
    <time>2016-07-31T11:41:48Z</time>
    </trkpt>
    <trkpt lat="47.665407" lon="9.36268">
    <ele>409</ele>
    <time>2016-07-31T11:41:59Z</time>
    </trkpt>
    <trkpt lat="47.665372" lon="9.362681">
    <ele>409</ele>
    <time>2016-07-31T11:42:00Z</time>
    </trkpt>
    <trkpt lat="47.665328" lon="9.364385">
    <ele>407</ele>
    <time>2016-07-31T11:42:27Z</time>
    </trkpt>
    <trkpt lat="47.665397" lon="9.365717">
    <ele>406</ele>
    <time>2016-07-31T11:42:48Z</time>
    </trkpt>
    <trkpt lat="47.665632" lon="9.366917">
    <ele>405</ele>
    <time>2016-07-31T11:43:08Z</time>
    </trkpt>
    <trkpt lat="47.665817" lon="9.367737">
    <ele>405</ele>
    <time>2016-07-31T11:43:22Z</time>
    </trkpt>
    <trkpt lat="47.665809" lon="9.367758">
    <ele>405</ele>
    <time>2016-07-31T11:43:22Z</time>
    </trkpt>
    <trkpt lat="47.665944" lon="9.368303">
    <ele>405</ele>
    <time>2016-07-31T11:43:31Z</time>
    </trkpt>
    <trkpt lat="47.666068" lon="9.368951">
    <ele>405</ele>
    <time>2016-07-31T11:43:42Z</time>
    </trkpt>
    <trkpt lat="47.666201" lon="9.369462">
    <ele>405</ele>
    <time>2016-07-31T11:43:51Z</time>
    </trkpt>
    <trkpt lat="47.666421" lon="9.370194">
    <ele>405</ele>
    <time>2016-07-31T11:44:03Z</time>
    </trkpt>
    <trkpt lat="47.666549" lon="9.370741">
    <ele>405</ele>
    <time>2016-07-31T11:44:13Z</time>
    </trkpt>
    <trkpt lat="47.666615" lon="9.371162">
    <ele>405</ele>
    <time>2016-07-31T11:44:19Z</time>
    </trkpt>
    <trkpt lat="47.666601" lon="9.371491">
    <ele>405</ele>
    <time>2016-07-31T11:44:25Z</time>
    </trkpt>
    <trkpt lat="47.666598" lon="9.371493">
    <ele>405</ele>
    <time>2016-07-31T11:44:25Z</time>
    </trkpt>
    <trkpt lat="47.666621" lon="9.371789">
    <ele>405</ele>
    <time>2016-07-31T11:44:29Z</time>
    </trkpt>
    <trkpt lat="47.666724" lon="9.372333">
    <ele>406</ele>
    <time>2016-07-31T11:44:38Z</time>
    </trkpt>
    <trkpt lat="47.666952" lon="9.373104">
    <ele>407</ele>
    <time>2016-07-31T11:44:52Z</time>
    </trkpt>
    <trkpt lat="47.666954" lon="9.373664">
    <ele>407</ele>
    <time>2016-07-31T11:45:01Z</time>
    </trkpt>
    <trkpt lat="47.666881" lon="9.374296">
    <ele>407</ele>
    <time>2016-07-31T11:45:11Z</time>
    </trkpt>
    <trkpt lat="47.666719" lon="9.375632">
    <ele>407</ele>
    <time>2016-07-31T11:45:32Z</time>
    </trkpt>
    <trkpt lat="47.666739" lon="9.376267">
    <ele>407</ele>
    <time>2016-07-31T11:45:43Z</time>
    </trkpt>
    <trkpt lat="47.666849" lon="9.37774">
    <ele>407</ele>
    <time>2016-07-31T11:46:06Z</time>
    </trkpt>
    <trkpt lat="47.666886" lon="9.378523">
    <ele>407</ele>
    <time>2016-07-31T11:46:19Z</time>
    </trkpt>
    <trkpt lat="47.666882" lon="9.378902">
    <ele>407</ele>
    <time>2016-07-31T11:46:25Z</time>
    </trkpt>
    <trkpt lat="47.666882" lon="9.378902">
    <ele>407</ele>
    <time>2016-07-31T11:46:25Z</time>
    </trkpt>
    <trkpt lat="47.667033" lon="9.381113">
    <ele>406</ele>
    <time>2016-07-31T11:47:00Z</time>
    </trkpt>
    <trkpt lat="47.667283" lon="9.382967">
    <ele>405</ele>
    <time>2016-07-31T11:47:30Z</time>
    </trkpt>
    <trkpt lat="47.667342" lon="9.383459">
    <ele>405</ele>
    <time>2016-07-31T11:47:38Z</time>
    </trkpt>
    <trkpt lat="47.66753" lon="9.38351">
    <ele>405</ele>
    <time>2016-07-31T11:47:43Z</time>
    </trkpt>
    <trkpt lat="47.667812" lon="9.383613">
    <ele>405</ele>
    <time>2016-07-31T11:47:49Z</time>
    </trkpt>
    <trkpt lat="47.668386" lon="9.384248">
    <ele>404</ele>
    <time>2016-07-31T11:48:06Z</time>
    </trkpt>
    <trkpt lat="47.668813" lon="9.384962">
    <ele>403</ele>
    <time>2016-07-31T11:48:21Z</time>
    </trkpt>
    <trkpt lat="47.670104" lon="9.387214">
    <ele>402</ele>
    <time>2016-07-31T11:49:08Z</time>
    </trkpt>
    <trkpt lat="47.670684" lon="9.389187">
    <ele>401</ele>
    <time>2016-07-31T11:49:43Z</time>
    </trkpt>
    <trkpt lat="47.671714" lon="9.39241">
    <ele>400</ele>
    <time>2016-07-31T11:50:39Z</time>
    </trkpt>
    <trkpt lat="47.671888" lon="9.393561">
    <ele>400</ele>
    <time>2016-07-31T11:50:58Z</time>
    </trkpt>
    <trkpt lat="47.671948" lon="9.394845">
    <ele>399</ele>
    <time>2016-07-31T11:51:19Z</time>
    </trkpt>
    <trkpt lat="47.671886" lon="9.395883">
    <ele>399</ele>
    <time>2016-07-31T11:51:35Z</time>
    </trkpt>
    <trkpt lat="47.671409" lon="9.397588">
    <ele>399</ele>
    <time>2016-07-31T11:52:04Z</time>
    </trkpt>
    <trkpt lat="47.670718" lon="9.399643">
    <ele>399</ele>
    <time>2016-07-31T11:52:41Z</time>
    </trkpt>
    <trkpt lat="47.670243" lon="9.401327">
    <ele>399</ele>
    <time>2016-07-31T11:53:10Z</time>
    </trkpt>
    <trkpt lat="47.669867" lon="9.402564">
    <ele>400</ele>
    <time>2016-07-31T11:53:32Z</time>
    </trkpt>
    <trkpt lat="47.669709" lon="9.403881">
    <ele>400</ele>
    <time>2016-07-31T11:53:53Z</time>
    </trkpt>
    <trkpt lat="47.669915" lon="9.404922">
    <ele>400</ele>
    <time>2016-07-31T11:54:10Z</time>
    </trkpt>
    <trkpt lat="47.670244" lon="9.406432">
    <ele>401</ele>
    <time>2016-07-31T11:54:35Z</time>
    </trkpt>
    <trkpt lat="47.670223" lon="9.407283">
    <ele>402</ele>
    <time>2016-07-31T11:54:49Z</time>
    </trkpt>
    <trkpt lat="47.670024" lon="9.409323">
    <ele>403</ele>
    <time>2016-07-31T11:55:22Z</time>
    </trkpt>
    <trkpt lat="47.670067" lon="9.410634">
    <ele>403</ele>
    <time>2016-07-31T11:55:42Z</time>
    </trkpt>
    <trkpt lat="47.670309" lon="9.411616">
    <ele>404</ele>
    <time>2016-07-31T11:55:59Z</time>
    </trkpt>
    <trkpt lat="47.670408" lon="9.412287">
    <ele>404</ele>
    <time>2016-07-31T11:56:10Z</time>
    </trkpt>
    <trkpt lat="47.66998" lon="9.413845">
    <ele>405</ele>
    <time>2016-07-31T11:56:37Z</time>
    </trkpt>
    <trkpt lat="47.669659" lon="9.415354">
    <ele>405</ele>
    <time>2016-07-31T11:57:02Z</time>
    </trkpt>
    <trkpt lat="47.66908" lon="9.418299">
    <ele>407</ele>
    <time>2016-07-31T11:57:51Z</time>
    </trkpt>
    <trkpt lat="47.668717" lon="9.420277">
    <ele>407</ele>
    <time>2016-07-31T11:58:23Z</time>
    </trkpt>
    <trkpt lat="47.66835" lon="9.42172">
    <ele>408</ele>
    <time>2016-07-31T11:58:48Z</time>
    </trkpt>
    <trkpt lat="47.667913" lon="9.42279">
    <ele>408</ele>
    <time>2016-07-31T11:59:08Z</time>
    </trkpt>
    <trkpt lat="47.666607" lon="9.42455">
    <ele>409</ele>
    <time>2016-07-31T11:59:49Z</time>
    </trkpt>
    <trkpt lat="47.665894" lon="9.425503">
    <ele>410</ele>
    <time>2016-07-31T12:00:12Z</time>
    </trkpt>
    <trkpt lat="47.665496" lon="9.426199">
    <ele>411</ele>
    <time>2016-07-31T12:00:26Z</time>
    </trkpt>
    <trkpt lat="47.665174" lon="9.427026">
    <ele>412</ele>
    <time>2016-07-31T12:00:42Z</time>
    </trkpt>
    <trkpt lat="47.665111" lon="9.426997">
    <ele>412</ele>
    <time>2016-07-31T12:00:43Z</time>
    </trkpt>
    <trkpt lat="47.664837" lon="9.427731">
    <ele>412</ele>
    <time>2016-07-31T12:00:56Z</time>
    </trkpt>
    <trkpt lat="47.664576" lon="9.42887">
    <ele>413</ele>
    <time>2016-07-31T12:01:16Z</time>
    </trkpt>
    <trkpt lat="47.664396" lon="9.429652">
    <ele>414</ele>
    <time>2016-07-31T12:01:29Z</time>
    </trkpt>
    <trkpt lat="47.664214" lon="9.430384">
    <ele>415</ele>
    <time>2016-07-31T12:01:41Z</time>
    </trkpt>
    <trkpt lat="47.66406" lon="9.430861">
    <ele>415</ele>
    <time>2016-07-31T12:01:50Z</time>
    </trkpt>
    <trkpt lat="47.664041" lon="9.430754">
    <ele>415</ele>
    <time>2016-07-31T12:01:51Z</time>
    </trkpt>
    <trkpt lat="47.663534" lon="9.431863">
    <ele>416</ele>
    <time>2016-07-31T12:02:13Z</time>
    </trkpt>
    <trkpt lat="47.663021" lon="9.432565">
    <ele>417</ele>
    <time>2016-07-31T12:02:29Z</time>
    </trkpt>
    <trkpt lat="47.661861" lon="9.433719">
    <ele>418</ele>
    <time>2016-07-31T12:03:02Z</time>
    </trkpt>
    <trkpt lat="47.661155" lon="9.43444">
    <ele>418</ele>
    <time>2016-07-31T12:03:22Z</time>
    </trkpt>
    <trkpt lat="47.66023" lon="9.435646">
    <ele>419</ele>
    <time>2016-07-31T12:03:51Z</time>
    </trkpt>
    <trkpt lat="47.659503" lon="9.436888">
    <ele>418</ele>
    <time>2016-07-31T12:04:17Z</time>
    </trkpt>
    <trkpt lat="47.659123" lon="9.438638">
    <ele>417</ele>
    <time>2016-07-31T12:04:47Z</time>
    </trkpt>
    <trkpt lat="47.658928" lon="9.441493">
    <ele>414</ele>
    <time>2016-07-31T12:05:32Z</time>
    </trkpt>
    <trkpt lat="47.658913" lon="9.443853">
    <ele>412</ele>
    <time>2016-07-31T12:06:10Z</time>
    </trkpt>
    <trkpt lat="47.658913" lon="9.443853">
    <ele>412</ele>
    <time>2016-07-31T12:06:10Z</time>
    </trkpt>
    <trkpt lat="47.658798" lon="9.445628">
    <ele>411</ele>
    <time>2016-07-31T12:06:38Z</time>
    </trkpt>
    <trkpt lat="47.658607" lon="9.447137">
    <ele>411</ele>
    <time>2016-07-31T12:07:02Z</time>
    </trkpt>
    <trkpt lat="47.658266" lon="9.447007">
    <ele>411</ele>
    <time>2016-07-31T12:07:11Z</time>
    </trkpt>
    <trkpt lat="47.657929" lon="9.448847">
    <ele>411</ele>
    <time>2016-07-31T12:07:41Z</time>
    </trkpt>
    <trkpt lat="47.657444" lon="9.450671">
    <ele>411</ele>
    <time>2016-07-31T12:08:12Z</time>
    </trkpt>
    <trkpt lat="47.656715" lon="9.452791">
    <ele>411</ele>
    <time>2016-07-31T12:08:50Z</time>
    </trkpt>
    <trkpt lat="47.655739" lon="9.454898">
    <ele>411</ele>
    <time>2016-07-31T12:09:31Z</time>
    </trkpt>
    <trkpt lat="47.65484" lon="9.456932">
    <ele>411</ele>
    <time>2016-07-31T12:10:09Z</time>
    </trkpt>
    <trkpt lat="47.653511" lon="9.459626">
    <ele>411</ele>
    <time>2016-07-31T12:11:02Z</time>
    </trkpt>
    <trkpt lat="47.652911" lon="9.460754">
    <ele>411</ele>
    <time>2016-07-31T12:11:25Z</time>
    </trkpt>
    <trkpt lat="47.652469" lon="9.462282">
    <ele>410</ele>
    <time>2016-07-31T12:11:52Z</time>
    </trkpt>
    <trkpt lat="47.652483" lon="9.463813">
    <ele>409</ele>
    <time>2016-07-31T12:12:16Z</time>
    </trkpt>
    <trkpt lat="47.652389" lon="9.463681">
    <ele>409</ele>
    <time>2016-07-31T12:12:19Z</time>
    </trkpt>
    <trkpt lat="47.651495" lon="9.463941">
    <ele>408</ele>
    <time>2016-07-31T12:12:41Z</time>
    </trkpt>
    <trkpt lat="47.650708" lon="9.464107">
    <ele>407</ele>
    <time>2016-07-31T12:12:59Z</time>
    </trkpt>
    <trkpt lat="47.650841" lon="9.465429">
    <ele>407</ele>
    <time>2016-07-31T12:13:21Z</time>
    </trkpt>
    <trkpt lat="47.650907" lon="9.466191">
    <ele>407</ele>
    <time>2016-07-31T12:13:33Z</time>
    </trkpt>
    <trkpt lat="47.65151" lon="9.468063">
    <ele>407</ele>
    <time>2016-07-31T12:14:06Z</time>
    </trkpt>
    <trkpt lat="47.651894" lon="9.469129">
    <ele>406</ele>
    <time>2016-07-31T12:14:25Z</time>
    </trkpt>
    <trkpt lat="47.652284" lon="9.469387">
    <ele>406</ele>
    <time>2016-07-31T12:14:35Z</time>
    </trkpt>
    <trkpt lat="47.652284" lon="9.469387">
    <ele>406</ele>
    <time>2016-07-31T12:14:35Z</time>
    </trkpt>
    <trkpt lat="47.65222" lon="9.471107">
    <ele>406</ele>
    <time>2016-07-31T12:15:02Z</time>
    </trkpt>
    <trkpt lat="47.65212" lon="9.47318">
    <ele>405</ele>
    <time>2016-07-31T12:15:36Z</time>
    </trkpt>
    <trkpt lat="47.652054" lon="9.475644">
    <ele>404</ele>
    <time>2016-07-31T12:16:15Z</time>
    </trkpt>
    <trkpt lat="47.651937" lon="9.477124">
    <ele>404</ele>
    <time>2016-07-31T12:16:38Z</time>
    </trkpt>
    <trkpt lat="47.651796" lon="9.477207">
    <ele>404</ele>
    <time>2016-07-31T12:16:42Z</time>
    </trkpt>
    <trkpt lat="47.650764" lon="9.478087">
    <ele>402</ele>
    <time>2016-07-31T12:17:10Z</time>
    </trkpt>
    <trkpt lat="47.650745" lon="9.478048">
    <ele>402</ele>
    <time>2016-07-31T12:17:11Z</time>
    </trkpt>
    <trkpt lat="47.650282" lon="9.478504">
    <ele>402</ele>
    <time>2016-07-31T12:17:24Z</time>
    </trkpt>
    <trkpt lat="47.649929" lon="9.478887">
    <ele>401</ele>
    <time>2016-07-31T12:17:34Z</time>
    </trkpt>
    <trkpt lat="47.649678" lon="9.47948">
    <ele>401</ele>
    <time>2016-07-31T12:17:45Z</time>
    </trkpt>
    <trkpt lat="47.649654" lon="9.480466">
    <ele>401</ele>
    <time>2016-07-31T12:18:01Z</time>
    </trkpt>
    <trkpt lat="47.650029" lon="9.481347">
    <ele>401</ele>
    <time>2016-07-31T12:18:18Z</time>
    </trkpt>
    <trkpt lat="47.650748" lon="9.482726">
    <ele>400</ele>
    <time>2016-07-31T12:18:45Z</time>
    </trkpt>
    <trkpt lat="47.650983" lon="9.483093">
    <ele>400</ele>
    <time>2016-07-31T12:18:53Z</time>
    </trkpt>
    <trkpt lat="47.650983" lon="9.483093">
    <ele>400</ele>
    <time>2016-07-31T12:18:53Z</time>
    </trkpt>
    <trkpt lat="47.651219" lon="9.483356">
    <ele>400</ele>
    <time>2016-07-31T12:19:00Z</time>
    </trkpt>
    <trkpt lat="47.651224" lon="9.483318">
    <ele>400</ele>
    <time>2016-07-31T12:19:01Z</time>
    </trkpt>
    <trkpt lat="47.651362" lon="9.483492">
    <ele>400</ele>
    <time>2016-07-31T12:19:05Z</time>
    </trkpt>
    <trkpt lat="47.651805" lon="9.482945">
    <ele>401</ele>
    <time>2016-07-31T12:19:19Z</time>
    </trkpt>
    <trkpt lat="47.651996" lon="9.48318">
    <ele>401</ele>
    <time>2016-07-31T12:19:25Z</time>
    </trkpt>
    <trkpt lat="47.651996" lon="9.48318">
    <ele>401</ele>
    <time>2016-07-31T12:19:25Z</time>
    </trkpt>
    <trkpt lat="47.652258" lon="9.483043">
    <ele>401</ele>
    <time>2016-07-31T12:19:31Z</time>
    </trkpt>
    <trkpt lat="47.652653" lon="9.483134">
    <ele>401</ele>
    <time>2016-07-31T12:19:41Z</time>
    </trkpt>
    <trkpt lat="47.652653" lon="9.483134">
    <ele>401</ele>
    <time>2016-07-31T12:19:41Z</time>
    </trkpt>
    <trkpt lat="47.652649" lon="9.484093">
    <ele>401</ele>
    <time>2016-07-31T12:19:56Z</time>
    </trkpt>
    <trkpt lat="47.652644" lon="9.485217">
    <ele>401</ele>
    <time>2016-07-31T12:20:14Z</time>
    </trkpt>
    <trkpt lat="47.652623" lon="9.48593">
    <ele>401</ele>
    <time>2016-07-31T12:20:25Z</time>
    </trkpt>
    <trkpt lat="47.652657" lon="9.486616">
    <ele>401</ele>
    <time>2016-07-31T12:20:36Z</time>
    </trkpt>
    <trkpt lat="47.652661" lon="9.487385">
    <ele>401</ele>
    <time>2016-07-31T12:20:48Z</time>
    </trkpt>
    <trkpt lat="47.652666" lon="9.488781">
    <ele>401</ele>
    <time>2016-07-31T12:21:10Z</time>
    </trkpt>
    <trkpt lat="47.65253" lon="9.490206">
    <ele>400</ele>
    <time>2016-07-31T12:21:33Z</time>
    </trkpt>
    <trkpt lat="47.652471" lon="9.491137">
    <ele>400</ele>
    <time>2016-07-31T12:21:48Z</time>
    </trkpt>
    <trkpt lat="47.652115" lon="9.492011">
    <ele>400</ele>
    <time>2016-07-31T12:22:04Z</time>
    </trkpt>
    <trkpt lat="47.651984" lon="9.492218">
    <ele>400</ele>
    <time>2016-07-31T12:22:09Z</time>
    </trkpt>
    <trkpt lat="47.651387" lon="9.493348">
    <ele>400</ele>
    <time>2016-07-31T12:22:32Z</time>
    </trkpt>
    <trkpt lat="47.651263" lon="9.494064">
    <ele>399</ele>
    <time>2016-07-31T12:22:44Z</time>
    </trkpt>
    <trkpt lat="47.650592" lon="9.495918">
    <ele>399</ele>
    <time>2016-07-31T12:23:17Z</time>
    </trkpt>
    <trkpt lat="47.650592" lon="9.495918">
    <ele>399</ele>
    <time>2016-07-31T12:23:17Z</time>
    </trkpt>
    <trkpt lat="47.650161" lon="9.497151">
    <ele>399</ele>
    <time>2016-07-31T12:23:39Z</time>
    </trkpt>
    <trkpt lat="47.650161" lon="9.497151">
    <ele>399</ele>
    <time>2016-07-31T12:23:39Z</time>
    </trkpt>
    <trkpt lat="47.649662" lon="9.497173">
    <ele>399</ele>
    <time>2016-07-31T12:23:51Z</time>
    </trkpt>
    <trkpt lat="47.64961" lon="9.497785">
    <ele>399</ele>
    <time>2016-07-31T12:24:01Z</time>
    </trkpt>
    <trkpt lat="47.649605" lon="9.498093">
    <ele>399</ele>
    <time>2016-07-31T12:24:05Z</time>
    </trkpt>
    <trkpt lat="47.649138" lon="9.499533">
    <ele>400</ele>
    <time>2016-07-31T12:24:31Z</time>
    </trkpt>
    <trkpt lat="47.648831" lon="9.500523">
    <ele>400</ele>
    <time>2016-07-31T12:24:48Z</time>
    </trkpt>
    <trkpt lat="47.648487" lon="9.501864">
    <ele>400</ele>
    <time>2016-07-31T12:25:11Z</time>
    </trkpt>
    <trkpt lat="47.648314" lon="9.502223">
    <ele>401</ele>
    <time>2016-07-31T12:25:18Z</time>
    </trkpt>
    <trkpt lat="47.648094" lon="9.502901">
    <ele>401</ele>
    <time>2016-07-31T12:25:30Z</time>
    </trkpt>
    <trkpt lat="47.648094" lon="9.502901">
    <ele>401</ele>
    <time>2016-07-31T12:25:30Z</time>
    </trkpt>
    <trkpt lat="47.647209" lon="9.503523">
    <ele>401</ele>
    <time>2016-07-31T12:25:53Z</time>
    </trkpt>
    <trkpt lat="47.647048" lon="9.50347">
    <ele>401</ele>
    <time>2016-07-31T12:25:57Z</time>
    </trkpt>
    <trkpt lat="47.64645" lon="9.504275">
    <ele>400</ele>
    <time>2016-07-31T12:26:16Z</time>
    </trkpt>
    <trkpt lat="47.645161" lon="9.506171">
    <ele>400</ele>
    <time>2016-07-31T12:26:59Z</time>
    </trkpt>
    <trkpt lat="47.643638" lon="9.508274">
    <ele>399</ele>
    <time>2016-07-31T12:27:48Z</time>
    </trkpt>
    <trkpt lat="47.643638" lon="9.508274">
    <ele>399</ele>
    <time>2016-07-31T12:27:48Z</time>
    </trkpt>
    <trkpt lat="47.642543" lon="9.509734">
    <ele>399</ele>
    <time>2016-07-31T12:28:23Z</time>
    </trkpt>
    <trkpt lat="47.639727" lon="9.513744">
    <ele>399</ele>
    <time>2016-07-31T12:29:55Z</time>
    </trkpt>
    <trkpt lat="47.639172" lon="9.514569">
    <ele>399</ele>
    <time>2016-07-31T12:30:13Z</time>
    </trkpt>
    <trkpt lat="47.63792" lon="9.516241">
    <ele>399</ele>
    <time>2016-07-31T12:30:53Z</time>
    </trkpt>
    <trkpt lat="47.636041" lon="9.518806">
    <ele>399</ele>
    <time>2016-07-31T12:31:53Z</time>
    </trkpt>
    <trkpt lat="47.634657" lon="9.520534">
    <ele>399</ele>
    <time>2016-07-31T12:32:36Z</time>
    </trkpt>
    <trkpt lat="47.633539" lon="9.521654">
    <ele>399</ele>
    <time>2016-07-31T12:33:07Z</time>
    </trkpt>
    <trkpt lat="47.632088" lon="9.522901">
    <ele>399</ele>
    <time>2016-07-31T12:33:47Z</time>
    </trkpt>
    <trkpt lat="47.631999" lon="9.52297">
    <ele>399</ele>
    <time>2016-07-31T12:33:49Z</time>
    </trkpt>
    <trkpt lat="47.630233" lon="9.524714">
    <ele>398</ele>
    <time>2016-07-31T12:34:39Z</time>
    </trkpt>
    <trkpt lat="47.629759" lon="9.524989">
    <ele>398</ele>
    <time>2016-07-31T12:34:51Z</time>
    </trkpt>
    <trkpt lat="47.628585" lon="9.525369">
    <ele>398</ele>
    <time>2016-07-31T12:35:19Z</time>
    </trkpt>
    <trkpt lat="47.628619" lon="9.526125">
    <ele>398</ele>
    <time>2016-07-31T12:35:32Z</time>
    </trkpt>
    <trkpt lat="47.62699" lon="9.52678">
    <ele>398</ele>
    <time>2016-07-31T12:36:11Z</time>
    </trkpt>
    <trkpt lat="47.62682" lon="9.526862">
    <ele>398</ele>
    <time>2016-07-31T12:36:16Z</time>
    </trkpt>
    <trkpt lat="47.627081" lon="9.527564">
    <ele>398</ele>
    <time>2016-07-31T12:36:28Z</time>
    </trkpt>
    <trkpt lat="47.626892" lon="9.527646">
    <ele>398</ele>
    <time>2016-07-31T12:36:33Z</time>
    </trkpt>
    <trkpt lat="47.62598" lon="9.528588">
    <ele>398</ele>
    <time>2016-07-31T12:36:59Z</time>
    </trkpt>
    <trkpt lat="47.624081" lon="9.53033">
    <ele>399</ele>
    <time>2016-07-31T12:37:52Z</time>
    </trkpt>
    <trkpt lat="47.624091" lon="9.530358">
    <ele>399</ele>
    <time>2016-07-31T12:37:52Z</time>
    </trkpt>
    <trkpt lat="47.622581" lon="9.531699">
    <ele>399</ele>
    <time>2016-07-31T12:38:34Z</time>
    </trkpt>
    <trkpt lat="47.621757" lon="9.532097">
    <ele>399</ele>
    <time>2016-07-31T12:38:54Z</time>
    </trkpt>
    <trkpt lat="47.620224" lon="9.532431">
    <ele>398</ele>
    <time>2016-07-31T12:39:31Z</time>
    </trkpt>
    <trkpt lat="47.620289" lon="9.532515">
    <ele>398</ele>
    <time>2016-07-31T12:39:33Z</time>
    </trkpt>
    <trkpt lat="47.620173" lon="9.532134">
    <ele>399</ele>
    <time>2016-07-31T12:39:39Z</time>
    </trkpt>
    <trkpt lat="47.619807" lon="9.531931">
    <ele>399</ele>
    <time>2016-07-31T12:39:48Z</time>
    </trkpt>
    <trkpt lat="47.61987" lon="9.530664">
    <ele>400</ele>
    <time>2016-07-31T12:40:09Z</time>
    </trkpt>
    <trkpt lat="47.619873" lon="9.530022">
    <ele>400</ele>
    <time>2016-07-31T12:40:19Z</time>
    </trkpt>
    <trkpt lat="47.619703" lon="9.529879">
    <ele>400</ele>
    <time>2016-07-31T12:40:24Z</time>
    </trkpt>
    <trkpt lat="47.619189" lon="9.530474">
    <ele>400</ele>
    <time>2016-07-31T12:40:39Z</time>
    </trkpt>
    <trkpt lat="47.618879" lon="9.530562">
    <ele>400</ele>
    <time>2016-07-31T12:40:46Z</time>
    </trkpt>
    <trkpt lat="47.618047" lon="9.530891">
    <ele>400</ele>
    <time>2016-07-31T12:41:07Z</time>
    </trkpt>
    <trkpt lat="47.61807" lon="9.530953">
    <ele>400</ele>
    <time>2016-07-31T12:41:08Z</time>
    </trkpt>
    <trkpt lat="47.617384" lon="9.531107">
    <ele>399</ele>
    <time>2016-07-31T12:41:24Z</time>
    </trkpt>
    <trkpt lat="47.616271" lon="9.530684">
    <ele>399</ele>
    <time>2016-07-31T12:41:51Z</time>
    </trkpt>
    <trkpt lat="47.615493" lon="9.530473">
    <ele>399</ele>
    <time>2016-07-31T12:42:10Z</time>
    </trkpt>
    <trkpt lat="47.614302" lon="9.530586">
    <ele>400</ele>
    <time>2016-07-31T12:42:38Z</time>
    </trkpt>
    <trkpt lat="47.613323" lon="9.530891">
    <ele>400</ele>
    <time>2016-07-31T12:43:01Z</time>
    </trkpt>
    <trkpt lat="47.613344" lon="9.531004">
    <ele>400</ele>
    <time>2016-07-31T12:43:03Z</time>
    </trkpt>
    <trkpt lat="47.613153" lon="9.530701">
    <ele>400</ele>
    <time>2016-07-31T12:43:10Z</time>
    </trkpt>
    <trkpt lat="47.612831" lon="9.529904">
    <ele>401</ele>
    <time>2016-07-31T12:43:25Z</time>
    </trkpt>
    <trkpt lat="47.612651" lon="9.528998">
    <ele>401</ele>
    <time>2016-07-31T12:43:40Z</time>
    </trkpt>
    <trkpt lat="47.61267" lon="9.528919">
    <ele>401</ele>
    <time>2016-07-31T12:43:41Z</time>
    </trkpt>
    <trkpt lat="47.611503" lon="9.529112">
    <ele>403</ele>
    <time>2016-07-31T12:44:09Z</time>
    </trkpt>
    <trkpt lat="47.610008" lon="9.529543">
    <ele>403</ele>
    <time>2016-07-31T12:44:44Z</time>
    </trkpt>
    <trkpt lat="47.608565" lon="9.530026">
    <ele>402</ele>
    <time>2016-07-31T12:45:19Z</time>
    </trkpt>
    <trkpt lat="47.607929" lon="9.529479">
    <ele>402</ele>
    <time>2016-07-31T12:45:37Z</time>
    </trkpt>
    <trkpt lat="47.60732" lon="9.529418">
    <ele>402</ele>
    <time>2016-07-31T12:45:51Z</time>
    </trkpt>
    <trkpt lat="47.605653" lon="9.529644">
    <ele>401</ele>
    <time>2016-07-31T12:46:30Z</time>
    </trkpt>
    <trkpt lat="47.605381" lon="9.529952">
    <ele>401</ele>
    <time>2016-07-31T12:46:38Z</time>
    </trkpt>
    <trkpt lat="47.604963" lon="9.530084">
    <ele>401</ele>
    <time>2016-07-31T12:46:49Z</time>
    </trkpt>
    <trkpt lat="47.604461" lon="9.529871">
    <ele>400</ele>
    <time>2016-07-31T12:47:01Z</time>
    </trkpt>
    <trkpt lat="47.603847" lon="9.529726">
    <ele>400</ele>
    <time>2016-07-31T12:47:15Z</time>
    </trkpt>
    <trkpt lat="47.603361" lon="9.529933">
    <ele>400</ele>
    <time>2016-07-31T12:47:27Z</time>
    </trkpt>
    <trkpt lat="47.603074" lon="9.530184">
    <ele>400</ele>
    <time>2016-07-31T12:47:35Z</time>
    </trkpt>
    <trkpt lat="47.602855" lon="9.530806">
    <ele>400</ele>
    <time>2016-07-31T12:47:46Z</time>
    </trkpt>
    <trkpt lat="47.602764" lon="9.531926">
    <ele>399</ele>
    <time>2016-07-31T12:48:04Z</time>
    </trkpt>
    <trkpt lat="47.602508" lon="9.532714">
    <ele>399</ele>
    <time>2016-07-31T12:48:18Z</time>
    </trkpt>
    <trkpt lat="47.601873" lon="9.533667">
    <ele>399</ele>
    <time>2016-07-31T12:48:40Z</time>
    </trkpt>
    <trkpt lat="47.601339" lon="9.534155">
    <ele>399</ele>
    <time>2016-07-31T12:48:54Z</time>
    </trkpt>
    <trkpt lat="47.600636" lon="9.534534">
    <ele>399</ele>
    <time>2016-07-31T12:49:12Z</time>
    </trkpt>
    <trkpt lat="47.600145" lon="9.534969">
    <ele>399</ele>
    <time>2016-07-31T12:49:25Z</time>
    </trkpt>
    <trkpt lat="47.599625" lon="9.535739">
    <ele>399</ele>
    <time>2016-07-31T12:49:43Z</time>
    </trkpt>
    <trkpt lat="47.598967" lon="9.536736">
    <ele>399</ele>
    <time>2016-07-31T12:50:05Z</time>
    </trkpt>
    <trkpt lat="47.598985" lon="9.536764">
    <ele>399</ele>
    <time>2016-07-31T12:50:06Z</time>
    </trkpt>
    <trkpt lat="47.598446" lon="9.537237">
    <ele>399</ele>
    <time>2016-07-31T12:50:20Z</time>
    </trkpt>
    <trkpt lat="47.598029" lon="9.537818">
    <ele>399</ele>
    <time>2016-07-31T12:50:34Z</time>
    </trkpt>
    <trkpt lat="47.597791" lon="9.53824">
    <ele>400</ele>
    <time>2016-07-31T12:50:43Z</time>
    </trkpt>
    <trkpt lat="47.597384" lon="9.538964">
    <ele>400</ele>
    <time>2016-07-31T12:50:58Z</time>
    </trkpt>
    <trkpt lat="47.59709" lon="9.539337">
    <ele>400</ele>
    <time>2016-07-31T12:51:07Z</time>
    </trkpt>
    <trkpt lat="47.59672" lon="9.539633">
    <ele>400</ele>
    <time>2016-07-31T12:51:17Z</time>
    </trkpt>
    <trkpt lat="47.596566" lon="9.539916">
    <ele>400</ele>
    <time>2016-07-31T12:51:22Z</time>
    </trkpt>
    <trkpt lat="47.596466" lon="9.540096">
    <ele>400</ele>
    <time>2016-07-31T12:51:26Z</time>
    </trkpt>
    <trkpt lat="47.596169" lon="9.540562">
    <ele>399</ele>
    <time>2016-07-31T12:51:36Z</time>
    </trkpt>
    <trkpt lat="47.595966" lon="9.542029">
    <ele>399</ele>
    <time>2016-07-31T12:52:00Z</time>
    </trkpt>
    <trkpt lat="47.595952" lon="9.54231">
    <ele>399</ele>
    <time>2016-07-31T12:52:05Z</time>
    </trkpt>
    <trkpt lat="47.595664" lon="9.542969">
    <ele>399</ele>
    <time>2016-07-31T12:52:17Z</time>
    </trkpt>
    <trkpt lat="47.595299" lon="9.543563">
    <ele>399</ele>
    <time>2016-07-31T12:52:30Z</time>
    </trkpt>
    <trkpt lat="47.594467" lon="9.544403">
    <ele>399</ele>
    <time>2016-07-31T12:52:54Z</time>
    </trkpt>
    <trkpt lat="47.593637" lon="9.544879">
    <ele>399</ele>
    <time>2016-07-31T12:53:15Z</time>
    </trkpt>
    <trkpt lat="47.592972" lon="9.545271">
    <ele>399</ele>
    <time>2016-07-31T12:53:31Z</time>
    </trkpt>
    <trkpt lat="47.592737" lon="9.546309">
    <ele>399</ele>
    <time>2016-07-31T12:53:49Z</time>
    </trkpt>
    <trkpt lat="47.592794" lon="9.546893">
    <ele>399</ele>
    <time>2016-07-31T12:53:58Z</time>
    </trkpt>
    <trkpt lat="47.592702" lon="9.547616">
    <ele>399</ele>
    <time>2016-07-31T12:54:10Z</time>
    </trkpt>
    <trkpt lat="47.592604" lon="9.548531">
    <ele>399</ele>
    <time>2016-07-31T12:54:25Z</time>
    </trkpt>
    <trkpt lat="47.592701" lon="9.549161">
    <ele>399</ele>
    <time>2016-07-31T12:54:35Z</time>
    </trkpt>
    <trkpt lat="47.592892" lon="9.549961">
    <ele>399</ele>
    <time>2016-07-31T12:54:48Z</time>
    </trkpt>
    <trkpt lat="47.593323" lon="9.550943">
    <ele>400</ele>
    <time>2016-07-31T12:55:07Z</time>
    </trkpt>
    <trkpt lat="47.593323" lon="9.550943">
    <ele>400</ele>
    <time>2016-07-31T12:55:07Z</time>
    </trkpt>
    <trkpt lat="47.594197" lon="9.552971">
    <ele>400</ele>
    <time>2016-07-31T12:55:45Z</time>
    </trkpt>
    <trkpt lat="47.594761" lon="9.553897">
    <ele>401</ele>
    <time>2016-07-31T12:56:05Z</time>
    </trkpt>
    <trkpt lat="47.59628" lon="9.556364">
    <ele>402</ele>
    <time>2016-07-31T12:56:58Z</time>
    </trkpt>
    <trkpt lat="47.59666" lon="9.556934">
    <ele>402</ele>
    <time>2016-07-31T12:57:11Z</time>
    </trkpt>
    <trkpt lat="47.596914" lon="9.557098">
    <ele>402</ele>
    <time>2016-07-31T12:57:18Z</time>
    </trkpt>
    <trkpt lat="47.596939" lon="9.557279">
    <ele>402</ele>
    <time>2016-07-31T12:57:21Z</time>
    </trkpt>
    <trkpt lat="47.596845" lon="9.558501">
    <ele>402</ele>
    <time>2016-07-31T12:57:40Z</time>
    </trkpt>
    <trkpt lat="47.596695" lon="9.559376">
    <ele>403</ele>
    <time>2016-07-31T12:57:55Z</time>
    </trkpt>
    <trkpt lat="47.596571" lon="9.559951">
    <ele>403</ele>
    <time>2016-07-31T12:58:04Z</time>
    </trkpt>
    <trkpt lat="47.596764" lon="9.559987">
    <ele>403</ele>
    <time>2016-07-31T12:58:09Z</time>
    </trkpt>
    <trkpt lat="47.596897" lon="9.560304">
    <ele>403</ele>
    <time>2016-07-31T12:58:15Z</time>
    </trkpt>
    <trkpt lat="47.59642" lon="9.561736">
    <ele>402</ele>
    <time>2016-07-31T12:58:40Z</time>
    </trkpt>
    <trkpt lat="47.596223" lon="9.562475">
    <ele>402</ele>
    <time>2016-07-31T12:58:53Z</time>
    </trkpt>
    <trkpt lat="47.59604" lon="9.562987">
    <ele>402</ele>
    <time>2016-07-31T12:59:02Z</time>
    </trkpt>
    <trkpt lat="47.59604" lon="9.562987">
    <ele>402</ele>
    <time>2016-07-31T12:59:02Z</time>
    </trkpt>
    <trkpt lat="47.59589" lon="9.563592">
    <ele>402</ele>
    <time>2016-07-31T12:59:12Z</time>
    </trkpt>
    <trkpt lat="47.595634" lon="9.563372">
    <ele>402</ele>
    <time>2016-07-31T12:59:19Z</time>
    </trkpt>
    <trkpt lat="47.595334" lon="9.564714">
    <ele>402</ele>
    <time>2016-07-31T12:59:42Z</time>
    </trkpt>
    <trkpt lat="47.595188" lon="9.565996">
    <ele>402</ele>
    <time>2016-07-31T13:00:02Z</time>
    </trkpt>
    <trkpt lat="47.595109" lon="9.567148">
    <ele>402</ele>
    <time>2016-07-31T13:00:21Z</time>
    </trkpt>
    <trkpt lat="47.595104" lon="9.568114">
    <ele>402</ele>
    <time>2016-07-31T13:00:36Z</time>
    </trkpt>
    <trkpt lat="47.595073" lon="9.568288">
    <ele>402</ele>
    <time>2016-07-31T13:00:39Z</time>
    </trkpt>
    <trkpt lat="47.594647" lon="9.568541">
    <ele>402</ele>
    <time>2016-07-31T13:00:50Z</time>
    </trkpt>
    <trkpt lat="47.593987" lon="9.568873">
    <ele>401</ele>
    <time>2016-07-31T13:01:06Z</time>
    </trkpt>
    <trkpt lat="47.593581" lon="9.569158">
    <ele>401</ele>
    <time>2016-07-31T13:01:17Z</time>
    </trkpt>
    <trkpt lat="47.592927" lon="9.568619">
    <ele>401</ele>
    <time>2016-07-31T13:01:34Z</time>
    </trkpt>
    <trkpt lat="47.592311" lon="9.568013">
    <ele>400</ele>
    <time>2016-07-31T13:01:52Z</time>
    </trkpt>
    <trkpt lat="47.592196" lon="9.567641">
    <ele>400</ele>
    <time>2016-07-31T13:01:58Z</time>
    </trkpt>
    <trkpt lat="47.592069" lon="9.567363">
    <ele>400</ele>
    <time>2016-07-31T13:02:04Z</time>
    </trkpt>
    <trkpt lat="47.591369" lon="9.566869">
    <ele>400</ele>
    <time>2016-07-31T13:02:22Z</time>
    </trkpt>
    <trkpt lat="47.590815" lon="9.566549">
    <ele>400</ele>
    <time>2016-07-31T13:02:36Z</time>
    </trkpt>
    <trkpt lat="47.58989" lon="9.566506">
    <ele>399</ele>
    <time>2016-07-31T13:02:58Z</time>
    </trkpt>
    <trkpt lat="47.589298" lon="9.566911">
    <ele>399</ele>
    <time>2016-07-31T13:03:13Z</time>
    </trkpt>
    <trkpt lat="47.588866" lon="9.56736">
    <ele>399</ele>
    <time>2016-07-31T13:03:26Z</time>
    </trkpt>
    <trkpt lat="47.588902" lon="9.567457">
    <ele>399</ele>
    <time>2016-07-31T13:03:27Z</time>
    </trkpt>
    <trkpt lat="47.589393" lon="9.568906">
    <ele>399</ele>
    <time>2016-07-31T13:03:53Z</time>
    </trkpt>
    <trkpt lat="47.589327" lon="9.569614">
    <ele>399</ele>
    <time>2016-07-31T13:04:05Z</time>
    </trkpt>
    <trkpt lat="47.588943" lon="9.571981">
    <ele>399</ele>
    <time>2016-07-31T13:04:43Z</time>
    </trkpt>
    <trkpt lat="47.588759" lon="9.57289">
    <ele>399</ele>
    <time>2016-07-31T13:04:58Z</time>
    </trkpt>
    <trkpt lat="47.589036" lon="9.573333">
    <ele>399</ele>
    <time>2016-07-31T13:05:08Z</time>
    </trkpt>
    <trkpt lat="47.589655" lon="9.574162">
    <ele>399</ele>
    <time>2016-07-31T13:05:28Z</time>
    </trkpt>
    <trkpt lat="47.590122" lon="9.575571">
    <ele>399</ele>
    <time>2016-07-31T13:05:53Z</time>
    </trkpt>
    <trkpt lat="47.589741" lon="9.576101">
    <ele>399</ele>
    <time>2016-07-31T13:06:05Z</time>
    </trkpt>
    <trkpt lat="47.589424" lon="9.576476">
    <ele>399</ele>
    <time>2016-07-31T13:06:15Z</time>
    </trkpt>
    <trkpt lat="47.589229" lon="9.577695">
    <ele>399</ele>
    <time>2016-07-31T13:06:34Z</time>
    </trkpt>
    <trkpt lat="47.589029" lon="9.579422">
    <ele>400</ele>
    <time>2016-07-31T13:07:02Z</time>
    </trkpt>
    <trkpt lat="47.588922" lon="9.580554">
    <ele>400</ele>
    <time>2016-07-31T13:07:21Z</time>
    </trkpt>
    <trkpt lat="47.588946" lon="9.580739">
    <ele>401</ele>
    <time>2016-07-31T13:07:24Z</time>
    </trkpt>
    <trkpt lat="47.588839" lon="9.581294">
    <ele>401</ele>
    <time>2016-07-31T13:07:33Z</time>
    </trkpt>
    <trkpt lat="47.588844" lon="9.582479">
    <ele>401</ele>
    <time>2016-07-31T13:07:52Z</time>
    </trkpt>
    <trkpt lat="47.588865" lon="9.583016">
    <ele>401</ele>
    <time>2016-07-31T13:08:00Z</time>
    </trkpt>
    <trkpt lat="47.588797" lon="9.584233">
    <ele>401</ele>
    <time>2016-07-31T13:08:20Z</time>
    </trkpt>
    <trkpt lat="47.588717" lon="9.585138">
    <ele>401</ele>
    <time>2016-07-31T13:08:34Z</time>
    </trkpt>
    <trkpt lat="47.588671" lon="9.587777">
    <ele>399</ele>
    <time>2016-07-31T13:09:16Z</time>
    </trkpt>
    <trkpt lat="47.588793" lon="9.589364">
    <ele>399</ele>
    <time>2016-07-31T13:09:42Z</time>
    </trkpt>
    <trkpt lat="47.589051" lon="9.590769">
    <ele>399</ele>
    <time>2016-07-31T13:10:05Z</time>
    </trkpt>
    <trkpt lat="47.589089" lon="9.591189">
    <ele>399</ele>
    <time>2016-07-31T13:10:12Z</time>
    </trkpt>
    <trkpt lat="47.589097" lon="9.591355">
    <ele>399</ele>
    <time>2016-07-31T13:10:14Z</time>
    </trkpt>
    <trkpt lat="47.589207" lon="9.593307">
    <ele>400</ele>
    <time>2016-07-31T13:10:45Z</time>
    </trkpt>
    <trkpt lat="47.589149" lon="9.594606">
    <ele>400</ele>
    <time>2016-07-31T13:11:06Z</time>
    </trkpt>
    <trkpt lat="47.588768" lon="9.595941">
    <ele>401</ele>
    <time>2016-07-31T13:11:29Z</time>
    </trkpt>
    <trkpt lat="47.588669" lon="9.596757">
    <ele>401</ele>
    <time>2016-07-31T13:11:42Z</time>
    </trkpt>
    <trkpt lat="47.588363" lon="9.597501">
    <ele>401</ele>
    <time>2016-07-31T13:11:56Z</time>
    </trkpt>
    <trkpt lat="47.588066" lon="9.59819">
    <ele>401</ele>
    <time>2016-07-31T13:12:09Z</time>
    </trkpt>
    <trkpt lat="47.587942" lon="9.598602">
    <ele>401</ele>
    <time>2016-07-31T13:12:17Z</time>
    </trkpt>
    <trkpt lat="47.588283" lon="9.59933">
    <ele>401</ele>
    <time>2016-07-31T13:12:31Z</time>
    </trkpt>
    <trkpt lat="47.588283" lon="9.59933">
    <ele>401</ele>
    <time>2016-07-31T13:12:31Z</time>
    </trkpt>
    <trkpt lat="47.587865" lon="9.599741">
    <ele>401</ele>
    <time>2016-07-31T13:12:42Z</time>
    </trkpt>
    <trkpt lat="47.587268" lon="9.60086">
    <ele>401</ele>
    <time>2016-07-31T13:13:05Z</time>
    </trkpt>
    <trkpt lat="47.586788" lon="9.601525">
    <ele>402</ele>
    <time>2016-07-31T13:13:21Z</time>
    </trkpt>
    <trkpt lat="47.586695" lon="9.60214">
    <ele>402</ele>
    <time>2016-07-31T13:13:31Z</time>
    </trkpt>
    <trkpt lat="47.58648" lon="9.602703">
    <ele>402</ele>
    <time>2016-07-31T13:13:41Z</time>
    </trkpt>
    <trkpt lat="47.585429" lon="9.603829">
    <ele>403</ele>
    <time>2016-07-31T13:14:11Z</time>
    </trkpt>
    <trkpt lat="47.584473" lon="9.604314">
    <ele>403</ele>
    <time>2016-07-31T13:14:35Z</time>
    </trkpt>
    <trkpt lat="47.584473" lon="9.604314">
    <ele>403</ele>
    <time>2016-07-31T13:14:35Z</time>
    </trkpt>
    <trkpt lat="47.583663" lon="9.604619">
    <ele>403</ele>
    <time>2016-07-31T13:14:55Z</time>
    </trkpt>
    <trkpt lat="47.582768" lon="9.605174">
    <ele>403</ele>
    <time>2016-07-31T13:15:18Z</time>
    </trkpt>
    <trkpt lat="47.582247" lon="9.605407">
    <ele>403</ele>
    <time>2016-07-31T13:15:31Z</time>
    </trkpt>
    <trkpt lat="47.581196" lon="9.605721">
    <ele>403</ele>
    <time>2016-07-31T13:15:56Z</time>
    </trkpt>
    <trkpt lat="47.579437" lon="9.605741">
    <ele>403</ele>
    <time>2016-07-31T13:16:37Z</time>
    </trkpt>
    <trkpt lat="47.578761" lon="9.606386">
    <ele>403</ele>
    <time>2016-07-31T13:16:56Z</time>
    </trkpt>
    <trkpt lat="47.578124" lon="9.606878">
    <ele>403</ele>
    <time>2016-07-31T13:17:13Z</time>
    </trkpt>
    <trkpt lat="47.577362" lon="9.607884">
    <ele>402</ele>
    <time>2016-07-31T13:17:37Z</time>
    </trkpt>
    <trkpt lat="47.576662" lon="9.608769">
    <ele>402</ele>
    <time>2016-07-31T13:17:59Z</time>
    </trkpt>
    <trkpt lat="47.57654" lon="9.608752">
    <ele>402</ele>
    <time>2016-07-31T13:18:02Z</time>
    </trkpt>
    <trkpt lat="47.576164" lon="9.608105">
    <ele>402</ele>
    <time>2016-07-31T13:18:15Z</time>
    </trkpt>
    <trkpt lat="47.575057" lon="9.607975">
    <ele>402</ele>
    <time>2016-07-31T13:18:42Z</time>
    </trkpt>
    <trkpt lat="47.574753" lon="9.608213">
    <ele>402</ele>
    <time>2016-07-31T13:18:50Z</time>
    </trkpt>
    <trkpt lat="47.574753" lon="9.608213">
    <ele>402</ele>
    <time>2016-07-31T13:18:50Z</time>
    </trkpt>
    <trkpt lat="47.574374" lon="9.60847">
    <ele>402</ele>
    <time>2016-07-31T13:18:59Z</time>
    </trkpt>
    <trkpt lat="47.574004" lon="9.608739">
    <ele>402</ele>
    <time>2016-07-31T13:19:09Z</time>
    </trkpt>
    <trkpt lat="47.573355" lon="9.608927">
    <ele>403</ele>
    <time>2016-07-31T13:19:25Z</time>
    </trkpt>
    <trkpt lat="47.572957" lon="9.609292">
    <ele>404</ele>
    <time>2016-07-31T13:19:36Z</time>
    </trkpt>
    <trkpt lat="47.57309" lon="9.609879">
    <ele>405</ele>
    <time>2016-07-31T13:19:46Z</time>
    </trkpt>
    <trkpt lat="47.573305" lon="9.610672">
    <ele>405</ele>
    <time>2016-07-31T13:19:59Z</time>
    </trkpt>
    <trkpt lat="47.573356" lon="9.610708">
    <ele>406</ele>
    <time>2016-07-31T13:20:01Z</time>
    </trkpt>
    <trkpt lat="47.572653" lon="9.612283">
    <ele>405</ele>
    <time>2016-07-31T13:20:31Z</time>
    </trkpt>
    <trkpt lat="47.57188" lon="9.614528">
    <ele>405</ele>
    <time>2016-07-31T13:21:11Z</time>
    </trkpt>
    <trkpt lat="47.571956" lon="9.615479">
    <ele>404</ele>
    <time>2016-07-31T13:21:26Z</time>
    </trkpt>
    <trkpt lat="47.572178" lon="9.616462">
    <ele>404</ele>
    <time>2016-07-31T13:21:42Z</time>
    </trkpt>
    <trkpt lat="47.571966" lon="9.618962">
    <ele>404</ele>
    <time>2016-07-31T13:22:23Z</time>
    </trkpt>
    <trkpt lat="47.571699" lon="9.622031">
    <ele>403</ele>
    <time>2016-07-31T13:23:12Z</time>
    </trkpt>
    <trkpt lat="47.571574" lon="9.623265">
    <ele>402</ele>
    <time>2016-07-31T13:23:32Z</time>
    </trkpt>
    <trkpt lat="47.571441" lon="9.624143">
    <ele>402</ele>
    <time>2016-07-31T13:23:46Z</time>
    </trkpt>
    <trkpt lat="47.571343" lon="9.625343">
    <ele>401</ele>
    <time>2016-07-31T13:24:05Z</time>
    </trkpt>
    <trkpt lat="47.571133" lon="9.626087">
    <ele>401</ele>
    <time>2016-07-31T13:24:18Z</time>
    </trkpt>
    <trkpt lat="47.571201" lon="9.626479">
    <ele>401</ele>
    <time>2016-07-31T13:24:25Z</time>
    </trkpt>
    <trkpt lat="47.571554" lon="9.626971">
    <ele>401</ele>
    <time>2016-07-31T13:24:36Z</time>
    </trkpt>
    <trkpt lat="47.571748" lon="9.627604">
    <ele>400</ele>
    <time>2016-07-31T13:24:47Z</time>
    </trkpt>
    <trkpt lat="47.571811" lon="9.628355">
    <ele>400</ele>
    <time>2016-07-31T13:24:59Z</time>
    </trkpt>
    <trkpt lat="47.571458" lon="9.629633">
    <ele>400</ele>
    <time>2016-07-31T13:25:21Z</time>
    </trkpt>
    <trkpt lat="47.571422" lon="9.629721">
    <ele>400</ele>
    <time>2016-07-31T13:25:23Z</time>
    </trkpt>
    <trkpt lat="47.571059" lon="9.630519">
    <ele>399</ele>
    <time>2016-07-31T13:25:38Z</time>
    </trkpt>
    <trkpt lat="47.570555" lon="9.631253">
    <ele>399</ele>
    <time>2016-07-31T13:25:55Z</time>
    </trkpt>
    <trkpt lat="47.570125" lon="9.631603">
    <ele>399</ele>
    <time>2016-07-31T13:26:06Z</time>
    </trkpt>
    <trkpt lat="47.569792" lon="9.631688">
    <ele>399</ele>
    <time>2016-07-31T13:26:14Z</time>
    </trkpt>
    <trkpt lat="47.569609" lon="9.631645">
    <ele>399</ele>
    <time>2016-07-31T13:26:19Z</time>
    </trkpt>
    <trkpt lat="47.569129" lon="9.631298">
    <ele>399</ele>
    <time>2016-07-31T13:26:31Z</time>
    </trkpt>
    <trkpt lat="47.568807" lon="9.631198">
    <ele>399</ele>
    <time>2016-07-31T13:26:39Z</time>
    </trkpt>
    <trkpt lat="47.568531" lon="9.631304">
    <ele>399</ele>
    <time>2016-07-31T13:26:46Z</time>
    </trkpt>
    <trkpt lat="47.568363" lon="9.631989">
    <ele>400</ele>
    <time>2016-07-31T13:26:57Z</time>
    </trkpt>
    <trkpt lat="47.568178" lon="9.633034">
    <ele>400</ele>
    <time>2016-07-31T13:27:15Z</time>
    </trkpt>
    <trkpt lat="47.568286" lon="9.633971">
    <ele>400</ele>
    <time>2016-07-31T13:27:30Z</time>
    </trkpt>
    <trkpt lat="47.568384" lon="9.634961">
    <ele>401</ele>
    <time>2016-07-31T13:27:46Z</time>
    </trkpt>
    <trkpt lat="47.5687" lon="9.635607">
    <ele>401</ele>
    <time>2016-07-31T13:27:58Z</time>
    </trkpt>
    <trkpt lat="47.569301" lon="9.636554">
    <ele>401</ele>
    <time>2016-07-31T13:28:19Z</time>
    </trkpt>
    <trkpt lat="47.569686" lon="9.637115">
    <ele>401</ele>
    <time>2016-07-31T13:28:32Z</time>
    </trkpt>
    <trkpt lat="47.569982" lon="9.63754">
    <ele>402</ele>
    <time>2016-07-31T13:28:41Z</time>
    </trkpt>
    <trkpt lat="47.570061" lon="9.638045">
    <ele>402</ele>
    <time>2016-07-31T13:28:50Z</time>
    </trkpt>
    <trkpt lat="47.570133" lon="9.638508">
    <ele>402</ele>
    <time>2016-07-31T13:28:57Z</time>
    </trkpt>
    <trkpt lat="47.569637" lon="9.638489">
    <ele>402</ele>
    <time>2016-07-31T13:29:09Z</time>
    </trkpt>
    <trkpt lat="47.569225" lon="9.638385">
    <ele>402</ele>
    <time>2016-07-31T13:29:19Z</time>
    </trkpt>
    <trkpt lat="47.568939" lon="9.638732">
    <ele>402</ele>
    <time>2016-07-31T13:29:27Z</time>
    </trkpt>
    <trkpt lat="47.568776" lon="9.63992">
    <ele>402</ele>
    <time>2016-07-31T13:29:47Z</time>
    </trkpt>
    <trkpt lat="47.568515" lon="9.641447">
    <ele>401</ele>
    <time>2016-07-31T13:30:12Z</time>
    </trkpt>
    <trkpt lat="47.568004" lon="9.641546">
    <ele>402</ele>
    <time>2016-07-31T13:30:24Z</time>
    </trkpt>
    <trkpt lat="47.567439" lon="9.641594">
    <ele>402</ele>
    <time>2016-07-31T13:30:37Z</time>
    </trkpt>
    <trkpt lat="47.566834" lon="9.641782">
    <ele>402</ele>
    <time>2016-07-31T13:30:52Z</time>
    </trkpt>
    <trkpt lat="47.56645" lon="9.642285">
    <ele>403</ele>
    <time>2016-07-31T13:31:04Z</time>
    </trkpt>
    <trkpt lat="47.566093" lon="9.643031">
    <ele>403</ele>
    <time>2016-07-31T13:31:19Z</time>
    </trkpt>
    <trkpt lat="47.565454" lon="9.64404">
    <ele>403</ele>
    <time>2016-07-31T13:31:41Z</time>
    </trkpt>
    <trkpt lat="47.564768" lon="9.644861">
    <ele>403</ele>
    <time>2016-07-31T13:32:01Z</time>
    </trkpt>
    <trkpt lat="47.563444" lon="9.645978">
    <ele>403</ele>
    <time>2016-07-31T13:32:37Z</time>
    </trkpt>
    <trkpt lat="47.563081" lon="9.646237">
    <ele>403</ele>
    <time>2016-07-31T13:32:47Z</time>
    </trkpt>
    <trkpt lat="47.562652" lon="9.64673">
    <ele>403</ele>
    <time>2016-07-31T13:32:59Z</time>
    </trkpt>
    <trkpt lat="47.5623" lon="9.647213">
    <ele>404</ele>
    <time>2016-07-31T13:33:11Z</time>
    </trkpt>
    <trkpt lat="47.562001" lon="9.647905">
    <ele>405</ele>
    <time>2016-07-31T13:33:24Z</time>
    </trkpt>
    <trkpt lat="47.561837" lon="9.649021">
    <ele>407</ele>
    <time>2016-07-31T13:33:42Z</time>
    </trkpt>
    <trkpt lat="47.561514" lon="9.65091">
    <ele>411</ele>
    <time>2016-07-31T13:34:13Z</time>
    </trkpt>
    <trkpt lat="47.56142" lon="9.651767">
    <ele>412</ele>
    <time>2016-07-31T13:34:27Z</time>
    </trkpt>
    <trkpt lat="47.561315" lon="9.652193">
    <ele>413</ele>
    <time>2016-07-31T13:34:34Z</time>
    </trkpt>
    <trkpt lat="47.560498" lon="9.65303">
    <ele>413</ele>
    <time>2016-07-31T13:34:58Z</time>
    </trkpt>
    <trkpt lat="47.559949" lon="9.653581">
    <ele>414</ele>
    <time>2016-07-31T13:35:13Z</time>
    </trkpt>
    <trkpt lat="47.559561" lon="9.654131">
    <ele>414</ele>
    <time>2016-07-31T13:35:26Z</time>
    </trkpt>
    <trkpt lat="47.559462" lon="9.65464">
    <ele>414</ele>
    <time>2016-07-31T13:35:34Z</time>
    </trkpt>
    <trkpt lat="47.559558" lon="9.654687">
    <ele>414</ele>
    <time>2016-07-31T13:35:37Z</time>
    </trkpt>
    <trkpt lat="47.559848" lon="9.655438">
    <ele>414</ele>
    <time>2016-07-31T13:35:50Z</time>
    </trkpt>
    <trkpt lat="47.560081" lon="9.657071">
    <ele>414</ele>
    <time>2016-07-31T13:36:17Z</time>
    </trkpt>
    <trkpt lat="47.560422" lon="9.659469">
    <ele>414</ele>
    <time>2016-07-31T13:36:56Z</time>
    </trkpt>
    <trkpt lat="47.560508" lon="9.660367">
    <ele>414</ele>
    <time>2016-07-31T13:37:11Z</time>
    </trkpt>
    <trkpt lat="47.560587" lon="9.660697">
    <ele>414</ele>
    <time>2016-07-31T13:37:16Z</time>
    </trkpt>
    <trkpt lat="47.560586" lon="9.660772">
    <ele>414</ele>
    <time>2016-07-31T13:37:17Z</time>
    </trkpt>
    <trkpt lat="47.560614" lon="9.661251">
    <ele>414</ele>
    <time>2016-07-31T13:37:25Z</time>
    </trkpt>
    <trkpt lat="47.560535" lon="9.662611">
    <ele>414</ele>
    <time>2016-07-31T13:37:47Z</time>
    </trkpt>
    <trkpt lat="47.560515" lon="9.662611">
    <ele>414</ele>
    <time>2016-07-31T13:37:47Z</time>
    </trkpt>
    <trkpt lat="47.560216" lon="9.663579">
    <ele>414</ele>
    <time>2016-07-31T13:38:04Z</time>
    </trkpt>
    <trkpt lat="47.559854" lon="9.664936">
    <ele>412</ele>
    <time>2016-07-31T13:38:27Z</time>
    </trkpt>
    <trkpt lat="47.559895" lon="9.666537">
    <ele>411</ele>
    <time>2016-07-31T13:38:53Z</time>
    </trkpt>
    <trkpt lat="47.56" lon="9.667705">
    <ele>410</ele>
    <time>2016-07-31T13:39:12Z</time>
    </trkpt>
    <trkpt lat="47.56002" lon="9.667975">
    <ele>410</ele>
    <time>2016-07-31T13:39:16Z</time>
    </trkpt>
    <trkpt lat="47.560101" lon="9.668923">
    <ele>409</ele>
    <time>2016-07-31T13:39:31Z</time>
    </trkpt>
    <trkpt lat="47.559417" lon="9.670544">
    <ele>408</ele>
    <time>2016-07-31T13:40:02Z</time>
    </trkpt>
    <trkpt lat="47.559434" lon="9.670765">
    <ele>407</ele>
    <time>2016-07-31T13:40:05Z</time>
    </trkpt>
    <trkpt lat="47.559044" lon="9.67238">
    <ele>406</ele>
    <time>2016-07-31T13:40:33Z</time>
    </trkpt>
    <trkpt lat="47.558598" lon="9.674672">
    <ele>405</ele>
    <time>2016-07-31T13:41:11Z</time>
    </trkpt>
    <trkpt lat="47.55839" lon="9.679018">
    <ele>403</ele>
    <time>2016-07-31T13:42:20Z</time>
    </trkpt>
    <trkpt lat="47.558168" lon="9.679132">
    <ele>403</ele>
    <time>2016-07-31T13:42:26Z</time>
    </trkpt>
    <trkpt lat="47.55723" lon="9.67937">
    <ele>402</ele>
    <time>2016-07-31T13:42:48Z</time>
    </trkpt>
    <trkpt lat="47.55723" lon="9.67937">
    <ele>402</ele>
    <time>2016-07-31T13:42:48Z</time>
    </trkpt>
    <trkpt lat="47.555901" lon="9.680129">
    <ele>401</ele>
    <time>2016-07-31T13:43:21Z</time>
    </trkpt>
    <trkpt lat="47.555119" lon="9.680441">
    <ele>401</ele>
    <time>2016-07-31T13:43:41Z</time>
    </trkpt>
    <trkpt lat="47.554638" lon="9.680426">
    <ele>400</ele>
    <time>2016-07-31T13:43:52Z</time>
    </trkpt>
    <trkpt lat="47.554034" lon="9.680798">
    <ele>400</ele>
    <time>2016-07-31T13:44:07Z</time>
    </trkpt>
    <trkpt lat="47.553538" lon="9.681377">
    <ele>399</ele>
    <time>2016-07-31T13:44:22Z</time>
    </trkpt>
    <trkpt lat="47.552835" lon="9.682555">
    <ele>398</ele>
    <time>2016-07-31T13:44:47Z</time>
    </trkpt>
    <trkpt lat="47.552629" lon="9.682956">
    <ele>398</ele>
    <time>2016-07-31T13:44:55Z</time>
    </trkpt>
    <trkpt lat="47.552625" lon="9.68294">
    <ele>398</ele>
    <time>2016-07-31T13:44:55Z</time>
    </trkpt>
    <trkpt lat="47.552383" lon="9.683533">
    <ele>398</ele>
    <time>2016-07-31T13:45:07Z</time>
    </trkpt>
    <trkpt lat="47.552179" lon="9.684411">
    <ele>399</ele>
    <time>2016-07-31T13:45:21Z</time>
    </trkpt>
    <trkpt lat="47.551997" lon="9.685417">
    <ele>399</ele>
    <time>2016-07-31T13:45:38Z</time>
    </trkpt>
    <trkpt lat="47.551923" lon="9.686367">
    <ele>399</ele>
    <time>2016-07-31T13:45:53Z</time>
    </trkpt>
    <trkpt lat="47.552011" lon="9.687225">
    <ele>399</ele>
    <time>2016-07-31T13:46:07Z</time>
    </trkpt>
    <trkpt lat="47.552069" lon="9.687689">
    <ele>399</ele>
    <time>2016-07-31T13:46:15Z</time>
    </trkpt>
    <trkpt lat="47.552116" lon="9.687785">
    <ele>399</ele>
    <time>2016-07-31T13:46:16Z</time>
    </trkpt>
    <trkpt lat="47.552097" lon="9.687934">
    <ele>399</ele>
    <time>2016-07-31T13:46:19Z</time>
    </trkpt>
    <trkpt lat="47.552" lon="9.688711">
    <ele>399</ele>
    <time>2016-07-31T13:46:31Z</time>
    </trkpt>
    <trkpt lat="47.551718" lon="9.689495">
    <ele>399</ele>
    <time>2016-07-31T13:46:46Z</time>
    </trkpt>
    <trkpt lat="47.551298" lon="9.689839">
    <ele>398</ele>
    <time>2016-07-31T13:46:57Z</time>
    </trkpt>
    <trkpt lat="47.550861" lon="9.690288">
    <ele>398</ele>
    <time>2016-07-31T13:47:09Z</time>
    </trkpt>
    <trkpt lat="47.550606" lon="9.690719">
    <ele>398</ele>
    <time>2016-07-31T13:47:18Z</time>
    </trkpt>
    <trkpt lat="47.550407" lon="9.691156">
    <ele>398</ele>
    <time>2016-07-31T13:47:27Z</time>
    </trkpt>
    <trkpt lat="47.550195" lon="9.691657">
    <ele>398</ele>
    <time>2016-07-31T13:47:36Z</time>
    </trkpt>
    <trkpt lat="47.550214" lon="9.69183">
    <ele>398</ele>
    <time>2016-07-31T13:47:39Z</time>
    </trkpt>
    <trkpt lat="47.550291" lon="9.691958">
    <ele>398</ele>
    <time>2016-07-31T13:47:42Z</time>
    </trkpt>
    <trkpt lat="47.550224" lon="9.692045">
    <ele>398</ele>
    <time>2016-07-31T13:47:44Z</time>
    </trkpt>
    <trkpt lat="47.550217" lon="9.692329">
    <ele>398</ele>
    <time>2016-07-31T13:47:48Z</time>
    </trkpt>
    <trkpt lat="47.55038" lon="9.692494">
    <ele>399</ele>
    <time>2016-07-31T13:47:53Z</time>
    </trkpt>
    <trkpt lat="47.550544" lon="9.69322">
    <ele>399</ele>
    <time>2016-07-31T13:48:05Z</time>
    </trkpt>
    <trkpt lat="47.550711" lon="9.693836">
    <ele>399</ele>
    <time>2016-07-31T13:48:16Z</time>
    </trkpt>
    <trkpt lat="47.55132" lon="9.694666">
    <ele>400</ele>
    <time>2016-07-31T13:48:35Z</time>
    </trkpt>
    <trkpt lat="47.551506" lon="9.695707">
    <ele>400</ele>
    <time>2016-07-31T13:48:53Z</time>
    </trkpt>
    <trkpt lat="47.551601" lon="9.696425">
    <ele>401</ele>
    <time>2016-07-31T13:49:04Z</time>
    </trkpt>
    <trkpt lat="47.551709" lon="9.69666">
    <ele>401</ele>
    <time>2016-07-31T13:49:09Z</time>
    </trkpt>
    <trkpt lat="47.551849" lon="9.696673">
    <ele>401</ele>
    <time>2016-07-31T13:49:12Z</time>
    </trkpt>
    <trkpt lat="47.551813" lon="9.696833">
    <ele>401</ele>
    <time>2016-07-31T13:49:15Z</time>
    </trkpt>
    <trkpt lat="47.551824" lon="9.698001">
    <ele>400</ele>
    <time>2016-07-31T13:49:33Z</time>
    </trkpt>
    <trkpt lat="47.551804" lon="9.698796">
    <ele>400</ele>
    <time>2016-07-31T13:49:46Z</time>
    </trkpt>
    <trkpt lat="47.551773" lon="9.700157">
    <ele>399</ele>
    <time>2016-07-31T13:50:08Z</time>
    </trkpt>
    <trkpt lat="47.551751" lon="9.700796">
    <ele>399</ele>
    <time>2016-07-31T13:50:18Z</time>
    </trkpt>
    <trkpt lat="47.551404" lon="9.70203">
    <ele>398</ele>
    <time>2016-07-31T13:50:39Z</time>
    </trkpt>
    <trkpt lat="47.551282" lon="9.702675">
    <ele>398</ele>
    <time>2016-07-31T13:50:50Z</time>
    </trkpt>
    <trkpt lat="47.551165" lon="9.703734">
    <ele>397</ele>
    <time>2016-07-31T13:51:07Z</time>
    </trkpt>
    <trkpt lat="47.551093" lon="9.705253">
    <ele>397</ele>
    <time>2016-07-31T13:51:31Z</time>
    </trkpt>
    <trkpt lat="47.551121" lon="9.705977">
    <ele>397</ele>
    <time>2016-07-31T13:51:43Z</time>
    </trkpt>
    <trkpt lat="47.551063" lon="9.706804">
    <ele>397</ele>
    <time>2016-07-31T13:51:56Z</time>
    </trkpt>
    <trkpt lat="47.550978" lon="9.707489">
    <ele>396</ele>
    <time>2016-07-31T13:52:07Z</time>
    </trkpt>
    <trkpt lat="47.550964" lon="9.707995">
    <ele>396</ele>
    <time>2016-07-31T13:52:15Z</time>
    </trkpt>
    <trkpt lat="47.550928" lon="9.708751">
    <ele>396</ele>
    <time>2016-07-31T13:52:27Z</time>
    </trkpt>
    <trkpt lat="47.551003" lon="9.70949">
    <ele>396</ele>
    <time>2016-07-31T13:52:39Z</time>
    </trkpt>
    <trkpt lat="47.55112" lon="9.710375">
    <ele>396</ele>
    <time>2016-07-31T13:52:54Z</time>
    </trkpt>
    <trkpt lat="47.551044" lon="9.711669">
    <ele>397</ele>
    <time>2016-07-31T13:53:14Z</time>
    </trkpt>
    <trkpt lat="47.550883" lon="9.713319">
    <ele>398</ele>
    <time>2016-07-31T13:53:41Z</time>
    </trkpt>
    <trkpt lat="47.550869" lon="9.713953">
    <ele>399</ele>
    <time>2016-07-31T13:53:51Z</time>
    </trkpt>
    <trkpt lat="47.550898" lon="9.714264">
    <ele>399</ele>
    <time>2016-07-31T13:53:56Z</time>
    </trkpt>
    <trkpt lat="47.550987" lon="9.714244">
    <ele>399</ele>
    <time>2016-07-31T13:53:58Z</time>
    </trkpt>
    <trkpt lat="47.550494" lon="9.714253">
    <ele>399</ele>
    <time>2016-07-31T13:54:10Z</time>
    </trkpt>
    <trkpt lat="47.550112" lon="9.714998">
    <ele>399</ele>
    <time>2016-07-31T13:54:25Z</time>
    </trkpt>
    <trkpt lat="47.549893" lon="9.715664">
    <ele>399</ele>
    <time>2016-07-31T13:54:36Z</time>
    </trkpt>
    <trkpt lat="47.549732" lon="9.716151">
    <ele>399</ele>
    <time>2016-07-31T13:54:45Z</time>
    </trkpt>
    <trkpt lat="47.549546" lon="9.716748">
    <ele>399</ele>
    <time>2016-07-31T13:54:55Z</time>
    </trkpt>
    <trkpt lat="47.549407" lon="9.717189">
    <ele>399</ele>
    <time>2016-07-31T13:55:03Z</time>
    </trkpt>
    <trkpt lat="47.549076" lon="9.717836">
    <ele>399</ele>
    <time>2016-07-31T13:55:16Z</time>
    </trkpt>
    <trkpt lat="47.548776" lon="9.718435">
    <ele>398</ele>
    <time>2016-07-31T13:55:28Z</time>
    </trkpt>
    <trkpt lat="47.548441" lon="9.718834">
    <ele>398</ele>
    <time>2016-07-31T13:55:38Z</time>
    </trkpt>
    <trkpt lat="47.548078" lon="9.71926">
    <ele>398</ele>
    <time>2016-07-31T13:55:49Z</time>
    </trkpt>
    <trkpt lat="47.54767" lon="9.719721">
    <ele>398</ele>
    <time>2016-07-31T13:56:01Z</time>
    </trkpt>
    <trkpt lat="47.547114" lon="9.720333">
    <ele>398</ele>
    <time>2016-07-31T13:56:17Z</time>
    </trkpt>
    <trkpt lat="47.546703" lon="9.720921">
    <ele>399</ele>
    <time>2016-07-31T13:56:31Z</time>
    </trkpt>
    <trkpt lat="47.546242" lon="9.721489">
    <ele>399</ele>
    <time>2016-07-31T13:56:45Z</time>
    </trkpt>
    <trkpt lat="47.545883" lon="9.721955">
    <ele>399</ele>
    <time>2016-07-31T13:56:56Z</time>
    </trkpt>
    <trkpt lat="47.54538" lon="9.722569">
    <ele>400</ele>
    <time>2016-07-31T13:57:12Z</time>
    </trkpt>
    <trkpt lat="47.544785" lon="9.723498">
    <ele>399</ele>
    <time>2016-07-31T13:57:32Z</time>
    </trkpt>
    <trkpt lat="47.544342" lon="9.724258">
    <ele>399</ele>
    <time>2016-07-31T13:57:48Z</time>
    </trkpt>
    <trkpt lat="47.543796" lon="9.725089">
    <ele>399</ele>
    <time>2016-07-31T13:58:07Z</time>
    </trkpt>
    <trkpt lat="47.543259" lon="9.725951">
    <ele>399</ele>
    <time>2016-07-31T13:58:25Z</time>
    </trkpt>
    <trkpt lat="47.542807" lon="9.726751">
    <ele>399</ele>
    <time>2016-07-31T13:58:42Z</time>
    </trkpt>
    <trkpt lat="47.542236" lon="9.727833">
    <ele>399</ele>
    <time>2016-07-31T13:59:04Z</time>
    </trkpt>
    <trkpt lat="47.541988" lon="9.728066">
    <ele>399</ele>
    <time>2016-07-31T13:59:11Z</time>
    </trkpt>
    <trkpt lat="47.541668" lon="9.728333">
    <ele>399</ele>
    <time>2016-07-31T13:59:19Z</time>
    </trkpt>
    <trkpt lat="47.54" lon="9.729549">
    <ele>399</ele>
    <time>2016-07-31T14:00:03Z</time>
    </trkpt>
    <trkpt lat="47.538066" lon="9.731094">
    <ele>399</ele>
    <time>2016-07-31T14:00:55Z</time>
    </trkpt>
    <trkpt lat="47.536771" lon="9.732181">
    <ele>400</ele>
    <time>2016-07-31T14:01:30Z</time>
    </trkpt>
    <trkpt lat="47.535901" lon="9.733148">
    <ele>400</ele>
    <time>2016-07-31T14:01:55Z</time>
    </trkpt>
    <trkpt lat="47.535181" lon="9.733971">
    <ele>400</ele>
    <time>2016-07-31T14:02:17Z</time>
    </trkpt>
    <trkpt lat="47.53513" lon="9.734094">
    <ele>400</ele>
    <time>2016-07-31T14:02:19Z</time>
    </trkpt>
    <trkpt lat="47.534999" lon="9.734855">
    <ele>400</ele>
    <time>2016-07-31T14:02:32Z</time>
    </trkpt>
    <trkpt lat="47.534135" lon="9.736037">
    <ele>400</ele>
    <time>2016-07-31T14:02:59Z</time>
    </trkpt>
    <trkpt lat="47.534109" lon="9.736053">
    <ele>400</ele>
    <time>2016-07-31T14:03:00Z</time>
    </trkpt>
    <trkpt lat="47.532327" lon="9.738666">
    <ele>399</ele>
    <time>2016-07-31T14:03:59Z</time>
    </trkpt>
    <trkpt lat="47.531044" lon="9.740421">
    <ele>398</ele>
    <time>2016-07-31T14:04:40Z</time>
    </trkpt>
    <trkpt lat="47.529561" lon="9.742245">
    <ele>398</ele>
    <time>2016-07-31T14:05:26Z</time>
    </trkpt>
    <trkpt lat="47.529577" lon="9.74223">
    <ele>398</ele>
    <time>2016-07-31T14:05:26Z</time>
    </trkpt>
    <trkpt lat="47.528775" lon="9.742926">
    <ele>398</ele>
    <time>2016-07-31T14:05:48Z</time>
    </trkpt>
    <trkpt lat="47.527853" lon="9.743021">
    <ele>398</ele>
    <time>2016-07-31T14:06:10Z</time>
    </trkpt>
    <trkpt lat="47.527264" lon="9.743123">
    <ele>397</ele>
    <time>2016-07-31T14:06:24Z</time>
    </trkpt>
    <trkpt lat="47.527113" lon="9.74327">
    <ele>397</ele>
    <time>2016-07-31T14:06:28Z</time>
    </trkpt>
    <trkpt lat="47.526695" lon="9.743923">
    <ele>397</ele>
    <time>2016-07-31T14:06:42Z</time>
    </trkpt>
    <trkpt lat="47.526569" lon="9.744508">
    <ele>397</ele>
    <time>2016-07-31T14:06:52Z</time>
    </trkpt>
    <trkpt lat="47.526341" lon="9.745993">
    <ele>397</ele>
    <time>2016-07-31T14:07:17Z</time>
    </trkpt>
    <trkpt lat="47.526333" lon="9.745956">
    <ele>397</ele>
    <time>2016-07-31T14:07:17Z</time>
    </trkpt>
    <trkpt lat="47.525275" lon="9.747239">
    <ele>396</ele>
    <time>2016-07-31T14:07:49Z</time>
    </trkpt>
    <trkpt lat="47.523383" lon="9.749548">
    <ele>396</ele>
    <time>2016-07-31T14:08:47Z</time>
    </trkpt>
    <trkpt lat="47.522393" lon="9.750859">
    <ele>395</ele>
    <time>2016-07-31T14:09:18Z</time>
    </trkpt>
    <trkpt lat="47.521758" lon="9.751527">
    <ele>395</ele>
    <time>2016-07-31T14:09:37Z</time>
    </trkpt>
    <trkpt lat="47.520976" lon="9.751911">
    <ele>395</ele>
    <time>2016-07-31T14:09:56Z</time>
    </trkpt>
    <trkpt lat="47.519949" lon="9.752282">
    <ele>395</ele>
    <time>2016-07-31T14:10:21Z</time>
    </trkpt>
    <trkpt lat="47.518435" lon="9.752844">
    <ele>395</ele>
    <time>2016-07-31T14:10:58Z</time>
    </trkpt>
    <trkpt lat="47.518455" lon="9.752865">
    <ele>395</ele>
    <time>2016-07-31T14:10:58Z</time>
    </trkpt>
    <trkpt lat="47.516911" lon="9.753588">
    <ele>396</ele>
    <time>2016-07-31T14:11:37Z</time>
    </trkpt>
    <trkpt lat="47.515917" lon="9.753901">
    <ele>396</ele>
    <time>2016-07-31T14:12:01Z</time>
    </trkpt>
    <trkpt lat="47.51543" lon="9.753951">
    <ele>396</ele>
    <time>2016-07-31T14:12:12Z</time>
    </trkpt>
    <trkpt lat="47.512937" lon="9.753361">
    <ele>396</ele>
    <time>2016-07-31T14:13:11Z</time>
    </trkpt>
    <trkpt lat="47.511915" lon="9.752959">
    <ele>396</ele>
    <time>2016-07-31T14:13:36Z</time>
    </trkpt>
    <trkpt lat="47.510844" lon="9.752422">
    <ele>396</ele>
    <time>2016-07-31T14:14:03Z</time>
    </trkpt>
    <trkpt lat="47.509354" lon="9.751646">
    <ele>396</ele>
    <time>2016-07-31T14:14:40Z</time>
    </trkpt>
    <trkpt lat="47.508309" lon="9.750809">
    <ele>396</ele>
    <time>2016-07-31T14:15:08Z</time>
    </trkpt>
    <trkpt lat="47.507494" lon="9.750006">
    <ele>396</ele>
    <time>2016-07-31T14:15:31Z</time>
    </trkpt>
    <trkpt lat="47.506609" lon="9.748854">
    <ele>396</ele>
    <time>2016-07-31T14:15:59Z</time>
    </trkpt>
    <trkpt lat="47.505995" lon="9.747811">
    <ele>396</ele>
    <time>2016-07-31T14:16:21Z</time>
    </trkpt>
    <trkpt lat="47.505504" lon="9.746996">
    <ele>396</ele>
    <time>2016-07-31T14:16:38Z</time>
    </trkpt>
    <trkpt lat="47.505201" lon="9.746251">
    <ele>396</ele>
    <time>2016-07-31T14:16:52Z</time>
    </trkpt>
    <trkpt lat="47.504998" lon="9.74562">
    <ele>397</ele>
    <time>2016-07-31T14:17:03Z</time>
    </trkpt>
    <trkpt lat="47.504804" lon="9.744857">
    <ele>397</ele>
    <time>2016-07-31T14:17:16Z</time>
    </trkpt>
    <trkpt lat="47.504804" lon="9.744857">
    <ele>397</ele>
    <time>2016-07-31T14:17:16Z</time>
    </trkpt>
    <trkpt lat="47.50451" lon="9.743796">
    <ele>398</ele>
    <time>2016-07-31T14:17:35Z</time>
    </trkpt>
    <trkpt lat="47.503917" lon="9.741883">
    <ele>399</ele>
    <time>2016-07-31T14:18:08Z</time>
    </trkpt>
    <trkpt lat="47.503467" lon="9.740356">
    <ele>400</ele>
    <time>2016-07-31T14:18:35Z</time>
    </trkpt>
    <trkpt lat="47.503141" lon="9.739507">
    <ele>400</ele>
    <time>2016-07-31T14:18:50Z</time>
    </trkpt>
  </trkseg>
</trk>
</gpx>
